<?xml version="1.0" encoding="UTF-8" standalone="no" ?>
<gpx xmlns="http://www.topografix.com/GPX/1/1" xmlns:xsi="http://www.w3.org/2001/XMLSchema-instance" xsi:schemaLocation="http://www.topografix.com/GPX/1/1 http://www.topografix.com/GPX/1/1/gpx.xsd" version="1.1" creator="VisuGPX - https://www.visugpx.com">
  <metadata>
    <name>Grand Galbert</name>
  </metadata>
  <trk>
    <name><![CDATA[Grand Galbert_1]]></name>
    <trkseg>
      <trkpt lat="45.07341" lon="5.98103">
        <ele>1415.1</ele>
        <time>2018-02-23T07:31:31.000Z</time>
      </trkpt>
      <trkpt lat="45.07338" lon="5.98101">
        <ele>1415</ele>
        <time>2018-02-23T07:32:03.000Z</time>
      </trkpt>
      <trkpt lat="45.07335" lon="5.981">
        <ele>1415</ele>
        <time>2018-02-23T07:32:23.000Z</time>
      </trkpt>
      <trkpt lat="45.07337" lon="5.98097">
        <ele>1415</ele>
        <time>2018-02-23T07:32:36.000Z</time>
      </trkpt>
      <trkpt lat="45.07334" lon="5.98096">
        <ele>1415</ele>
        <time>2018-02-23T07:35:42.000Z</time>
      </trkpt>
      <trkpt lat="45.07334" lon="5.981">
        <ele>1415</ele>
        <time>2018-02-23T07:35:46.000Z</time>
      </trkpt>
      <trkpt lat="45.07337" lon="5.98098">
        <ele>1415</ele>
        <time>2018-02-23T07:36:00.000Z</time>
      </trkpt>
      <trkpt lat="45.07336" lon="5.98094">
        <ele>1415</ele>
        <time>2018-02-23T07:36:29.000Z</time>
      </trkpt>
      <trkpt lat="45.07333" lon="5.98096">
        <ele>1415</ele>
        <time>2018-02-23T07:36:35.000Z</time>
      </trkpt>
      <trkpt lat="45.07334" lon="5.981">
        <ele>1415</ele>
        <time>2018-02-23T07:36:37.000Z</time>
      </trkpt>
      <trkpt lat="45.07335" lon="5.98096">
        <ele>1415</ele>
        <time>2018-02-23T07:36:52.000Z</time>
      </trkpt>
      <trkpt lat="45.07338" lon="5.98095">
        <ele>1415</ele>
        <time>2018-02-23T07:36:55.000Z</time>
      </trkpt>
      <trkpt lat="45.07338" lon="5.98091">
        <ele>1415</ele>
        <time>2018-02-23T07:37:45.000Z</time>
      </trkpt>
      <trkpt lat="45.07336" lon="5.98094">
        <ele>1415</ele>
        <time>2018-02-23T07:38:16.000Z</time>
      </trkpt>
      <trkpt lat="45.07337" lon="5.9809">
        <ele>1415.3</ele>
        <time>2018-02-23T07:38:22.000Z</time>
      </trkpt>
      <trkpt lat="45.07338" lon="5.98086">
        <ele>1416.3</ele>
        <time>2018-02-23T07:38:25.000Z</time>
      </trkpt>
      <trkpt lat="45.07341" lon="5.98083">
        <ele>1417.4</ele>
        <time>2018-02-23T07:38:28.000Z</time>
      </trkpt>
      <trkpt lat="45.07343" lon="5.98079">
        <ele>1418.5</ele>
        <time>2018-02-23T07:38:31.000Z</time>
      </trkpt>
      <trkpt lat="45.07344" lon="5.98076">
        <ele>1419.4</ele>
        <time>2018-02-23T07:38:52.000Z</time>
      </trkpt>
      <trkpt lat="45.07347" lon="5.98072">
        <ele>1420.5</ele>
        <time>2018-02-23T07:38:57.000Z</time>
      </trkpt>
      <trkpt lat="45.07348" lon="5.98068">
        <ele>1421.3</ele>
        <time>2018-02-23T07:39:00.000Z</time>
      </trkpt>
      <trkpt lat="45.07348" lon="5.98064">
        <ele>1422.1</ele>
        <time>2018-02-23T07:39:03.000Z</time>
      </trkpt>
      <trkpt lat="45.07348" lon="5.9806">
        <ele>1422.9</ele>
        <time>2018-02-23T07:39:05.000Z</time>
      </trkpt>
      <trkpt lat="45.07347" lon="5.98056">
        <ele>1423.7</ele>
        <time>2018-02-23T07:39:08.000Z</time>
      </trkpt>
      <trkpt lat="45.07346" lon="5.98051">
        <ele>1424.6</ele>
        <time>2018-02-23T07:39:12.000Z</time>
      </trkpt>
      <trkpt lat="45.07344" lon="5.98049">
        <ele>1425.2</ele>
        <time>2018-02-23T07:39:15.000Z</time>
      </trkpt>
      <trkpt lat="45.07341" lon="5.98046">
        <ele>1426</ele>
        <time>2018-02-23T07:39:19.000Z</time>
      </trkpt>
      <trkpt lat="45.07337" lon="5.98046">
        <ele>1426.6</ele>
        <time>2018-02-23T07:39:23.000Z</time>
      </trkpt>
      <trkpt lat="45.07334" lon="5.98047">
        <ele>1427.5</ele>
        <time>2018-02-23T07:39:27.000Z</time>
      </trkpt>
      <trkpt lat="45.07331" lon="5.98046">
        <ele>1428</ele>
        <time>2018-02-23T07:39:29.000Z</time>
      </trkpt>
      <trkpt lat="45.07329" lon="5.98048">
        <ele>1428.6</ele>
        <time>2018-02-23T07:39:32.000Z</time>
      </trkpt>
      <trkpt lat="45.07325" lon="5.98049">
        <ele>1429.2</ele>
        <time>2018-02-23T07:39:35.000Z</time>
      </trkpt>
      <trkpt lat="45.07322" lon="5.98051">
        <ele>1429.8</ele>
        <time>2018-02-23T07:39:38.000Z</time>
      </trkpt>
      <trkpt lat="45.07318" lon="5.98051">
        <ele>1430.2</ele>
        <time>2018-02-23T07:39:42.000Z</time>
      </trkpt>
      <trkpt lat="45.07315" lon="5.98051">
        <ele>1430.6</ele>
        <time>2018-02-23T07:39:49.000Z</time>
      </trkpt>
      <trkpt lat="45.07312" lon="5.98055">
        <ele>1431.1</ele>
        <time>2018-02-23T07:40:39.000Z</time>
      </trkpt>
      <trkpt lat="45.07309" lon="5.98056">
        <ele>1431.6</ele>
        <time>2018-02-23T07:40:41.000Z</time>
      </trkpt>
      <trkpt lat="45.07306" lon="5.98055">
        <ele>1432.1</ele>
        <time>2018-02-23T07:40:43.000Z</time>
      </trkpt>
      <trkpt lat="45.07302" lon="5.98053">
        <ele>1432.9</ele>
        <time>2018-02-23T07:40:47.000Z</time>
      </trkpt>
      <trkpt lat="45.07299" lon="5.98051">
        <ele>1433.5</ele>
        <time>2018-02-23T07:40:51.000Z</time>
      </trkpt>
      <trkpt lat="45.07296" lon="5.98048">
        <ele>1434.1</ele>
        <time>2018-02-23T07:40:54.000Z</time>
      </trkpt>
      <trkpt lat="45.07293" lon="5.98046">
        <ele>1434.7</ele>
        <time>2018-02-23T07:41:00.000Z</time>
      </trkpt>
      <trkpt lat="45.0729" lon="5.98047">
        <ele>1435.2</ele>
        <time>2018-02-23T07:41:11.000Z</time>
      </trkpt>
      <trkpt lat="45.07288" lon="5.98042">
        <ele>1435.8</ele>
        <time>2018-02-23T07:41:14.000Z</time>
      </trkpt>
      <trkpt lat="45.07286" lon="5.98037">
        <ele>1436.6</ele>
        <time>2018-02-23T07:41:23.000Z</time>
      </trkpt>
      <trkpt lat="45.07284" lon="5.98033">
        <ele>1437.1</ele>
        <time>2018-02-23T07:41:26.000Z</time>
      </trkpt>
      <trkpt lat="45.07283" lon="5.9803">
        <ele>1437.6</ele>
        <time>2018-02-23T07:41:29.000Z</time>
      </trkpt>
      <trkpt lat="45.07282" lon="5.98026">
        <ele>1438</ele>
        <time>2018-02-23T07:41:31.000Z</time>
      </trkpt>
      <trkpt lat="45.07281" lon="5.98021">
        <ele>1438.4</ele>
        <time>2018-02-23T07:41:34.000Z</time>
      </trkpt>
      <trkpt lat="45.07281" lon="5.98017">
        <ele>1438.7</ele>
        <time>2018-02-23T07:41:37.000Z</time>
      </trkpt>
      <trkpt lat="45.0728" lon="5.98013">
        <ele>1439</ele>
        <time>2018-02-23T07:41:40.000Z</time>
      </trkpt>
      <trkpt lat="45.07279" lon="5.98008">
        <ele>1439.4</ele>
        <time>2018-02-23T07:41:43.000Z</time>
      </trkpt>
      <trkpt lat="45.07278" lon="5.98004">
        <ele>1439.7</ele>
        <time>2018-02-23T07:41:47.000Z</time>
      </trkpt>
      <trkpt lat="45.07277" lon="5.98">
        <ele>1440</ele>
        <time>2018-02-23T07:41:50.000Z</time>
      </trkpt>
      <trkpt lat="45.07276" lon="5.97996">
        <ele>1440.3</ele>
        <time>2018-02-23T07:41:53.000Z</time>
      </trkpt>
      <trkpt lat="45.07275" lon="5.97992">
        <ele>1440.7</ele>
        <time>2018-02-23T07:41:56.000Z</time>
      </trkpt>
      <trkpt lat="45.07274" lon="5.97988">
        <ele>1440.9</ele>
        <time>2018-02-23T07:41:58.000Z</time>
      </trkpt>
      <trkpt lat="45.07276" lon="5.97984">
        <ele>1441.2</ele>
        <time>2018-02-23T07:41:59.000Z</time>
      </trkpt>
      <trkpt lat="45.07275" lon="5.97979">
        <ele>1441.4</ele>
        <time>2018-02-23T07:42:02.000Z</time>
      </trkpt>
      <trkpt lat="45.07274" lon="5.97975">
        <ele>1441.6</ele>
        <time>2018-02-23T07:42:06.000Z</time>
      </trkpt>
      <trkpt lat="45.07272" lon="5.97972">
        <ele>1441.8</ele>
        <time>2018-02-23T07:42:08.000Z</time>
      </trkpt>
      <trkpt lat="45.07269" lon="5.97969">
        <ele>1442</ele>
        <time>2018-02-23T07:42:10.000Z</time>
      </trkpt>
      <trkpt lat="45.07269" lon="5.97965">
        <ele>1442.2</ele>
        <time>2018-02-23T07:42:12.000Z</time>
      </trkpt>
      <trkpt lat="45.07267" lon="5.97963">
        <ele>1442.4</ele>
        <time>2018-02-23T07:42:14.000Z</time>
      </trkpt>
      <trkpt lat="45.07265" lon="5.97959">
        <ele>1442.6</ele>
        <time>2018-02-23T07:42:17.000Z</time>
      </trkpt>
      <trkpt lat="45.07262" lon="5.97956">
        <ele>1442.9</ele>
        <time>2018-02-23T07:42:20.000Z</time>
      </trkpt>
      <trkpt lat="45.07258" lon="5.97953">
        <ele>1443.1</ele>
        <time>2018-02-23T07:42:23.000Z</time>
      </trkpt>
      <trkpt lat="45.07256" lon="5.97951">
        <ele>1443.4</ele>
        <time>2018-02-23T07:42:26.000Z</time>
      </trkpt>
      <trkpt lat="45.07252" lon="5.97952">
        <ele>1443.7</ele>
        <time>2018-02-23T07:42:30.000Z</time>
      </trkpt>
      <trkpt lat="45.0725" lon="5.97955">
        <ele>1444</ele>
        <time>2018-02-23T07:42:32.000Z</time>
      </trkpt>
      <trkpt lat="45.07248" lon="5.97958">
        <ele>1444.3</ele>
        <time>2018-02-23T07:42:34.000Z</time>
      </trkpt>
      <trkpt lat="45.07245" lon="5.97961">
        <ele>1444.7</ele>
        <time>2018-02-23T07:42:36.000Z</time>
      </trkpt>
      <trkpt lat="45.07242" lon="5.97963">
        <ele>1445.2</ele>
        <time>2018-02-23T07:42:39.000Z</time>
      </trkpt>
      <trkpt lat="45.07239" lon="5.97966">
        <ele>1445.8</ele>
        <time>2018-02-23T07:42:42.000Z</time>
      </trkpt>
      <trkpt lat="45.07235" lon="5.97971">
        <ele>1446.6</ele>
        <time>2018-02-23T07:42:46.000Z</time>
      </trkpt>
      <trkpt lat="45.07232" lon="5.97973">
        <ele>1447.3</ele>
        <time>2018-02-23T07:42:49.000Z</time>
      </trkpt>
      <trkpt lat="45.07229" lon="5.97976">
        <ele>1448.2</ele>
        <time>2018-02-23T07:42:52.000Z</time>
      </trkpt>
      <trkpt lat="45.07226" lon="5.97979">
        <ele>1448.4</ele>
        <time>2018-02-23T07:42:54.000Z</time>
      </trkpt>
      <trkpt lat="45.07223" lon="5.97981">
        <ele>1448.8</ele>
        <time>2018-02-23T07:42:57.000Z</time>
      </trkpt>
      <trkpt lat="45.07219" lon="5.97984">
        <ele>1449.4</ele>
        <time>2018-02-23T07:43:01.000Z</time>
      </trkpt>
      <trkpt lat="45.07216" lon="5.97986">
        <ele>1450.1</ele>
        <time>2018-02-23T07:43:09.000Z</time>
      </trkpt>
      <trkpt lat="45.07215" lon="5.9799">
        <ele>1450.7</ele>
        <time>2018-02-23T07:43:46.000Z</time>
      </trkpt>
      <trkpt lat="45.07212" lon="5.97993">
        <ele>1451.4</ele>
        <time>2018-02-23T07:43:53.000Z</time>
      </trkpt>
      <trkpt lat="45.0721" lon="5.97994">
        <ele>1452</ele>
        <time>2018-02-23T07:43:56.000Z</time>
      </trkpt>
      <trkpt lat="45.07206" lon="5.97992">
        <ele>1452.4</ele>
        <time>2018-02-23T07:44:01.000Z</time>
      </trkpt>
      <trkpt lat="45.07203" lon="5.97992">
        <ele>1452.7</ele>
        <time>2018-02-23T07:44:04.000Z</time>
      </trkpt>
      <trkpt lat="45.07201" lon="5.97989">
        <ele>1453</ele>
        <time>2018-02-23T07:44:08.000Z</time>
      </trkpt>
      <trkpt lat="45.07199" lon="5.97985">
        <ele>1453.3</ele>
        <time>2018-02-23T07:44:11.000Z</time>
      </trkpt>
      <trkpt lat="45.07197" lon="5.97983">
        <ele>1453.6</ele>
        <time>2018-02-23T07:44:14.000Z</time>
      </trkpt>
      <trkpt lat="45.07194" lon="5.97984">
        <ele>1454</ele>
        <time>2018-02-23T07:44:17.000Z</time>
      </trkpt>
      <trkpt lat="45.07192" lon="5.9798">
        <ele>1454.5</ele>
        <time>2018-02-23T07:44:20.000Z</time>
      </trkpt>
      <trkpt lat="45.0719" lon="5.97978">
        <ele>1454.7</ele>
        <time>2018-02-23T07:44:24.000Z</time>
      </trkpt>
      <trkpt lat="45.07187" lon="5.97976">
        <ele>1454.9</ele>
        <time>2018-02-23T07:44:27.000Z</time>
      </trkpt>
      <trkpt lat="45.07183" lon="5.97976">
        <ele>1455.1</ele>
        <time>2018-02-23T07:44:30.000Z</time>
      </trkpt>
      <trkpt lat="45.0718" lon="5.97974">
        <ele>1455.3</ele>
        <time>2018-02-23T07:44:34.000Z</time>
      </trkpt>
      <trkpt lat="45.07177" lon="5.97973">
        <ele>1455.5</ele>
        <time>2018-02-23T07:44:38.000Z</time>
      </trkpt>
      <trkpt lat="45.07175" lon="5.97971">
        <ele>1455.7</ele>
        <time>2018-02-23T07:44:40.000Z</time>
      </trkpt>
      <trkpt lat="45.07172" lon="5.97971">
        <ele>1456.2</ele>
        <time>2018-02-23T07:44:43.000Z</time>
      </trkpt>
      <trkpt lat="45.07169" lon="5.97968">
        <ele>1456.7</ele>
        <time>2018-02-23T07:44:46.000Z</time>
      </trkpt>
      <trkpt lat="45.07167" lon="5.97962">
        <ele>1457.3</ele>
        <time>2018-02-23T07:44:49.000Z</time>
      </trkpt>
      <trkpt lat="45.07165" lon="5.97959">
        <ele>1457.5</ele>
        <time>2018-02-23T07:44:51.000Z</time>
      </trkpt>
      <trkpt lat="45.07161" lon="5.9796">
        <ele>1457.8</ele>
        <time>2018-02-23T07:44:55.000Z</time>
      </trkpt>
      <trkpt lat="45.07158" lon="5.97961">
        <ele>1458.1</ele>
        <time>2018-02-23T07:44:59.000Z</time>
      </trkpt>
      <trkpt lat="45.07156" lon="5.97958">
        <ele>1458.8</ele>
        <time>2018-02-23T07:45:02.000Z</time>
      </trkpt>
      <trkpt lat="45.07154" lon="5.97956">
        <ele>1459.4</ele>
        <time>2018-02-23T07:45:04.000Z</time>
      </trkpt>
      <trkpt lat="45.07151" lon="5.97954">
        <ele>1459.8</ele>
        <time>2018-02-23T07:45:07.000Z</time>
      </trkpt>
      <trkpt lat="45.07148" lon="5.97954">
        <ele>1460.5</ele>
        <time>2018-02-23T07:45:10.000Z</time>
      </trkpt>
      <trkpt lat="45.07145" lon="5.97951">
        <ele>1461.3</ele>
        <time>2018-02-23T07:45:14.000Z</time>
      </trkpt>
      <trkpt lat="45.07142" lon="5.97948">
        <ele>1461.9</ele>
        <time>2018-02-23T07:45:17.000Z</time>
      </trkpt>
      <trkpt lat="45.0714" lon="5.97945">
        <ele>1462.4</ele>
        <time>2018-02-23T07:45:21.000Z</time>
      </trkpt>
      <trkpt lat="45.07138" lon="5.97942">
        <ele>1462.8</ele>
        <time>2018-02-23T07:45:23.000Z</time>
      </trkpt>
      <trkpt lat="45.07135" lon="5.97941">
        <ele>1463.4</ele>
        <time>2018-02-23T07:45:26.000Z</time>
      </trkpt>
      <trkpt lat="45.07132" lon="5.97939">
        <ele>1464</ele>
        <time>2018-02-23T07:45:28.000Z</time>
      </trkpt>
      <trkpt lat="45.0713" lon="5.97936">
        <ele>1464.8</ele>
        <time>2018-02-23T07:45:32.000Z</time>
      </trkpt>
      <trkpt lat="45.07127" lon="5.97933">
        <ele>1465.7</ele>
        <time>2018-02-23T07:45:36.000Z</time>
      </trkpt>
      <trkpt lat="45.07124" lon="5.97932">
        <ele>1466.5</ele>
        <time>2018-02-23T07:45:39.000Z</time>
      </trkpt>
      <trkpt lat="45.07121" lon="5.97929">
        <ele>1467.4</ele>
        <time>2018-02-23T07:45:42.000Z</time>
      </trkpt>
      <trkpt lat="45.07119" lon="5.97926">
        <ele>1468</ele>
        <time>2018-02-23T07:45:47.000Z</time>
      </trkpt>
      <trkpt lat="45.07118" lon="5.97922">
        <ele>1468.3</ele>
        <time>2018-02-23T07:45:51.000Z</time>
      </trkpt>
      <trkpt lat="45.07116" lon="5.97918">
        <ele>1468.4</ele>
        <time>2018-02-23T07:45:57.000Z</time>
      </trkpt>
      <trkpt lat="45.07118" lon="5.97914">
        <ele>1468.5</ele>
        <time>2018-02-23T07:48:49.000Z</time>
      </trkpt>
      <trkpt lat="45.07118" lon="5.9791">
        <ele>1468.6</ele>
        <time>2018-02-23T07:48:51.000Z</time>
      </trkpt>
      <trkpt lat="45.07118" lon="5.97904">
        <ele>1468.7</ele>
        <time>2018-02-23T07:48:54.000Z</time>
      </trkpt>
      <trkpt lat="45.07117" lon="5.97899">
        <ele>1468.8</ele>
        <time>2018-02-23T07:48:57.000Z</time>
      </trkpt>
      <trkpt lat="45.07116" lon="5.97895">
        <ele>1468.8</ele>
        <time>2018-02-23T07:48:59.000Z</time>
      </trkpt>
      <trkpt lat="45.07115" lon="5.97891">
        <ele>1468.9</ele>
        <time>2018-02-23T07:49:01.000Z</time>
      </trkpt>
      <trkpt lat="45.07115" lon="5.97887">
        <ele>1468.9</ele>
        <time>2018-02-23T07:49:04.000Z</time>
      </trkpt>
      <trkpt lat="45.07114" lon="5.97883">
        <ele>1468.9</ele>
        <time>2018-02-23T07:49:06.000Z</time>
      </trkpt>
      <trkpt lat="45.07112" lon="5.97878">
        <ele>1468.9</ele>
        <time>2018-02-23T07:49:09.000Z</time>
      </trkpt>
      <trkpt lat="45.07112" lon="5.97874">
        <ele>1469</ele>
        <time>2018-02-23T07:49:11.000Z</time>
      </trkpt>
      <trkpt lat="45.07111" lon="5.97869">
        <ele>1469</ele>
        <time>2018-02-23T07:49:14.000Z</time>
      </trkpt>
      <trkpt lat="45.0711" lon="5.97866">
        <ele>1469</ele>
        <time>2018-02-23T07:49:17.000Z</time>
      </trkpt>
      <trkpt lat="45.07109" lon="5.97861">
        <ele>1469.1</ele>
        <time>2018-02-23T07:49:20.000Z</time>
      </trkpt>
      <trkpt lat="45.07109" lon="5.97857">
        <ele>1469.1</ele>
        <time>2018-02-23T07:49:24.000Z</time>
      </trkpt>
      <trkpt lat="45.07108" lon="5.97853">
        <ele>1469.1</ele>
        <time>2018-02-23T07:49:28.000Z</time>
      </trkpt>
      <trkpt lat="45.07105" lon="5.97855">
        <ele>1469.2</ele>
        <time>2018-02-23T07:50:07.000Z</time>
      </trkpt>
      <trkpt lat="45.07102" lon="5.97856">
        <ele>1469.2</ele>
        <time>2018-02-23T07:50:11.000Z</time>
      </trkpt>
      <trkpt lat="45.07098" lon="5.97857">
        <ele>1469.3</ele>
        <time>2018-02-23T07:50:14.000Z</time>
      </trkpt>
      <trkpt lat="45.07095" lon="5.97856">
        <ele>1469.3</ele>
        <time>2018-02-23T07:50:18.000Z</time>
      </trkpt>
      <trkpt lat="45.07092" lon="5.97856">
        <ele>1469.4</ele>
        <time>2018-02-23T07:50:21.000Z</time>
      </trkpt>
      <trkpt lat="45.07088" lon="5.97856">
        <ele>1469.4</ele>
        <time>2018-02-23T07:50:25.000Z</time>
      </trkpt>
      <trkpt lat="45.07085" lon="5.97857">
        <ele>1469.5</ele>
        <time>2018-02-23T07:50:28.000Z</time>
      </trkpt>
      <trkpt lat="45.07083" lon="5.97855">
        <ele>1469.5</ele>
        <time>2018-02-23T07:51:09.000Z</time>
      </trkpt>
      <trkpt lat="45.07078" lon="5.97856">
        <ele>1469.6</ele>
        <time>2018-02-23T07:51:14.000Z</time>
      </trkpt>
      <trkpt lat="45.07075" lon="5.97856">
        <ele>1469.7</ele>
        <time>2018-02-23T07:51:17.000Z</time>
      </trkpt>
      <trkpt lat="45.07072" lon="5.97857">
        <ele>1469.7</ele>
        <time>2018-02-23T07:51:19.000Z</time>
      </trkpt>
      <trkpt lat="45.0707" lon="5.97858">
        <ele>1469.8</ele>
        <time>2018-02-23T07:51:21.000Z</time>
      </trkpt>
      <trkpt lat="45.07067" lon="5.97859">
        <ele>1469.8</ele>
        <time>2018-02-23T07:51:24.000Z</time>
      </trkpt>
      <trkpt lat="45.07063" lon="5.97859">
        <ele>1470</ele>
        <time>2018-02-23T07:51:27.000Z</time>
      </trkpt>
      <trkpt lat="45.07059" lon="5.9786">
        <ele>1470.2</ele>
        <time>2018-02-23T07:51:30.000Z</time>
      </trkpt>
      <trkpt lat="45.07056" lon="5.97862">
        <ele>1470.5</ele>
        <time>2018-02-23T07:51:33.000Z</time>
      </trkpt>
      <trkpt lat="45.07053" lon="5.97862">
        <ele>1470.7</ele>
        <time>2018-02-23T07:51:36.000Z</time>
      </trkpt>
      <trkpt lat="45.0705" lon="5.97863">
        <ele>1471</ele>
        <time>2018-02-23T07:51:38.000Z</time>
      </trkpt>
      <trkpt lat="45.07047" lon="5.97863">
        <ele>1471.4</ele>
        <time>2018-02-23T07:51:40.000Z</time>
      </trkpt>
      <trkpt lat="45.07043" lon="5.97864">
        <ele>1471.9</ele>
        <time>2018-02-23T07:51:43.000Z</time>
      </trkpt>
      <trkpt lat="45.0704" lon="5.97866">
        <ele>1472.4</ele>
        <time>2018-02-23T07:51:46.000Z</time>
      </trkpt>
      <trkpt lat="45.07037" lon="5.97867">
        <ele>1473</ele>
        <time>2018-02-23T07:51:48.000Z</time>
      </trkpt>
      <trkpt lat="45.07034" lon="5.97866">
        <ele>1473.7</ele>
        <time>2018-02-23T07:51:51.000Z</time>
      </trkpt>
      <trkpt lat="45.07031" lon="5.97869">
        <ele>1474.3</ele>
        <time>2018-02-23T07:51:54.000Z</time>
      </trkpt>
      <trkpt lat="45.07028" lon="5.9787">
        <ele>1475</ele>
        <time>2018-02-23T07:51:57.000Z</time>
      </trkpt>
      <trkpt lat="45.07025" lon="5.97872">
        <ele>1475.7</ele>
        <time>2018-02-23T07:52:00.000Z</time>
      </trkpt>
      <trkpt lat="45.07023" lon="5.97874">
        <ele>1476.3</ele>
        <time>2018-02-23T07:52:05.000Z</time>
      </trkpt>
      <trkpt lat="45.0702" lon="5.97875">
        <ele>1477.1</ele>
        <time>2018-02-23T07:52:08.000Z</time>
      </trkpt>
      <trkpt lat="45.07017" lon="5.97875">
        <ele>1477.8</ele>
        <time>2018-02-23T07:52:10.000Z</time>
      </trkpt>
      <trkpt lat="45.07014" lon="5.97875">
        <ele>1478.5</ele>
        <time>2018-02-23T07:52:13.000Z</time>
      </trkpt>
      <trkpt lat="45.07011" lon="5.97875">
        <ele>1479.2</ele>
        <time>2018-02-23T07:52:16.000Z</time>
      </trkpt>
      <trkpt lat="45.07007" lon="5.97876">
        <ele>1480</ele>
        <time>2018-02-23T07:52:18.000Z</time>
      </trkpt>
      <trkpt lat="45.07004" lon="5.97877">
        <ele>1480.9</ele>
        <time>2018-02-23T07:52:22.000Z</time>
      </trkpt>
      <trkpt lat="45.07001" lon="5.97879">
        <ele>1481.7</ele>
        <time>2018-02-23T07:52:45.000Z</time>
      </trkpt>
      <trkpt lat="45.06999" lon="5.97877">
        <ele>1482.3</ele>
        <time>2018-02-23T07:52:57.000Z</time>
      </trkpt>
      <trkpt lat="45.06994" lon="5.97876">
        <ele>1483.2</ele>
        <time>2018-02-23T07:53:22.000Z</time>
      </trkpt>
      <trkpt lat="45.06991" lon="5.97875">
        <ele>1483.8</ele>
        <time>2018-02-23T07:53:24.000Z</time>
      </trkpt>
      <trkpt lat="45.06989" lon="5.97878">
        <ele>1484.6</ele>
        <time>2018-02-23T07:53:34.000Z</time>
      </trkpt>
      <trkpt lat="45.06987" lon="5.97882">
        <ele>1485.3</ele>
        <time>2018-02-23T07:53:36.000Z</time>
      </trkpt>
      <trkpt lat="45.06984" lon="5.97878">
        <ele>1485.9</ele>
        <time>2018-02-23T07:53:46.000Z</time>
      </trkpt>
      <trkpt lat="45.06983" lon="5.97874">
        <ele>1486</ele>
        <time>2018-02-23T07:53:48.000Z</time>
      </trkpt>
      <trkpt lat="45.06983" lon="5.9787">
        <ele>1486</ele>
        <time>2018-02-23T07:53:49.000Z</time>
      </trkpt>
      <trkpt lat="45.06981" lon="5.97867">
        <ele>1486.1</ele>
        <time>2018-02-23T07:53:51.000Z</time>
      </trkpt>
      <trkpt lat="45.06978" lon="5.97864">
        <ele>1486.1</ele>
        <time>2018-02-23T07:53:54.000Z</time>
      </trkpt>
      <trkpt lat="45.06977" lon="5.97859">
        <ele>1486.1</ele>
        <time>2018-02-23T07:53:57.000Z</time>
      </trkpt>
      <trkpt lat="45.06974" lon="5.9786">
        <ele>1486</ele>
        <time>2018-02-23T07:53:59.000Z</time>
      </trkpt>
      <trkpt lat="45.0697" lon="5.97859">
        <ele>1485.9</ele>
        <time>2018-02-23T07:54:01.000Z</time>
      </trkpt>
      <trkpt lat="45.06967" lon="5.97859">
        <ele>1485.8</ele>
        <time>2018-02-23T07:54:03.000Z</time>
      </trkpt>
      <trkpt lat="45.06963" lon="5.97857">
        <ele>1485.6</ele>
        <time>2018-02-23T07:54:05.000Z</time>
      </trkpt>
      <trkpt lat="45.0696" lon="5.97854">
        <ele>1485.4</ele>
        <time>2018-02-23T07:54:08.000Z</time>
      </trkpt>
      <trkpt lat="45.06957" lon="5.97852">
        <ele>1485.3</ele>
        <time>2018-02-23T07:54:11.000Z</time>
      </trkpt>
      <trkpt lat="45.06953" lon="5.97849">
        <ele>1485.2</ele>
        <time>2018-02-23T07:54:13.000Z</time>
      </trkpt>
      <trkpt lat="45.06951" lon="5.97846">
        <ele>1485.2</ele>
        <time>2018-02-23T07:54:15.000Z</time>
      </trkpt>
      <trkpt lat="45.06947" lon="5.97844">
        <ele>1485.1</ele>
        <time>2018-02-23T07:54:17.000Z</time>
      </trkpt>
      <trkpt lat="45.06944" lon="5.97841">
        <ele>1485.1</ele>
        <time>2018-02-23T07:54:19.000Z</time>
      </trkpt>
      <trkpt lat="45.06941" lon="5.97838">
        <ele>1485</ele>
        <time>2018-02-23T07:54:22.000Z</time>
      </trkpt>
      <trkpt lat="45.06938" lon="5.97835">
        <ele>1485</ele>
        <time>2018-02-23T07:54:24.000Z</time>
      </trkpt>
      <trkpt lat="45.06936" lon="5.97832">
        <ele>1485</ele>
        <time>2018-02-23T07:54:26.000Z</time>
      </trkpt>
      <trkpt lat="45.06933" lon="5.9783">
        <ele>1485</ele>
        <time>2018-02-23T07:54:28.000Z</time>
      </trkpt>
      <trkpt lat="45.0693" lon="5.97826">
        <ele>1485</ele>
        <time>2018-02-23T07:54:30.000Z</time>
      </trkpt>
      <trkpt lat="45.06927" lon="5.97824">
        <ele>1485</ele>
        <time>2018-02-23T07:54:32.000Z</time>
      </trkpt>
      <trkpt lat="45.06925" lon="5.97822">
        <ele>1485</ele>
        <time>2018-02-23T07:54:34.000Z</time>
      </trkpt>
      <trkpt lat="45.06922" lon="5.9782">
        <ele>1485</ele>
        <time>2018-02-23T07:54:36.000Z</time>
      </trkpt>
      <trkpt lat="45.06919" lon="5.97817">
        <ele>1485</ele>
        <time>2018-02-23T07:54:38.000Z</time>
      </trkpt>
      <trkpt lat="45.0692" lon="5.97813">
        <ele>1485</ele>
        <time>2018-02-23T07:54:40.000Z</time>
      </trkpt>
      <trkpt lat="45.06918" lon="5.97809">
        <ele>1485</ele>
        <time>2018-02-23T07:54:42.000Z</time>
      </trkpt>
      <trkpt lat="45.06917" lon="5.97805">
        <ele>1485</ele>
        <time>2018-02-23T07:54:45.000Z</time>
      </trkpt>
      <trkpt lat="45.06916" lon="5.97801">
        <ele>1485</ele>
        <time>2018-02-23T07:54:47.000Z</time>
      </trkpt>
      <trkpt lat="45.06914" lon="5.97797">
        <ele>1485</ele>
        <time>2018-02-23T07:54:50.000Z</time>
      </trkpt>
      <trkpt lat="45.06912" lon="5.97793">
        <ele>1485</ele>
        <time>2018-02-23T07:54:53.000Z</time>
      </trkpt>
      <trkpt lat="45.0691" lon="5.97791">
        <ele>1485</ele>
        <time>2018-02-23T07:54:56.000Z</time>
      </trkpt>
      <trkpt lat="45.06907" lon="5.97791">
        <ele>1485.1</ele>
        <time>2018-02-23T07:54:58.000Z</time>
      </trkpt>
      <trkpt lat="45.06903" lon="5.97791">
        <ele>1485.2</ele>
        <time>2018-02-23T07:55:07.000Z</time>
      </trkpt>
      <trkpt lat="45.069" lon="5.97792">
        <ele>1485.3</ele>
        <time>2018-02-23T07:55:09.000Z</time>
      </trkpt>
      <trkpt lat="45.06896" lon="5.97794">
        <ele>1485.4</ele>
        <time>2018-02-23T07:55:12.000Z</time>
      </trkpt>
      <trkpt lat="45.06894" lon="5.97797">
        <ele>1485.6</ele>
        <time>2018-02-23T07:55:36.000Z</time>
      </trkpt>
      <trkpt lat="45.06892" lon="5.978">
        <ele>1485.8</ele>
        <time>2018-02-23T07:55:44.000Z</time>
      </trkpt>
      <trkpt lat="45.06891" lon="5.97804">
        <ele>1485.9</ele>
        <time>2018-02-23T07:55:47.000Z</time>
      </trkpt>
      <trkpt lat="45.06889" lon="5.97808">
        <ele>1486.1</ele>
        <time>2018-02-23T07:55:58.000Z</time>
      </trkpt>
      <trkpt lat="45.06887" lon="5.97811">
        <ele>1486.4</ele>
        <time>2018-02-23T07:56:06.000Z</time>
      </trkpt>
      <trkpt lat="45.06885" lon="5.97814">
        <ele>1487.1</ele>
        <time>2018-02-23T07:56:14.000Z</time>
      </trkpt>
      <trkpt lat="45.06885" lon="5.97819">
        <ele>1488</ele>
        <time>2018-02-23T07:56:17.000Z</time>
      </trkpt>
      <trkpt lat="45.06883" lon="5.97825">
        <ele>1489.1</ele>
        <time>2018-02-23T07:56:20.000Z</time>
      </trkpt>
      <trkpt lat="45.06882" lon="5.97829">
        <ele>1489.9</ele>
        <time>2018-02-23T07:56:22.000Z</time>
      </trkpt>
      <trkpt lat="45.06881" lon="5.97834">
        <ele>1490.5</ele>
        <time>2018-02-23T07:56:25.000Z</time>
      </trkpt>
      <trkpt lat="45.0688" lon="5.97839">
        <ele>1491.7</ele>
        <time>2018-02-23T07:56:28.000Z</time>
      </trkpt>
      <trkpt lat="45.0688" lon="5.97843">
        <ele>1492.4</ele>
        <time>2018-02-23T07:56:30.000Z</time>
      </trkpt>
      <trkpt lat="45.06881" lon="5.97848">
        <ele>1493.2</ele>
        <time>2018-02-23T07:56:33.000Z</time>
      </trkpt>
      <trkpt lat="45.06882" lon="5.97852">
        <ele>1494</ele>
        <time>2018-02-23T07:56:36.000Z</time>
      </trkpt>
      <trkpt lat="45.06884" lon="5.97857">
        <ele>1494.6</ele>
        <time>2018-02-23T07:56:38.000Z</time>
      </trkpt>
      <trkpt lat="45.06884" lon="5.97861">
        <ele>1495.1</ele>
        <time>2018-02-23T07:56:40.000Z</time>
      </trkpt>
      <trkpt lat="45.06884" lon="5.97866">
        <ele>1495.7</ele>
        <time>2018-02-23T07:56:43.000Z</time>
      </trkpt>
      <trkpt lat="45.06885" lon="5.97871">
        <ele>1495.9</ele>
        <time>2018-02-23T07:56:46.000Z</time>
      </trkpt>
      <trkpt lat="45.06886" lon="5.97876">
        <ele>1496</ele>
        <time>2018-02-23T07:56:49.000Z</time>
      </trkpt>
      <trkpt lat="45.06886" lon="5.9788">
        <ele>1496</ele>
        <time>2018-02-23T07:56:51.000Z</time>
      </trkpt>
      <trkpt lat="45.06886" lon="5.97885">
        <ele>1496</ele>
        <time>2018-02-23T07:56:54.000Z</time>
      </trkpt>
      <trkpt lat="45.06885" lon="5.97889">
        <ele>1496</ele>
        <time>2018-02-23T07:56:55.000Z</time>
      </trkpt>
      <trkpt lat="45.06883" lon="5.97893">
        <ele>1496</ele>
        <time>2018-02-23T07:56:57.000Z</time>
      </trkpt>
      <trkpt lat="45.06881" lon="5.97895">
        <ele>1495.8</ele>
        <time>2018-02-23T07:56:59.000Z</time>
      </trkpt>
      <trkpt lat="45.06877" lon="5.979">
        <ele>1495.4</ele>
        <time>2018-02-23T07:57:03.000Z</time>
      </trkpt>
      <trkpt lat="45.06877" lon="5.97895">
        <ele>1495.1</ele>
        <time>2018-02-23T07:57:04.000Z</time>
      </trkpt>
      <trkpt lat="45.06873" lon="5.97897">
        <ele>1494.9</ele>
        <time>2018-02-23T07:58:20.000Z</time>
      </trkpt>
      <trkpt lat="45.0687" lon="5.97897">
        <ele>1494.8</ele>
        <time>2018-02-23T07:58:23.000Z</time>
      </trkpt>
      <trkpt lat="45.06867" lon="5.97898">
        <ele>1494.7</ele>
        <time>2018-02-23T07:58:26.000Z</time>
      </trkpt>
      <trkpt lat="45.06864" lon="5.97896">
        <ele>1494.6</ele>
        <time>2018-02-23T07:58:51.000Z</time>
      </trkpt>
      <trkpt lat="45.0686" lon="5.97896">
        <ele>1494.5</ele>
        <time>2018-02-23T07:58:54.000Z</time>
      </trkpt>
      <trkpt lat="45.06858" lon="5.97897">
        <ele>1494.5</ele>
        <time>2018-02-23T07:58:58.000Z</time>
      </trkpt>
      <trkpt lat="45.06853" lon="5.97896">
        <ele>1494.4</ele>
        <time>2018-02-23T07:59:01.000Z</time>
      </trkpt>
      <trkpt lat="45.06851" lon="5.97896">
        <ele>1494.3</ele>
        <time>2018-02-23T07:59:03.000Z</time>
      </trkpt>
      <trkpt lat="45.06848" lon="5.97896">
        <ele>1494.3</ele>
        <time>2018-02-23T07:59:05.000Z</time>
      </trkpt>
      <trkpt lat="45.06845" lon="5.97895">
        <ele>1494.2</ele>
        <time>2018-02-23T07:59:07.000Z</time>
      </trkpt>
      <trkpt lat="45.06842" lon="5.97896">
        <ele>1494.2</ele>
        <time>2018-02-23T07:59:10.000Z</time>
      </trkpt>
      <trkpt lat="45.06839" lon="5.97895">
        <ele>1494.1</ele>
        <time>2018-02-23T07:59:13.000Z</time>
      </trkpt>
      <trkpt lat="45.06835" lon="5.97895">
        <ele>1494</ele>
        <time>2018-02-23T07:59:16.000Z</time>
      </trkpt>
      <trkpt lat="45.06832" lon="5.97895">
        <ele>1493.9</ele>
        <time>2018-02-23T07:59:19.000Z</time>
      </trkpt>
      <trkpt lat="45.06829" lon="5.97895">
        <ele>1493.9</ele>
        <time>2018-02-23T07:59:21.000Z</time>
      </trkpt>
      <trkpt lat="45.06826" lon="5.97894">
        <ele>1493.7</ele>
        <time>2018-02-23T07:59:23.000Z</time>
      </trkpt>
      <trkpt lat="45.06822" lon="5.97895">
        <ele>1493.4</ele>
        <time>2018-02-23T07:59:26.000Z</time>
      </trkpt>
      <trkpt lat="45.06819" lon="5.97895">
        <ele>1493.2</ele>
        <time>2018-02-23T07:59:28.000Z</time>
      </trkpt>
      <trkpt lat="45.06816" lon="5.97894">
        <ele>1492.9</ele>
        <time>2018-02-23T07:59:30.000Z</time>
      </trkpt>
      <trkpt lat="45.06813" lon="5.97893">
        <ele>1492.7</ele>
        <time>2018-02-23T07:59:32.000Z</time>
      </trkpt>
      <trkpt lat="45.06809" lon="5.97891">
        <ele>1492.4</ele>
        <time>2018-02-23T07:59:34.000Z</time>
      </trkpt>
      <trkpt lat="45.06806" lon="5.97894">
        <ele>1492.2</ele>
        <time>2018-02-23T07:59:37.000Z</time>
      </trkpt>
      <trkpt lat="45.06803" lon="5.97897">
        <ele>1491.9</ele>
        <time>2018-02-23T07:59:40.000Z</time>
      </trkpt>
      <trkpt lat="45.068" lon="5.97897">
        <ele>1491.6</ele>
        <time>2018-02-23T07:59:42.000Z</time>
      </trkpt>
      <trkpt lat="45.06796" lon="5.97897">
        <ele>1491.3</ele>
        <time>2018-02-23T07:59:45.000Z</time>
      </trkpt>
      <trkpt lat="45.06793" lon="5.97898">
        <ele>1491.1</ele>
        <time>2018-02-23T07:59:47.000Z</time>
      </trkpt>
      <trkpt lat="45.06789" lon="5.979">
        <ele>1491</ele>
        <time>2018-02-23T07:59:50.000Z</time>
      </trkpt>
      <trkpt lat="45.06786" lon="5.97899">
        <ele>1490.9</ele>
        <time>2018-02-23T07:59:53.000Z</time>
      </trkpt>
      <trkpt lat="45.06782" lon="5.97896">
        <ele>1490.9</ele>
        <time>2018-02-23T07:59:55.000Z</time>
      </trkpt>
      <trkpt lat="45.06778" lon="5.97895">
        <ele>1491</ele>
        <time>2018-02-23T07:59:59.000Z</time>
      </trkpt>
      <trkpt lat="45.06775" lon="5.97894">
        <ele>1491</ele>
        <time>2018-02-23T08:00:03.000Z</time>
      </trkpt>
      <trkpt lat="45.06773" lon="5.97889">
        <ele>1491.1</ele>
        <time>2018-02-23T08:00:07.000Z</time>
      </trkpt>
      <trkpt lat="45.0677" lon="5.97887">
        <ele>1491.1</ele>
        <time>2018-02-23T08:00:10.000Z</time>
      </trkpt>
      <trkpt lat="45.06767" lon="5.97883">
        <ele>1491.3</ele>
        <time>2018-02-23T08:00:12.000Z</time>
      </trkpt>
      <trkpt lat="45.06766" lon="5.97879">
        <ele>1491.4</ele>
        <time>2018-02-23T08:00:14.000Z</time>
      </trkpt>
      <trkpt lat="45.06764" lon="5.97876">
        <ele>1491.6</ele>
        <time>2018-02-23T08:00:16.000Z</time>
      </trkpt>
      <trkpt lat="45.06762" lon="5.97873">
        <ele>1491.8</ele>
        <time>2018-02-23T08:00:19.000Z</time>
      </trkpt>
      <trkpt lat="45.06759" lon="5.97872">
        <ele>1492.1</ele>
        <time>2018-02-23T08:00:21.000Z</time>
      </trkpt>
      <trkpt lat="45.06756" lon="5.97873">
        <ele>1492.3</ele>
        <time>2018-02-23T08:00:23.000Z</time>
      </trkpt>
      <trkpt lat="45.06752" lon="5.97872">
        <ele>1492.4</ele>
        <time>2018-02-23T08:00:26.000Z</time>
      </trkpt>
      <trkpt lat="45.0675" lon="5.97872">
        <ele>1492.5</ele>
        <time>2018-02-23T08:00:29.000Z</time>
      </trkpt>
      <trkpt lat="45.06748" lon="5.97869">
        <ele>1492.6</ele>
        <time>2018-02-23T08:00:33.000Z</time>
      </trkpt>
      <trkpt lat="45.06749" lon="5.97864">
        <ele>1492.7</ele>
        <time>2018-02-23T08:00:36.000Z</time>
      </trkpt>
      <trkpt lat="45.06747" lon="5.97863">
        <ele>1492.8</ele>
        <time>2018-02-23T08:00:38.000Z</time>
      </trkpt>
      <trkpt lat="45.06745" lon="5.97859">
        <ele>1492.9</ele>
        <time>2018-02-23T08:00:41.000Z</time>
      </trkpt>
      <trkpt lat="45.06744" lon="5.97855">
        <ele>1493</ele>
        <time>2018-02-23T08:00:45.000Z</time>
      </trkpt>
      <trkpt lat="45.06742" lon="5.97851">
        <ele>1494.5</ele>
        <time>2018-02-23T08:00:49.000Z</time>
      </trkpt>
      <trkpt lat="45.06742" lon="5.97847">
        <ele>1495.3</ele>
        <time>2018-02-23T08:00:53.000Z</time>
      </trkpt>
      <trkpt lat="45.06739" lon="5.97844">
        <ele>1496.3</ele>
        <time>2018-02-23T08:00:58.000Z</time>
      </trkpt>
      <trkpt lat="45.06737" lon="5.97841">
        <ele>1497.1</ele>
        <time>2018-02-23T08:01:01.000Z</time>
      </trkpt>
      <trkpt lat="45.06735" lon="5.97837">
        <ele>1497.9</ele>
        <time>2018-02-23T08:01:07.000Z</time>
      </trkpt>
      <trkpt lat="45.06733" lon="5.97834">
        <ele>1498.7</ele>
        <time>2018-02-23T08:01:10.000Z</time>
      </trkpt>
      <trkpt lat="45.06734" lon="5.9783">
        <ele>1499.6</ele>
        <time>2018-02-23T08:01:13.000Z</time>
      </trkpt>
      <trkpt lat="45.06733" lon="5.97826">
        <ele>1500.5</ele>
        <time>2018-02-23T08:01:16.000Z</time>
      </trkpt>
      <trkpt lat="45.06733" lon="5.97821">
        <ele>1502.1</ele>
        <time>2018-02-23T08:01:20.000Z</time>
      </trkpt>
      <trkpt lat="45.06732" lon="5.97817">
        <ele>1503.3</ele>
        <time>2018-02-23T08:01:23.000Z</time>
      </trkpt>
      <trkpt lat="45.06732" lon="5.97813">
        <ele>1504.4</ele>
        <time>2018-02-23T08:01:26.000Z</time>
      </trkpt>
      <trkpt lat="45.06732" lon="5.97809">
        <ele>1505.6</ele>
        <time>2018-02-23T08:01:29.000Z</time>
      </trkpt>
      <trkpt lat="45.06729" lon="5.97809">
        <ele>1506.9</ele>
        <time>2018-02-23T08:01:32.000Z</time>
      </trkpt>
      <trkpt lat="45.06725" lon="5.97809">
        <ele>1508</ele>
        <time>2018-02-23T08:01:36.000Z</time>
      </trkpt>
      <trkpt lat="45.06725" lon="5.97804">
        <ele>1508.9</ele>
        <time>2018-02-23T08:01:49.000Z</time>
      </trkpt>
      <trkpt lat="45.06724" lon="5.97801">
        <ele>1509.6</ele>
        <time>2018-02-23T08:01:54.000Z</time>
      </trkpt>
      <trkpt lat="45.06725" lon="5.97796">
        <ele>1511</ele>
        <time>2018-02-23T08:01:58.000Z</time>
      </trkpt>
      <trkpt lat="45.06721" lon="5.97796">
        <ele>1512.3</ele>
        <time>2018-02-23T08:02:00.000Z</time>
      </trkpt>
      <trkpt lat="45.0672" lon="5.97792">
        <ele>1513.4</ele>
        <time>2018-02-23T08:02:05.000Z</time>
      </trkpt>
      <trkpt lat="45.06723" lon="5.97787">
        <ele>1515.4</ele>
        <time>2018-02-23T08:02:08.000Z</time>
      </trkpt>
      <trkpt lat="45.06722" lon="5.97782">
        <ele>1517.5</ele>
        <time>2018-02-23T08:02:11.000Z</time>
      </trkpt>
      <trkpt lat="45.06724" lon="5.97778">
        <ele>1519.4</ele>
        <time>2018-02-23T08:02:14.000Z</time>
      </trkpt>
      <trkpt lat="45.06722" lon="5.97774">
        <ele>1520.8</ele>
        <time>2018-02-23T08:02:18.000Z</time>
      </trkpt>
      <trkpt lat="45.06722" lon="5.9777">
        <ele>1522.3</ele>
        <time>2018-02-23T08:02:23.000Z</time>
      </trkpt>
      <trkpt lat="45.06723" lon="5.97766">
        <ele>1523.2</ele>
        <time>2018-02-23T08:02:29.000Z</time>
      </trkpt>
      <trkpt lat="45.06721" lon="5.97762">
        <ele>1524.1</ele>
        <time>2018-02-23T08:02:35.000Z</time>
      </trkpt>
      <trkpt lat="45.06721" lon="5.97758">
        <ele>1525</ele>
        <time>2018-02-23T08:02:43.000Z</time>
      </trkpt>
      <trkpt lat="45.06718" lon="5.97757">
        <ele>1525.7</ele>
        <time>2018-02-23T08:02:46.000Z</time>
      </trkpt>
      <trkpt lat="45.06719" lon="5.97753">
        <ele>1526.4</ele>
        <time>2018-02-23T08:02:55.000Z</time>
      </trkpt>
      <trkpt lat="45.06719" lon="5.97749">
        <ele>1527.1</ele>
        <time>2018-02-23T08:03:00.000Z</time>
      </trkpt>
      <trkpt lat="45.06716" lon="5.97747">
        <ele>1527.8</ele>
        <time>2018-02-23T08:03:07.000Z</time>
      </trkpt>
      <trkpt lat="45.06716" lon="5.97742">
        <ele>1528.6</ele>
        <time>2018-02-23T08:03:11.000Z</time>
      </trkpt>
      <trkpt lat="45.06714" lon="5.97738">
        <ele>1529.2</ele>
        <time>2018-02-23T08:03:30.000Z</time>
      </trkpt>
      <trkpt lat="45.06712" lon="5.97736">
        <ele>1529.9</ele>
        <time>2018-02-23T08:03:34.000Z</time>
      </trkpt>
      <trkpt lat="45.06709" lon="5.97734">
        <ele>1530.5</ele>
        <time>2018-02-23T08:03:38.000Z</time>
      </trkpt>
      <trkpt lat="45.06707" lon="5.97729">
        <ele>1531.3</ele>
        <time>2018-02-23T08:03:43.000Z</time>
      </trkpt>
      <trkpt lat="45.06704" lon="5.97728">
        <ele>1531.9</ele>
        <time>2018-02-23T08:03:47.000Z</time>
      </trkpt>
      <trkpt lat="45.06702" lon="5.97725">
        <ele>1532.4</ele>
        <time>2018-02-23T08:03:52.000Z</time>
      </trkpt>
      <trkpt lat="45.06702" lon="5.9772">
        <ele>1532.9</ele>
        <time>2018-02-23T08:03:55.000Z</time>
      </trkpt>
      <trkpt lat="45.06699" lon="5.97717">
        <ele>1533.4</ele>
        <time>2018-02-23T08:03:59.000Z</time>
      </trkpt>
      <trkpt lat="45.06698" lon="5.97713">
        <ele>1533.7</ele>
        <time>2018-02-23T08:04:04.000Z</time>
      </trkpt>
      <trkpt lat="45.06699" lon="5.97709">
        <ele>1534</ele>
        <time>2018-02-23T08:04:07.000Z</time>
      </trkpt>
      <trkpt lat="45.06697" lon="5.97706">
        <ele>1534.3</ele>
        <time>2018-02-23T08:04:15.000Z</time>
      </trkpt>
      <trkpt lat="45.06694" lon="5.97706">
        <ele>1534.6</ele>
        <time>2018-02-23T08:04:18.000Z</time>
      </trkpt>
      <trkpt lat="45.06692" lon="5.97701">
        <ele>1534.9</ele>
        <time>2018-02-23T08:04:24.000Z</time>
      </trkpt>
      <trkpt lat="45.0669" lon="5.97698">
        <ele>1535.4</ele>
        <time>2018-02-23T08:04:29.000Z</time>
      </trkpt>
      <trkpt lat="45.06687" lon="5.97699">
        <ele>1536</ele>
        <time>2018-02-23T08:04:33.000Z</time>
      </trkpt>
      <trkpt lat="45.06685" lon="5.97696">
        <ele>1536.7</ele>
        <time>2018-02-23T08:04:39.000Z</time>
      </trkpt>
      <trkpt lat="45.06687" lon="5.97692">
        <ele>1538.1</ele>
        <time>2018-02-23T08:04:42.000Z</time>
      </trkpt>
      <trkpt lat="45.06688" lon="5.97687">
        <ele>1539.2</ele>
        <time>2018-02-23T08:04:46.000Z</time>
      </trkpt>
      <trkpt lat="45.06688" lon="5.97682">
        <ele>1540</ele>
        <time>2018-02-23T08:04:54.000Z</time>
      </trkpt>
      <trkpt lat="45.06685" lon="5.97682">
        <ele>1540.6</ele>
        <time>2018-02-23T08:04:56.000Z</time>
      </trkpt>
      <trkpt lat="45.06681" lon="5.97682">
        <ele>1541.2</ele>
        <time>2018-02-23T08:04:59.000Z</time>
      </trkpt>
      <trkpt lat="45.06684" lon="5.97678">
        <ele>1541.7</ele>
        <time>2018-02-23T08:05:23.000Z</time>
      </trkpt>
      <trkpt lat="45.06682" lon="5.97678">
        <ele>1542</ele>
        <time>2018-02-23T08:05:32.000Z</time>
      </trkpt>
      <trkpt lat="45.06678" lon="5.97681">
        <ele>1542.4</ele>
        <time>2018-02-23T08:05:35.000Z</time>
      </trkpt>
      <trkpt lat="45.06676" lon="5.97683">
        <ele>1542.7</ele>
        <time>2018-02-23T08:05:38.000Z</time>
      </trkpt>
      <trkpt lat="45.06673" lon="5.97683">
        <ele>1542.9</ele>
        <time>2018-02-23T08:05:46.000Z</time>
      </trkpt>
      <trkpt lat="45.0667" lon="5.97682">
        <ele>1543.3</ele>
        <time>2018-02-23T08:05:48.000Z</time>
      </trkpt>
      <trkpt lat="45.06666" lon="5.97682">
        <ele>1543.6</ele>
        <time>2018-02-23T08:05:51.000Z</time>
      </trkpt>
      <trkpt lat="45.06665" lon="5.97679">
        <ele>1543.9</ele>
        <time>2018-02-23T08:05:54.000Z</time>
      </trkpt>
      <trkpt lat="45.06661" lon="5.9768">
        <ele>1544.3</ele>
        <time>2018-02-23T08:05:58.000Z</time>
      </trkpt>
      <trkpt lat="45.06658" lon="5.9768">
        <ele>1544.6</ele>
        <time>2018-02-23T08:06:01.000Z</time>
      </trkpt>
      <trkpt lat="45.06655" lon="5.97682">
        <ele>1545</ele>
        <time>2018-02-23T08:06:04.000Z</time>
      </trkpt>
      <trkpt lat="45.06651" lon="5.97683">
        <ele>1545.4</ele>
        <time>2018-02-23T08:06:08.000Z</time>
      </trkpt>
      <trkpt lat="45.06649" lon="5.97686">
        <ele>1545.9</ele>
        <time>2018-02-23T08:06:10.000Z</time>
      </trkpt>
      <trkpt lat="45.06645" lon="5.97687">
        <ele>1546.6</ele>
        <time>2018-02-23T08:06:13.000Z</time>
      </trkpt>
      <trkpt lat="45.06642" lon="5.97689">
        <ele>1547.2</ele>
        <time>2018-02-23T08:06:16.000Z</time>
      </trkpt>
      <trkpt lat="45.06639" lon="5.97689">
        <ele>1548.1</ele>
        <time>2018-02-23T08:06:28.000Z</time>
      </trkpt>
      <trkpt lat="45.06636" lon="5.9769">
        <ele>1548.8</ele>
        <time>2018-02-23T08:06:30.000Z</time>
      </trkpt>
      <trkpt lat="45.06633" lon="5.97693">
        <ele>1549.7</ele>
        <time>2018-02-23T08:06:32.000Z</time>
      </trkpt>
      <trkpt lat="45.0663" lon="5.97695">
        <ele>1550.5</ele>
        <time>2018-02-23T08:06:35.000Z</time>
      </trkpt>
      <trkpt lat="45.06626" lon="5.97696">
        <ele>1551.6</ele>
        <time>2018-02-23T08:06:39.000Z</time>
      </trkpt>
      <trkpt lat="45.06622" lon="5.97698">
        <ele>1552.6</ele>
        <time>2018-02-23T08:06:41.000Z</time>
      </trkpt>
      <trkpt lat="45.0662" lon="5.97701">
        <ele>1553.3</ele>
        <time>2018-02-23T08:06:44.000Z</time>
      </trkpt>
      <trkpt lat="45.0662" lon="5.97705">
        <ele>1553.9</ele>
        <time>2018-02-23T08:06:52.000Z</time>
      </trkpt>
      <trkpt lat="45.06619" lon="5.97709">
        <ele>1554.3</ele>
        <time>2018-02-23T08:06:54.000Z</time>
      </trkpt>
      <trkpt lat="45.06617" lon="5.97714">
        <ele>1554.9</ele>
        <time>2018-02-23T08:06:57.000Z</time>
      </trkpt>
      <trkpt lat="45.06614" lon="5.97716">
        <ele>1555.5</ele>
        <time>2018-02-23T08:07:00.000Z</time>
      </trkpt>
      <trkpt lat="45.06611" lon="5.97718">
        <ele>1556</ele>
        <time>2018-02-23T08:07:02.000Z</time>
      </trkpt>
      <trkpt lat="45.06608" lon="5.97721">
        <ele>1556.7</ele>
        <time>2018-02-23T08:07:06.000Z</time>
      </trkpt>
      <trkpt lat="45.06606" lon="5.97722">
        <ele>1557.5</ele>
        <time>2018-02-23T08:07:15.000Z</time>
      </trkpt>
      <trkpt lat="45.06602" lon="5.97724">
        <ele>1558.5</ele>
        <time>2018-02-23T08:07:19.000Z</time>
      </trkpt>
      <trkpt lat="45.066" lon="5.97726">
        <ele>1559.6</ele>
        <time>2018-02-23T08:07:22.000Z</time>
      </trkpt>
      <trkpt lat="45.06597" lon="5.97727">
        <ele>1560.9</ele>
        <time>2018-02-23T08:07:25.000Z</time>
      </trkpt>
      <trkpt lat="45.06593" lon="5.97728">
        <ele>1562.1</ele>
        <time>2018-02-23T08:07:28.000Z</time>
      </trkpt>
      <trkpt lat="45.06591" lon="5.9773">
        <ele>1563.2</ele>
        <time>2018-02-23T08:07:33.000Z</time>
      </trkpt>
      <trkpt lat="45.06589" lon="5.97726">
        <ele>1564.4</ele>
        <time>2018-02-23T08:07:35.000Z</time>
      </trkpt>
      <trkpt lat="45.06585" lon="5.97726">
        <ele>1565.4</ele>
        <time>2018-02-23T08:07:40.000Z</time>
      </trkpt>
      <trkpt lat="45.06583" lon="5.97727">
        <ele>1566.3</ele>
        <time>2018-02-23T08:07:43.000Z</time>
      </trkpt>
      <trkpt lat="45.06581" lon="5.9773">
        <ele>1567.2</ele>
        <time>2018-02-23T08:07:46.000Z</time>
      </trkpt>
      <trkpt lat="45.06578" lon="5.97733">
        <ele>1568.2</ele>
        <time>2018-02-23T08:07:50.000Z</time>
      </trkpt>
      <trkpt lat="45.06576" lon="5.97735">
        <ele>1569</ele>
        <time>2018-02-23T08:07:54.000Z</time>
      </trkpt>
      <trkpt lat="45.06573" lon="5.97737">
        <ele>1569.8</ele>
        <time>2018-02-23T08:07:58.000Z</time>
      </trkpt>
      <trkpt lat="45.0657" lon="5.97738">
        <ele>1570.5</ele>
        <time>2018-02-23T08:08:02.000Z</time>
      </trkpt>
      <trkpt lat="45.06567" lon="5.97738">
        <ele>1571.3</ele>
        <time>2018-02-23T08:08:07.000Z</time>
      </trkpt>
      <trkpt lat="45.06565" lon="5.9774">
        <ele>1572</ele>
        <time>2018-02-23T08:08:10.000Z</time>
      </trkpt>
      <trkpt lat="45.06562" lon="5.97739">
        <ele>1572.6</ele>
        <time>2018-02-23T08:08:14.000Z</time>
      </trkpt>
      <trkpt lat="45.06559" lon="5.9774">
        <ele>1573.2</ele>
        <time>2018-02-23T08:08:21.000Z</time>
      </trkpt>
      <trkpt lat="45.06556" lon="5.97742">
        <ele>1573.7</ele>
        <time>2018-02-23T08:08:24.000Z</time>
      </trkpt>
      <trkpt lat="45.06553" lon="5.97743">
        <ele>1574.2</ele>
        <time>2018-02-23T08:08:27.000Z</time>
      </trkpt>
      <trkpt lat="45.06551" lon="5.97745">
        <ele>1574.7</ele>
        <time>2018-02-23T08:08:31.000Z</time>
      </trkpt>
      <trkpt lat="45.06549" lon="5.97748">
        <ele>1575.3</ele>
        <time>2018-02-23T08:08:35.000Z</time>
      </trkpt>
      <trkpt lat="45.06546" lon="5.97751">
        <ele>1575.9</ele>
        <time>2018-02-23T08:08:39.000Z</time>
      </trkpt>
      <trkpt lat="45.06544" lon="5.97754">
        <ele>1576.6</ele>
        <time>2018-02-23T08:08:44.000Z</time>
      </trkpt>
      <trkpt lat="45.06541" lon="5.97756">
        <ele>1577.3</ele>
        <time>2018-02-23T08:08:49.000Z</time>
      </trkpt>
      <trkpt lat="45.06538" lon="5.97757">
        <ele>1578</ele>
        <time>2018-02-23T08:08:52.000Z</time>
      </trkpt>
      <trkpt lat="45.06535" lon="5.97757">
        <ele>1578.6</ele>
        <time>2018-02-23T08:08:55.000Z</time>
      </trkpt>
      <trkpt lat="45.06531" lon="5.97757">
        <ele>1579.4</ele>
        <time>2018-02-23T08:08:59.000Z</time>
      </trkpt>
      <trkpt lat="45.06529" lon="5.97761">
        <ele>1580.1</ele>
        <time>2018-02-23T08:09:02.000Z</time>
      </trkpt>
      <trkpt lat="45.06527" lon="5.97765">
        <ele>1580.7</ele>
        <time>2018-02-23T08:09:06.000Z</time>
      </trkpt>
      <trkpt lat="45.06525" lon="5.97763">
        <ele>1581.4</ele>
        <time>2018-02-23T08:09:11.000Z</time>
      </trkpt>
      <trkpt lat="45.06522" lon="5.97764">
        <ele>1582</ele>
        <time>2018-02-23T08:09:15.000Z</time>
      </trkpt>
      <trkpt lat="45.0652" lon="5.97768">
        <ele>1582.6</ele>
        <time>2018-02-23T08:09:19.000Z</time>
      </trkpt>
      <trkpt lat="45.06518" lon="5.97771">
        <ele>1583.1</ele>
        <time>2018-02-23T08:09:22.000Z</time>
      </trkpt>
      <trkpt lat="45.06516" lon="5.97773">
        <ele>1583.7</ele>
        <time>2018-02-23T08:09:29.000Z</time>
      </trkpt>
      <trkpt lat="45.06514" lon="5.97777">
        <ele>1584.2</ele>
        <time>2018-02-23T08:09:32.000Z</time>
      </trkpt>
      <trkpt lat="45.06512" lon="5.9778">
        <ele>1584.7</ele>
        <time>2018-02-23T08:09:35.000Z</time>
      </trkpt>
      <trkpt lat="45.0651" lon="5.97783">
        <ele>1585.2</ele>
        <time>2018-02-23T08:09:39.000Z</time>
      </trkpt>
      <trkpt lat="45.06507" lon="5.97786">
        <ele>1585.9</ele>
        <time>2018-02-23T08:09:43.000Z</time>
      </trkpt>
      <trkpt lat="45.06505" lon="5.97789">
        <ele>1586.7</ele>
        <time>2018-02-23T08:09:46.000Z</time>
      </trkpt>
      <trkpt lat="45.06501" lon="5.97791">
        <ele>1587.9</ele>
        <time>2018-02-23T08:09:51.000Z</time>
      </trkpt>
      <trkpt lat="45.06498" lon="5.97791">
        <ele>1589.1</ele>
        <time>2018-02-23T08:09:57.000Z</time>
      </trkpt>
      <trkpt lat="45.06494" lon="5.97792">
        <ele>1590.4</ele>
        <time>2018-02-23T08:10:05.000Z</time>
      </trkpt>
      <trkpt lat="45.06491" lon="5.97793">
        <ele>1591.1</ele>
        <time>2018-02-23T08:10:10.000Z</time>
      </trkpt>
      <trkpt lat="45.06488" lon="5.97794">
        <ele>1591.9</ele>
        <time>2018-02-23T08:10:15.000Z</time>
      </trkpt>
      <trkpt lat="45.06486" lon="5.97789">
        <ele>1592.9</ele>
        <time>2018-02-23T08:10:19.000Z</time>
      </trkpt>
      <trkpt lat="45.06485" lon="5.97785">
        <ele>1593.6</ele>
        <time>2018-02-23T08:10:36.000Z</time>
      </trkpt>
      <trkpt lat="45.06483" lon="5.97783">
        <ele>1594.3</ele>
        <time>2018-02-23T08:10:42.000Z</time>
      </trkpt>
      <trkpt lat="45.0648" lon="5.97788">
        <ele>1595.5</ele>
        <time>2018-02-23T08:11:17.000Z</time>
      </trkpt>
      <trkpt lat="45.06477" lon="5.97792">
        <ele>1596.6</ele>
        <time>2018-02-23T08:11:19.000Z</time>
      </trkpt>
      <trkpt lat="45.06474" lon="5.97797">
        <ele>1596.9</ele>
        <time>2018-02-23T08:11:22.000Z</time>
      </trkpt>
      <trkpt lat="45.06471" lon="5.97793">
        <ele>1597.2</ele>
        <time>2018-02-23T08:11:24.000Z</time>
      </trkpt>
      <trkpt lat="45.06472" lon="5.97789">
        <ele>1597.3</ele>
        <time>2018-02-23T08:11:32.000Z</time>
      </trkpt>
      <trkpt lat="45.06474" lon="5.97787">
        <ele>1598.8</ele>
        <time>2018-02-23T08:11:33.000Z</time>
      </trkpt>
      <trkpt lat="45.06474" lon="5.97782">
        <ele>1598.9</ele>
        <time>2018-02-23T08:11:40.000Z</time>
      </trkpt>
      <trkpt lat="45.06477" lon="5.97782">
        <ele>1599.1</ele>
        <time>2018-02-23T08:11:41.000Z</time>
      </trkpt>
      <trkpt lat="45.06472" lon="5.97782">
        <ele>1599.7</ele>
        <time>2018-02-23T08:11:46.000Z</time>
      </trkpt>
      <trkpt lat="45.06468" lon="5.97784">
        <ele>1601.3</ele>
        <time>2018-02-23T08:11:48.000Z</time>
      </trkpt>
      <trkpt lat="45.06468" lon="5.97778">
        <ele>1604.2</ele>
        <time>2018-02-23T08:11:51.000Z</time>
      </trkpt>
      <trkpt lat="45.06464" lon="5.97777">
        <ele>1606.2</ele>
        <time>2018-02-23T08:11:55.000Z</time>
      </trkpt>
      <trkpt lat="45.06461" lon="5.97776">
        <ele>1607.7</ele>
        <time>2018-02-23T08:11:59.000Z</time>
      </trkpt>
      <trkpt lat="45.06462" lon="5.97772">
        <ele>1609.2</ele>
        <time>2018-02-23T08:12:07.000Z</time>
      </trkpt>
      <trkpt lat="45.06463" lon="5.97768">
        <ele>1610.7</ele>
        <time>2018-02-23T08:12:11.000Z</time>
      </trkpt>
      <trkpt lat="45.06465" lon="5.97764">
        <ele>1611.8</ele>
        <time>2018-02-23T08:12:14.000Z</time>
      </trkpt>
      <trkpt lat="45.06462" lon="5.97766">
        <ele>1612.6</ele>
        <time>2018-02-23T08:12:30.000Z</time>
      </trkpt>
      <trkpt lat="45.0646" lon="5.97762">
        <ele>1613.6</ele>
        <time>2018-02-23T08:12:36.000Z</time>
      </trkpt>
      <trkpt lat="45.06457" lon="5.97758">
        <ele>1614.7</ele>
        <time>2018-02-23T08:12:38.000Z</time>
      </trkpt>
      <trkpt lat="45.06454" lon="5.97757">
        <ele>1615.6</ele>
        <time>2018-02-23T08:12:43.000Z</time>
      </trkpt>
      <trkpt lat="45.06458" lon="5.97756">
        <ele>1617</ele>
        <time>2018-02-23T08:12:45.000Z</time>
      </trkpt>
      <trkpt lat="45.06458" lon="5.97751">
        <ele>1618.4</ele>
        <time>2018-02-23T08:12:49.000Z</time>
      </trkpt>
      <trkpt lat="45.06458" lon="5.97746">
        <ele>1619.7</ele>
        <time>2018-02-23T08:12:51.000Z</time>
      </trkpt>
      <trkpt lat="45.06461" lon="5.97743">
        <ele>1621</ele>
        <time>2018-02-23T08:12:53.000Z</time>
      </trkpt>
      <trkpt lat="45.06458" lon="5.97741">
        <ele>1622.4</ele>
        <time>2018-02-23T08:12:55.000Z</time>
      </trkpt>
      <trkpt lat="45.0646" lon="5.97739">
        <ele>1623.7</ele>
        <time>2018-02-23T08:12:59.000Z</time>
      </trkpt>
      <trkpt lat="45.06456" lon="5.97738">
        <ele>1624.9</ele>
        <time>2018-02-23T08:13:04.000Z</time>
      </trkpt>
      <trkpt lat="45.06453" lon="5.97737">
        <ele>1625.7</ele>
        <time>2018-02-23T08:13:13.000Z</time>
      </trkpt>
      <trkpt lat="45.06451" lon="5.97739">
        <ele>1626.3</ele>
        <time>2018-02-23T08:13:18.000Z</time>
      </trkpt>
      <trkpt lat="45.0645" lon="5.97735">
        <ele>1626.9</ele>
        <time>2018-02-23T08:13:21.000Z</time>
      </trkpt>
      <trkpt lat="45.06453" lon="5.97734">
        <ele>1627.4</ele>
        <time>2018-02-23T08:13:23.000Z</time>
      </trkpt>
      <trkpt lat="45.06454" lon="5.97729">
        <ele>1628</ele>
        <time>2018-02-23T08:13:32.000Z</time>
      </trkpt>
      <trkpt lat="45.06456" lon="5.97725">
        <ele>1628.5</ele>
        <time>2018-02-23T08:13:35.000Z</time>
      </trkpt>
      <trkpt lat="45.06453" lon="5.97726">
        <ele>1628.4</ele>
        <time>2018-02-23T08:13:36.000Z</time>
      </trkpt>
      <trkpt lat="45.0645" lon="5.97726">
        <ele>1628.2</ele>
        <time>2018-02-23T08:13:48.000Z</time>
      </trkpt>
      <trkpt lat="45.06446" lon="5.97729">
        <ele>1628.1</ele>
        <time>2018-02-23T08:14:13.000Z</time>
      </trkpt>
      <trkpt lat="45.06443" lon="5.97732">
        <ele>1627.9</ele>
        <time>2018-02-23T08:14:15.000Z</time>
      </trkpt>
      <trkpt lat="45.06441" lon="5.97735">
        <ele>1627.7</ele>
        <time>2018-02-23T08:14:18.000Z</time>
      </trkpt>
      <trkpt lat="45.06439" lon="5.97738">
        <ele>1627.6</ele>
        <time>2018-02-23T08:14:21.000Z</time>
      </trkpt>
      <trkpt lat="45.06436" lon="5.9774">
        <ele>1627.5</ele>
        <time>2018-02-23T08:14:29.000Z</time>
      </trkpt>
      <trkpt lat="45.06434" lon="5.97743">
        <ele>1627.3</ele>
        <time>2018-02-23T08:14:33.000Z</time>
      </trkpt>
      <trkpt lat="45.06432" lon="5.97746">
        <ele>1627.2</ele>
        <time>2018-02-23T08:14:38.000Z</time>
      </trkpt>
      <trkpt lat="45.0643" lon="5.97743">
        <ele>1627</ele>
        <time>2018-02-23T08:14:48.000Z</time>
      </trkpt>
      <trkpt lat="45.06431" lon="5.97738">
        <ele>1626.9</ele>
        <time>2018-02-23T08:14:53.000Z</time>
      </trkpt>
      <trkpt lat="45.0643" lon="5.97734">
        <ele>1626.7</ele>
        <time>2018-02-23T08:14:57.000Z</time>
      </trkpt>
      <trkpt lat="45.06432" lon="5.97736">
        <ele>1626.5</ele>
        <time>2018-02-23T08:15:51.000Z</time>
      </trkpt>
      <trkpt lat="45.06432" lon="5.97732">
        <ele>1626.4</ele>
        <time>2018-02-23T08:16:51.000Z</time>
      </trkpt>
      <trkpt lat="45.06429" lon="5.97731">
        <ele>1626.2</ele>
        <time>2018-02-23T08:18:27.000Z</time>
      </trkpt>
      <trkpt lat="45.06432" lon="5.97732">
        <ele>1626</ele>
        <time>2018-02-23T08:19:02.000Z</time>
      </trkpt>
      <trkpt lat="45.06432" lon="5.97728">
        <ele>1626.4</ele>
        <time>2018-02-23T08:20:12.000Z</time>
      </trkpt>
      <trkpt lat="45.06433" lon="5.97724">
        <ele>1627</ele>
        <time>2018-02-23T08:20:18.000Z</time>
      </trkpt>
      <trkpt lat="45.06434" lon="5.9772">
        <ele>1627.6</ele>
        <time>2018-02-23T08:20:21.000Z</time>
      </trkpt>
      <trkpt lat="45.06435" lon="5.97715">
        <ele>1628.2</ele>
        <time>2018-02-23T08:20:26.000Z</time>
      </trkpt>
      <trkpt lat="45.06437" lon="5.97712">
        <ele>1628.8</ele>
        <time>2018-02-23T08:20:30.000Z</time>
      </trkpt>
      <trkpt lat="45.06437" lon="5.97708">
        <ele>1629.2</ele>
        <time>2018-02-23T08:20:33.000Z</time>
      </trkpt>
      <trkpt lat="45.06438" lon="5.97704">
        <ele>1629.7</ele>
        <time>2018-02-23T08:20:37.000Z</time>
      </trkpt>
      <trkpt lat="45.06438" lon="5.97698">
        <ele>1630.3</ele>
        <time>2018-02-23T08:20:42.000Z</time>
      </trkpt>
      <trkpt lat="45.06439" lon="5.97695">
        <ele>1630.8</ele>
        <time>2018-02-23T08:20:46.000Z</time>
      </trkpt>
      <trkpt lat="45.06441" lon="5.97691">
        <ele>1631.3</ele>
        <time>2018-02-23T08:20:51.000Z</time>
      </trkpt>
      <trkpt lat="45.06442" lon="5.97687">
        <ele>1631.8</ele>
        <time>2018-02-23T08:20:55.000Z</time>
      </trkpt>
      <trkpt lat="45.06443" lon="5.97683">
        <ele>1632.4</ele>
        <time>2018-02-23T08:20:59.000Z</time>
      </trkpt>
      <trkpt lat="45.06444" lon="5.97679">
        <ele>1633</ele>
        <time>2018-02-23T08:21:04.000Z</time>
      </trkpt>
      <trkpt lat="45.06445" lon="5.97675">
        <ele>1633.8</ele>
        <time>2018-02-23T08:21:08.000Z</time>
      </trkpt>
      <trkpt lat="45.06446" lon="5.97672">
        <ele>1634.7</ele>
        <time>2018-02-23T08:21:13.000Z</time>
      </trkpt>
      <trkpt lat="45.06448" lon="5.97668">
        <ele>1635.8</ele>
        <time>2018-02-23T08:21:18.000Z</time>
      </trkpt>
      <trkpt lat="45.06449" lon="5.97664">
        <ele>1637.3</ele>
        <time>2018-02-23T08:21:22.000Z</time>
      </trkpt>
      <trkpt lat="45.0645" lon="5.9766">
        <ele>1638.4</ele>
        <time>2018-02-23T08:21:26.000Z</time>
      </trkpt>
      <trkpt lat="45.06452" lon="5.97655">
        <ele>1640.2</ele>
        <time>2018-02-23T08:21:31.000Z</time>
      </trkpt>
      <trkpt lat="45.06452" lon="5.97651">
        <ele>1641.8</ele>
        <time>2018-02-23T08:21:36.000Z</time>
      </trkpt>
      <trkpt lat="45.06454" lon="5.97646">
        <ele>1643.3</ele>
        <time>2018-02-23T08:21:41.000Z</time>
      </trkpt>
      <trkpt lat="45.06455" lon="5.97642">
        <ele>1644.3</ele>
        <time>2018-02-23T08:21:46.000Z</time>
      </trkpt>
      <trkpt lat="45.06456" lon="5.97638">
        <ele>1645.2</ele>
        <time>2018-02-23T08:21:50.000Z</time>
      </trkpt>
      <trkpt lat="45.06457" lon="5.97634">
        <ele>1646.2</ele>
        <time>2018-02-23T08:21:54.000Z</time>
      </trkpt>
      <trkpt lat="45.06458" lon="5.97629">
        <ele>1647.2</ele>
        <time>2018-02-23T08:21:58.000Z</time>
      </trkpt>
      <trkpt lat="45.06459" lon="5.97625">
        <ele>1648</ele>
        <time>2018-02-23T08:22:03.000Z</time>
      </trkpt>
      <trkpt lat="45.06459" lon="5.97622">
        <ele>1648.8</ele>
        <time>2018-02-23T08:22:07.000Z</time>
      </trkpt>
      <trkpt lat="45.0646" lon="5.97618">
        <ele>1649.7</ele>
        <time>2018-02-23T08:22:11.000Z</time>
      </trkpt>
      <trkpt lat="45.06461" lon="5.97613">
        <ele>1650.7</ele>
        <time>2018-02-23T08:22:17.000Z</time>
      </trkpt>
      <trkpt lat="45.06463" lon="5.9761">
        <ele>1651.7</ele>
        <time>2018-02-23T08:22:21.000Z</time>
      </trkpt>
      <trkpt lat="45.06465" lon="5.97606">
        <ele>1652.6</ele>
        <time>2018-02-23T08:22:24.000Z</time>
      </trkpt>
      <trkpt lat="45.06467" lon="5.97602">
        <ele>1653.6</ele>
        <time>2018-02-23T08:22:27.000Z</time>
      </trkpt>
      <trkpt lat="45.06468" lon="5.97598">
        <ele>1654.6</ele>
        <time>2018-02-23T08:22:31.000Z</time>
      </trkpt>
      <trkpt lat="45.06469" lon="5.97593">
        <ele>1655.6</ele>
        <time>2018-02-23T08:22:35.000Z</time>
      </trkpt>
      <trkpt lat="45.0647" lon="5.97588">
        <ele>1656.7</ele>
        <time>2018-02-23T08:22:42.000Z</time>
      </trkpt>
      <trkpt lat="45.0647" lon="5.97584">
        <ele>1657.5</ele>
        <time>2018-02-23T08:22:47.000Z</time>
      </trkpt>
      <trkpt lat="45.0647" lon="5.9758">
        <ele>1658.3</ele>
        <time>2018-02-23T08:22:52.000Z</time>
      </trkpt>
      <trkpt lat="45.06469" lon="5.97576">
        <ele>1659.2</ele>
        <time>2018-02-23T08:22:57.000Z</time>
      </trkpt>
      <trkpt lat="45.06468" lon="5.97572">
        <ele>1659.8</ele>
        <time>2018-02-23T08:23:02.000Z</time>
      </trkpt>
      <trkpt lat="45.06466" lon="5.97568">
        <ele>1660.6</ele>
        <time>2018-02-23T08:23:07.000Z</time>
      </trkpt>
      <trkpt lat="45.06465" lon="5.97564">
        <ele>1661.1</ele>
        <time>2018-02-23T08:23:21.000Z</time>
      </trkpt>
      <trkpt lat="45.06463" lon="5.9756">
        <ele>1662.4</ele>
        <time>2018-02-23T08:24:41.000Z</time>
      </trkpt>
      <trkpt lat="45.06462" lon="5.97556">
        <ele>1663.7</ele>
        <time>2018-02-23T08:24:45.000Z</time>
      </trkpt>
      <trkpt lat="45.06462" lon="5.97552">
        <ele>1665</ele>
        <time>2018-02-23T08:24:48.000Z</time>
      </trkpt>
      <trkpt lat="45.06464" lon="5.97548">
        <ele>1666.3</ele>
        <time>2018-02-23T08:24:52.000Z</time>
      </trkpt>
      <trkpt lat="45.06466" lon="5.97544">
        <ele>1667.4</ele>
        <time>2018-02-23T08:24:56.000Z</time>
      </trkpt>
      <trkpt lat="45.06469" lon="5.97542">
        <ele>1667.2</ele>
        <time>2018-02-23T08:24:58.000Z</time>
      </trkpt>
      <trkpt lat="45.0647" lon="5.97537">
        <ele>1668.2</ele>
        <time>2018-02-23T08:25:02.000Z</time>
      </trkpt>
      <trkpt lat="45.06472" lon="5.97533">
        <ele>1669.4</ele>
        <time>2018-02-23T08:25:06.000Z</time>
      </trkpt>
      <trkpt lat="45.06473" lon="5.97529">
        <ele>1670.7</ele>
        <time>2018-02-23T08:25:11.000Z</time>
      </trkpt>
      <trkpt lat="45.06476" lon="5.97525">
        <ele>1671.2</ele>
        <time>2018-02-23T08:25:15.000Z</time>
      </trkpt>
      <trkpt lat="45.06478" lon="5.97521">
        <ele>1672.4</ele>
        <time>2018-02-23T08:25:18.000Z</time>
      </trkpt>
      <trkpt lat="45.0648" lon="5.97518">
        <ele>1673.2</ele>
        <time>2018-02-23T08:25:23.000Z</time>
      </trkpt>
      <trkpt lat="45.0648" lon="5.97513">
        <ele>1674.6</ele>
        <time>2018-02-23T08:25:33.000Z</time>
      </trkpt>
      <trkpt lat="45.06477" lon="5.97513">
        <ele>1675.1</ele>
        <time>2018-02-23T08:25:37.000Z</time>
      </trkpt>
      <trkpt lat="45.06474" lon="5.97514">
        <ele>1675.5</ele>
        <time>2018-02-23T08:25:40.000Z</time>
      </trkpt>
      <trkpt lat="45.06471" lon="5.97514">
        <ele>1675.9</ele>
        <time>2018-02-23T08:25:43.000Z</time>
      </trkpt>
      <trkpt lat="45.06469" lon="5.97517">
        <ele>1674.8</ele>
        <time>2018-02-23T08:25:50.000Z</time>
      </trkpt>
      <trkpt lat="45.06465" lon="5.97517">
        <ele>1675.1</ele>
        <time>2018-02-23T08:26:01.000Z</time>
      </trkpt>
      <trkpt lat="45.06465" lon="5.97513">
        <ele>1676.5</ele>
        <time>2018-02-23T08:26:15.000Z</time>
      </trkpt>
      <trkpt lat="45.06466" lon="5.9751">
        <ele>1677.9</ele>
        <time>2018-02-23T08:26:19.000Z</time>
      </trkpt>
      <trkpt lat="45.06467" lon="5.97506">
        <ele>1679.2</ele>
        <time>2018-02-23T08:26:22.000Z</time>
      </trkpt>
      <trkpt lat="45.06469" lon="5.97503">
        <ele>1679.2</ele>
        <time>2018-02-23T08:26:25.000Z</time>
      </trkpt>
      <trkpt lat="45.0647" lon="5.97498">
        <ele>1680.7</ele>
        <time>2018-02-23T08:26:30.000Z</time>
      </trkpt>
      <trkpt lat="45.06471" lon="5.97494">
        <ele>1681.9</ele>
        <time>2018-02-23T08:26:34.000Z</time>
      </trkpt>
      <trkpt lat="45.06472" lon="5.9749">
        <ele>1683.4</ele>
        <time>2018-02-23T08:26:39.000Z</time>
      </trkpt>
      <trkpt lat="45.06474" lon="5.97486">
        <ele>1684.4</ele>
        <time>2018-02-23T08:26:43.000Z</time>
      </trkpt>
      <trkpt lat="45.06474" lon="5.97482">
        <ele>1685.8</ele>
        <time>2018-02-23T08:26:46.000Z</time>
      </trkpt>
      <trkpt lat="45.06474" lon="5.97477">
        <ele>1687.2</ele>
        <time>2018-02-23T08:26:51.000Z</time>
      </trkpt>
      <trkpt lat="45.06472" lon="5.97473">
        <ele>1689.1</ele>
        <time>2018-02-23T08:26:54.000Z</time>
      </trkpt>
      <trkpt lat="45.06473" lon="5.97469">
        <ele>1690.8</ele>
        <time>2018-02-23T08:26:57.000Z</time>
      </trkpt>
      <trkpt lat="45.06474" lon="5.97466">
        <ele>1692.1</ele>
        <time>2018-02-23T08:27:00.000Z</time>
      </trkpt>
      <trkpt lat="45.06472" lon="5.97465">
        <ele>1692.4</ele>
        <time>2018-02-23T08:27:04.000Z</time>
      </trkpt>
      <trkpt lat="45.06468" lon="5.97466">
        <ele>1692.7</ele>
        <time>2018-02-23T08:27:08.000Z</time>
      </trkpt>
      <trkpt lat="45.06465" lon="5.97465">
        <ele>1692.9</ele>
        <time>2018-02-23T08:27:13.000Z</time>
      </trkpt>
      <trkpt lat="45.06463" lon="5.97463">
        <ele>1693.1</ele>
        <time>2018-02-23T08:27:16.000Z</time>
      </trkpt>
      <trkpt lat="45.06461" lon="5.97461">
        <ele>1694.8</ele>
        <time>2018-02-23T08:27:21.000Z</time>
      </trkpt>
      <trkpt lat="45.06459" lon="5.97457">
        <ele>1696.5</ele>
        <time>2018-02-23T08:27:26.000Z</time>
      </trkpt>
      <trkpt lat="45.06459" lon="5.97453">
        <ele>1698.2</ele>
        <time>2018-02-23T08:27:37.000Z</time>
      </trkpt>
      <trkpt lat="45.06461" lon="5.97449">
        <ele>1699.8</ele>
        <time>2018-02-23T08:27:48.000Z</time>
      </trkpt>
      <trkpt lat="45.06463" lon="5.97445">
        <ele>1701.5</ele>
        <time>2018-02-23T08:27:51.000Z</time>
      </trkpt>
      <trkpt lat="45.06465" lon="5.97442">
        <ele>1701.3</ele>
        <time>2018-02-23T08:27:55.000Z</time>
      </trkpt>
      <trkpt lat="45.06467" lon="5.97438">
        <ele>1703</ele>
        <time>2018-02-23T08:27:59.000Z</time>
      </trkpt>
      <trkpt lat="45.06469" lon="5.97435">
        <ele>1704.4</ele>
        <time>2018-02-23T08:28:02.000Z</time>
      </trkpt>
      <trkpt lat="45.06468" lon="5.97431">
        <ele>1706.1</ele>
        <time>2018-02-23T08:28:07.000Z</time>
      </trkpt>
      <trkpt lat="45.0647" lon="5.97429">
        <ele>1707.6</ele>
        <time>2018-02-23T08:28:09.000Z</time>
      </trkpt>
      <trkpt lat="45.06473" lon="5.97426">
        <ele>1707.6</ele>
        <time>2018-02-23T08:28:13.000Z</time>
      </trkpt>
      <trkpt lat="45.06476" lon="5.97423">
        <ele>1709.2</ele>
        <time>2018-02-23T08:28:18.000Z</time>
      </trkpt>
      <trkpt lat="45.06477" lon="5.9742">
        <ele>1710.8</ele>
        <time>2018-02-23T08:28:26.000Z</time>
      </trkpt>
      <trkpt lat="45.06479" lon="5.97417">
        <ele>1710.8</ele>
        <time>2018-02-23T08:28:29.000Z</time>
      </trkpt>
      <trkpt lat="45.06482" lon="5.97414">
        <ele>1712.5</ele>
        <time>2018-02-23T08:28:34.000Z</time>
      </trkpt>
      <trkpt lat="45.06486" lon="5.97413">
        <ele>1711.6</ele>
        <time>2018-02-23T08:28:37.000Z</time>
      </trkpt>
      <trkpt lat="45.06488" lon="5.97409">
        <ele>1713.6</ele>
        <time>2018-02-23T08:28:41.000Z</time>
      </trkpt>
      <trkpt lat="45.06487" lon="5.97404">
        <ele>1715.6</ele>
        <time>2018-02-23T08:28:46.000Z</time>
      </trkpt>
      <trkpt lat="45.06489" lon="5.974">
        <ele>1717</ele>
        <time>2018-02-23T08:28:51.000Z</time>
      </trkpt>
      <trkpt lat="45.06486" lon="5.97397">
        <ele>1717.5</ele>
        <time>2018-02-23T08:28:55.000Z</time>
      </trkpt>
      <trkpt lat="45.06484" lon="5.97394">
        <ele>1718</ele>
        <time>2018-02-23T08:28:59.000Z</time>
      </trkpt>
      <trkpt lat="45.0648" lon="5.97395">
        <ele>1718.4</ele>
        <time>2018-02-23T08:29:03.000Z</time>
      </trkpt>
      <trkpt lat="45.06477" lon="5.97393">
        <ele>1718.8</ele>
        <time>2018-02-23T08:29:06.000Z</time>
      </trkpt>
      <trkpt lat="45.06474" lon="5.97392">
        <ele>1719.3</ele>
        <time>2018-02-23T08:29:11.000Z</time>
      </trkpt>
      <trkpt lat="45.06472" lon="5.9739">
        <ele>1719.7</ele>
        <time>2018-02-23T08:29:14.000Z</time>
      </trkpt>
      <trkpt lat="45.06469" lon="5.97389">
        <ele>1720.1</ele>
        <time>2018-02-23T08:29:18.000Z</time>
      </trkpt>
      <trkpt lat="45.06466" lon="5.97388">
        <ele>1720.6</ele>
        <time>2018-02-23T08:29:23.000Z</time>
      </trkpt>
      <trkpt lat="45.06464" lon="5.97384">
        <ele>1721.1</ele>
        <time>2018-02-23T08:29:27.000Z</time>
      </trkpt>
      <trkpt lat="45.06461" lon="5.97381">
        <ele>1721.6</ele>
        <time>2018-02-23T08:29:31.000Z</time>
      </trkpt>
      <trkpt lat="45.06458" lon="5.9738">
        <ele>1722.1</ele>
        <time>2018-02-23T08:29:35.000Z</time>
      </trkpt>
      <trkpt lat="45.06456" lon="5.97378">
        <ele>1722.5</ele>
        <time>2018-02-23T08:29:39.000Z</time>
      </trkpt>
      <trkpt lat="45.06452" lon="5.97375">
        <ele>1723.2</ele>
        <time>2018-02-23T08:29:42.000Z</time>
      </trkpt>
      <trkpt lat="45.06454" lon="5.9737">
        <ele>1723.7</ele>
        <time>2018-02-23T08:29:49.000Z</time>
      </trkpt>
      <trkpt lat="45.06456" lon="5.97367">
        <ele>1724.1</ele>
        <time>2018-02-23T08:29:52.000Z</time>
      </trkpt>
      <trkpt lat="45.06459" lon="5.97364">
        <ele>1724.7</ele>
        <time>2018-02-23T08:29:55.000Z</time>
      </trkpt>
      <trkpt lat="45.0646" lon="5.9736">
        <ele>1725.2</ele>
        <time>2018-02-23T08:30:00.000Z</time>
      </trkpt>
      <trkpt lat="45.06462" lon="5.97358">
        <ele>1725.7</ele>
        <time>2018-02-23T08:30:06.000Z</time>
      </trkpt>
      <trkpt lat="45.06464" lon="5.97356">
        <ele>1726.1</ele>
        <time>2018-02-23T08:30:09.000Z</time>
      </trkpt>
      <trkpt lat="45.06467" lon="5.97353">
        <ele>1726.5</ele>
        <time>2018-02-23T08:30:14.000Z</time>
      </trkpt>
      <trkpt lat="45.0647" lon="5.97351">
        <ele>1726.9</ele>
        <time>2018-02-23T08:30:17.000Z</time>
      </trkpt>
      <trkpt lat="45.06472" lon="5.97348">
        <ele>1727.3</ele>
        <time>2018-02-23T08:30:21.000Z</time>
      </trkpt>
      <trkpt lat="45.06474" lon="5.97346">
        <ele>1727.6</ele>
        <time>2018-02-23T08:30:24.000Z</time>
      </trkpt>
      <trkpt lat="45.06477" lon="5.97345">
        <ele>1728</ele>
        <time>2018-02-23T08:30:27.000Z</time>
      </trkpt>
      <trkpt lat="45.06479" lon="5.97341">
        <ele>1728.4</ele>
        <time>2018-02-23T08:30:30.000Z</time>
      </trkpt>
      <trkpt lat="45.06479" lon="5.97337">
        <ele>1728.8</ele>
        <time>2018-02-23T08:30:36.000Z</time>
      </trkpt>
      <trkpt lat="45.06483" lon="5.97336">
        <ele>1729.4</ele>
        <time>2018-02-23T08:30:38.000Z</time>
      </trkpt>
      <trkpt lat="45.06487" lon="5.97334">
        <ele>1730.3</ele>
        <time>2018-02-23T08:30:42.000Z</time>
      </trkpt>
      <trkpt lat="45.06484" lon="5.97331">
        <ele>1731</ele>
        <time>2018-02-23T08:30:45.000Z</time>
      </trkpt>
      <trkpt lat="45.06481" lon="5.97329">
        <ele>1731.6</ele>
        <time>2018-02-23T08:30:48.000Z</time>
      </trkpt>
      <trkpt lat="45.06479" lon="5.97326">
        <ele>1733.6</ele>
        <time>2018-02-23T08:30:57.000Z</time>
      </trkpt>
      <trkpt lat="45.06476" lon="5.97324">
        <ele>1733.5</ele>
        <time>2018-02-23T08:31:00.000Z</time>
      </trkpt>
      <trkpt lat="45.06473" lon="5.97324">
        <ele>1733.4</ele>
        <time>2018-02-23T08:31:05.000Z</time>
      </trkpt>
      <trkpt lat="45.06471" lon="5.97322">
        <ele>1733.3</ele>
        <time>2018-02-23T08:31:11.000Z</time>
      </trkpt>
      <trkpt lat="45.06468" lon="5.97321">
        <ele>1733.1</ele>
        <time>2018-02-23T08:31:14.000Z</time>
      </trkpt>
      <trkpt lat="45.06466" lon="5.97318">
        <ele>1733</ele>
        <time>2018-02-23T08:31:17.000Z</time>
      </trkpt>
      <trkpt lat="45.06463" lon="5.97317">
        <ele>1732.9</ele>
        <time>2018-02-23T08:31:21.000Z</time>
      </trkpt>
      <trkpt lat="45.0646" lon="5.97318">
        <ele>1732.7</ele>
        <time>2018-02-23T08:31:26.000Z</time>
      </trkpt>
      <trkpt lat="45.06456" lon="5.97318">
        <ele>1733</ele>
        <time>2018-02-23T08:31:34.000Z</time>
      </trkpt>
      <trkpt lat="45.06453" lon="5.97317">
        <ele>1735.3</ele>
        <time>2018-02-23T08:31:41.000Z</time>
      </trkpt>
      <trkpt lat="45.0645" lon="5.97316">
        <ele>1735.5</ele>
        <time>2018-02-23T08:31:47.000Z</time>
      </trkpt>
      <trkpt lat="45.06448" lon="5.97314">
        <ele>1735.6</ele>
        <time>2018-02-23T08:31:51.000Z</time>
      </trkpt>
      <trkpt lat="45.06445" lon="5.97311">
        <ele>1737.6</ele>
        <time>2018-02-23T08:31:56.000Z</time>
      </trkpt>
      <trkpt lat="45.06445" lon="5.97307">
        <ele>1739.9</ele>
        <time>2018-02-23T08:32:02.000Z</time>
      </trkpt>
      <trkpt lat="45.06446" lon="5.97304">
        <ele>1742.6</ele>
        <time>2018-02-23T08:32:05.000Z</time>
      </trkpt>
      <trkpt lat="45.06448" lon="5.973">
        <ele>1743</ele>
        <time>2018-02-23T08:32:07.000Z</time>
      </trkpt>
      <trkpt lat="45.0645" lon="5.97296">
        <ele>1745.6</ele>
        <time>2018-02-23T08:32:12.000Z</time>
      </trkpt>
      <trkpt lat="45.06452" lon="5.97293">
        <ele>1748.1</ele>
        <time>2018-02-23T08:32:15.000Z</time>
      </trkpt>
      <trkpt lat="45.06454" lon="5.9729">
        <ele>1750.5</ele>
        <time>2018-02-23T08:32:18.000Z</time>
      </trkpt>
      <trkpt lat="45.06458" lon="5.97286">
        <ele>1753.1</ele>
        <time>2018-02-23T08:32:22.000Z</time>
      </trkpt>
      <trkpt lat="45.0646" lon="5.97284">
        <ele>1753.7</ele>
        <time>2018-02-23T08:32:26.000Z</time>
      </trkpt>
      <trkpt lat="45.06458" lon="5.9728">
        <ele>1756.1</ele>
        <time>2018-02-23T08:32:30.000Z</time>
      </trkpt>
      <trkpt lat="45.0646" lon="5.97276">
        <ele>1758.6</ele>
        <time>2018-02-23T08:32:36.000Z</time>
      </trkpt>
      <trkpt lat="45.06463" lon="5.97274">
        <ele>1761.1</ele>
        <time>2018-02-23T08:32:40.000Z</time>
      </trkpt>
      <trkpt lat="45.0646" lon="5.9727">
        <ele>1762.1</ele>
        <time>2018-02-23T08:32:49.000Z</time>
      </trkpt>
      <trkpt lat="45.06457" lon="5.97269">
        <ele>1762.8</ele>
        <time>2018-02-23T08:32:52.000Z</time>
      </trkpt>
      <trkpt lat="45.06454" lon="5.97266">
        <ele>1763.7</ele>
        <time>2018-02-23T08:32:56.000Z</time>
      </trkpt>
      <trkpt lat="45.0645" lon="5.97263">
        <ele>1764.7</ele>
        <time>2018-02-23T08:32:58.000Z</time>
      </trkpt>
      <trkpt lat="45.06447" lon="5.97263">
        <ele>1765.3</ele>
        <time>2018-02-23T08:33:04.000Z</time>
      </trkpt>
      <trkpt lat="45.06444" lon="5.97261">
        <ele>1766</ele>
        <time>2018-02-23T08:33:09.000Z</time>
      </trkpt>
      <trkpt lat="45.06441" lon="5.9726">
        <ele>1766.8</ele>
        <time>2018-02-23T08:33:15.000Z</time>
      </trkpt>
      <trkpt lat="45.06438" lon="5.97258">
        <ele>1767.9</ele>
        <time>2018-02-23T08:33:20.000Z</time>
      </trkpt>
      <trkpt lat="45.06434" lon="5.97257">
        <ele>1769.2</ele>
        <time>2018-02-23T08:33:26.000Z</time>
      </trkpt>
      <trkpt lat="45.06432" lon="5.97254">
        <ele>1770.1</ele>
        <time>2018-02-23T08:33:45.000Z</time>
      </trkpt>
      <trkpt lat="45.06433" lon="5.9725">
        <ele>1771.3</ele>
        <time>2018-02-23T08:33:53.000Z</time>
      </trkpt>
      <trkpt lat="45.06435" lon="5.97248">
        <ele>1772.8</ele>
        <time>2018-02-23T08:33:56.000Z</time>
      </trkpt>
      <trkpt lat="45.06437" lon="5.97244">
        <ele>1774.9</ele>
        <time>2018-02-23T08:34:03.000Z</time>
      </trkpt>
      <trkpt lat="45.06439" lon="5.97241">
        <ele>1776.1</ele>
        <time>2018-02-23T08:34:08.000Z</time>
      </trkpt>
      <trkpt lat="45.06436" lon="5.97239">
        <ele>1777.5</ele>
        <time>2018-02-23T08:34:14.000Z</time>
      </trkpt>
      <trkpt lat="45.06433" lon="5.97238">
        <ele>1778.6</ele>
        <time>2018-02-23T08:34:18.000Z</time>
      </trkpt>
      <trkpt lat="45.0643" lon="5.97236">
        <ele>1779.7</ele>
        <time>2018-02-23T08:34:23.000Z</time>
      </trkpt>
      <trkpt lat="45.06427" lon="5.97234">
        <ele>1780.7</ele>
        <time>2018-02-23T08:34:27.000Z</time>
      </trkpt>
      <trkpt lat="45.06425" lon="5.97231">
        <ele>1780.9</ele>
        <time>2018-02-23T08:34:32.000Z</time>
      </trkpt>
      <trkpt lat="45.06427" lon="5.97229">
        <ele>1780.6</ele>
        <time>2018-02-23T08:34:40.000Z</time>
      </trkpt>
      <trkpt lat="45.06431" lon="5.97229">
        <ele>1780.2</ele>
        <time>2018-02-23T08:34:44.000Z</time>
      </trkpt>
      <trkpt lat="45.06434" lon="5.97226">
        <ele>1779.8</ele>
        <time>2018-02-23T08:34:51.000Z</time>
      </trkpt>
      <trkpt lat="45.06435" lon="5.97222">
        <ele>1779.5</ele>
        <time>2018-02-23T08:35:04.000Z</time>
      </trkpt>
      <trkpt lat="45.06438" lon="5.97221">
        <ele>1779.2</ele>
        <time>2018-02-23T08:35:08.000Z</time>
      </trkpt>
      <trkpt lat="45.06443" lon="5.9722">
        <ele>1778.6</ele>
        <time>2018-02-23T08:35:15.000Z</time>
      </trkpt>
      <trkpt lat="45.06446" lon="5.97218">
        <ele>1778.2</ele>
        <time>2018-02-23T08:35:20.000Z</time>
      </trkpt>
      <trkpt lat="45.06444" lon="5.97217">
        <ele>1777.9</ele>
        <time>2018-02-23T08:35:22.000Z</time>
      </trkpt>
      <trkpt lat="45.06442" lon="5.97214">
        <ele>1777.5</ele>
        <time>2018-02-23T08:35:36.000Z</time>
      </trkpt>
      <trkpt lat="45.06444" lon="5.97213">
        <ele>1777.2</ele>
        <time>2018-02-23T08:35:43.000Z</time>
      </trkpt>
      <trkpt lat="45.06448" lon="5.97213">
        <ele>1776.7</ele>
        <time>2018-02-23T08:35:47.000Z</time>
      </trkpt>
      <trkpt lat="45.06451" lon="5.97212">
        <ele>1776.2</ele>
        <time>2018-02-23T08:35:52.000Z</time>
      </trkpt>
      <trkpt lat="45.06454" lon="5.97209">
        <ele>1775.8</ele>
        <time>2018-02-23T08:35:57.000Z</time>
      </trkpt>
      <trkpt lat="45.06458" lon="5.97209">
        <ele>1775.3</ele>
        <time>2018-02-23T08:36:00.000Z</time>
      </trkpt>
      <trkpt lat="45.0646" lon="5.97206">
        <ele>1774.9</ele>
        <time>2018-02-23T08:36:08.000Z</time>
      </trkpt>
      <trkpt lat="45.06462" lon="5.97205">
        <ele>1776.6</ele>
        <time>2018-02-23T08:36:11.000Z</time>
      </trkpt>
      <trkpt lat="45.06466" lon="5.97203">
        <ele>1776.6</ele>
        <time>2018-02-23T08:36:16.000Z</time>
      </trkpt>
      <trkpt lat="45.06468" lon="5.97202">
        <ele>1776.5</ele>
        <time>2018-02-23T08:36:21.000Z</time>
      </trkpt>
      <trkpt lat="45.0647" lon="5.97198">
        <ele>1778.2</ele>
        <time>2018-02-23T08:36:28.000Z</time>
      </trkpt>
      <trkpt lat="45.06472" lon="5.97194">
        <ele>1779.9</ele>
        <time>2018-02-23T08:36:34.000Z</time>
      </trkpt>
      <trkpt lat="45.06475" lon="5.97192">
        <ele>1781.5</ele>
        <time>2018-02-23T08:36:44.000Z</time>
      </trkpt>
      <trkpt lat="45.06477" lon="5.9719">
        <ele>1781.3</ele>
        <time>2018-02-23T08:36:51.000Z</time>
      </trkpt>
      <trkpt lat="45.0648" lon="5.97187">
        <ele>1782.8</ele>
        <time>2018-02-23T08:36:56.000Z</time>
      </trkpt>
      <trkpt lat="45.06478" lon="5.97185">
        <ele>1783</ele>
        <time>2018-02-23T08:36:58.000Z</time>
      </trkpt>
      <trkpt lat="45.06478" lon="5.97181">
        <ele>1784.7</ele>
        <time>2018-02-23T08:37:02.000Z</time>
      </trkpt>
      <trkpt lat="45.06481" lon="5.97179">
        <ele>1786</ele>
        <time>2018-02-23T08:37:04.000Z</time>
      </trkpt>
      <trkpt lat="45.06484" lon="5.97177">
        <ele>1785.7</ele>
        <time>2018-02-23T08:37:08.000Z</time>
      </trkpt>
      <trkpt lat="45.06487" lon="5.97174">
        <ele>1787</ele>
        <time>2018-02-23T08:37:15.000Z</time>
      </trkpt>
      <trkpt lat="45.06489" lon="5.9717">
        <ele>1788.2</ele>
        <time>2018-02-23T08:37:20.000Z</time>
      </trkpt>
      <trkpt lat="45.0649" lon="5.97165">
        <ele>1789.7</ele>
        <time>2018-02-23T08:37:24.000Z</time>
      </trkpt>
      <trkpt lat="45.0649" lon="5.97161">
        <ele>1791.2</ele>
        <time>2018-02-23T08:37:31.000Z</time>
      </trkpt>
      <trkpt lat="45.06491" lon="5.97156">
        <ele>1792.7</ele>
        <time>2018-02-23T08:37:38.000Z</time>
      </trkpt>
      <trkpt lat="45.0649" lon="5.97152">
        <ele>1794.3</ele>
        <time>2018-02-23T08:37:43.000Z</time>
      </trkpt>
      <trkpt lat="45.06492" lon="5.97149">
        <ele>1795.7</ele>
        <time>2018-02-23T08:37:47.000Z</time>
      </trkpt>
      <trkpt lat="45.06494" lon="5.97146">
        <ele>1795.6</ele>
        <time>2018-02-23T08:37:50.000Z</time>
      </trkpt>
      <trkpt lat="45.06497" lon="5.97143">
        <ele>1797</ele>
        <time>2018-02-23T08:37:54.000Z</time>
      </trkpt>
      <trkpt lat="45.06498" lon="5.97139">
        <ele>1798.4</ele>
        <time>2018-02-23T08:37:57.000Z</time>
      </trkpt>
      <trkpt lat="45.065" lon="5.97135">
        <ele>1800</ele>
        <time>2018-02-23T08:38:02.000Z</time>
      </trkpt>
      <trkpt lat="45.06501" lon="5.97131">
        <ele>1801.2</ele>
        <time>2018-02-23T08:38:08.000Z</time>
      </trkpt>
      <trkpt lat="45.06506" lon="5.9713">
        <ele>1800.8</ele>
        <time>2018-02-23T08:38:12.000Z</time>
      </trkpt>
      <trkpt lat="45.06507" lon="5.97125">
        <ele>1801.8</ele>
        <time>2018-02-23T08:38:16.000Z</time>
      </trkpt>
      <trkpt lat="45.06507" lon="5.97121">
        <ele>1803.2</ele>
        <time>2018-02-23T08:38:20.000Z</time>
      </trkpt>
      <trkpt lat="45.06509" lon="5.97117">
        <ele>1804.6</ele>
        <time>2018-02-23T08:38:25.000Z</time>
      </trkpt>
      <trkpt lat="45.06509" lon="5.97113">
        <ele>1806</ele>
        <time>2018-02-23T08:38:29.000Z</time>
      </trkpt>
      <trkpt lat="45.06509" lon="5.97109">
        <ele>1807.5</ele>
        <time>2018-02-23T08:38:35.000Z</time>
      </trkpt>
      <trkpt lat="45.06511" lon="5.97106">
        <ele>1808.6</ele>
        <time>2018-02-23T08:38:38.000Z</time>
      </trkpt>
      <trkpt lat="45.06513" lon="5.97104">
        <ele>1808.3</ele>
        <time>2018-02-23T08:38:41.000Z</time>
      </trkpt>
      <trkpt lat="45.06514" lon="5.971">
        <ele>1809.9</ele>
        <time>2018-02-23T08:38:46.000Z</time>
      </trkpt>
      <trkpt lat="45.06513" lon="5.97095">
        <ele>1811.4</ele>
        <time>2018-02-23T08:38:51.000Z</time>
      </trkpt>
      <trkpt lat="45.06512" lon="5.97092">
        <ele>1813.2</ele>
        <time>2018-02-23T08:38:55.000Z</time>
      </trkpt>
      <trkpt lat="45.06509" lon="5.97089">
        <ele>1815</ele>
        <time>2018-02-23T08:39:02.000Z</time>
      </trkpt>
      <trkpt lat="45.06506" lon="5.97087">
        <ele>1815.3</ele>
        <time>2018-02-23T08:39:06.000Z</time>
      </trkpt>
      <trkpt lat="45.06502" lon="5.97086">
        <ele>1815.5</ele>
        <time>2018-02-23T08:39:10.000Z</time>
      </trkpt>
      <trkpt lat="45.06499" lon="5.97087">
        <ele>1815.8</ele>
        <time>2018-02-23T08:39:15.000Z</time>
      </trkpt>
      <trkpt lat="45.06495" lon="5.97088">
        <ele>1816.1</ele>
        <time>2018-02-23T08:39:19.000Z</time>
      </trkpt>
      <trkpt lat="45.06493" lon="5.97085">
        <ele>1817.7</ele>
        <time>2018-02-23T08:39:22.000Z</time>
      </trkpt>
      <trkpt lat="45.0649" lon="5.97086">
        <ele>1816.5</ele>
        <time>2018-02-23T08:39:28.000Z</time>
      </trkpt>
      <trkpt lat="45.06489" lon="5.97083">
        <ele>1817.9</ele>
        <time>2018-02-23T08:39:32.000Z</time>
      </trkpt>
      <trkpt lat="45.06488" lon="5.97079">
        <ele>1819.4</ele>
        <time>2018-02-23T08:39:44.000Z</time>
      </trkpt>
      <trkpt lat="45.0649" lon="5.97075">
        <ele>1820.5</ele>
        <time>2018-02-23T08:39:47.000Z</time>
      </trkpt>
      <trkpt lat="45.06492" lon="5.97071">
        <ele>1821.6</ele>
        <time>2018-02-23T08:39:50.000Z</time>
      </trkpt>
      <trkpt lat="45.06491" lon="5.97066">
        <ele>1823</ele>
        <time>2018-02-23T08:39:54.000Z</time>
      </trkpt>
      <trkpt lat="45.0649" lon="5.97062">
        <ele>1824.2</ele>
        <time>2018-02-23T08:39:57.000Z</time>
      </trkpt>
      <trkpt lat="45.0649" lon="5.97057">
        <ele>1825.5</ele>
        <time>2018-02-23T08:40:02.000Z</time>
      </trkpt>
      <trkpt lat="45.06493" lon="5.97057">
        <ele>1825.4</ele>
        <time>2018-02-23T08:47:39.000Z</time>
      </trkpt>
      <trkpt lat="45.06493" lon="5.97053">
        <ele>1826.6</ele>
        <time>2018-02-23T08:51:04.000Z</time>
      </trkpt>
      <trkpt lat="45.06495" lon="5.97049">
        <ele>1827.8</ele>
        <time>2018-02-23T08:51:07.000Z</time>
      </trkpt>
      <trkpt lat="45.06495" lon="5.97045">
        <ele>1829</ele>
        <time>2018-02-23T08:51:10.000Z</time>
      </trkpt>
      <trkpt lat="45.06496" lon="5.97039">
        <ele>1830.1</ele>
        <time>2018-02-23T08:51:14.000Z</time>
      </trkpt>
      <trkpt lat="45.06497" lon="5.97035">
        <ele>1831.2</ele>
        <time>2018-02-23T08:51:18.000Z</time>
      </trkpt>
      <trkpt lat="45.06496" lon="5.97031">
        <ele>1832.2</ele>
        <time>2018-02-23T08:51:21.000Z</time>
      </trkpt>
      <trkpt lat="45.06496" lon="5.97026">
        <ele>1833.3</ele>
        <time>2018-02-23T08:51:25.000Z</time>
      </trkpt>
      <trkpt lat="45.06497" lon="5.97022">
        <ele>1834.4</ele>
        <time>2018-02-23T08:51:29.000Z</time>
      </trkpt>
      <trkpt lat="45.06499" lon="5.97018">
        <ele>1835.5</ele>
        <time>2018-02-23T08:51:32.000Z</time>
      </trkpt>
      <trkpt lat="45.06501" lon="5.97014">
        <ele>1836.6</ele>
        <time>2018-02-23T08:51:36.000Z</time>
      </trkpt>
      <trkpt lat="45.06503" lon="5.9701">
        <ele>1837.9</ele>
        <time>2018-02-23T08:51:59.000Z</time>
      </trkpt>
      <trkpt lat="45.06503" lon="5.97006">
        <ele>1839.1</ele>
        <time>2018-02-23T08:52:02.000Z</time>
      </trkpt>
      <trkpt lat="45.06505" lon="5.97004">
        <ele>1840.4</ele>
        <time>2018-02-23T08:52:05.000Z</time>
      </trkpt>
      <trkpt lat="45.06508" lon="5.97002">
        <ele>1840.3</ele>
        <time>2018-02-23T08:52:07.000Z</time>
      </trkpt>
      <trkpt lat="45.0651" lon="5.96998">
        <ele>1841.5</ele>
        <time>2018-02-23T08:52:10.000Z</time>
      </trkpt>
      <trkpt lat="45.06513" lon="5.96996">
        <ele>1841.4</ele>
        <time>2018-02-23T08:52:13.000Z</time>
      </trkpt>
      <trkpt lat="45.06512" lon="5.96992">
        <ele>1842.7</ele>
        <time>2018-02-23T08:52:19.000Z</time>
      </trkpt>
      <trkpt lat="45.0651" lon="5.96989">
        <ele>1843.9</ele>
        <time>2018-02-23T08:52:23.000Z</time>
      </trkpt>
      <trkpt lat="45.06507" lon="5.96987">
        <ele>1844</ele>
        <time>2018-02-23T08:52:26.000Z</time>
      </trkpt>
      <trkpt lat="45.06504" lon="5.96987">
        <ele>1844</ele>
        <time>2018-02-23T08:52:30.000Z</time>
      </trkpt>
      <trkpt lat="45.06501" lon="5.96983">
        <ele>1845</ele>
        <time>2018-02-23T08:52:34.000Z</time>
      </trkpt>
      <trkpt lat="45.06497" lon="5.96982">
        <ele>1846</ele>
        <time>2018-02-23T08:52:38.000Z</time>
      </trkpt>
      <trkpt lat="45.06495" lon="5.9698">
        <ele>1846</ele>
        <time>2018-02-23T08:52:41.000Z</time>
      </trkpt>
      <trkpt lat="45.06493" lon="5.96976">
        <ele>1847</ele>
        <time>2018-02-23T08:52:44.000Z</time>
      </trkpt>
      <trkpt lat="45.0649" lon="5.96974">
        <ele>1846.8</ele>
        <time>2018-02-23T08:52:48.000Z</time>
      </trkpt>
      <trkpt lat="45.06487" lon="5.96971">
        <ele>1847.8</ele>
        <time>2018-02-23T08:52:55.000Z</time>
      </trkpt>
      <trkpt lat="45.06485" lon="5.96968">
        <ele>1848.8</ele>
        <time>2018-02-23T08:53:00.000Z</time>
      </trkpt>
      <trkpt lat="45.06483" lon="5.96964">
        <ele>1849.9</ele>
        <time>2018-02-23T08:53:04.000Z</time>
      </trkpt>
      <trkpt lat="45.0648" lon="5.96962">
        <ele>1849.7</ele>
        <time>2018-02-23T08:53:09.000Z</time>
      </trkpt>
      <trkpt lat="45.06484" lon="5.96959">
        <ele>1851.1</ele>
        <time>2018-02-23T08:53:13.000Z</time>
      </trkpt>
      <trkpt lat="45.06487" lon="5.96956">
        <ele>1852.4</ele>
        <time>2018-02-23T08:53:16.000Z</time>
      </trkpt>
      <trkpt lat="45.0649" lon="5.96955">
        <ele>1852.6</ele>
        <time>2018-02-23T08:53:17.000Z</time>
      </trkpt>
      <trkpt lat="45.06492" lon="5.96951">
        <ele>1853.9</ele>
        <time>2018-02-23T08:53:20.000Z</time>
      </trkpt>
      <trkpt lat="45.06495" lon="5.96949">
        <ele>1854.1</ele>
        <time>2018-02-23T08:53:24.000Z</time>
      </trkpt>
      <trkpt lat="45.06496" lon="5.96945">
        <ele>1855.2</ele>
        <time>2018-02-23T08:53:30.000Z</time>
      </trkpt>
      <trkpt lat="45.06494" lon="5.96941">
        <ele>1856.1</ele>
        <time>2018-02-23T08:53:34.000Z</time>
      </trkpt>
      <trkpt lat="45.06497" lon="5.96938">
        <ele>1857.5</ele>
        <time>2018-02-23T08:53:39.000Z</time>
      </trkpt>
      <trkpt lat="45.065" lon="5.96935">
        <ele>1858.9</ele>
        <time>2018-02-23T08:53:43.000Z</time>
      </trkpt>
      <trkpt lat="45.06502" lon="5.96933">
        <ele>1859.1</ele>
        <time>2018-02-23T08:53:47.000Z</time>
      </trkpt>
      <trkpt lat="45.06505" lon="5.96931">
        <ele>1860.6</ele>
        <time>2018-02-23T08:53:51.000Z</time>
      </trkpt>
      <trkpt lat="45.06503" lon="5.96927">
        <ele>1860.3</ele>
        <time>2018-02-23T08:53:57.000Z</time>
      </trkpt>
      <trkpt lat="45.06501" lon="5.96926">
        <ele>1861.7</ele>
        <time>2018-02-23T08:54:00.000Z</time>
      </trkpt>
      <trkpt lat="45.06498" lon="5.96924">
        <ele>1861.4</ele>
        <time>2018-02-23T08:54:04.000Z</time>
      </trkpt>
      <trkpt lat="45.06496" lon="5.96922">
        <ele>1862.6</ele>
        <time>2018-02-23T08:54:07.000Z</time>
      </trkpt>
      <trkpt lat="45.06494" lon="5.9692">
        <ele>1862.4</ele>
        <time>2018-02-23T08:54:11.000Z</time>
      </trkpt>
      <trkpt lat="45.06492" lon="5.96917">
        <ele>1863.8</ele>
        <time>2018-02-23T08:54:16.000Z</time>
      </trkpt>
      <trkpt lat="45.0649" lon="5.96914">
        <ele>1863.6</ele>
        <time>2018-02-23T08:54:19.000Z</time>
      </trkpt>
      <trkpt lat="45.06487" lon="5.96911">
        <ele>1864.7</ele>
        <time>2018-02-23T08:54:25.000Z</time>
      </trkpt>
      <trkpt lat="45.06485" lon="5.96908">
        <ele>1865.7</ele>
        <time>2018-02-23T08:54:29.000Z</time>
      </trkpt>
      <trkpt lat="45.06484" lon="5.96904">
        <ele>1866.9</ele>
        <time>2018-02-23T08:54:35.000Z</time>
      </trkpt>
      <trkpt lat="45.06483" lon="5.96901">
        <ele>1868.1</ele>
        <time>2018-02-23T08:54:38.000Z</time>
      </trkpt>
      <trkpt lat="45.06479" lon="5.96899">
        <ele>1867.8</ele>
        <time>2018-02-23T08:54:42.000Z</time>
      </trkpt>
      <trkpt lat="45.06478" lon="5.96895">
        <ele>1868.6</ele>
        <time>2018-02-23T08:54:45.000Z</time>
      </trkpt>
      <trkpt lat="45.06475" lon="5.96893">
        <ele>1868.3</ele>
        <time>2018-02-23T08:54:50.000Z</time>
      </trkpt>
      <trkpt lat="45.06474" lon="5.96889">
        <ele>1869.5</ele>
        <time>2018-02-23T08:54:56.000Z</time>
      </trkpt>
      <trkpt lat="45.06472" lon="5.96886">
        <ele>1870.4</ele>
        <time>2018-02-23T08:55:00.000Z</time>
      </trkpt>
      <trkpt lat="45.06471" lon="5.96881">
        <ele>1871.6</ele>
        <time>2018-02-23T08:55:04.000Z</time>
      </trkpt>
      <trkpt lat="45.06469" lon="5.96877">
        <ele>1872.6</ele>
        <time>2018-02-23T08:55:07.000Z</time>
      </trkpt>
      <trkpt lat="45.06467" lon="5.96873">
        <ele>1873.8</ele>
        <time>2018-02-23T08:55:10.000Z</time>
      </trkpt>
      <trkpt lat="45.06467" lon="5.96868">
        <ele>1874.8</ele>
        <time>2018-02-23T08:55:15.000Z</time>
      </trkpt>
      <trkpt lat="45.06465" lon="5.96864">
        <ele>1876</ele>
        <time>2018-02-23T08:55:19.000Z</time>
      </trkpt>
      <trkpt lat="45.06464" lon="5.96861">
        <ele>1876.9</ele>
        <time>2018-02-23T08:55:23.000Z</time>
      </trkpt>
      <trkpt lat="45.06462" lon="5.96857">
        <ele>1878</ele>
        <time>2018-02-23T08:55:27.000Z</time>
      </trkpt>
      <trkpt lat="45.06459" lon="5.96855">
        <ele>1877.8</ele>
        <time>2018-02-23T08:55:30.000Z</time>
      </trkpt>
      <trkpt lat="45.06458" lon="5.96851">
        <ele>1878.7</ele>
        <time>2018-02-23T08:55:35.000Z</time>
      </trkpt>
      <trkpt lat="45.06456" lon="5.96848">
        <ele>1879.8</ele>
        <time>2018-02-23T08:55:40.000Z</time>
      </trkpt>
      <trkpt lat="45.06456" lon="5.96843">
        <ele>1880.8</ele>
        <time>2018-02-23T08:55:43.000Z</time>
      </trkpt>
      <trkpt lat="45.06454" lon="5.96838">
        <ele>1881.8</ele>
        <time>2018-02-23T08:55:49.000Z</time>
      </trkpt>
      <trkpt lat="45.06452" lon="5.96834">
        <ele>1883</ele>
        <time>2018-02-23T08:55:54.000Z</time>
      </trkpt>
      <trkpt lat="45.06452" lon="5.9683">
        <ele>1883.7</ele>
        <time>2018-02-23T08:55:57.000Z</time>
      </trkpt>
      <trkpt lat="45.06452" lon="5.96824">
        <ele>1884.5</ele>
        <time>2018-02-23T08:56:01.000Z</time>
      </trkpt>
      <trkpt lat="45.06453" lon="5.9682">
        <ele>1885.1</ele>
        <time>2018-02-23T08:56:05.000Z</time>
      </trkpt>
      <trkpt lat="45.06456" lon="5.96818">
        <ele>1885.7</ele>
        <time>2018-02-23T08:56:09.000Z</time>
      </trkpt>
      <trkpt lat="45.06458" lon="5.96816">
        <ele>1886.3</ele>
        <time>2018-02-23T08:56:13.000Z</time>
      </trkpt>
      <trkpt lat="45.06461" lon="5.96812">
        <ele>1887.2</ele>
        <time>2018-02-23T08:56:16.000Z</time>
      </trkpt>
      <trkpt lat="45.06463" lon="5.96808">
        <ele>1887.9</ele>
        <time>2018-02-23T08:56:20.000Z</time>
      </trkpt>
      <trkpt lat="45.06465" lon="5.96806">
        <ele>1888.5</ele>
        <time>2018-02-23T08:56:24.000Z</time>
      </trkpt>
      <trkpt lat="45.06469" lon="5.96804">
        <ele>1889.4</ele>
        <time>2018-02-23T08:56:27.000Z</time>
      </trkpt>
      <trkpt lat="45.06471" lon="5.96801">
        <ele>1890.1</ele>
        <time>2018-02-23T08:56:31.000Z</time>
      </trkpt>
      <trkpt lat="45.06474" lon="5.96799">
        <ele>1890.9</ele>
        <time>2018-02-23T08:56:36.000Z</time>
      </trkpt>
      <trkpt lat="45.06476" lon="5.96796">
        <ele>1891.5</ele>
        <time>2018-02-23T08:56:41.000Z</time>
      </trkpt>
      <trkpt lat="45.06479" lon="5.96796">
        <ele>1892.3</ele>
        <time>2018-02-23T08:56:45.000Z</time>
      </trkpt>
      <trkpt lat="45.06482" lon="5.96794">
        <ele>1893</ele>
        <time>2018-02-23T08:56:48.000Z</time>
      </trkpt>
      <trkpt lat="45.06482" lon="5.96789">
        <ele>1893.9</ele>
        <time>2018-02-23T08:56:53.000Z</time>
      </trkpt>
      <trkpt lat="45.06485" lon="5.96786">
        <ele>1895</ele>
        <time>2018-02-23T08:56:58.000Z</time>
      </trkpt>
      <trkpt lat="45.06485" lon="5.96781">
        <ele>1896</ele>
        <time>2018-02-23T08:57:03.000Z</time>
      </trkpt>
      <trkpt lat="45.06483" lon="5.96777">
        <ele>1897</ele>
        <time>2018-02-23T08:57:07.000Z</time>
      </trkpt>
      <trkpt lat="45.06481" lon="5.96774">
        <ele>1897.8</ele>
        <time>2018-02-23T08:57:11.000Z</time>
      </trkpt>
      <trkpt lat="45.0648" lon="5.96769">
        <ele>1898.8</ele>
        <time>2018-02-23T08:57:16.000Z</time>
      </trkpt>
      <trkpt lat="45.06478" lon="5.96766">
        <ele>1899.4</ele>
        <time>2018-02-23T08:57:19.000Z</time>
      </trkpt>
      <trkpt lat="45.06476" lon="5.96764">
        <ele>1900.1</ele>
        <time>2018-02-23T08:57:23.000Z</time>
      </trkpt>
      <trkpt lat="45.06475" lon="5.9676">
        <ele>1900.7</ele>
        <time>2018-02-23T08:57:27.000Z</time>
      </trkpt>
      <trkpt lat="45.06473" lon="5.96756">
        <ele>1901.4</ele>
        <time>2018-02-23T08:57:31.000Z</time>
      </trkpt>
      <trkpt lat="45.06473" lon="5.96751">
        <ele>1902</ele>
        <time>2018-02-23T08:57:35.000Z</time>
      </trkpt>
      <trkpt lat="45.06472" lon="5.96747">
        <ele>1902.6</ele>
        <time>2018-02-23T08:57:40.000Z</time>
      </trkpt>
      <trkpt lat="45.06472" lon="5.96742">
        <ele>1903.3</ele>
        <time>2018-02-23T08:57:45.000Z</time>
      </trkpt>
      <trkpt lat="45.06471" lon="5.96737">
        <ele>1903.9</ele>
        <time>2018-02-23T08:57:48.000Z</time>
      </trkpt>
      <trkpt lat="45.06468" lon="5.96735">
        <ele>1904.5</ele>
        <time>2018-02-23T08:57:52.000Z</time>
      </trkpt>
      <trkpt lat="45.06468" lon="5.96731">
        <ele>1904.9</ele>
        <time>2018-02-23T08:57:56.000Z</time>
      </trkpt>
      <trkpt lat="45.06468" lon="5.96727">
        <ele>1905.5</ele>
        <time>2018-02-23T08:58:01.000Z</time>
      </trkpt>
      <trkpt lat="45.06468" lon="5.96723">
        <ele>1905.9</ele>
        <time>2018-02-23T08:58:07.000Z</time>
      </trkpt>
      <trkpt lat="45.06472" lon="5.96721">
        <ele>1906.5</ele>
        <time>2018-02-23T08:58:10.000Z</time>
      </trkpt>
      <trkpt lat="45.0647" lon="5.96717">
        <ele>1907</ele>
        <time>2018-02-23T08:58:12.000Z</time>
      </trkpt>
      <trkpt lat="45.06468" lon="5.96714">
        <ele>1907.5</ele>
        <time>2018-02-23T08:58:14.000Z</time>
      </trkpt>
      <trkpt lat="45.06467" lon="5.9671">
        <ele>1907.9</ele>
        <time>2018-02-23T08:58:18.000Z</time>
      </trkpt>
      <trkpt lat="45.06466" lon="5.96706">
        <ele>1908.3</ele>
        <time>2018-02-23T08:58:22.000Z</time>
      </trkpt>
      <trkpt lat="45.06466" lon="5.96702">
        <ele>1908.8</ele>
        <time>2018-02-23T08:58:27.000Z</time>
      </trkpt>
      <trkpt lat="45.06467" lon="5.96698">
        <ele>1909.3</ele>
        <time>2018-02-23T08:58:31.000Z</time>
      </trkpt>
      <trkpt lat="45.06468" lon="5.96694">
        <ele>1909.7</ele>
        <time>2018-02-23T08:58:35.000Z</time>
      </trkpt>
      <trkpt lat="45.06469" lon="5.96691">
        <ele>1910.2</ele>
        <time>2018-02-23T08:58:39.000Z</time>
      </trkpt>
      <trkpt lat="45.06471" lon="5.96687">
        <ele>1910.8</ele>
        <time>2018-02-23T08:58:43.000Z</time>
      </trkpt>
      <trkpt lat="45.06472" lon="5.96683">
        <ele>1911.5</ele>
        <time>2018-02-23T08:58:47.000Z</time>
      </trkpt>
      <trkpt lat="45.06473" lon="5.96679">
        <ele>1912.1</ele>
        <time>2018-02-23T08:58:50.000Z</time>
      </trkpt>
      <trkpt lat="45.06473" lon="5.96675">
        <ele>1912.5</ele>
        <time>2018-02-23T08:58:54.000Z</time>
      </trkpt>
      <trkpt lat="45.06474" lon="5.9667">
        <ele>1913.1</ele>
        <time>2018-02-23T08:58:58.000Z</time>
      </trkpt>
      <trkpt lat="45.06475" lon="5.96666">
        <ele>1913.7</ele>
        <time>2018-02-23T08:59:02.000Z</time>
      </trkpt>
      <trkpt lat="45.06476" lon="5.96662">
        <ele>1914.2</ele>
        <time>2018-02-23T08:59:05.000Z</time>
      </trkpt>
      <trkpt lat="45.06477" lon="5.96658">
        <ele>1914.6</ele>
        <time>2018-02-23T08:59:08.000Z</time>
      </trkpt>
      <trkpt lat="45.06479" lon="5.96654">
        <ele>1915.1</ele>
        <time>2018-02-23T08:59:11.000Z</time>
      </trkpt>
      <trkpt lat="45.0648" lon="5.9665">
        <ele>1915.5</ele>
        <time>2018-02-23T08:59:14.000Z</time>
      </trkpt>
      <trkpt lat="45.06481" lon="5.96646">
        <ele>1916</ele>
        <time>2018-02-23T08:59:18.000Z</time>
      </trkpt>
      <trkpt lat="45.06482" lon="5.96641">
        <ele>1917</ele>
        <time>2018-02-23T08:59:22.000Z</time>
      </trkpt>
      <trkpt lat="45.06483" lon="5.96637">
        <ele>1918.3</ele>
        <time>2018-02-23T08:59:26.000Z</time>
      </trkpt>
      <trkpt lat="45.06484" lon="5.96633">
        <ele>1919.2</ele>
        <time>2018-02-23T08:59:30.000Z</time>
      </trkpt>
      <trkpt lat="45.06485" lon="5.96628">
        <ele>1920.1</ele>
        <time>2018-02-23T08:59:34.000Z</time>
      </trkpt>
      <trkpt lat="45.06486" lon="5.96624">
        <ele>1921.2</ele>
        <time>2018-02-23T08:59:37.000Z</time>
      </trkpt>
      <trkpt lat="45.06488" lon="5.96621">
        <ele>1922</ele>
        <time>2018-02-23T08:59:40.000Z</time>
      </trkpt>
      <trkpt lat="45.0649" lon="5.96617">
        <ele>1923.2</ele>
        <time>2018-02-23T08:59:43.000Z</time>
      </trkpt>
      <trkpt lat="45.06492" lon="5.96613">
        <ele>1924.4</ele>
        <time>2018-02-23T08:59:46.000Z</time>
      </trkpt>
      <trkpt lat="45.06493" lon="5.96608">
        <ele>1925.2</ele>
        <time>2018-02-23T08:59:50.000Z</time>
      </trkpt>
      <trkpt lat="45.06496" lon="5.96604">
        <ele>1926.4</ele>
        <time>2018-02-23T08:59:53.000Z</time>
      </trkpt>
      <trkpt lat="45.06498" lon="5.96602">
        <ele>1926.7</ele>
        <time>2018-02-23T08:59:56.000Z</time>
      </trkpt>
      <trkpt lat="45.065" lon="5.96598">
        <ele>1927.6</ele>
        <time>2018-02-23T08:59:59.000Z</time>
      </trkpt>
      <trkpt lat="45.06502" lon="5.96595">
        <ele>1928.7</ele>
        <time>2018-02-23T09:00:02.000Z</time>
      </trkpt>
      <trkpt lat="45.06503" lon="5.96591">
        <ele>1929.4</ele>
        <time>2018-02-23T09:00:06.000Z</time>
      </trkpt>
      <trkpt lat="45.06504" lon="5.96586">
        <ele>1930.4</ele>
        <time>2018-02-23T09:00:10.000Z</time>
      </trkpt>
      <trkpt lat="45.06506" lon="5.96583">
        <ele>1931.1</ele>
        <time>2018-02-23T09:00:13.000Z</time>
      </trkpt>
      <trkpt lat="45.06507" lon="5.96579">
        <ele>1932.1</ele>
        <time>2018-02-23T09:00:17.000Z</time>
      </trkpt>
      <trkpt lat="45.06508" lon="5.96575">
        <ele>1932.1</ele>
        <time>2018-02-23T09:00:21.000Z</time>
      </trkpt>
      <trkpt lat="45.0651" lon="5.96571">
        <ele>1933</ele>
        <time>2018-02-23T09:00:25.000Z</time>
      </trkpt>
      <trkpt lat="45.06512" lon="5.96567">
        <ele>1933.7</ele>
        <time>2018-02-23T09:00:29.000Z</time>
      </trkpt>
      <trkpt lat="45.06511" lon="5.96563">
        <ele>1934.5</ele>
        <time>2018-02-23T09:00:33.000Z</time>
      </trkpt>
      <trkpt lat="45.06512" lon="5.96558">
        <ele>1935.4</ele>
        <time>2018-02-23T09:00:37.000Z</time>
      </trkpt>
      <trkpt lat="45.06511" lon="5.96554">
        <ele>1936.7</ele>
        <time>2018-02-23T09:00:43.000Z</time>
      </trkpt>
      <trkpt lat="45.06511" lon="5.9655">
        <ele>1937.6</ele>
        <time>2018-02-23T09:00:46.000Z</time>
      </trkpt>
      <trkpt lat="45.0651" lon="5.96544">
        <ele>1939.1</ele>
        <time>2018-02-23T09:00:50.000Z</time>
      </trkpt>
      <trkpt lat="45.06511" lon="5.96539">
        <ele>1939.8</ele>
        <time>2018-02-23T09:00:53.000Z</time>
      </trkpt>
      <trkpt lat="45.06511" lon="5.96535">
        <ele>1940.4</ele>
        <time>2018-02-23T09:00:57.000Z</time>
      </trkpt>
      <trkpt lat="45.06511" lon="5.96532">
        <ele>1941.2</ele>
        <time>2018-02-23T09:01:02.000Z</time>
      </trkpt>
      <trkpt lat="45.06511" lon="5.96527">
        <ele>1941.9</ele>
        <time>2018-02-23T09:01:06.000Z</time>
      </trkpt>
      <trkpt lat="45.06511" lon="5.96523">
        <ele>1942.6</ele>
        <time>2018-02-23T09:01:10.000Z</time>
      </trkpt>
      <trkpt lat="45.0651" lon="5.96519">
        <ele>1943.4</ele>
        <time>2018-02-23T09:01:14.000Z</time>
      </trkpt>
      <trkpt lat="45.06511" lon="5.96514">
        <ele>1944.1</ele>
        <time>2018-02-23T09:01:18.000Z</time>
      </trkpt>
      <trkpt lat="45.06514" lon="5.96513">
        <ele>1944.3</ele>
        <time>2018-02-23T09:01:21.000Z</time>
      </trkpt>
      <trkpt lat="45.06515" lon="5.96509">
        <ele>1945</ele>
        <time>2018-02-23T09:01:24.000Z</time>
      </trkpt>
      <trkpt lat="45.06516" lon="5.96505">
        <ele>1945.8</ele>
        <time>2018-02-23T09:01:28.000Z</time>
      </trkpt>
      <trkpt lat="45.06518" lon="5.96502">
        <ele>1946</ele>
        <time>2018-02-23T09:01:33.000Z</time>
      </trkpt>
      <trkpt lat="45.06519" lon="5.96499">
        <ele>1946.9</ele>
        <time>2018-02-23T09:01:37.000Z</time>
      </trkpt>
      <trkpt lat="45.06522" lon="5.96495">
        <ele>1947.8</ele>
        <time>2018-02-23T09:01:41.000Z</time>
      </trkpt>
      <trkpt lat="45.06524" lon="5.96492">
        <ele>1948.5</ele>
        <time>2018-02-23T09:01:44.000Z</time>
      </trkpt>
      <trkpt lat="45.06526" lon="5.96489">
        <ele>1949.5</ele>
        <time>2018-02-23T09:01:48.000Z</time>
      </trkpt>
      <trkpt lat="45.06527" lon="5.96485">
        <ele>1950.2</ele>
        <time>2018-02-23T09:01:52.000Z</time>
      </trkpt>
      <trkpt lat="45.06527" lon="5.9648">
        <ele>1951</ele>
        <time>2018-02-23T09:01:55.000Z</time>
      </trkpt>
      <trkpt lat="45.06528" lon="5.96476">
        <ele>1951</ele>
        <time>2018-02-23T09:02:37.000Z</time>
      </trkpt>
      <trkpt lat="45.06528" lon="5.96472">
        <ele>1952.8</ele>
        <time>2018-02-23T09:02:41.000Z</time>
      </trkpt>
      <trkpt lat="45.06529" lon="5.96468">
        <ele>1952.8</ele>
        <time>2018-02-23T09:02:44.000Z</time>
      </trkpt>
      <trkpt lat="45.0653" lon="5.96463">
        <ele>1954.4</ele>
        <time>2018-02-23T09:02:48.000Z</time>
      </trkpt>
      <trkpt lat="45.06531" lon="5.96459">
        <ele>1955.3</ele>
        <time>2018-02-23T09:02:51.000Z</time>
      </trkpt>
      <trkpt lat="45.06532" lon="5.96454">
        <ele>1956</ele>
        <time>2018-02-23T09:02:55.000Z</time>
      </trkpt>
      <trkpt lat="45.06533" lon="5.9645">
        <ele>1956.7</ele>
        <time>2018-02-23T09:02:58.000Z</time>
      </trkpt>
      <trkpt lat="45.06535" lon="5.96447">
        <ele>1956.9</ele>
        <time>2018-02-23T09:03:01.000Z</time>
      </trkpt>
      <trkpt lat="45.06536" lon="5.96443">
        <ele>1957.6</ele>
        <time>2018-02-23T09:03:04.000Z</time>
      </trkpt>
      <trkpt lat="45.06538" lon="5.96439">
        <ele>1958.5</ele>
        <time>2018-02-23T09:03:08.000Z</time>
      </trkpt>
      <trkpt lat="45.06539" lon="5.96434">
        <ele>1959.3</ele>
        <time>2018-02-23T09:03:12.000Z</time>
      </trkpt>
      <trkpt lat="45.0654" lon="5.96429">
        <ele>1960.2</ele>
        <time>2018-02-23T09:03:16.000Z</time>
      </trkpt>
      <trkpt lat="45.06542" lon="5.96426">
        <ele>1961</ele>
        <time>2018-02-23T09:03:19.000Z</time>
      </trkpt>
      <trkpt lat="45.06544" lon="5.96421">
        <ele>1962</ele>
        <time>2018-02-23T09:03:26.000Z</time>
      </trkpt>
      <trkpt lat="45.06546" lon="5.96418">
        <ele>1962.9</ele>
        <time>2018-02-23T09:03:29.000Z</time>
      </trkpt>
      <trkpt lat="45.06547" lon="5.96414">
        <ele>1963.7</ele>
        <time>2018-02-23T09:03:32.000Z</time>
      </trkpt>
      <trkpt lat="45.06548" lon="5.9641">
        <ele>1964.4</ele>
        <time>2018-02-23T09:03:36.000Z</time>
      </trkpt>
      <trkpt lat="45.06548" lon="5.96406">
        <ele>1965.1</ele>
        <time>2018-02-23T09:03:39.000Z</time>
      </trkpt>
      <trkpt lat="45.06546" lon="5.96403">
        <ele>1965.4</ele>
        <time>2018-02-23T09:03:42.000Z</time>
      </trkpt>
      <trkpt lat="45.06548" lon="5.96401">
        <ele>1965.7</ele>
        <time>2018-02-23T09:03:43.000Z</time>
      </trkpt>
      <trkpt lat="45.0655" lon="5.96396">
        <ele>1966.7</ele>
        <time>2018-02-23T09:03:46.000Z</time>
      </trkpt>
      <trkpt lat="45.06552" lon="5.9639">
        <ele>1967.3</ele>
        <time>2018-02-23T09:03:52.000Z</time>
      </trkpt>
      <trkpt lat="45.06554" lon="5.96386">
        <ele>1968.3</ele>
        <time>2018-02-23T09:03:56.000Z</time>
      </trkpt>
      <trkpt lat="45.06554" lon="5.96382">
        <ele>1969</ele>
        <time>2018-02-23T09:03:59.000Z</time>
      </trkpt>
      <trkpt lat="45.06555" lon="5.96377">
        <ele>1970.3</ele>
        <time>2018-02-23T09:04:04.000Z</time>
      </trkpt>
      <trkpt lat="45.06556" lon="5.96374">
        <ele>1970.7</ele>
        <time>2018-02-23T09:04:07.000Z</time>
      </trkpt>
      <trkpt lat="45.06557" lon="5.96369">
        <ele>1971.3</ele>
        <time>2018-02-23T09:04:10.000Z</time>
      </trkpt>
      <trkpt lat="45.06556" lon="5.96365">
        <ele>1971.9</ele>
        <time>2018-02-23T09:04:14.000Z</time>
      </trkpt>
      <trkpt lat="45.06556" lon="5.96361">
        <ele>1972.5</ele>
        <time>2018-02-23T09:04:17.000Z</time>
      </trkpt>
      <trkpt lat="45.06557" lon="5.96357">
        <ele>1973.1</ele>
        <time>2018-02-23T09:04:21.000Z</time>
      </trkpt>
      <trkpt lat="45.06558" lon="5.96353">
        <ele>1974.1</ele>
        <time>2018-02-23T09:04:25.000Z</time>
      </trkpt>
      <trkpt lat="45.06558" lon="5.96348">
        <ele>1974.7</ele>
        <time>2018-02-23T09:04:29.000Z</time>
      </trkpt>
      <trkpt lat="45.06559" lon="5.96344">
        <ele>1975.3</ele>
        <time>2018-02-23T09:04:34.000Z</time>
      </trkpt>
      <trkpt lat="45.0656" lon="5.96339">
        <ele>1976</ele>
        <time>2018-02-23T09:04:38.000Z</time>
      </trkpt>
      <trkpt lat="45.06561" lon="5.96336">
        <ele>1977.1</ele>
        <time>2018-02-23T09:04:41.000Z</time>
      </trkpt>
      <trkpt lat="45.06563" lon="5.96332">
        <ele>1977.8</ele>
        <time>2018-02-23T09:04:45.000Z</time>
      </trkpt>
      <trkpt lat="45.06563" lon="5.96328">
        <ele>1978.6</ele>
        <time>2018-02-23T09:04:49.000Z</time>
      </trkpt>
      <trkpt lat="45.06565" lon="5.96324">
        <ele>1979.7</ele>
        <time>2018-02-23T09:04:53.000Z</time>
      </trkpt>
      <trkpt lat="45.06565" lon="5.9632">
        <ele>1980.4</ele>
        <time>2018-02-23T09:04:57.000Z</time>
      </trkpt>
      <trkpt lat="45.06567" lon="5.96316">
        <ele>1981.5</ele>
        <time>2018-02-23T09:05:01.000Z</time>
      </trkpt>
      <trkpt lat="45.06568" lon="5.96312">
        <ele>1982.3</ele>
        <time>2018-02-23T09:05:05.000Z</time>
      </trkpt>
      <trkpt lat="45.06569" lon="5.96308">
        <ele>1983.1</ele>
        <time>2018-02-23T09:05:09.000Z</time>
      </trkpt>
      <trkpt lat="45.06568" lon="5.96304">
        <ele>1983.9</ele>
        <time>2018-02-23T09:05:12.000Z</time>
      </trkpt>
      <trkpt lat="45.0657" lon="5.963">
        <ele>1983.9</ele>
        <time>2018-02-23T09:05:15.000Z</time>
      </trkpt>
      <trkpt lat="45.06569" lon="5.96296">
        <ele>1984.7</ele>
        <time>2018-02-23T09:05:19.000Z</time>
      </trkpt>
      <trkpt lat="45.06568" lon="5.96292">
        <ele>1985.6</ele>
        <time>2018-02-23T09:05:22.000Z</time>
      </trkpt>
      <trkpt lat="45.06568" lon="5.96288">
        <ele>1986.5</ele>
        <time>2018-02-23T09:05:25.000Z</time>
      </trkpt>
      <trkpt lat="45.06568" lon="5.96284">
        <ele>1987.3</ele>
        <time>2018-02-23T09:05:29.000Z</time>
      </trkpt>
      <trkpt lat="45.06568" lon="5.9628">
        <ele>1988.2</ele>
        <time>2018-02-23T09:05:33.000Z</time>
      </trkpt>
      <trkpt lat="45.06569" lon="5.96275">
        <ele>1989</ele>
        <time>2018-02-23T09:05:38.000Z</time>
      </trkpt>
      <trkpt lat="45.06569" lon="5.9627">
        <ele>1990.5</ele>
        <time>2018-02-23T09:05:43.000Z</time>
      </trkpt>
      <trkpt lat="45.0657" lon="5.96266">
        <ele>1990.5</ele>
        <time>2018-02-23T09:05:46.000Z</time>
      </trkpt>
      <trkpt lat="45.06571" lon="5.96262">
        <ele>1991.8</ele>
        <time>2018-02-23T09:05:50.000Z</time>
      </trkpt>
      <trkpt lat="45.0657" lon="5.96258">
        <ele>1992.6</ele>
        <time>2018-02-23T09:05:54.000Z</time>
      </trkpt>
      <trkpt lat="45.0657" lon="5.96254">
        <ele>1993.5</ele>
        <time>2018-02-23T09:05:57.000Z</time>
      </trkpt>
      <trkpt lat="45.06572" lon="5.9625">
        <ele>1994.5</ele>
        <time>2018-02-23T09:06:00.000Z</time>
      </trkpt>
      <trkpt lat="45.06575" lon="5.96248">
        <ele>1996</ele>
        <time>2018-02-23T09:06:04.000Z</time>
      </trkpt>
      <trkpt lat="45.06577" lon="5.96246">
        <ele>1996.8</ele>
        <time>2018-02-23T09:06:07.000Z</time>
      </trkpt>
      <trkpt lat="45.06581" lon="5.96245">
        <ele>1997.4</ele>
        <time>2018-02-23T09:06:12.000Z</time>
      </trkpt>
      <trkpt lat="45.06583" lon="5.96245">
        <ele>1997.9</ele>
        <time>2018-02-23T09:06:16.000Z</time>
      </trkpt>
      <trkpt lat="45.06586" lon="5.96246">
        <ele>1998.5</ele>
        <time>2018-02-23T09:06:20.000Z</time>
      </trkpt>
      <trkpt lat="45.06591" lon="5.96245">
        <ele>1999.1</ele>
        <time>2018-02-23T09:06:30.000Z</time>
      </trkpt>
      <trkpt lat="45.06594" lon="5.96245">
        <ele>1999.6</ele>
        <time>2018-02-23T09:06:33.000Z</time>
      </trkpt>
      <trkpt lat="45.06597" lon="5.96246">
        <ele>2000.1</ele>
        <time>2018-02-23T09:06:37.000Z</time>
      </trkpt>
      <trkpt lat="45.066" lon="5.96245">
        <ele>2000.6</ele>
        <time>2018-02-23T09:06:42.000Z</time>
      </trkpt>
      <trkpt lat="45.06603" lon="5.96244">
        <ele>2002.3</ele>
        <time>2018-02-23T09:06:46.000Z</time>
      </trkpt>
      <trkpt lat="45.06606" lon="5.96244">
        <ele>2002.8</ele>
        <time>2018-02-23T09:06:50.000Z</time>
      </trkpt>
      <trkpt lat="45.06609" lon="5.96243">
        <ele>2003.4</ele>
        <time>2018-02-23T09:06:54.000Z</time>
      </trkpt>
      <trkpt lat="45.06612" lon="5.96243">
        <ele>2004</ele>
        <time>2018-02-23T09:06:57.000Z</time>
      </trkpt>
      <trkpt lat="45.06615" lon="5.96241">
        <ele>2004.6</ele>
        <time>2018-02-23T09:07:03.000Z</time>
      </trkpt>
      <trkpt lat="45.06617" lon="5.9624">
        <ele>2005.2</ele>
        <time>2018-02-23T09:07:57.000Z</time>
      </trkpt>
      <trkpt lat="45.06618" lon="5.96236">
        <ele>2006.4</ele>
        <time>2018-02-23T09:08:01.000Z</time>
      </trkpt>
      <trkpt lat="45.06617" lon="5.96232">
        <ele>2007.5</ele>
        <time>2018-02-23T09:08:04.000Z</time>
      </trkpt>
      <trkpt lat="45.06615" lon="5.96228">
        <ele>2008</ele>
        <time>2018-02-23T09:08:07.000Z</time>
      </trkpt>
      <trkpt lat="45.06613" lon="5.96225">
        <ele>2009.1</ele>
        <time>2018-02-23T09:08:11.000Z</time>
      </trkpt>
      <trkpt lat="45.06613" lon="5.96221">
        <ele>2010.2</ele>
        <time>2018-02-23T09:08:14.000Z</time>
      </trkpt>
      <trkpt lat="45.06611" lon="5.96216">
        <ele>2010.7</ele>
        <time>2018-02-23T09:08:18.000Z</time>
      </trkpt>
      <trkpt lat="45.06609" lon="5.96213">
        <ele>2011.3</ele>
        <time>2018-02-23T09:08:21.000Z</time>
      </trkpt>
      <trkpt lat="45.06608" lon="5.96209">
        <ele>2012.6</ele>
        <time>2018-02-23T09:08:24.000Z</time>
      </trkpt>
      <trkpt lat="45.06607" lon="5.96206">
        <ele>2012.6</ele>
        <time>2018-02-23T09:08:29.000Z</time>
      </trkpt>
      <trkpt lat="45.06606" lon="5.96202">
        <ele>2013.3</ele>
        <time>2018-02-23T09:08:33.000Z</time>
      </trkpt>
      <trkpt lat="45.06604" lon="5.96199">
        <ele>2014.7</ele>
        <time>2018-02-23T09:08:38.000Z</time>
      </trkpt>
      <trkpt lat="45.066" lon="5.96196">
        <ele>2015</ele>
        <time>2018-02-23T09:08:42.000Z</time>
      </trkpt>
      <trkpt lat="45.066" lon="5.96192">
        <ele>2016.3</ele>
        <time>2018-02-23T09:08:45.000Z</time>
      </trkpt>
      <trkpt lat="45.06598" lon="5.96189">
        <ele>2016.3</ele>
        <time>2018-02-23T09:08:49.000Z</time>
      </trkpt>
      <trkpt lat="45.06596" lon="5.96185">
        <ele>2016.9</ele>
        <time>2018-02-23T09:08:53.000Z</time>
      </trkpt>
      <trkpt lat="45.06596" lon="5.9618">
        <ele>2019.2</ele>
        <time>2018-02-23T09:08:58.000Z</time>
      </trkpt>
      <trkpt lat="45.06594" lon="5.96175">
        <ele>2020.3</ele>
        <time>2018-02-23T09:09:02.000Z</time>
      </trkpt>
      <trkpt lat="45.06594" lon="5.9617">
        <ele>2020.6</ele>
        <time>2018-02-23T09:09:06.000Z</time>
      </trkpt>
      <trkpt lat="45.06594" lon="5.96166">
        <ele>2021.8</ele>
        <time>2018-02-23T09:09:10.000Z</time>
      </trkpt>
      <trkpt lat="45.06593" lon="5.96162">
        <ele>2022.9</ele>
        <time>2018-02-23T09:09:14.000Z</time>
      </trkpt>
      <trkpt lat="45.06593" lon="5.96158">
        <ele>2024</ele>
        <time>2018-02-23T09:09:17.000Z</time>
      </trkpt>
      <trkpt lat="45.06592" lon="5.96153">
        <ele>2025.1</ele>
        <time>2018-02-23T09:09:22.000Z</time>
      </trkpt>
      <trkpt lat="45.06592" lon="5.96149">
        <ele>2026.2</ele>
        <time>2018-02-23T09:09:26.000Z</time>
      </trkpt>
      <trkpt lat="45.06591" lon="5.96145">
        <ele>2026.4</ele>
        <time>2018-02-23T09:09:30.000Z</time>
      </trkpt>
      <trkpt lat="45.0659" lon="5.96141">
        <ele>2027.4</ele>
        <time>2018-02-23T09:09:34.000Z</time>
      </trkpt>
      <trkpt lat="45.06589" lon="5.96137">
        <ele>2028.4</ele>
        <time>2018-02-23T09:09:38.000Z</time>
      </trkpt>
      <trkpt lat="45.06589" lon="5.96132">
        <ele>2029.4</ele>
        <time>2018-02-23T09:09:43.000Z</time>
      </trkpt>
      <trkpt lat="45.06588" lon="5.96128">
        <ele>2029.3</ele>
        <time>2018-02-23T09:09:48.000Z</time>
      </trkpt>
      <trkpt lat="45.06588" lon="5.96123">
        <ele>2031.3</ele>
        <time>2018-02-23T09:09:53.000Z</time>
      </trkpt>
      <trkpt lat="45.0659" lon="5.96118">
        <ele>2032.3</ele>
        <time>2018-02-23T09:09:58.000Z</time>
      </trkpt>
      <trkpt lat="45.0659" lon="5.96114">
        <ele>2033.3</ele>
        <time>2018-02-23T09:10:02.000Z</time>
      </trkpt>
      <trkpt lat="45.0659" lon="5.9611">
        <ele>2034.4</ele>
        <time>2018-02-23T09:10:06.000Z</time>
      </trkpt>
      <trkpt lat="45.06589" lon="5.96106">
        <ele>2035.4</ele>
        <time>2018-02-23T09:10:10.000Z</time>
      </trkpt>
      <trkpt lat="45.06588" lon="5.96102">
        <ele>2035.2</ele>
        <time>2018-02-23T09:10:25.000Z</time>
      </trkpt>
      <trkpt lat="45.0659" lon="5.96098">
        <ele>2037.2</ele>
        <time>2018-02-23T09:10:28.000Z</time>
      </trkpt>
      <trkpt lat="45.06591" lon="5.96094">
        <ele>2037.2</ele>
        <time>2018-02-23T09:10:32.000Z</time>
      </trkpt>
      <trkpt lat="45.06592" lon="5.96089">
        <ele>2040</ele>
        <time>2018-02-23T09:10:36.000Z</time>
      </trkpt>
      <trkpt lat="45.06593" lon="5.96085">
        <ele>2040.9</ele>
        <time>2018-02-23T09:10:40.000Z</time>
      </trkpt>
      <trkpt lat="45.06593" lon="5.9608">
        <ele>2041.8</ele>
        <time>2018-02-23T09:10:44.000Z</time>
      </trkpt>
      <trkpt lat="45.06594" lon="5.96076">
        <ele>2042.7</ele>
        <time>2018-02-23T09:10:47.000Z</time>
      </trkpt>
      <trkpt lat="45.06595" lon="5.96073">
        <ele>2044.8</ele>
        <time>2018-02-23T09:10:51.000Z</time>
      </trkpt>
      <trkpt lat="45.06597" lon="5.96069">
        <ele>2044.8</ele>
        <time>2018-02-23T09:10:56.000Z</time>
      </trkpt>
      <trkpt lat="45.06597" lon="5.96065">
        <ele>2045.8</ele>
        <time>2018-02-23T09:11:00.000Z</time>
      </trkpt>
      <trkpt lat="45.06596" lon="5.9606">
        <ele>2046.8</ele>
        <time>2018-02-23T09:11:05.000Z</time>
      </trkpt>
      <trkpt lat="45.06597" lon="5.96056">
        <ele>2047.7</ele>
        <time>2018-02-23T09:11:09.000Z</time>
      </trkpt>
      <trkpt lat="45.06597" lon="5.96052">
        <ele>2049.8</ele>
        <time>2018-02-23T09:11:13.000Z</time>
      </trkpt>
      <trkpt lat="45.06597" lon="5.96048">
        <ele>2049.5</ele>
        <time>2018-02-23T09:11:17.000Z</time>
      </trkpt>
      <trkpt lat="45.06599" lon="5.96045">
        <ele>2051.5</ele>
        <time>2018-02-23T09:11:22.000Z</time>
      </trkpt>
      <trkpt lat="45.06602" lon="5.96045">
        <ele>2052.6</ele>
        <time>2018-02-23T09:11:30.000Z</time>
      </trkpt>
      <trkpt lat="45.06604" lon="5.96047">
        <ele>2053.8</ele>
        <time>2018-02-23T09:11:35.000Z</time>
      </trkpt>
      <trkpt lat="45.06608" lon="5.96047">
        <ele>2055.1</ele>
        <time>2018-02-23T09:11:40.000Z</time>
      </trkpt>
      <trkpt lat="45.06611" lon="5.96048">
        <ele>2055.6</ele>
        <time>2018-02-23T09:11:45.000Z</time>
      </trkpt>
      <trkpt lat="45.06614" lon="5.9605">
        <ele>2056.9</ele>
        <time>2018-02-23T09:11:50.000Z</time>
      </trkpt>
      <trkpt lat="45.06618" lon="5.9605">
        <ele>2058.2</ele>
        <time>2018-02-23T09:11:55.000Z</time>
      </trkpt>
      <trkpt lat="45.06621" lon="5.96052">
        <ele>2058.4</ele>
        <time>2018-02-23T09:11:59.000Z</time>
      </trkpt>
      <trkpt lat="45.06625" lon="5.96052">
        <ele>2060.5</ele>
        <time>2018-02-23T09:12:05.000Z</time>
      </trkpt>
      <trkpt lat="45.06627" lon="5.96053">
        <ele>2060.5</ele>
        <time>2018-02-23T09:12:11.000Z</time>
      </trkpt>
      <trkpt lat="45.0663" lon="5.96054">
        <ele>2061.6</ele>
        <time>2018-02-23T09:12:14.000Z</time>
      </trkpt>
      <trkpt lat="45.06633" lon="5.96054">
        <ele>2062.7</ele>
        <time>2018-02-23T09:12:25.000Z</time>
      </trkpt>
      <trkpt lat="45.06636" lon="5.96055">
        <ele>2063.9</ele>
        <time>2018-02-23T09:12:29.000Z</time>
      </trkpt>
      <trkpt lat="45.06638" lon="5.96058">
        <ele>2064.1</ele>
        <time>2018-02-23T09:12:33.000Z</time>
      </trkpt>
      <trkpt lat="45.06643" lon="5.96056">
        <ele>2066.4</ele>
        <time>2018-02-23T09:12:39.000Z</time>
      </trkpt>
      <trkpt lat="45.06645" lon="5.96053">
        <ele>2067.5</ele>
        <time>2018-02-23T09:12:42.000Z</time>
      </trkpt>
      <trkpt lat="45.06645" lon="5.96049">
        <ele>2068.6</ele>
        <time>2018-02-23T09:12:45.000Z</time>
      </trkpt>
      <trkpt lat="45.06644" lon="5.96045">
        <ele>2069.6</ele>
        <time>2018-02-23T09:12:50.000Z</time>
      </trkpt>
      <trkpt lat="45.06645" lon="5.96041">
        <ele>2070.6</ele>
        <time>2018-02-23T09:12:54.000Z</time>
      </trkpt>
      <trkpt lat="45.06645" lon="5.96037">
        <ele>2071.6</ele>
        <time>2018-02-23T09:12:58.000Z</time>
      </trkpt>
      <trkpt lat="45.06645" lon="5.96033">
        <ele>2072.7</ele>
        <time>2018-02-23T09:13:03.000Z</time>
      </trkpt>
      <trkpt lat="45.06644" lon="5.96029">
        <ele>2073.8</ele>
        <time>2018-02-23T09:13:07.000Z</time>
      </trkpt>
      <trkpt lat="45.06646" lon="5.96026">
        <ele>2073.8</ele>
        <time>2018-02-23T09:13:14.000Z</time>
      </trkpt>
      <trkpt lat="45.06647" lon="5.96021">
        <ele>2077.4</ele>
        <time>2018-02-23T09:13:18.000Z</time>
      </trkpt>
      <trkpt lat="45.06646" lon="5.96017">
        <ele>2078.6</ele>
        <time>2018-02-23T09:13:24.000Z</time>
      </trkpt>
      <trkpt lat="45.06646" lon="5.96012">
        <ele>2078.5</ele>
        <time>2018-02-23T09:13:29.000Z</time>
      </trkpt>
      <trkpt lat="45.06646" lon="5.96008">
        <ele>2079.6</ele>
        <time>2018-02-23T09:13:33.000Z</time>
      </trkpt>
      <trkpt lat="45.06645" lon="5.96004">
        <ele>2079.6</ele>
        <time>2018-02-23T09:13:37.000Z</time>
      </trkpt>
      <trkpt lat="45.06648" lon="5.96003">
        <ele>2081.9</ele>
        <time>2018-02-23T09:13:45.000Z</time>
      </trkpt>
      <trkpt lat="45.06651" lon="5.96004">
        <ele>2082</ele>
        <time>2018-02-23T09:13:50.000Z</time>
      </trkpt>
      <trkpt lat="45.06654" lon="5.96006">
        <ele>2083.2</ele>
        <time>2018-02-23T09:13:55.000Z</time>
      </trkpt>
      <trkpt lat="45.06657" lon="5.96007">
        <ele>2084.5</ele>
        <time>2018-02-23T09:14:06.000Z</time>
      </trkpt>
      <trkpt lat="45.0666" lon="5.96009">
        <ele>2084.6</ele>
        <time>2018-02-23T09:14:10.000Z</time>
      </trkpt>
      <trkpt lat="45.06662" lon="5.9601">
        <ele>2085.8</ele>
        <time>2018-02-23T09:14:15.000Z</time>
      </trkpt>
      <trkpt lat="45.06665" lon="5.96011">
        <ele>2087.1</ele>
        <time>2018-02-23T09:14:19.000Z</time>
      </trkpt>
      <trkpt lat="45.06668" lon="5.96012">
        <ele>2088.3</ele>
        <time>2018-02-23T09:14:23.000Z</time>
      </trkpt>
      <trkpt lat="45.06671" lon="5.96012">
        <ele>2089.5</ele>
        <time>2018-02-23T09:14:28.000Z</time>
      </trkpt>
      <trkpt lat="45.06673" lon="5.96014">
        <ele>2089.3</ele>
        <time>2018-02-23T09:14:35.000Z</time>
      </trkpt>
      <trkpt lat="45.06676" lon="5.96016">
        <ele>2089.3</ele>
        <time>2018-02-23T09:14:40.000Z</time>
      </trkpt>
      <trkpt lat="45.06679" lon="5.96016">
        <ele>2090.3</ele>
        <time>2018-02-23T09:14:43.000Z</time>
      </trkpt>
      <trkpt lat="45.06682" lon="5.96017">
        <ele>2091.3</ele>
        <time>2018-02-23T09:14:48.000Z</time>
      </trkpt>
      <trkpt lat="45.06684" lon="5.96019">
        <ele>2090.9</ele>
        <time>2018-02-23T09:14:59.000Z</time>
      </trkpt>
      <trkpt lat="45.06687" lon="5.96021">
        <ele>2091.8</ele>
        <time>2018-02-23T09:15:04.000Z</time>
      </trkpt>
      <trkpt lat="45.06689" lon="5.96021">
        <ele>2091.3</ele>
        <time>2018-02-23T09:15:08.000Z</time>
      </trkpt>
      <trkpt lat="45.0669" lon="5.96017">
        <ele>2092.7</ele>
        <time>2018-02-23T09:15:22.000Z</time>
      </trkpt>
      <trkpt lat="45.06689" lon="5.96012">
        <ele>2095.5</ele>
        <time>2018-02-23T09:15:27.000Z</time>
      </trkpt>
      <trkpt lat="45.06689" lon="5.96007">
        <ele>2096.8</ele>
        <time>2018-02-23T09:15:32.000Z</time>
      </trkpt>
      <trkpt lat="45.0669" lon="5.96003">
        <ele>2098.1</ele>
        <time>2018-02-23T09:15:36.000Z</time>
      </trkpt>
      <trkpt lat="45.06689" lon="5.95999">
        <ele>2099.4</ele>
        <time>2018-02-23T09:15:39.000Z</time>
      </trkpt>
      <trkpt lat="45.06689" lon="5.95994">
        <ele>2100.7</ele>
        <time>2018-02-23T09:15:44.000Z</time>
      </trkpt>
      <trkpt lat="45.06689" lon="5.9599">
        <ele>2102.1</ele>
        <time>2018-02-23T09:15:48.000Z</time>
      </trkpt>
      <trkpt lat="45.06686" lon="5.95986">
        <ele>2102.5</ele>
        <time>2018-02-23T09:15:52.000Z</time>
      </trkpt>
      <trkpt lat="45.06685" lon="5.95982">
        <ele>2102.8</ele>
        <time>2018-02-23T09:15:55.000Z</time>
      </trkpt>
      <trkpt lat="45.06683" lon="5.95978">
        <ele>2104.3</ele>
        <time>2018-02-23T09:16:01.000Z</time>
      </trkpt>
      <trkpt lat="45.06683" lon="5.95973">
        <ele>2105.8</ele>
        <time>2018-02-23T09:16:06.000Z</time>
      </trkpt>
      <trkpt lat="45.06682" lon="5.95968">
        <ele>2106.1</ele>
        <time>2018-02-23T09:16:11.000Z</time>
      </trkpt>
      <trkpt lat="45.06683" lon="5.95963">
        <ele>2108.7</ele>
        <time>2018-02-23T09:16:15.000Z</time>
      </trkpt>
      <trkpt lat="45.06681" lon="5.9596">
        <ele>2108.8</ele>
        <time>2018-02-23T09:16:21.000Z</time>
      </trkpt>
      <trkpt lat="45.0668" lon="5.95957">
        <ele>2110.1</ele>
        <time>2018-02-23T09:16:24.000Z</time>
      </trkpt>
      <trkpt lat="45.06679" lon="5.95953">
        <ele>2108.8</ele>
        <time>2018-02-23T09:16:29.000Z</time>
      </trkpt>
      <trkpt lat="45.06678" lon="5.95948">
        <ele>2111.6</ele>
        <time>2018-02-23T09:16:35.000Z</time>
      </trkpt>
      <trkpt lat="45.06678" lon="5.95943">
        <ele>2113.1</ele>
        <time>2018-02-23T09:16:40.000Z</time>
      </trkpt>
      <trkpt lat="45.06677" lon="5.9594">
        <ele>2114.7</ele>
        <time>2018-02-23T09:16:53.000Z</time>
      </trkpt>
      <trkpt lat="45.06676" lon="5.95936">
        <ele>2113.3</ele>
        <time>2018-02-23T09:16:57.000Z</time>
      </trkpt>
      <trkpt lat="45.06676" lon="5.95931">
        <ele>2116.4</ele>
        <time>2018-02-23T09:17:02.000Z</time>
      </trkpt>
      <trkpt lat="45.06676" lon="5.95927">
        <ele>2118.1</ele>
        <time>2018-02-23T09:17:06.000Z</time>
      </trkpt>
      <trkpt lat="45.06674" lon="5.95923">
        <ele>2118.1</ele>
        <time>2018-02-23T09:17:12.000Z</time>
      </trkpt>
      <trkpt lat="45.06672" lon="5.9592">
        <ele>2118</ele>
        <time>2018-02-23T09:17:16.000Z</time>
      </trkpt>
      <trkpt lat="45.06672" lon="5.95915">
        <ele>2119.5</ele>
        <time>2018-02-23T09:17:20.000Z</time>
      </trkpt>
      <trkpt lat="45.06671" lon="5.95911">
        <ele>2121</ele>
        <time>2018-02-23T09:17:24.000Z</time>
      </trkpt>
      <trkpt lat="45.06671" lon="5.95907">
        <ele>2122.4</ele>
        <time>2018-02-23T09:17:28.000Z</time>
      </trkpt>
      <trkpt lat="45.06671" lon="5.95902">
        <ele>2123.9</ele>
        <time>2018-02-23T09:17:34.000Z</time>
      </trkpt>
      <trkpt lat="45.06671" lon="5.95898">
        <ele>2125.4</ele>
        <time>2018-02-23T09:17:38.000Z</time>
      </trkpt>
      <trkpt lat="45.0667" lon="5.95894">
        <ele>2127</ele>
        <time>2018-02-23T09:17:45.000Z</time>
      </trkpt>
      <trkpt lat="45.06671" lon="5.9589">
        <ele>2128.8</ele>
        <time>2018-02-23T09:17:59.000Z</time>
      </trkpt>
      <trkpt lat="45.06669" lon="5.95887">
        <ele>2128.8</ele>
        <time>2018-02-23T09:18:05.000Z</time>
      </trkpt>
      <trkpt lat="45.06669" lon="5.95881">
        <ele>2130.5</ele>
        <time>2018-02-23T09:18:11.000Z</time>
      </trkpt>
      <trkpt lat="45.06669" lon="5.95877">
        <ele>2132.3</ele>
        <time>2018-02-23T09:18:18.000Z</time>
      </trkpt>
      <trkpt lat="45.06669" lon="5.95873">
        <ele>2133.9</ele>
        <time>2018-02-23T09:18:23.000Z</time>
      </trkpt>
      <trkpt lat="45.06668" lon="5.95869">
        <ele>2135.5</ele>
        <time>2018-02-23T09:18:28.000Z</time>
      </trkpt>
      <trkpt lat="45.06668" lon="5.95865">
        <ele>2137.1</ele>
        <time>2018-02-23T09:18:34.000Z</time>
      </trkpt>
      <trkpt lat="45.06669" lon="5.95861">
        <ele>2138.8</ele>
        <time>2018-02-23T09:18:41.000Z</time>
      </trkpt>
      <trkpt lat="45.06669" lon="5.95857">
        <ele>2140.5</ele>
        <time>2018-02-23T09:18:49.000Z</time>
      </trkpt>
      <trkpt lat="45.0667" lon="5.95853">
        <ele>2142.2</ele>
        <time>2018-02-23T09:18:54.000Z</time>
      </trkpt>
      <trkpt lat="45.06669" lon="5.95849">
        <ele>2144</ele>
        <time>2018-02-23T09:19:02.000Z</time>
      </trkpt>
      <trkpt lat="45.06669" lon="5.95845">
        <ele>2145.9</ele>
        <time>2018-02-23T09:19:07.000Z</time>
      </trkpt>
      <trkpt lat="45.06668" lon="5.95841">
        <ele>2147.9</ele>
        <time>2018-02-23T09:19:13.000Z</time>
      </trkpt>
      <trkpt lat="45.06668" lon="5.95837">
        <ele>2147.9</ele>
        <time>2018-02-23T09:19:19.000Z</time>
      </trkpt>
      <trkpt lat="45.06668" lon="5.95833">
        <ele>2149.8</ele>
        <time>2018-02-23T09:19:26.000Z</time>
      </trkpt>
      <trkpt lat="45.06667" lon="5.95829">
        <ele>2151.6</ele>
        <time>2018-02-23T09:19:36.000Z</time>
      </trkpt>
      <trkpt lat="45.06666" lon="5.95825">
        <ele>2151.5</ele>
        <time>2018-02-23T09:19:54.000Z</time>
      </trkpt>
      <trkpt lat="45.06666" lon="5.95821">
        <ele>2153.1</ele>
        <time>2018-02-23T09:20:03.000Z</time>
      </trkpt>
      <trkpt lat="45.06665" lon="5.95817">
        <ele>2154.7</ele>
        <time>2018-02-23T09:20:10.000Z</time>
      </trkpt>
      <trkpt lat="45.06664" lon="5.95814">
        <ele>2154.2</ele>
        <time>2018-02-23T09:21:10.000Z</time>
      </trkpt>
      <trkpt lat="45.06663" lon="5.9581">
        <ele>2155.7</ele>
        <time>2018-02-23T09:23:18.000Z</time>
      </trkpt>
      <trkpt lat="45.06662" lon="5.95805">
        <ele>2157.2</ele>
        <time>2018-02-23T09:23:23.000Z</time>
      </trkpt>
      <trkpt lat="45.06661" lon="5.95801">
        <ele>2156.6</ele>
        <time>2018-02-23T09:23:28.000Z</time>
      </trkpt>
      <trkpt lat="45.06663" lon="5.95802">
        <ele>2158.6</ele>
        <time>2018-02-23T09:23:42.000Z</time>
      </trkpt>
      <trkpt lat="45.06666" lon="5.95805">
        <ele>2159.1</ele>
        <time>2018-02-23T09:23:46.000Z</time>
      </trkpt>
      <trkpt lat="45.06668" lon="5.95807">
        <ele>2159.6</ele>
        <time>2018-02-23T09:23:50.000Z</time>
      </trkpt>
      <trkpt lat="45.06671" lon="5.95809">
        <ele>2161.4</ele>
        <time>2018-02-23T09:23:54.000Z</time>
      </trkpt>
      <trkpt lat="45.06673" lon="5.95812">
        <ele>2160</ele>
        <time>2018-02-23T09:23:59.000Z</time>
      </trkpt>
      <trkpt lat="45.06674" lon="5.95809">
        <ele>2163.2</ele>
        <time>2018-02-23T09:24:18.000Z</time>
      </trkpt>
      <trkpt lat="45.06673" lon="5.95805">
        <ele>2162.9</ele>
        <time>2018-02-23T09:24:24.000Z</time>
      </trkpt>
      <trkpt lat="45.06673" lon="5.958">
        <ele>2164.3</ele>
        <time>2018-02-23T09:24:30.000Z</time>
      </trkpt>
      <trkpt lat="45.06671" lon="5.95797">
        <ele>2165.7</ele>
        <time>2018-02-23T09:24:34.000Z</time>
      </trkpt>
      <trkpt lat="45.06672" lon="5.958">
        <ele>2164.3</ele>
        <time>2018-02-23T09:24:46.000Z</time>
      </trkpt>
      <trkpt lat="45.06675" lon="5.95802">
        <ele>2166.1</ele>
        <time>2018-02-23T09:24:50.000Z</time>
      </trkpt>
      <trkpt lat="45.06677" lon="5.95806">
        <ele>2166.3</ele>
        <time>2018-02-23T09:24:58.000Z</time>
      </trkpt>
      <trkpt lat="45.06679" lon="5.95809">
        <ele>2164.9</ele>
        <time>2018-02-23T09:25:08.000Z</time>
      </trkpt>
      <trkpt lat="45.06681" lon="5.95806">
        <ele>2167.9</ele>
        <time>2018-02-23T09:26:50.000Z</time>
      </trkpt>
      <trkpt lat="45.06681" lon="5.95801">
        <ele>2169.3</ele>
        <time>2018-02-23T09:26:56.000Z</time>
      </trkpt>
      <trkpt lat="45.0668" lon="5.95796">
        <ele>2170.7</ele>
        <time>2018-02-23T09:27:00.000Z</time>
      </trkpt>
      <trkpt lat="45.06682" lon="5.95793">
        <ele>2171.9</ele>
        <time>2018-02-23T09:27:04.000Z</time>
      </trkpt>
      <trkpt lat="45.06679" lon="5.95794">
        <ele>2170.4</ele>
        <time>2018-02-23T09:27:15.000Z</time>
      </trkpt>
      <trkpt lat="45.0668" lon="5.95797">
        <ele>2170.7</ele>
        <time>2018-02-23T09:27:37.000Z</time>
      </trkpt>
      <trkpt lat="45.06681" lon="5.95801">
        <ele>2169.3</ele>
        <time>2018-02-23T09:27:47.000Z</time>
      </trkpt>
      <trkpt lat="45.06685" lon="5.95799">
        <ele>2170.8</ele>
        <time>2018-02-23T09:28:34.000Z</time>
      </trkpt>
      <trkpt lat="45.06686" lon="5.95795">
        <ele>2173.6</ele>
        <time>2018-02-23T09:28:45.000Z</time>
      </trkpt>
      <trkpt lat="45.06686" lon="5.95791">
        <ele>2174.9</ele>
        <time>2018-02-23T09:28:49.000Z</time>
      </trkpt>
      <trkpt lat="45.06686" lon="5.95787">
        <ele>2176</ele>
        <time>2018-02-23T09:28:55.000Z</time>
      </trkpt>
      <trkpt lat="45.06688" lon="5.95782">
        <ele>2177.1</ele>
        <time>2018-02-23T09:29:01.000Z</time>
      </trkpt>
      <trkpt lat="45.06689" lon="5.95779">
        <ele>2179.5</ele>
        <time>2018-02-23T09:29:04.000Z</time>
      </trkpt>
      <trkpt lat="45.06686" lon="5.9578">
        <ele>2178.1</ele>
        <time>2018-02-23T09:29:08.000Z</time>
      </trkpt>
      <trkpt lat="45.06689" lon="5.95778">
        <ele>2179.5</ele>
        <time>2018-02-23T09:29:17.000Z</time>
      </trkpt>
      <trkpt lat="45.0669" lon="5.95782">
        <ele>2178.5</ele>
        <time>2018-02-23T09:30:19.000Z</time>
      </trkpt>
      <trkpt lat="45.06693" lon="5.95784">
        <ele>2180</ele>
        <time>2018-02-23T09:30:29.000Z</time>
      </trkpt>
      <trkpt lat="45.06696" lon="5.95787">
        <ele>2180.4</ele>
        <time>2018-02-23T09:30:35.000Z</time>
      </trkpt>
      <trkpt lat="45.06699" lon="5.95788">
        <ele>2181.8</ele>
        <time>2018-02-23T09:30:42.000Z</time>
      </trkpt>
      <trkpt lat="45.06699" lon="5.95792">
        <ele>2180.7</ele>
        <time>2018-02-23T09:30:46.000Z</time>
      </trkpt>
      <trkpt lat="45.06698" lon="5.95788">
        <ele>2181.8</ele>
        <time>2018-02-23T09:31:36.000Z</time>
      </trkpt>
      <trkpt lat="45.06699" lon="5.95785">
        <ele>2182.8</ele>
        <time>2018-02-23T09:31:41.000Z</time>
      </trkpt>
      <trkpt lat="45.06699" lon="5.9578">
        <ele>2183.7</ele>
        <time>2018-02-23T09:31:47.000Z</time>
      </trkpt>
      <trkpt lat="45.06702" lon="5.9578">
        <ele>2185</ele>
        <time>2018-02-23T09:32:24.000Z</time>
      </trkpt>
      <trkpt lat="45.06705" lon="5.95784">
        <ele>2185.3</ele>
        <time>2018-02-23T09:32:30.000Z</time>
      </trkpt>
      <trkpt lat="45.06707" lon="5.95783">
        <ele>2186.3</ele>
        <time>2018-02-23T09:33:33.000Z</time>
      </trkpt>
      <trkpt lat="45.06709" lon="5.9578">
        <ele>2187.2</ele>
        <time>2018-02-23T09:33:37.000Z</time>
      </trkpt>
      <trkpt lat="45.06709" lon="5.95776">
        <ele>2188</ele>
        <time>2018-02-23T09:33:43.000Z</time>
      </trkpt>
      <trkpt lat="45.06709" lon="5.95771">
        <ele>2188.7</ele>
        <time>2018-02-23T09:33:48.000Z</time>
      </trkpt>
      <trkpt lat="45.06712" lon="5.95771">
        <ele>2189.7</ele>
        <time>2018-02-23T09:34:05.000Z</time>
      </trkpt>
      <trkpt lat="45.06715" lon="5.95771">
        <ele>2190.6</ele>
        <time>2018-02-23T09:34:09.000Z</time>
      </trkpt>
      <trkpt lat="45.06717" lon="5.95773">
        <ele>2190.8</ele>
        <time>2018-02-23T09:34:14.000Z</time>
      </trkpt>
      <trkpt lat="45.06719" lon="5.95769">
        <ele>2192.6</ele>
        <time>2018-02-23T09:34:31.000Z</time>
      </trkpt>
      <trkpt lat="45.06717" lon="5.95765">
        <ele>2192.3</ele>
        <time>2018-02-23T09:34:35.000Z</time>
      </trkpt>
      <trkpt lat="45.0672" lon="5.95761">
        <ele>2193.9</ele>
        <time>2018-02-23T09:34:40.000Z</time>
      </trkpt>
      <trkpt lat="45.06717" lon="5.95759">
        <ele>2193.5</ele>
        <time>2018-02-23T09:34:42.000Z</time>
      </trkpt>
      <trkpt lat="45.06719" lon="5.95757">
        <ele>2194.5</ele>
        <time>2018-02-23T09:34:47.000Z</time>
      </trkpt>
      <trkpt lat="45.06721" lon="5.9576">
        <ele>2193.9</ele>
        <time>2018-02-23T09:34:55.000Z</time>
      </trkpt>
      <trkpt lat="45.06724" lon="5.95762">
        <ele>2194.9</ele>
        <time>2018-02-23T09:35:00.000Z</time>
      </trkpt>
      <trkpt lat="45.06727" lon="5.95761">
        <ele>2195.8</ele>
        <time>2018-02-23T09:35:08.000Z</time>
      </trkpt>
      <trkpt lat="45.0673" lon="5.95759">
        <ele>2197.2</ele>
        <time>2018-02-23T09:35:16.000Z</time>
      </trkpt>
      <trkpt lat="45.06732" lon="5.95756">
        <ele>2197.8</ele>
        <time>2018-02-23T09:35:22.000Z</time>
      </trkpt>
      <trkpt lat="45.06733" lon="5.95751">
        <ele>2198.9</ele>
        <time>2018-02-23T09:35:27.000Z</time>
      </trkpt>
      <trkpt lat="45.06733" lon="5.95747">
        <ele>2198.9</ele>
        <time>2018-02-23T09:35:31.000Z</time>
      </trkpt>
      <trkpt lat="45.06732" lon="5.95743">
        <ele>2199.3</ele>
        <time>2018-02-23T09:35:36.000Z</time>
      </trkpt>
      <trkpt lat="45.06732" lon="5.95738">
        <ele>2199.7</ele>
        <time>2018-02-23T09:35:41.000Z</time>
      </trkpt>
      <trkpt lat="45.06734" lon="5.95735">
        <ele>2200</ele>
        <time>2018-02-23T09:35:47.000Z</time>
      </trkpt>
      <trkpt lat="45.06736" lon="5.95734">
        <ele>2200.6</ele>
        <time>2018-02-23T09:35:56.000Z</time>
      </trkpt>
      <trkpt lat="45.06739" lon="5.95734">
        <ele>2201.1</ele>
        <time>2018-02-23T09:35:59.000Z</time>
      </trkpt>
      <trkpt lat="45.06742" lon="5.95733">
        <ele>2201.8</ele>
        <time>2018-02-23T09:36:14.000Z</time>
      </trkpt>
      <trkpt lat="45.06744" lon="5.95735">
        <ele>2202</ele>
        <time>2018-02-23T09:36:18.000Z</time>
      </trkpt>
      <trkpt lat="45.06748" lon="5.95738">
        <ele>2202.5</ele>
        <time>2018-02-23T09:36:21.000Z</time>
      </trkpt>
      <trkpt lat="45.06751" lon="5.95737">
        <ele>2203</ele>
        <time>2018-02-23T09:36:25.000Z</time>
      </trkpt>
      <trkpt lat="45.06754" lon="5.95737">
        <ele>2203.3</ele>
        <time>2018-02-23T09:36:28.000Z</time>
      </trkpt>
      <trkpt lat="45.06756" lon="5.9574">
        <ele>2203.4</ele>
        <time>2018-02-23T09:36:32.000Z</time>
      </trkpt>
      <trkpt lat="45.0676" lon="5.9574">
        <ele>2203.7</ele>
        <time>2018-02-23T09:36:37.000Z</time>
      </trkpt>
      <trkpt lat="45.06763" lon="5.95741">
        <ele>2204</ele>
        <time>2018-02-23T09:36:41.000Z</time>
      </trkpt>
      <trkpt lat="45.06765" lon="5.95741">
        <ele>2204.3</ele>
        <time>2018-02-23T09:36:43.000Z</time>
      </trkpt>
      <trkpt lat="45.06769" lon="5.95741">
        <ele>2204.7</ele>
        <time>2018-02-23T09:36:47.000Z</time>
      </trkpt>
      <trkpt lat="45.06772" lon="5.95743">
        <ele>2204.8</ele>
        <time>2018-02-23T09:36:50.000Z</time>
      </trkpt>
      <trkpt lat="45.06775" lon="5.95742">
        <ele>2205.3</ele>
        <time>2018-02-23T09:36:54.000Z</time>
      </trkpt>
      <trkpt lat="45.06778" lon="5.95744">
        <ele>2205.5</ele>
        <time>2018-02-23T09:36:58.000Z</time>
      </trkpt>
      <trkpt lat="45.06781" lon="5.95746">
        <ele>2205.9</ele>
        <time>2018-02-23T09:37:02.000Z</time>
      </trkpt>
      <trkpt lat="45.06784" lon="5.95748">
        <ele>2206.2</ele>
        <time>2018-02-23T09:37:05.000Z</time>
      </trkpt>
      <trkpt lat="45.06787" lon="5.95748">
        <ele>2206.5</ele>
        <time>2018-02-23T09:37:08.000Z</time>
      </trkpt>
      <trkpt lat="45.0679" lon="5.95747">
        <ele>2206.8</ele>
        <time>2018-02-23T09:37:11.000Z</time>
      </trkpt>
      <trkpt lat="45.06787" lon="5.95745">
        <ele>2206.6</ele>
        <time>2018-02-23T09:40:37.000Z</time>
      </trkpt>
      <trkpt lat="45.06783" lon="5.95744">
        <ele>2206.3</ele>
        <time>2018-02-23T09:40:41.000Z</time>
      </trkpt>
      <trkpt lat="45.06781" lon="5.95742">
        <ele>2206</ele>
        <time>2018-02-23T09:40:43.000Z</time>
      </trkpt>
      <trkpt lat="45.06778" lon="5.95742">
        <ele>2205.7</ele>
        <time>2018-02-23T09:40:46.000Z</time>
      </trkpt>
      <trkpt lat="45.06775" lon="5.95739">
        <ele>2205.3</ele>
        <time>2018-02-23T09:40:49.000Z</time>
      </trkpt>
      <trkpt lat="45.06772" lon="5.95737">
        <ele>2205.1</ele>
        <time>2018-02-23T09:40:51.000Z</time>
      </trkpt>
      <trkpt lat="45.06769" lon="5.95734">
        <ele>2204.8</ele>
        <time>2018-02-23T09:40:53.000Z</time>
      </trkpt>
      <trkpt lat="45.06767" lon="5.95731">
        <ele>2204.6</ele>
        <time>2018-02-23T09:40:57.000Z</time>
      </trkpt>
      <trkpt lat="45.06765" lon="5.95728">
        <ele>2204.6</ele>
        <time>2018-02-23T09:40:59.000Z</time>
      </trkpt>
      <trkpt lat="45.06764" lon="5.95724">
        <ele>2204.4</ele>
        <time>2018-02-23T09:41:01.000Z</time>
      </trkpt>
      <trkpt lat="45.06762" lon="5.95721">
        <ele>2204.4</ele>
        <time>2018-02-23T09:41:03.000Z</time>
      </trkpt>
      <trkpt lat="45.0676" lon="5.95718">
        <ele>2204.2</ele>
        <time>2018-02-23T09:41:05.000Z</time>
      </trkpt>
      <trkpt lat="45.06758" lon="5.95715">
        <ele>2204.1</ele>
        <time>2018-02-23T09:41:08.000Z</time>
      </trkpt>
      <trkpt lat="45.06759" lon="5.95711">
        <ele>2204</ele>
        <time>2018-02-23T09:41:12.000Z</time>
      </trkpt>
      <trkpt lat="45.0676" lon="5.95708">
        <ele>2203.9</ele>
        <time>2018-02-23T09:41:15.000Z</time>
      </trkpt>
      <trkpt lat="45.06758" lon="5.95705">
        <ele>2203.7</ele>
        <time>2018-02-23T09:41:26.000Z</time>
      </trkpt>
      <trkpt lat="45.06756" lon="5.95708">
        <ele>2203.8</ele>
        <time>2018-02-23T09:41:41.000Z</time>
      </trkpt>
      <trkpt lat="45.06754" lon="5.95711">
        <ele>2203.6</ele>
        <time>2018-02-23T09:41:45.000Z</time>
      </trkpt>
      <trkpt lat="45.06752" lon="5.95714">
        <ele>2203.4</ele>
        <time>2018-02-23T09:41:49.000Z</time>
      </trkpt>
      <trkpt lat="45.06751" lon="5.95719">
        <ele>2203.4</ele>
        <time>2018-02-23T09:41:53.000Z</time>
      </trkpt>
      <trkpt lat="45.06749" lon="5.95722">
        <ele>2203.4</ele>
        <time>2018-02-23T09:41:58.000Z</time>
      </trkpt>
      <trkpt lat="45.06746" lon="5.95723">
        <ele>2203</ele>
        <time>2018-02-23T09:42:06.000Z</time>
      </trkpt>
      <trkpt lat="45.06745" lon="5.95727">
        <ele>2202.4</ele>
        <time>2018-02-23T09:42:15.000Z</time>
      </trkpt>
      <trkpt lat="45.06743" lon="5.9573">
        <ele>2202.3</ele>
        <time>2018-02-23T09:42:19.000Z</time>
      </trkpt>
      <trkpt lat="45.06746" lon="5.95734">
        <ele>2202.5</ele>
        <time>2018-02-23T09:51:30.000Z</time>
      </trkpt>
      <trkpt lat="45.06749" lon="5.95734">
        <ele>2203.1</ele>
        <time>2018-02-23T09:51:33.000Z</time>
      </trkpt>
      <trkpt lat="45.06752" lon="5.95737">
        <ele>2203</ele>
        <time>2018-02-23T09:51:36.000Z</time>
      </trkpt>
      <trkpt lat="45.06755" lon="5.95736">
        <ele>2203.7</ele>
        <time>2018-02-23T09:51:39.000Z</time>
      </trkpt>
      <trkpt lat="45.06758" lon="5.95738">
        <ele>2203.4</ele>
        <time>2018-02-23T09:51:43.000Z</time>
      </trkpt>
      <trkpt lat="45.06761" lon="5.95739">
        <ele>2204</ele>
        <time>2018-02-23T09:51:46.000Z</time>
      </trkpt>
      <trkpt lat="45.06764" lon="5.9574">
        <ele>2204.3</ele>
        <time>2018-02-23T09:51:53.000Z</time>
      </trkpt>
      <trkpt lat="45.06767" lon="5.95741">
        <ele>2204.3</ele>
        <time>2018-02-23T09:51:56.000Z</time>
      </trkpt>
      <trkpt lat="45.0677" lon="5.95742">
        <ele>2204.8</ele>
        <time>2018-02-23T09:52:00.000Z</time>
      </trkpt>
      <trkpt lat="45.06774" lon="5.95742">
        <ele>2205.3</ele>
        <time>2018-02-23T09:52:03.000Z</time>
      </trkpt>
      <trkpt lat="45.06777" lon="5.95742">
        <ele>2205.7</ele>
        <time>2018-02-23T09:52:06.000Z</time>
      </trkpt>
      <trkpt lat="45.0678" lon="5.95744">
        <ele>2205.9</ele>
        <time>2018-02-23T09:52:10.000Z</time>
      </trkpt>
      <trkpt lat="45.06783" lon="5.95745">
        <ele>2206.3</ele>
        <time>2018-02-23T09:52:15.000Z</time>
      </trkpt>
      <trkpt lat="45.06786" lon="5.95746">
        <ele>2206.6</ele>
        <time>2018-02-23T09:52:18.000Z</time>
      </trkpt>
      <trkpt lat="45.06789" lon="5.95747">
        <ele>2206.8</ele>
        <time>2018-02-23T09:52:21.000Z</time>
      </trkpt>
      <trkpt lat="45.06793" lon="5.95749">
        <ele>2207.1</ele>
        <time>2018-02-23T09:52:25.000Z</time>
      </trkpt>
      <trkpt lat="45.06795" lon="5.9575">
        <ele>2207.3</ele>
        <time>2018-02-23T09:52:28.000Z</time>
      </trkpt>
      <trkpt lat="45.06799" lon="5.95749">
        <ele>2207.6</ele>
        <time>2018-02-23T09:52:37.000Z</time>
      </trkpt>
      <trkpt lat="45.06801" lon="5.95752">
        <ele>2207.7</ele>
        <time>2018-02-23T09:52:40.000Z</time>
      </trkpt>
      <trkpt lat="45.06803" lon="5.95755">
        <ele>2207.7</ele>
        <time>2018-02-23T09:52:43.000Z</time>
      </trkpt>
      <trkpt lat="45.06807" lon="5.95754">
        <ele>2208.4</ele>
        <time>2018-02-23T09:52:48.000Z</time>
      </trkpt>
      <trkpt lat="45.0681" lon="5.95756">
        <ele>2208.6</ele>
        <time>2018-02-23T09:52:51.000Z</time>
      </trkpt>
      <trkpt lat="45.06813" lon="5.95756">
        <ele>2208.8</ele>
        <time>2018-02-23T09:52:54.000Z</time>
      </trkpt>
      <trkpt lat="45.06816" lon="5.95756">
        <ele>2209</ele>
        <time>2018-02-23T09:52:56.000Z</time>
      </trkpt>
      <trkpt lat="45.0682" lon="5.95757">
        <ele>2209.3</ele>
        <time>2018-02-23T09:52:59.000Z</time>
      </trkpt>
      <trkpt lat="45.06823" lon="5.95758">
        <ele>2209.5</ele>
        <time>2018-02-23T09:53:02.000Z</time>
      </trkpt>
      <trkpt lat="45.06826" lon="5.95759">
        <ele>2209.7</ele>
        <time>2018-02-23T09:53:04.000Z</time>
      </trkpt>
      <trkpt lat="45.06828" lon="5.95758">
        <ele>2210</ele>
        <time>2018-02-23T09:53:07.000Z</time>
      </trkpt>
      <trkpt lat="45.06832" lon="5.95759">
        <ele>2210.3</ele>
        <time>2018-02-23T09:53:11.000Z</time>
      </trkpt>
      <trkpt lat="45.06836" lon="5.95758">
        <ele>2210.6</ele>
        <time>2018-02-23T09:53:14.000Z</time>
      </trkpt>
      <trkpt lat="45.06839" lon="5.95757">
        <ele>2210.9</ele>
        <time>2018-02-23T09:53:17.000Z</time>
      </trkpt>
      <trkpt lat="45.06842" lon="5.95757">
        <ele>2211.2</ele>
        <time>2018-02-23T09:53:20.000Z</time>
      </trkpt>
      <trkpt lat="45.06845" lon="5.95757">
        <ele>2211.5</ele>
        <time>2018-02-23T09:53:23.000Z</time>
      </trkpt>
      <trkpt lat="45.06849" lon="5.95759">
        <ele>2212.2</ele>
        <time>2018-02-23T09:53:26.000Z</time>
      </trkpt>
      <trkpt lat="45.06853" lon="5.95759">
        <ele>2212.3</ele>
        <time>2018-02-23T09:53:29.000Z</time>
      </trkpt>
      <trkpt lat="45.06856" lon="5.95759">
        <ele>2213</ele>
        <time>2018-02-23T09:53:32.000Z</time>
      </trkpt>
      <trkpt lat="45.0686" lon="5.9576">
        <ele>2213.1</ele>
        <time>2018-02-23T09:53:35.000Z</time>
      </trkpt>
      <trkpt lat="45.06863" lon="5.9576">
        <ele>2213.5</ele>
        <time>2018-02-23T09:53:38.000Z</time>
      </trkpt>
      <trkpt lat="45.06866" lon="5.9576">
        <ele>2213.9</ele>
        <time>2018-02-23T09:53:40.000Z</time>
      </trkpt>
      <trkpt lat="45.06869" lon="5.95759">
        <ele>2214.7</ele>
        <time>2018-02-23T09:53:43.000Z</time>
      </trkpt>
      <trkpt lat="45.06872" lon="5.95759">
        <ele>2215.1</ele>
        <time>2018-02-23T09:53:46.000Z</time>
      </trkpt>
      <trkpt lat="45.06876" lon="5.95759">
        <ele>2215.5</ele>
        <time>2018-02-23T09:53:49.000Z</time>
      </trkpt>
      <trkpt lat="45.0688" lon="5.95759">
        <ele>2216.2</ele>
        <time>2018-02-23T09:53:52.000Z</time>
      </trkpt>
      <trkpt lat="45.06883" lon="5.95758">
        <ele>2216.6</ele>
        <time>2018-02-23T09:53:56.000Z</time>
      </trkpt>
      <trkpt lat="45.06887" lon="5.95757">
        <ele>2217</ele>
        <time>2018-02-23T09:53:59.000Z</time>
      </trkpt>
      <trkpt lat="45.0689" lon="5.95756">
        <ele>2217.4</ele>
        <time>2018-02-23T09:54:02.000Z</time>
      </trkpt>
      <trkpt lat="45.06893" lon="5.95755">
        <ele>2218.1</ele>
        <time>2018-02-23T09:54:04.000Z</time>
      </trkpt>
      <trkpt lat="45.06895" lon="5.95752">
        <ele>2218.6</ele>
        <time>2018-02-23T09:54:06.000Z</time>
      </trkpt>
      <trkpt lat="45.06898" lon="5.9575">
        <ele>2219.2</ele>
        <time>2018-02-23T09:54:09.000Z</time>
      </trkpt>
      <trkpt lat="45.06901" lon="5.95747">
        <ele>2219.6</ele>
        <time>2018-02-23T09:54:13.000Z</time>
      </trkpt>
      <trkpt lat="45.06904" lon="5.95745">
        <ele>2220.2</ele>
        <time>2018-02-23T09:54:16.000Z</time>
      </trkpt>
      <trkpt lat="45.06907" lon="5.95743">
        <ele>2220.7</ele>
        <time>2018-02-23T09:54:19.000Z</time>
      </trkpt>
      <trkpt lat="45.0691" lon="5.95741">
        <ele>2221.3</ele>
        <time>2018-02-23T09:54:21.000Z</time>
      </trkpt>
      <trkpt lat="45.06913" lon="5.9574">
        <ele>2221.9</ele>
        <time>2018-02-23T09:54:23.000Z</time>
      </trkpt>
      <trkpt lat="45.06915" lon="5.95739">
        <ele>2221.9</ele>
        <time>2018-02-23T09:54:26.000Z</time>
      </trkpt>
      <trkpt lat="45.06919" lon="5.95738">
        <ele>2223.2</ele>
        <time>2018-02-23T09:54:29.000Z</time>
      </trkpt>
      <trkpt lat="45.06922" lon="5.95738">
        <ele>2223.2</ele>
        <time>2018-02-23T09:54:32.000Z</time>
      </trkpt>
      <trkpt lat="45.06925" lon="5.95738">
        <ele>2224.3</ele>
        <time>2018-02-23T09:54:35.000Z</time>
      </trkpt>
      <trkpt lat="45.06928" lon="5.95739">
        <ele>2224.8</ele>
        <time>2018-02-23T09:54:38.000Z</time>
      </trkpt>
      <trkpt lat="45.06931" lon="5.95741">
        <ele>2225.3</ele>
        <time>2018-02-23T09:54:41.000Z</time>
      </trkpt>
      <trkpt lat="45.06935" lon="5.9574">
        <ele>2225.8</ele>
        <time>2018-02-23T09:54:44.000Z</time>
      </trkpt>
      <trkpt lat="45.06938" lon="5.95741">
        <ele>2226.3</ele>
        <time>2018-02-23T09:54:47.000Z</time>
      </trkpt>
      <trkpt lat="45.06941" lon="5.95743">
        <ele>2226.9</ele>
        <time>2018-02-23T09:54:49.000Z</time>
      </trkpt>
      <trkpt lat="45.06944" lon="5.95744">
        <ele>2227.4</ele>
        <time>2018-02-23T09:54:52.000Z</time>
      </trkpt>
      <trkpt lat="45.06947" lon="5.95743">
        <ele>2227.9</ele>
        <time>2018-02-23T09:54:55.000Z</time>
      </trkpt>
      <trkpt lat="45.06949" lon="5.95744">
        <ele>2228.4</ele>
        <time>2018-02-23T09:54:58.000Z</time>
      </trkpt>
      <trkpt lat="45.06953" lon="5.95743">
        <ele>2228.8</ele>
        <time>2018-02-23T09:55:02.000Z</time>
      </trkpt>
      <trkpt lat="45.06956" lon="5.95744">
        <ele>2229.3</ele>
        <time>2018-02-23T09:55:05.000Z</time>
      </trkpt>
      <trkpt lat="45.06959" lon="5.95745">
        <ele>2229.7</ele>
        <time>2018-02-23T09:55:08.000Z</time>
      </trkpt>
      <trkpt lat="45.06962" lon="5.95746">
        <ele>2230.1</ele>
        <time>2018-02-23T09:55:11.000Z</time>
      </trkpt>
      <trkpt lat="45.06965" lon="5.95748">
        <ele>2230.6</ele>
        <time>2018-02-23T09:55:13.000Z</time>
      </trkpt>
      <trkpt lat="45.06968" lon="5.9575">
        <ele>2231.1</ele>
        <time>2018-02-23T09:55:17.000Z</time>
      </trkpt>
      <trkpt lat="45.06971" lon="5.95751">
        <ele>2231.6</ele>
        <time>2018-02-23T09:55:21.000Z</time>
      </trkpt>
      <trkpt lat="45.06974" lon="5.95751">
        <ele>2232</ele>
        <time>2018-02-23T09:55:23.000Z</time>
      </trkpt>
      <trkpt lat="45.06976" lon="5.95747">
        <ele>2232.5</ele>
        <time>2018-02-23T09:55:25.000Z</time>
      </trkpt>
      <trkpt lat="45.06978" lon="5.95751">
        <ele>2232.5</ele>
        <time>2018-02-23T09:55:28.000Z</time>
      </trkpt>
      <trkpt lat="45.06981" lon="5.95754">
        <ele>2233.1</ele>
        <time>2018-02-23T09:55:31.000Z</time>
      </trkpt>
      <trkpt lat="45.06984" lon="5.95757">
        <ele>2233.5</ele>
        <time>2018-02-23T09:55:34.000Z</time>
      </trkpt>
      <trkpt lat="45.06986" lon="5.95759">
        <ele>2234</ele>
        <time>2018-02-23T09:55:35.000Z</time>
      </trkpt>
      <trkpt lat="45.06989" lon="5.95758">
        <ele>2234.4</ele>
        <time>2018-02-23T09:55:40.000Z</time>
      </trkpt>
      <trkpt lat="45.06991" lon="5.95759">
        <ele>2234.4</ele>
        <time>2018-02-23T09:55:42.000Z</time>
      </trkpt>
      <trkpt lat="45.06994" lon="5.9576">
        <ele>2234.9</ele>
        <time>2018-02-23T09:55:45.000Z</time>
      </trkpt>
      <trkpt lat="45.06997" lon="5.95761">
        <ele>2235.5</ele>
        <time>2018-02-23T09:55:48.000Z</time>
      </trkpt>
      <trkpt lat="45.06999" lon="5.95762">
        <ele>2236.1</ele>
        <time>2018-02-23T09:55:51.000Z</time>
      </trkpt>
      <trkpt lat="45.07002" lon="5.95763">
        <ele>2236.7</ele>
        <time>2018-02-23T09:55:54.000Z</time>
      </trkpt>
      <trkpt lat="45.07005" lon="5.95764">
        <ele>2237.4</ele>
        <time>2018-02-23T09:55:58.000Z</time>
      </trkpt>
      <trkpt lat="45.07008" lon="5.95765">
        <ele>2238</ele>
        <time>2018-02-23T09:56:01.000Z</time>
      </trkpt>
      <trkpt lat="45.07011" lon="5.95768">
        <ele>2238.5</ele>
        <time>2018-02-23T09:56:04.000Z</time>
      </trkpt>
      <trkpt lat="45.07014" lon="5.95768">
        <ele>2239.1</ele>
        <time>2018-02-23T09:56:08.000Z</time>
      </trkpt>
      <trkpt lat="45.07016" lon="5.95773">
        <ele>2239.8</ele>
        <time>2018-02-23T09:56:12.000Z</time>
      </trkpt>
      <trkpt lat="45.07019" lon="5.95775">
        <ele>2240.4</ele>
        <time>2018-02-23T09:56:16.000Z</time>
      </trkpt>
      <trkpt lat="45.07022" lon="5.95775">
        <ele>2240.9</ele>
        <time>2018-02-23T09:56:19.000Z</time>
      </trkpt>
      <trkpt lat="45.07025" lon="5.95776">
        <ele>2241.5</ele>
        <time>2018-02-23T09:56:23.000Z</time>
      </trkpt>
      <trkpt lat="45.07028" lon="5.95776">
        <ele>2242.1</ele>
        <time>2018-02-23T09:56:28.000Z</time>
      </trkpt>
      <trkpt lat="45.07031" lon="5.95776">
        <ele>2242.7</ele>
        <time>2018-02-23T09:56:32.000Z</time>
      </trkpt>
      <trkpt lat="45.07034" lon="5.95778">
        <ele>2243.4</ele>
        <time>2018-02-23T09:56:35.000Z</time>
      </trkpt>
      <trkpt lat="45.07036" lon="5.95781">
        <ele>2243.4</ele>
        <time>2018-02-23T09:56:38.000Z</time>
      </trkpt>
      <trkpt lat="45.07039" lon="5.95781">
        <ele>2244</ele>
        <time>2018-02-23T09:56:41.000Z</time>
      </trkpt>
      <trkpt lat="45.07041" lon="5.95784">
        <ele>2244.5</ele>
        <time>2018-02-23T09:56:46.000Z</time>
      </trkpt>
      <trkpt lat="45.07044" lon="5.95786">
        <ele>2245.1</ele>
        <time>2018-02-23T09:56:49.000Z</time>
      </trkpt>
      <trkpt lat="45.07046" lon="5.95788">
        <ele>2245.6</ele>
        <time>2018-02-23T09:56:52.000Z</time>
      </trkpt>
      <trkpt lat="45.07049" lon="5.9579">
        <ele>2246.1</ele>
        <time>2018-02-23T09:56:55.000Z</time>
      </trkpt>
      <trkpt lat="45.07052" lon="5.95792">
        <ele>2246.1</ele>
        <time>2018-02-23T09:56:59.000Z</time>
      </trkpt>
      <trkpt lat="45.07055" lon="5.95793">
        <ele>2246.7</ele>
        <time>2018-02-23T09:57:02.000Z</time>
      </trkpt>
      <trkpt lat="45.07057" lon="5.95795">
        <ele>2247.1</ele>
        <time>2018-02-23T09:57:05.000Z</time>
      </trkpt>
      <trkpt lat="45.07061" lon="5.95797">
        <ele>2247.6</ele>
        <time>2018-02-23T09:57:08.000Z</time>
      </trkpt>
      <trkpt lat="45.07063" lon="5.95799">
        <ele>2247.8</ele>
        <time>2018-02-23T09:57:11.000Z</time>
      </trkpt>
      <trkpt lat="45.07067" lon="5.95802">
        <ele>2248.3</ele>
        <time>2018-02-23T09:57:16.000Z</time>
      </trkpt>
      <trkpt lat="45.0707" lon="5.95801">
        <ele>2248.7</ele>
        <time>2018-02-23T09:57:19.000Z</time>
      </trkpt>
      <trkpt lat="45.07072" lon="5.95802">
        <ele>2249</ele>
        <time>2018-02-23T09:57:22.000Z</time>
      </trkpt>
      <trkpt lat="45.07075" lon="5.95802">
        <ele>2249.1</ele>
        <time>2018-02-23T09:57:29.000Z</time>
      </trkpt>
      <trkpt lat="45.07077" lon="5.95806">
        <ele>2249.4</ele>
        <time>2018-02-23T09:57:33.000Z</time>
      </trkpt>
      <trkpt lat="45.0708" lon="5.9581">
        <ele>2249.4</ele>
        <time>2018-02-23T09:57:36.000Z</time>
      </trkpt>
      <trkpt lat="45.07084" lon="5.9581">
        <ele>2249.8</ele>
        <time>2018-02-23T09:57:39.000Z</time>
      </trkpt>
      <trkpt lat="45.07087" lon="5.95811">
        <ele>2250.1</ele>
        <time>2018-02-23T09:57:43.000Z</time>
      </trkpt>
      <trkpt lat="45.07089" lon="5.95813">
        <ele>2250.1</ele>
        <time>2018-02-23T09:57:46.000Z</time>
      </trkpt>
      <trkpt lat="45.07092" lon="5.95813">
        <ele>2250.4</ele>
        <time>2018-02-23T09:57:49.000Z</time>
      </trkpt>
      <trkpt lat="45.07095" lon="5.95814">
        <ele>2250.7</ele>
        <time>2018-02-23T09:57:53.000Z</time>
      </trkpt>
      <trkpt lat="45.07098" lon="5.95815">
        <ele>2251</ele>
        <time>2018-02-23T09:57:56.000Z</time>
      </trkpt>
      <trkpt lat="45.07102" lon="5.95817">
        <ele>2250.9</ele>
        <time>2018-02-23T09:58:00.000Z</time>
      </trkpt>
      <trkpt lat="45.07105" lon="5.95818">
        <ele>2251.2</ele>
        <time>2018-02-23T09:58:04.000Z</time>
      </trkpt>
      <trkpt lat="45.07108" lon="5.95822">
        <ele>2251.1</ele>
        <time>2018-02-23T09:58:08.000Z</time>
      </trkpt>
      <trkpt lat="45.07112" lon="5.95821">
        <ele>2251.5</ele>
        <time>2018-02-23T09:58:11.000Z</time>
      </trkpt>
      <trkpt lat="45.07115" lon="5.95823">
        <ele>2251.8</ele>
        <time>2018-02-23T09:58:16.000Z</time>
      </trkpt>
      <trkpt lat="45.07117" lon="5.95819">
        <ele>2252.6</ele>
        <time>2018-02-23T09:58:20.000Z</time>
      </trkpt>
      <trkpt lat="45.0712" lon="5.9582">
        <ele>2252.4</ele>
        <time>2018-02-23T09:58:22.000Z</time>
      </trkpt>
      <trkpt lat="45.07123" lon="5.95818">
        <ele>2253.1</ele>
        <time>2018-02-23T09:58:26.000Z</time>
      </trkpt>
      <trkpt lat="45.07127" lon="5.95818">
        <ele>2253.3</ele>
        <time>2018-02-23T09:58:31.000Z</time>
      </trkpt>
      <trkpt lat="45.0713" lon="5.9582">
        <ele>2253.1</ele>
        <time>2018-02-23T09:58:35.000Z</time>
      </trkpt>
      <trkpt lat="45.07133" lon="5.95822">
        <ele>2253.3</ele>
        <time>2018-02-23T09:58:41.000Z</time>
      </trkpt>
      <trkpt lat="45.07136" lon="5.95823">
        <ele>2253.5</ele>
        <time>2018-02-23T09:58:44.000Z</time>
      </trkpt>
      <trkpt lat="45.07139" lon="5.95823">
        <ele>2253.7</ele>
        <time>2018-02-23T09:58:48.000Z</time>
      </trkpt>
      <trkpt lat="45.07142" lon="5.95826">
        <ele>2253.4</ele>
        <time>2018-02-23T09:58:51.000Z</time>
      </trkpt>
      <trkpt lat="45.07144" lon="5.95828">
        <ele>2253.6</ele>
        <time>2018-02-23T09:58:56.000Z</time>
      </trkpt>
      <trkpt lat="45.07147" lon="5.95825">
        <ele>2253.8</ele>
        <time>2018-02-23T09:58:58.000Z</time>
      </trkpt>
      <trkpt lat="45.07151" lon="5.95829">
        <ele>2253.5</ele>
        <time>2018-02-23T09:59:02.000Z</time>
      </trkpt>
      <trkpt lat="45.07156" lon="5.95831">
        <ele>2253.9</ele>
        <time>2018-02-23T09:59:08.000Z</time>
      </trkpt>
      <trkpt lat="45.07159" lon="5.95834">
        <ele>2253.6</ele>
        <time>2018-02-23T09:59:13.000Z</time>
      </trkpt>
      <trkpt lat="45.07162" lon="5.95835">
        <ele>2253.8</ele>
        <time>2018-02-23T09:59:18.000Z</time>
      </trkpt>
      <trkpt lat="45.07164" lon="5.95837">
        <ele>2253.5</ele>
        <time>2018-02-23T09:59:21.000Z</time>
      </trkpt>
      <trkpt lat="45.07168" lon="5.9584">
        <ele>2253.8</ele>
        <time>2018-02-23T09:59:24.000Z</time>
      </trkpt>
      <trkpt lat="45.0717" lon="5.95843">
        <ele>2253.1</ele>
        <time>2018-02-23T09:59:27.000Z</time>
      </trkpt>
      <trkpt lat="45.07174" lon="5.95845">
        <ele>2253.8</ele>
        <time>2018-02-23T09:59:31.000Z</time>
      </trkpt>
      <trkpt lat="45.07177" lon="5.95845">
        <ele>2254.2</ele>
        <time>2018-02-23T09:59:33.000Z</time>
      </trkpt>
      <trkpt lat="45.07179" lon="5.95845">
        <ele>2253.8</ele>
        <time>2018-02-23T09:59:37.000Z</time>
      </trkpt>
      <trkpt lat="45.07183" lon="5.95845">
        <ele>2254.7</ele>
        <time>2018-02-23T09:59:40.000Z</time>
      </trkpt>
      <trkpt lat="45.07186" lon="5.95847">
        <ele>2254.3</ele>
        <time>2018-02-23T09:59:43.000Z</time>
      </trkpt>
      <trkpt lat="45.07188" lon="5.95848">
        <ele>2254.3</ele>
        <time>2018-02-23T09:59:46.000Z</time>
      </trkpt>
      <trkpt lat="45.07191" lon="5.95849">
        <ele>2254.6</ele>
        <time>2018-02-23T09:59:49.000Z</time>
      </trkpt>
      <trkpt lat="45.07194" lon="5.9585">
        <ele>2254.3</ele>
        <time>2018-02-23T09:59:53.000Z</time>
      </trkpt>
      <trkpt lat="45.07197" lon="5.9585">
        <ele>2254.6</ele>
        <time>2018-02-23T09:59:56.000Z</time>
      </trkpt>
      <trkpt lat="45.07199" lon="5.95852">
        <ele>2254.9</ele>
        <time>2018-02-23T09:59:59.000Z</time>
      </trkpt>
      <trkpt lat="45.07204" lon="5.95855">
        <ele>2254.5</ele>
        <time>2018-02-23T10:00:03.000Z</time>
      </trkpt>
      <trkpt lat="45.07207" lon="5.95856">
        <ele>2255.1</ele>
        <time>2018-02-23T10:00:06.000Z</time>
      </trkpt>
      <trkpt lat="45.0721" lon="5.95856">
        <ele>2255.3</ele>
        <time>2018-02-23T10:00:10.000Z</time>
      </trkpt>
      <trkpt lat="45.07214" lon="5.95856">
        <ele>2255.6</ele>
        <time>2018-02-23T10:00:13.000Z</time>
      </trkpt>
      <trkpt lat="45.07217" lon="5.95857">
        <ele>2255.9</ele>
        <time>2018-02-23T10:00:18.000Z</time>
      </trkpt>
      <trkpt lat="45.07221" lon="5.95857">
        <ele>2256.1</ele>
        <time>2018-02-23T10:00:21.000Z</time>
      </trkpt>
      <trkpt lat="45.07225" lon="5.95858">
        <ele>2256.4</ele>
        <time>2018-02-23T10:00:24.000Z</time>
      </trkpt>
      <trkpt lat="45.07228" lon="5.95856">
        <ele>2256.9</ele>
        <time>2018-02-23T10:00:27.000Z</time>
      </trkpt>
      <trkpt lat="45.07231" lon="5.95855">
        <ele>2257.2</ele>
        <time>2018-02-23T10:00:32.000Z</time>
      </trkpt>
      <trkpt lat="45.07234" lon="5.95856">
        <ele>2257.4</ele>
        <time>2018-02-23T10:00:34.000Z</time>
      </trkpt>
      <trkpt lat="45.07237" lon="5.95858">
        <ele>2256.7</ele>
        <time>2018-02-23T10:00:37.000Z</time>
      </trkpt>
      <trkpt lat="45.0724" lon="5.95858">
        <ele>2257.6</ele>
        <time>2018-02-23T10:00:40.000Z</time>
      </trkpt>
      <trkpt lat="45.07243" lon="5.95858">
        <ele>2257</ele>
        <time>2018-02-23T10:00:43.000Z</time>
      </trkpt>
      <trkpt lat="45.07246" lon="5.95859">
        <ele>2257.2</ele>
        <time>2018-02-23T10:00:46.000Z</time>
      </trkpt>
      <trkpt lat="45.07248" lon="5.9586">
        <ele>2257.5</ele>
        <time>2018-02-23T10:00:49.000Z</time>
      </trkpt>
      <trkpt lat="45.07252" lon="5.9586">
        <ele>2257.8</ele>
        <time>2018-02-23T10:00:52.000Z</time>
      </trkpt>
      <trkpt lat="45.07255" lon="5.9586">
        <ele>2258.4</ele>
        <time>2018-02-23T10:00:55.000Z</time>
      </trkpt>
      <trkpt lat="45.07259" lon="5.95861">
        <ele>2258.7</ele>
        <time>2018-02-23T10:00:59.000Z</time>
      </trkpt>
      <trkpt lat="45.07263" lon="5.95861">
        <ele>2259</ele>
        <time>2018-02-23T10:01:03.000Z</time>
      </trkpt>
      <trkpt lat="45.07265" lon="5.95861">
        <ele>2259.3</ele>
        <time>2018-02-23T10:01:06.000Z</time>
      </trkpt>
      <trkpt lat="45.07268" lon="5.95861">
        <ele>2259.6</ele>
        <time>2018-02-23T10:01:09.000Z</time>
      </trkpt>
      <trkpt lat="45.07271" lon="5.95863">
        <ele>2259</ele>
        <time>2018-02-23T10:01:12.000Z</time>
      </trkpt>
      <trkpt lat="45.07274" lon="5.95864">
        <ele>2259.4</ele>
        <time>2018-02-23T10:01:15.000Z</time>
      </trkpt>
      <trkpt lat="45.07276" lon="5.95867">
        <ele>2258.5</ele>
        <time>2018-02-23T10:01:17.000Z</time>
      </trkpt>
      <trkpt lat="45.07279" lon="5.95869">
        <ele>2259</ele>
        <time>2018-02-23T10:01:20.000Z</time>
      </trkpt>
      <trkpt lat="45.07282" lon="5.95869">
        <ele>2259.4</ele>
        <time>2018-02-23T10:01:23.000Z</time>
      </trkpt>
      <trkpt lat="45.07285" lon="5.95869">
        <ele>2259.9</ele>
        <time>2018-02-23T10:01:26.000Z</time>
      </trkpt>
      <trkpt lat="45.07288" lon="5.9587">
        <ele>2260.4</ele>
        <time>2018-02-23T10:01:29.000Z</time>
      </trkpt>
      <trkpt lat="45.07292" lon="5.9587">
        <ele>2261.3</ele>
        <time>2018-02-23T10:01:32.000Z</time>
      </trkpt>
      <trkpt lat="45.07295" lon="5.95872">
        <ele>2261.1</ele>
        <time>2018-02-23T10:01:36.000Z</time>
      </trkpt>
      <trkpt lat="45.07298" lon="5.95873">
        <ele>2261.6</ele>
        <time>2018-02-23T10:01:40.000Z</time>
      </trkpt>
      <trkpt lat="45.07301" lon="5.95875">
        <ele>2261.5</ele>
        <time>2018-02-23T10:01:43.000Z</time>
      </trkpt>
      <trkpt lat="45.07304" lon="5.95877">
        <ele>2262.2</ele>
        <time>2018-02-23T10:01:46.000Z</time>
      </trkpt>
      <trkpt lat="45.07307" lon="5.95879">
        <ele>2262.9</ele>
        <time>2018-02-23T10:01:49.000Z</time>
      </trkpt>
      <trkpt lat="45.07309" lon="5.95881">
        <ele>2262.2</ele>
        <time>2018-02-23T10:01:51.000Z</time>
      </trkpt>
      <trkpt lat="45.07312" lon="5.95883">
        <ele>2262.8</ele>
        <time>2018-02-23T10:01:54.000Z</time>
      </trkpt>
      <trkpt lat="45.07316" lon="5.95886">
        <ele>2262.7</ele>
        <time>2018-02-23T10:01:57.000Z</time>
      </trkpt>
      <trkpt lat="45.07319" lon="5.95887">
        <ele>2264.1</ele>
        <time>2018-02-23T10:02:00.000Z</time>
      </trkpt>
      <trkpt lat="45.07323" lon="5.95888">
        <ele>2264.8</ele>
        <time>2018-02-23T10:02:04.000Z</time>
      </trkpt>
      <trkpt lat="45.07326" lon="5.95889">
        <ele>2264.8</ele>
        <time>2018-02-23T10:02:07.000Z</time>
      </trkpt>
      <trkpt lat="45.07329" lon="5.9589">
        <ele>2265.7</ele>
        <time>2018-02-23T10:02:14.000Z</time>
      </trkpt>
      <trkpt lat="45.07333" lon="5.95889">
        <ele>2266.5</ele>
        <time>2018-02-23T10:02:27.000Z</time>
      </trkpt>
      <trkpt lat="45.07336" lon="5.95889">
        <ele>2267.4</ele>
        <time>2018-02-23T10:02:29.000Z</time>
      </trkpt>
      <trkpt lat="45.07339" lon="5.95892">
        <ele>2268.2</ele>
        <time>2018-02-23T10:02:31.000Z</time>
      </trkpt>
      <trkpt lat="45.07341" lon="5.95894">
        <ele>2268.4</ele>
        <time>2018-02-23T10:02:33.000Z</time>
      </trkpt>
      <trkpt lat="45.07344" lon="5.95897">
        <ele>2269.2</ele>
        <time>2018-02-23T10:02:35.000Z</time>
      </trkpt>
      <trkpt lat="45.07347" lon="5.95898">
        <ele>2269.4</ele>
        <time>2018-02-23T10:02:37.000Z</time>
      </trkpt>
      <trkpt lat="45.07349" lon="5.95901">
        <ele>2270.2</ele>
        <time>2018-02-23T10:02:39.000Z</time>
      </trkpt>
      <trkpt lat="45.07353" lon="5.95903">
        <ele>2270.8</ele>
        <time>2018-02-23T10:02:42.000Z</time>
      </trkpt>
      <trkpt lat="45.07356" lon="5.95905">
        <ele>2271.5</ele>
        <time>2018-02-23T10:02:45.000Z</time>
      </trkpt>
      <trkpt lat="45.07359" lon="5.95908">
        <ele>2271.7</ele>
        <time>2018-02-23T10:02:48.000Z</time>
      </trkpt>
      <trkpt lat="45.07362" lon="5.95908">
        <ele>2272.4</ele>
        <time>2018-02-23T10:02:51.000Z</time>
      </trkpt>
      <trkpt lat="45.07364" lon="5.95911">
        <ele>2272.5</ele>
        <time>2018-02-23T10:02:54.000Z</time>
      </trkpt>
      <trkpt lat="45.07367" lon="5.95913">
        <ele>2273.1</ele>
        <time>2018-02-23T10:02:57.000Z</time>
      </trkpt>
      <trkpt lat="45.07371" lon="5.95914">
        <ele>2273</ele>
        <time>2018-02-23T10:03:00.000Z</time>
      </trkpt>
      <trkpt lat="45.07373" lon="5.95916">
        <ele>2273</ele>
        <time>2018-02-23T10:03:02.000Z</time>
      </trkpt>
      <trkpt lat="45.07376" lon="5.95919">
        <ele>2272.8</ele>
        <time>2018-02-23T10:03:05.000Z</time>
      </trkpt>
      <trkpt lat="45.07378" lon="5.9592">
        <ele>2273.3</ele>
        <time>2018-02-23T10:03:07.000Z</time>
      </trkpt>
      <trkpt lat="45.07381" lon="5.9592">
        <ele>2273.8</ele>
        <time>2018-02-23T10:03:09.000Z</time>
      </trkpt>
      <trkpt lat="45.07383" lon="5.95922">
        <ele>2274.4</ele>
        <time>2018-02-23T10:03:11.000Z</time>
      </trkpt>
      <trkpt lat="45.07386" lon="5.95924">
        <ele>2274.3</ele>
        <time>2018-02-23T10:03:30.000Z</time>
      </trkpt>
      <trkpt lat="45.07389" lon="5.95926">
        <ele>2274.8</ele>
        <time>2018-02-23T10:03:33.000Z</time>
      </trkpt>
      <trkpt lat="45.07392" lon="5.95929">
        <ele>2274.7</ele>
        <time>2018-02-23T10:03:35.000Z</time>
      </trkpt>
      <trkpt lat="45.07394" lon="5.95928">
        <ele>2274.7</ele>
        <time>2018-02-23T10:03:38.000Z</time>
      </trkpt>
      <trkpt lat="45.07397" lon="5.9593">
        <ele>2275.1</ele>
        <time>2018-02-23T10:03:40.000Z</time>
      </trkpt>
      <trkpt lat="45.074" lon="5.95932">
        <ele>2274.9</ele>
        <time>2018-02-23T10:03:43.000Z</time>
      </trkpt>
      <trkpt lat="45.07402" lon="5.95935">
        <ele>2275.2</ele>
        <time>2018-02-23T10:03:45.000Z</time>
      </trkpt>
      <trkpt lat="45.07405" lon="5.95936">
        <ele>2274.9</ele>
        <time>2018-02-23T10:03:47.000Z</time>
      </trkpt>
      <trkpt lat="45.07408" lon="5.95936">
        <ele>2275.2</ele>
        <time>2018-02-23T10:03:50.000Z</time>
      </trkpt>
      <trkpt lat="45.07412" lon="5.95938">
        <ele>2275.6</ele>
        <time>2018-02-23T10:03:53.000Z</time>
      </trkpt>
      <trkpt lat="45.07415" lon="5.95936">
        <ele>2276</ele>
        <time>2018-02-23T10:03:56.000Z</time>
      </trkpt>
      <trkpt lat="45.07419" lon="5.95937">
        <ele>2276.3</ele>
        <time>2018-02-23T10:03:59.000Z</time>
      </trkpt>
      <trkpt lat="45.07422" lon="5.95938">
        <ele>2276.5</ele>
        <time>2018-02-23T10:04:02.000Z</time>
      </trkpt>
      <trkpt lat="45.07424" lon="5.95938">
        <ele>2276.7</ele>
        <time>2018-02-23T10:04:04.000Z</time>
      </trkpt>
      <trkpt lat="45.07428" lon="5.95941">
        <ele>2276.4</ele>
        <time>2018-02-23T10:04:07.000Z</time>
      </trkpt>
      <trkpt lat="45.07431" lon="5.95943">
        <ele>2276.5</ele>
        <time>2018-02-23T10:04:09.000Z</time>
      </trkpt>
      <trkpt lat="45.07435" lon="5.95942">
        <ele>2276.8</ele>
        <time>2018-02-23T10:04:12.000Z</time>
      </trkpt>
      <trkpt lat="45.07438" lon="5.95943">
        <ele>2276.9</ele>
        <time>2018-02-23T10:04:15.000Z</time>
      </trkpt>
      <trkpt lat="45.07442" lon="5.95945">
        <ele>2276.6</ele>
        <time>2018-02-23T10:04:18.000Z</time>
      </trkpt>
      <trkpt lat="45.07445" lon="5.95945">
        <ele>2276.8</ele>
        <time>2018-02-23T10:04:21.000Z</time>
      </trkpt>
      <trkpt lat="45.07449" lon="5.95945">
        <ele>2277</ele>
        <time>2018-02-23T10:04:24.000Z</time>
      </trkpt>
      <trkpt lat="45.07453" lon="5.95946">
        <ele>2277</ele>
        <time>2018-02-23T10:04:27.000Z</time>
      </trkpt>
      <trkpt lat="45.07457" lon="5.95944">
        <ele>2277.2</ele>
        <time>2018-02-23T10:04:30.000Z</time>
      </trkpt>
      <trkpt lat="45.07459" lon="5.95945">
        <ele>2277.1</ele>
        <time>2018-02-23T10:04:32.000Z</time>
      </trkpt>
      <trkpt lat="45.07462" lon="5.95945">
        <ele>2277</ele>
        <time>2018-02-23T10:04:34.000Z</time>
      </trkpt>
      <trkpt lat="45.07466" lon="5.95945">
        <ele>2277</ele>
        <time>2018-02-23T10:04:37.000Z</time>
      </trkpt>
      <trkpt lat="45.0747" lon="5.95945">
        <ele>2277</ele>
        <time>2018-02-23T10:04:40.000Z</time>
      </trkpt>
      <trkpt lat="45.07474" lon="5.95945">
        <ele>2277</ele>
        <time>2018-02-23T10:04:43.000Z</time>
      </trkpt>
      <trkpt lat="45.07478" lon="5.95946">
        <ele>2277</ele>
        <time>2018-02-23T10:04:46.000Z</time>
      </trkpt>
      <trkpt lat="45.07482" lon="5.95948">
        <ele>2277</ele>
        <time>2018-02-23T10:04:49.000Z</time>
      </trkpt>
      <trkpt lat="45.07485" lon="5.95949">
        <ele>2276.9</ele>
        <time>2018-02-23T10:04:53.000Z</time>
      </trkpt>
      <trkpt lat="45.07488" lon="5.95949">
        <ele>2276.9</ele>
        <time>2018-02-23T10:04:56.000Z</time>
      </trkpt>
      <trkpt lat="45.07491" lon="5.95952">
        <ele>2276.9</ele>
        <time>2018-02-23T10:04:59.000Z</time>
      </trkpt>
      <trkpt lat="45.07494" lon="5.95954">
        <ele>2276.7</ele>
        <time>2018-02-23T10:05:02.000Z</time>
      </trkpt>
      <trkpt lat="45.07496" lon="5.95957">
        <ele>2276.8</ele>
        <time>2018-02-23T10:05:05.000Z</time>
      </trkpt>
      <trkpt lat="45.07499" lon="5.95959">
        <ele>2276.5</ele>
        <time>2018-02-23T10:19:21.000Z</time>
      </trkpt>
      <trkpt lat="45.07502" lon="5.95959">
        <ele>2276.5</ele>
        <time>2018-02-23T10:19:25.000Z</time>
      </trkpt>
      <trkpt lat="45.07505" lon="5.95959">
        <ele>2276.6</ele>
        <time>2018-02-23T10:19:27.000Z</time>
      </trkpt>
      <trkpt lat="45.07508" lon="5.9596">
        <ele>2276.7</ele>
        <time>2018-02-23T10:19:29.000Z</time>
      </trkpt>
      <trkpt lat="45.07511" lon="5.95958">
        <ele>2276.7</ele>
        <time>2018-02-23T10:19:31.000Z</time>
      </trkpt>
      <trkpt lat="45.07513" lon="5.95957">
        <ele>2276.8</ele>
        <time>2018-02-23T10:19:33.000Z</time>
      </trkpt>
      <trkpt lat="45.07516" lon="5.95957">
        <ele>2276.9</ele>
        <time>2018-02-23T10:19:35.000Z</time>
      </trkpt>
      <trkpt lat="45.07519" lon="5.95958">
        <ele>2277</ele>
        <time>2018-02-23T10:19:37.000Z</time>
      </trkpt>
      <trkpt lat="45.07522" lon="5.95956">
        <ele>2277.3</ele>
        <time>2018-02-23T10:19:39.000Z</time>
      </trkpt>
      <trkpt lat="45.07525" lon="5.95955">
        <ele>2277.3</ele>
        <time>2018-02-23T10:19:41.000Z</time>
      </trkpt>
      <trkpt lat="45.07529" lon="5.95955">
        <ele>2277.4</ele>
        <time>2018-02-23T10:19:44.000Z</time>
      </trkpt>
      <trkpt lat="45.07531" lon="5.95954">
        <ele>2277.5</ele>
        <time>2018-02-23T10:19:46.000Z</time>
      </trkpt>
      <trkpt lat="45.07534" lon="5.95954">
        <ele>2277.6</ele>
        <time>2018-02-23T10:19:49.000Z</time>
      </trkpt>
      <trkpt lat="45.07538" lon="5.95957">
        <ele>2277.6</ele>
        <time>2018-02-23T10:19:52.000Z</time>
      </trkpt>
      <trkpt lat="45.07541" lon="5.9596">
        <ele>2277.6</ele>
        <time>2018-02-23T10:19:55.000Z</time>
      </trkpt>
      <trkpt lat="45.07545" lon="5.9596">
        <ele>2277.7</ele>
        <time>2018-02-23T10:19:57.000Z</time>
      </trkpt>
      <trkpt lat="45.07548" lon="5.95961">
        <ele>2277.7</ele>
        <time>2018-02-23T10:19:59.000Z</time>
      </trkpt>
      <trkpt lat="45.07551" lon="5.95961">
        <ele>2277.7</ele>
        <time>2018-02-23T10:20:01.000Z</time>
      </trkpt>
      <trkpt lat="45.07555" lon="5.95961">
        <ele>2277.8</ele>
        <time>2018-02-23T10:20:03.000Z</time>
      </trkpt>
      <trkpt lat="45.07559" lon="5.95962">
        <ele>2277.9</ele>
        <time>2018-02-23T10:20:05.000Z</time>
      </trkpt>
      <trkpt lat="45.07562" lon="5.95963">
        <ele>2278</ele>
        <time>2018-02-23T10:20:07.000Z</time>
      </trkpt>
      <trkpt lat="45.07565" lon="5.95963">
        <ele>2278.1</ele>
        <time>2018-02-23T10:20:09.000Z</time>
      </trkpt>
      <trkpt lat="45.07569" lon="5.95962">
        <ele>2278.1</ele>
        <time>2018-02-23T10:20:12.000Z</time>
      </trkpt>
      <trkpt lat="45.07572" lon="5.95963">
        <ele>2278.2</ele>
        <time>2018-02-23T10:20:14.000Z</time>
      </trkpt>
      <trkpt lat="45.07575" lon="5.95963">
        <ele>2278.3</ele>
        <time>2018-02-23T10:20:16.000Z</time>
      </trkpt>
      <trkpt lat="45.07579" lon="5.95963">
        <ele>2278.4</ele>
        <time>2018-02-23T10:20:18.000Z</time>
      </trkpt>
      <trkpt lat="45.07583" lon="5.95962">
        <ele>2278.8</ele>
        <time>2018-02-23T10:20:20.000Z</time>
      </trkpt>
      <trkpt lat="45.07586" lon="5.95963">
        <ele>2279</ele>
        <time>2018-02-23T10:20:23.000Z</time>
      </trkpt>
      <trkpt lat="45.07589" lon="5.95964">
        <ele>2279.2</ele>
        <time>2018-02-23T10:20:26.000Z</time>
      </trkpt>
      <trkpt lat="45.07592" lon="5.95964">
        <ele>2279.5</ele>
        <time>2018-02-23T10:20:28.000Z</time>
      </trkpt>
      <trkpt lat="45.07596" lon="5.95965">
        <ele>2279.7</ele>
        <time>2018-02-23T10:20:31.000Z</time>
      </trkpt>
      <trkpt lat="45.076" lon="5.95964">
        <ele>2280</ele>
        <time>2018-02-23T10:20:34.000Z</time>
      </trkpt>
      <trkpt lat="45.07603" lon="5.95965">
        <ele>2280.3</ele>
        <time>2018-02-23T10:20:36.000Z</time>
      </trkpt>
      <trkpt lat="45.07607" lon="5.95966">
        <ele>2281.1</ele>
        <time>2018-02-23T10:20:39.000Z</time>
      </trkpt>
      <trkpt lat="45.07611" lon="5.95967">
        <ele>2281.4</ele>
        <time>2018-02-23T10:20:41.000Z</time>
      </trkpt>
      <trkpt lat="45.07614" lon="5.95968">
        <ele>2281.8</ele>
        <time>2018-02-23T10:20:43.000Z</time>
      </trkpt>
      <trkpt lat="45.07617" lon="5.95969">
        <ele>2282.1</ele>
        <time>2018-02-23T10:20:45.000Z</time>
      </trkpt>
      <trkpt lat="45.0762" lon="5.9597">
        <ele>2282.6</ele>
        <time>2018-02-23T10:20:47.000Z</time>
      </trkpt>
      <trkpt lat="45.07623" lon="5.95972">
        <ele>2282.9</ele>
        <time>2018-02-23T10:20:49.000Z</time>
      </trkpt>
      <trkpt lat="45.07626" lon="5.95972">
        <ele>2283.2</ele>
        <time>2018-02-23T10:20:51.000Z</time>
      </trkpt>
      <trkpt lat="45.07631" lon="5.95973">
        <ele>2283.5</ele>
        <time>2018-02-23T10:20:54.000Z</time>
      </trkpt>
      <trkpt lat="45.07634" lon="5.95974">
        <ele>2284.2</ele>
        <time>2018-02-23T10:20:56.000Z</time>
      </trkpt>
      <trkpt lat="45.07638" lon="5.95975">
        <ele>2284.6</ele>
        <time>2018-02-23T10:20:59.000Z</time>
      </trkpt>
      <trkpt lat="45.07641" lon="5.95976">
        <ele>2284.9</ele>
        <time>2018-02-23T10:21:02.000Z</time>
      </trkpt>
      <trkpt lat="45.07644" lon="5.95978">
        <ele>2285.3</ele>
        <time>2018-02-23T10:21:05.000Z</time>
      </trkpt>
      <trkpt lat="45.07645" lon="5.95974">
        <ele>2285.3</ele>
        <time>2018-02-23T10:21:07.000Z</time>
      </trkpt>
      <trkpt lat="45.07648" lon="5.95977">
        <ele>2285.6</ele>
        <time>2018-02-23T10:21:13.000Z</time>
      </trkpt>
      <trkpt lat="45.07651" lon="5.95978">
        <ele>2286</ele>
        <time>2018-02-23T10:21:19.000Z</time>
      </trkpt>
      <trkpt lat="45.07654" lon="5.95981">
        <ele>2286.6</ele>
        <time>2018-02-23T10:21:22.000Z</time>
      </trkpt>
      <trkpt lat="45.07656" lon="5.95981">
        <ele>2286.9</ele>
        <time>2018-02-23T10:21:25.000Z</time>
      </trkpt>
      <trkpt lat="45.07658" lon="5.95985">
        <ele>2287.6</ele>
        <time>2018-02-23T10:21:28.000Z</time>
      </trkpt>
      <trkpt lat="45.0766" lon="5.95988">
        <ele>2287.8</ele>
        <time>2018-02-23T10:21:29.000Z</time>
      </trkpt>
      <trkpt lat="45.07663" lon="5.95988">
        <ele>2288.3</ele>
        <time>2018-02-23T10:21:32.000Z</time>
      </trkpt>
      <trkpt lat="45.07666" lon="5.95991">
        <ele>2288.7</ele>
        <time>2018-02-23T10:21:34.000Z</time>
      </trkpt>
      <trkpt lat="45.0767" lon="5.95992">
        <ele>2289.4</ele>
        <time>2018-02-23T10:21:38.000Z</time>
      </trkpt>
      <trkpt lat="45.07674" lon="5.95993">
        <ele>2290.2</ele>
        <time>2018-02-23T10:21:41.000Z</time>
      </trkpt>
      <trkpt lat="45.07678" lon="5.95994">
        <ele>2290.5</ele>
        <time>2018-02-23T10:21:44.000Z</time>
      </trkpt>
      <trkpt lat="45.07682" lon="5.95995">
        <ele>2290.8</ele>
        <time>2018-02-23T10:21:47.000Z</time>
      </trkpt>
      <trkpt lat="45.07685" lon="5.95997">
        <ele>2291.3</ele>
        <time>2018-02-23T10:21:50.000Z</time>
      </trkpt>
      <trkpt lat="45.07689" lon="5.95998">
        <ele>2291.7</ele>
        <time>2018-02-23T10:21:53.000Z</time>
      </trkpt>
      <trkpt lat="45.07693" lon="5.95999">
        <ele>2291.8</ele>
        <time>2018-02-23T10:21:56.000Z</time>
      </trkpt>
      <trkpt lat="45.07696" lon="5.96">
        <ele>2292.2</ele>
        <time>2018-02-23T10:21:59.000Z</time>
      </trkpt>
      <trkpt lat="45.07699" lon="5.96002">
        <ele>2292.3</ele>
        <time>2018-02-23T10:22:01.000Z</time>
      </trkpt>
      <trkpt lat="45.07702" lon="5.96003">
        <ele>2292.4</ele>
        <time>2018-02-23T10:22:03.000Z</time>
      </trkpt>
      <trkpt lat="45.07705" lon="5.96003">
        <ele>2292.4</ele>
        <time>2018-02-23T10:22:06.000Z</time>
      </trkpt>
      <trkpt lat="45.07708" lon="5.96004">
        <ele>2292.5</ele>
        <time>2018-02-23T10:22:08.000Z</time>
      </trkpt>
      <trkpt lat="45.07711" lon="5.96005">
        <ele>2292.8</ele>
        <time>2018-02-23T10:22:10.000Z</time>
      </trkpt>
      <trkpt lat="45.07714" lon="5.96006">
        <ele>2292.9</ele>
        <time>2018-02-23T10:22:13.000Z</time>
      </trkpt>
      <trkpt lat="45.07718" lon="5.96008">
        <ele>2293.1</ele>
        <time>2018-02-23T10:22:15.000Z</time>
      </trkpt>
      <trkpt lat="45.07722" lon="5.96008">
        <ele>2292.9</ele>
        <time>2018-02-23T10:22:18.000Z</time>
      </trkpt>
      <trkpt lat="45.07724" lon="5.96008">
        <ele>2292.9</ele>
        <time>2018-02-23T10:22:20.000Z</time>
      </trkpt>
      <trkpt lat="45.07728" lon="5.96009">
        <ele>2293.1</ele>
        <time>2018-02-23T10:22:22.000Z</time>
      </trkpt>
      <trkpt lat="45.07731" lon="5.9601">
        <ele>2293</ele>
        <time>2018-02-23T10:22:24.000Z</time>
      </trkpt>
      <trkpt lat="45.07734" lon="5.96011">
        <ele>2292.9</ele>
        <time>2018-02-23T10:22:26.000Z</time>
      </trkpt>
      <trkpt lat="45.07737" lon="5.96013">
        <ele>2293</ele>
        <time>2018-02-23T10:22:28.000Z</time>
      </trkpt>
      <trkpt lat="45.0774" lon="5.96015">
        <ele>2292.8</ele>
        <time>2018-02-23T10:22:31.000Z</time>
      </trkpt>
      <trkpt lat="45.07744" lon="5.96016">
        <ele>2292.6</ele>
        <time>2018-02-23T10:22:33.000Z</time>
      </trkpt>
      <trkpt lat="45.07746" lon="5.96017">
        <ele>2292.7</ele>
        <time>2018-02-23T10:22:35.000Z</time>
      </trkpt>
      <trkpt lat="45.07749" lon="5.96019">
        <ele>2292.5</ele>
        <time>2018-02-23T10:22:37.000Z</time>
      </trkpt>
      <trkpt lat="45.07752" lon="5.9602">
        <ele>2292.5</ele>
        <time>2018-02-23T10:22:39.000Z</time>
      </trkpt>
      <trkpt lat="45.07755" lon="5.96021">
        <ele>2292.3</ele>
        <time>2018-02-23T10:22:42.000Z</time>
      </trkpt>
      <trkpt lat="45.07758" lon="5.96022">
        <ele>2292.4</ele>
        <time>2018-02-23T10:22:44.000Z</time>
      </trkpt>
      <trkpt lat="45.07762" lon="5.96023">
        <ele>2292.3</ele>
        <time>2018-02-23T10:22:47.000Z</time>
      </trkpt>
      <trkpt lat="45.07765" lon="5.96024">
        <ele>2292.2</ele>
        <time>2018-02-23T10:22:49.000Z</time>
      </trkpt>
      <trkpt lat="45.07768" lon="5.96025">
        <ele>2292.1</ele>
        <time>2018-02-23T10:22:51.000Z</time>
      </trkpt>
      <trkpt lat="45.07771" lon="5.96026">
        <ele>2292.4</ele>
        <time>2018-02-23T10:22:53.000Z</time>
      </trkpt>
      <trkpt lat="45.07774" lon="5.96027">
        <ele>2292.4</ele>
        <time>2018-02-23T10:22:55.000Z</time>
      </trkpt>
      <trkpt lat="45.07777" lon="5.96029">
        <ele>2292.4</ele>
        <time>2018-02-23T10:22:57.000Z</time>
      </trkpt>
      <trkpt lat="45.07781" lon="5.9603">
        <ele>2292.7</ele>
        <time>2018-02-23T10:22:59.000Z</time>
      </trkpt>
      <trkpt lat="45.07784" lon="5.9603">
        <ele>2292.7</ele>
        <time>2018-02-23T10:23:01.000Z</time>
      </trkpt>
      <trkpt lat="45.07787" lon="5.96031">
        <ele>2292.7</ele>
        <time>2018-02-23T10:23:03.000Z</time>
      </trkpt>
      <trkpt lat="45.0779" lon="5.96032">
        <ele>2292.7</ele>
        <time>2018-02-23T10:23:05.000Z</time>
      </trkpt>
      <trkpt lat="45.07793" lon="5.96033">
        <ele>2292.7</ele>
        <time>2018-02-23T10:23:07.000Z</time>
      </trkpt>
      <trkpt lat="45.07796" lon="5.96035">
        <ele>2293</ele>
        <time>2018-02-23T10:23:10.000Z</time>
      </trkpt>
      <trkpt lat="45.07799" lon="5.96036">
        <ele>2293.1</ele>
        <time>2018-02-23T10:23:12.000Z</time>
      </trkpt>
      <trkpt lat="45.07804" lon="5.96036">
        <ele>2293.1</ele>
        <time>2018-02-23T10:23:15.000Z</time>
      </trkpt>
      <trkpt lat="45.07807" lon="5.96037">
        <ele>2293.2</ele>
        <time>2018-02-23T10:23:17.000Z</time>
      </trkpt>
      <trkpt lat="45.07811" lon="5.96037">
        <ele>2293.3</ele>
        <time>2018-02-23T10:23:19.000Z</time>
      </trkpt>
      <trkpt lat="45.07814" lon="5.96037">
        <ele>2293.5</ele>
        <time>2018-02-23T10:23:22.000Z</time>
      </trkpt>
      <trkpt lat="45.07817" lon="5.96038">
        <ele>2293.6</ele>
        <time>2018-02-23T10:23:24.000Z</time>
      </trkpt>
      <trkpt lat="45.07821" lon="5.96039">
        <ele>2294</ele>
        <time>2018-02-23T10:23:27.000Z</time>
      </trkpt>
      <trkpt lat="45.07825" lon="5.96038">
        <ele>2294.2</ele>
        <time>2018-02-23T10:23:30.000Z</time>
      </trkpt>
      <trkpt lat="45.07828" lon="5.96039">
        <ele>2294.7</ele>
        <time>2018-02-23T10:23:32.000Z</time>
      </trkpt>
      <trkpt lat="45.07831" lon="5.9604">
        <ele>2295</ele>
        <time>2018-02-23T10:23:34.000Z</time>
      </trkpt>
      <trkpt lat="45.07834" lon="5.96041">
        <ele>2295</ele>
        <time>2018-02-23T10:23:36.000Z</time>
      </trkpt>
      <trkpt lat="45.07837" lon="5.96042">
        <ele>2295.4</ele>
        <time>2018-02-23T10:23:38.000Z</time>
      </trkpt>
      <trkpt lat="45.07839" lon="5.96043">
        <ele>2295.9</ele>
        <time>2018-02-23T10:23:41.000Z</time>
      </trkpt>
      <trkpt lat="45.07842" lon="5.96044">
        <ele>2296.2</ele>
        <time>2018-02-23T10:23:43.000Z</time>
      </trkpt>
      <trkpt lat="45.07845" lon="5.96041">
        <ele>2296.4</ele>
        <time>2018-02-23T10:23:46.000Z</time>
      </trkpt>
      <trkpt lat="45.07848" lon="5.9604">
        <ele>2296.7</ele>
        <time>2018-02-23T10:23:48.000Z</time>
      </trkpt>
      <trkpt lat="45.07852" lon="5.96041">
        <ele>2297</ele>
        <time>2018-02-23T10:23:51.000Z</time>
      </trkpt>
      <trkpt lat="45.07855" lon="5.96044">
        <ele>2297.5</ele>
        <time>2018-02-23T10:23:54.000Z</time>
      </trkpt>
      <trkpt lat="45.07859" lon="5.96045">
        <ele>2298.1</ele>
        <time>2018-02-23T10:23:57.000Z</time>
      </trkpt>
      <trkpt lat="45.07862" lon="5.96045">
        <ele>2298.4</ele>
        <time>2018-02-23T10:24:00.000Z</time>
      </trkpt>
      <trkpt lat="45.07865" lon="5.96045">
        <ele>2298.8</ele>
        <time>2018-02-23T10:24:03.000Z</time>
      </trkpt>
      <trkpt lat="45.07868" lon="5.96045">
        <ele>2299.1</ele>
        <time>2018-02-23T10:24:06.000Z</time>
      </trkpt>
      <trkpt lat="45.07871" lon="5.96047">
        <ele>2299.4</ele>
        <time>2018-02-23T10:24:09.000Z</time>
      </trkpt>
      <trkpt lat="45.07874" lon="5.96046">
        <ele>2299.6</ele>
        <time>2018-02-23T10:24:12.000Z</time>
      </trkpt>
      <trkpt lat="45.07877" lon="5.96046">
        <ele>2299.8</ele>
        <time>2018-02-23T10:24:14.000Z</time>
      </trkpt>
      <trkpt lat="45.0788" lon="5.96045">
        <ele>2300.1</ele>
        <time>2018-02-23T10:24:17.000Z</time>
      </trkpt>
      <trkpt lat="45.07883" lon="5.96045">
        <ele>2300.4</ele>
        <time>2018-02-23T10:24:19.000Z</time>
      </trkpt>
      <trkpt lat="45.07887" lon="5.96044">
        <ele>2300.7</ele>
        <time>2018-02-23T10:24:21.000Z</time>
      </trkpt>
      <trkpt lat="45.0789" lon="5.96045">
        <ele>2301.1</ele>
        <time>2018-02-23T10:24:24.000Z</time>
      </trkpt>
      <trkpt lat="45.07893" lon="5.96045">
        <ele>2301.4</ele>
        <time>2018-02-23T10:24:27.000Z</time>
      </trkpt>
      <trkpt lat="45.07895" lon="5.96045">
        <ele>2301.7</ele>
        <time>2018-02-23T10:24:30.000Z</time>
      </trkpt>
      <trkpt lat="45.07899" lon="5.96045">
        <ele>2302</ele>
        <time>2018-02-23T10:24:33.000Z</time>
      </trkpt>
      <trkpt lat="45.07902" lon="5.96045">
        <ele>2302.4</ele>
        <time>2018-02-23T10:24:36.000Z</time>
      </trkpt>
      <trkpt lat="45.07905" lon="5.96045">
        <ele>2302.8</ele>
        <time>2018-02-23T10:24:40.000Z</time>
      </trkpt>
      <trkpt lat="45.07908" lon="5.96045">
        <ele>2303.2</ele>
        <time>2018-02-23T10:24:43.000Z</time>
      </trkpt>
      <trkpt lat="45.07911" lon="5.96045">
        <ele>2303.6</ele>
        <time>2018-02-23T10:24:48.000Z</time>
      </trkpt>
      <trkpt lat="45.07913" lon="5.96042">
        <ele>2303.9</ele>
        <time>2018-02-23T10:24:51.000Z</time>
      </trkpt>
      <trkpt lat="45.07916" lon="5.96041">
        <ele>2303.9</ele>
        <time>2018-02-23T10:24:56.000Z</time>
      </trkpt>
      <trkpt lat="45.07919" lon="5.9604">
        <ele>2304.4</ele>
        <time>2018-02-23T10:25:00.000Z</time>
      </trkpt>
      <trkpt lat="45.07922" lon="5.96041">
        <ele>2304.8</ele>
        <time>2018-02-23T10:25:04.000Z</time>
      </trkpt>
      <trkpt lat="45.07924" lon="5.96039">
        <ele>2305.3</ele>
        <time>2018-02-23T10:25:10.000Z</time>
      </trkpt>
      <trkpt lat="45.07928" lon="5.96039">
        <ele>2305.8</ele>
        <time>2018-02-23T10:25:13.000Z</time>
      </trkpt>
      <trkpt lat="45.07931" lon="5.9604">
        <ele>2306.2</ele>
        <time>2018-02-23T10:25:18.000Z</time>
      </trkpt>
      <trkpt lat="45.07934" lon="5.96039">
        <ele>2306.9</ele>
        <time>2018-02-23T10:25:24.000Z</time>
      </trkpt>
      <trkpt lat="45.07937" lon="5.96041">
        <ele>2306.9</ele>
        <time>2018-02-23T10:25:28.000Z</time>
      </trkpt>
      <trkpt lat="45.0794" lon="5.9604">
        <ele>2307.7</ele>
        <time>2018-02-23T10:25:32.000Z</time>
      </trkpt>
      <trkpt lat="45.07944" lon="5.96041">
        <ele>2308.1</ele>
        <time>2018-02-23T10:25:36.000Z</time>
      </trkpt>
      <trkpt lat="45.07947" lon="5.96042">
        <ele>2308.5</ele>
        <time>2018-02-23T10:25:44.000Z</time>
      </trkpt>
      <trkpt lat="45.0795" lon="5.9604">
        <ele>2308.8</ele>
        <time>2018-02-23T10:25:51.000Z</time>
      </trkpt>
      <trkpt lat="45.07953" lon="5.9604">
        <ele>2309.2</ele>
        <time>2018-02-23T10:25:55.000Z</time>
      </trkpt>
      <trkpt lat="45.07956" lon="5.96041">
        <ele>2309.5</ele>
        <time>2018-02-23T10:26:00.000Z</time>
      </trkpt>
      <trkpt lat="45.07959" lon="5.9604">
        <ele>2309.8</ele>
        <time>2018-02-23T10:26:04.000Z</time>
      </trkpt>
      <trkpt lat="45.07962" lon="5.96039">
        <ele>2310</ele>
        <time>2018-02-23T10:26:11.000Z</time>
      </trkpt>
      <trkpt lat="45.07965" lon="5.9604">
        <ele>2310.4</ele>
        <time>2018-02-23T10:26:15.000Z</time>
      </trkpt>
      <trkpt lat="45.07968" lon="5.96041">
        <ele>2310.7</ele>
        <time>2018-02-23T10:26:19.000Z</time>
      </trkpt>
      <trkpt lat="45.07972" lon="5.96041">
        <ele>2311</ele>
        <time>2018-02-23T10:26:23.000Z</time>
      </trkpt>
      <trkpt lat="45.07974" lon="5.96041">
        <ele>2311.4</ele>
        <time>2018-02-23T10:26:28.000Z</time>
      </trkpt>
      <trkpt lat="45.07977" lon="5.9604">
        <ele>2311.7</ele>
        <time>2018-02-23T10:26:31.000Z</time>
      </trkpt>
      <trkpt lat="45.0798" lon="5.9604">
        <ele>2312.1</ele>
        <time>2018-02-23T10:26:38.000Z</time>
      </trkpt>
      <trkpt lat="45.07983" lon="5.9604">
        <ele>2312.4</ele>
        <time>2018-02-23T10:26:42.000Z</time>
      </trkpt>
      <trkpt lat="45.07986" lon="5.96039">
        <ele>2312.7</ele>
        <time>2018-02-23T10:26:46.000Z</time>
      </trkpt>
      <trkpt lat="45.0799" lon="5.96039">
        <ele>2313</ele>
        <time>2018-02-23T10:26:52.000Z</time>
      </trkpt>
      <trkpt lat="45.07993" lon="5.96038">
        <ele>2313.2</ele>
        <time>2018-02-23T10:26:56.000Z</time>
      </trkpt>
      <trkpt lat="45.07996" lon="5.96036">
        <ele>2313.5</ele>
        <time>2018-02-23T10:27:00.000Z</time>
      </trkpt>
      <trkpt lat="45.07998" lon="5.96037">
        <ele>2313.8</ele>
        <time>2018-02-23T10:27:03.000Z</time>
      </trkpt>
      <trkpt lat="45.08002" lon="5.96036">
        <ele>2314.2</ele>
        <time>2018-02-23T10:27:09.000Z</time>
      </trkpt>
      <trkpt lat="45.08005" lon="5.96036">
        <ele>2314.5</ele>
        <time>2018-02-23T10:27:15.000Z</time>
      </trkpt>
      <trkpt lat="45.08008" lon="5.96036">
        <ele>2314.8</ele>
        <time>2018-02-23T10:27:18.000Z</time>
      </trkpt>
      <trkpt lat="45.08011" lon="5.96035">
        <ele>2315</ele>
        <time>2018-02-23T10:27:22.000Z</time>
      </trkpt>
      <trkpt lat="45.08014" lon="5.96036">
        <ele>2315.3</ele>
        <time>2018-02-23T10:27:26.000Z</time>
      </trkpt>
      <trkpt lat="45.08017" lon="5.96034">
        <ele>2315.5</ele>
        <time>2018-02-23T10:27:31.000Z</time>
      </trkpt>
      <trkpt lat="45.0802" lon="5.96036">
        <ele>2315.7</ele>
        <time>2018-02-23T10:27:35.000Z</time>
      </trkpt>
      <trkpt lat="45.08023" lon="5.96035">
        <ele>2315.9</ele>
        <time>2018-02-23T10:27:39.000Z</time>
      </trkpt>
      <trkpt lat="45.08026" lon="5.96036">
        <ele>2316.1</ele>
        <time>2018-02-23T10:27:43.000Z</time>
      </trkpt>
      <trkpt lat="45.08029" lon="5.96035">
        <ele>2316.3</ele>
        <time>2018-02-23T10:27:49.000Z</time>
      </trkpt>
      <trkpt lat="45.08032" lon="5.96035">
        <ele>2316.5</ele>
        <time>2018-02-23T10:27:52.000Z</time>
      </trkpt>
      <trkpt lat="45.08036" lon="5.96033">
        <ele>2316.4</ele>
        <time>2018-02-23T10:27:56.000Z</time>
      </trkpt>
      <trkpt lat="45.08039" lon="5.96032">
        <ele>2316.6</ele>
        <time>2018-02-23T10:27:59.000Z</time>
      </trkpt>
      <trkpt lat="45.08041" lon="5.96036">
        <ele>2316.9</ele>
        <time>2018-02-23T10:28:03.000Z</time>
      </trkpt>
      <trkpt lat="45.08045" lon="5.96037">
        <ele>2317</ele>
        <time>2018-02-23T10:28:08.000Z</time>
      </trkpt>
      <trkpt lat="45.08047" lon="5.96035">
        <ele>2317.2</ele>
        <time>2018-02-23T10:28:11.000Z</time>
      </trkpt>
      <trkpt lat="45.08051" lon="5.96034">
        <ele>2317.3</ele>
        <time>2018-02-23T10:28:17.000Z</time>
      </trkpt>
      <trkpt lat="45.08054" lon="5.96035">
        <ele>2317.4</ele>
        <time>2018-02-23T10:28:20.000Z</time>
      </trkpt>
      <trkpt lat="45.08057" lon="5.96036">
        <ele>2317.5</ele>
        <time>2018-02-23T10:28:23.000Z</time>
      </trkpt>
      <trkpt lat="45.0806" lon="5.96038">
        <ele>2317.7</ele>
        <time>2018-02-23T10:28:29.000Z</time>
      </trkpt>
      <trkpt lat="45.08063" lon="5.96037">
        <ele>2317.8</ele>
        <time>2018-02-23T10:28:32.000Z</time>
      </trkpt>
      <trkpt lat="45.08066" lon="5.96036">
        <ele>2317.8</ele>
        <time>2018-02-23T10:28:35.000Z</time>
      </trkpt>
      <trkpt lat="45.0807" lon="5.96037">
        <ele>2317.9</ele>
        <time>2018-02-23T10:28:38.000Z</time>
      </trkpt>
      <trkpt lat="45.08073" lon="5.96037">
        <ele>2318</ele>
        <time>2018-02-23T10:28:41.000Z</time>
      </trkpt>
      <trkpt lat="45.08077" lon="5.96037">
        <ele>2318</ele>
        <time>2018-02-23T10:28:44.000Z</time>
      </trkpt>
      <trkpt lat="45.0808" lon="5.96037">
        <ele>2318</ele>
        <time>2018-02-23T10:28:47.000Z</time>
      </trkpt>
      <trkpt lat="45.08083" lon="5.9604">
        <ele>2318.2</ele>
        <time>2018-02-23T10:28:50.000Z</time>
      </trkpt>
      <trkpt lat="45.08086" lon="5.96044">
        <ele>2318.3</ele>
        <time>2018-02-23T10:28:52.000Z</time>
      </trkpt>
      <trkpt lat="45.08089" lon="5.96045">
        <ele>2318.3</ele>
        <time>2018-02-23T10:28:55.000Z</time>
      </trkpt>
      <trkpt lat="45.08092" lon="5.96044">
        <ele>2318.3</ele>
        <time>2018-02-23T10:28:57.000Z</time>
      </trkpt>
      <trkpt lat="45.08095" lon="5.96046">
        <ele>2318.3</ele>
        <time>2018-02-23T10:29:00.000Z</time>
      </trkpt>
      <trkpt lat="45.08098" lon="5.96046">
        <ele>2318.3</ele>
        <time>2018-02-23T10:29:02.000Z</time>
      </trkpt>
      <trkpt lat="45.08102" lon="5.96048">
        <ele>2318.4</ele>
        <time>2018-02-23T10:29:04.000Z</time>
      </trkpt>
      <trkpt lat="45.08105" lon="5.96049">
        <ele>2318.4</ele>
        <time>2018-02-23T10:29:05.000Z</time>
      </trkpt>
      <trkpt lat="45.08109" lon="5.96051">
        <ele>2318.4</ele>
        <time>2018-02-23T10:29:07.000Z</time>
      </trkpt>
      <trkpt lat="45.08112" lon="5.96053">
        <ele>2318.5</ele>
        <time>2018-02-23T10:29:09.000Z</time>
      </trkpt>
      <trkpt lat="45.08115" lon="5.96053">
        <ele>2318.4</ele>
        <time>2018-02-23T10:29:11.000Z</time>
      </trkpt>
      <trkpt lat="45.08118" lon="5.96052">
        <ele>2318.4</ele>
        <time>2018-02-23T10:29:12.000Z</time>
      </trkpt>
      <trkpt lat="45.08123" lon="5.96055">
        <ele>2318.3</ele>
        <time>2018-02-23T10:29:14.000Z</time>
      </trkpt>
      <trkpt lat="45.08127" lon="5.96056">
        <ele>2318.4</ele>
        <time>2018-02-23T10:29:16.000Z</time>
      </trkpt>
      <trkpt lat="45.08131" lon="5.96056">
        <ele>2318.2</ele>
        <time>2018-02-23T10:29:18.000Z</time>
      </trkpt>
      <trkpt lat="45.08135" lon="5.96057">
        <ele>2318</ele>
        <time>2018-02-23T10:29:20.000Z</time>
      </trkpt>
      <trkpt lat="45.08138" lon="5.96056">
        <ele>2317.9</ele>
        <time>2018-02-23T10:29:22.000Z</time>
      </trkpt>
      <trkpt lat="45.08141" lon="5.96056">
        <ele>2317.8</ele>
        <time>2018-02-23T10:29:24.000Z</time>
      </trkpt>
      <trkpt lat="45.08145" lon="5.96057">
        <ele>2317.7</ele>
        <time>2018-02-23T10:29:26.000Z</time>
      </trkpt>
      <trkpt lat="45.08148" lon="5.96057">
        <ele>2317.5</ele>
        <time>2018-02-23T10:29:28.000Z</time>
      </trkpt>
      <trkpt lat="45.08151" lon="5.96058">
        <ele>2317.4</ele>
        <time>2018-02-23T10:29:29.000Z</time>
      </trkpt>
      <trkpt lat="45.08156" lon="5.96057">
        <ele>2317.2</ele>
        <time>2018-02-23T10:29:31.000Z</time>
      </trkpt>
      <trkpt lat="45.08158" lon="5.96058">
        <ele>2317.1</ele>
        <time>2018-02-23T10:29:32.000Z</time>
      </trkpt>
      <trkpt lat="45.08163" lon="5.96057">
        <ele>2317.1</ele>
        <time>2018-02-23T10:29:34.000Z</time>
      </trkpt>
      <trkpt lat="45.08166" lon="5.96056">
        <ele>2317</ele>
        <time>2018-02-23T10:29:36.000Z</time>
      </trkpt>
      <trkpt lat="45.08169" lon="5.96056">
        <ele>2316.9</ele>
        <time>2018-02-23T10:29:38.000Z</time>
      </trkpt>
      <trkpt lat="45.08173" lon="5.96058">
        <ele>2316.9</ele>
        <time>2018-02-23T10:29:40.000Z</time>
      </trkpt>
      <trkpt lat="45.08176" lon="5.96058">
        <ele>2316.8</ele>
        <time>2018-02-23T10:29:42.000Z</time>
      </trkpt>
      <trkpt lat="45.08178" lon="5.96057">
        <ele>2316.8</ele>
        <time>2018-02-23T10:29:44.000Z</time>
      </trkpt>
      <trkpt lat="45.08182" lon="5.96057">
        <ele>2316.8</ele>
        <time>2018-02-23T10:29:46.000Z</time>
      </trkpt>
      <trkpt lat="45.08186" lon="5.96056">
        <ele>2316.7</ele>
        <time>2018-02-23T10:29:48.000Z</time>
      </trkpt>
      <trkpt lat="45.08189" lon="5.96055">
        <ele>2316.2</ele>
        <time>2018-02-23T10:29:50.000Z</time>
      </trkpt>
      <trkpt lat="45.08192" lon="5.96054">
        <ele>2316.2</ele>
        <time>2018-02-23T10:29:52.000Z</time>
      </trkpt>
      <trkpt lat="45.08195" lon="5.96052">
        <ele>2316.3</ele>
        <time>2018-02-23T10:29:55.000Z</time>
      </trkpt>
      <trkpt lat="45.08199" lon="5.96051">
        <ele>2315.8</ele>
        <time>2018-02-23T10:29:58.000Z</time>
      </trkpt>
      <trkpt lat="45.08203" lon="5.9605">
        <ele>2315.9</ele>
        <time>2018-02-23T10:30:00.000Z</time>
      </trkpt>
      <trkpt lat="45.08208" lon="5.9605">
        <ele>2316.1</ele>
        <time>2018-02-23T10:30:03.000Z</time>
      </trkpt>
      <trkpt lat="45.0821" lon="5.96049">
        <ele>2316.3</ele>
        <time>2018-02-23T10:30:05.000Z</time>
      </trkpt>
      <trkpt lat="45.08214" lon="5.96049">
        <ele>2316.4</ele>
        <time>2018-02-23T10:30:07.000Z</time>
      </trkpt>
      <trkpt lat="45.08217" lon="5.9605">
        <ele>2316.7</ele>
        <time>2018-02-23T10:30:10.000Z</time>
      </trkpt>
      <trkpt lat="45.08221" lon="5.9605">
        <ele>2316.9</ele>
        <time>2018-02-23T10:30:12.000Z</time>
      </trkpt>
      <trkpt lat="45.08225" lon="5.96048">
        <ele>2317.2</ele>
        <time>2018-02-23T10:30:15.000Z</time>
      </trkpt>
      <trkpt lat="45.08228" lon="5.96047">
        <ele>2317.2</ele>
        <time>2018-02-23T10:30:17.000Z</time>
      </trkpt>
      <trkpt lat="45.0823" lon="5.96048">
        <ele>2317.9</ele>
        <time>2018-02-23T10:30:19.000Z</time>
      </trkpt>
      <trkpt lat="45.08234" lon="5.96047">
        <ele>2318.1</ele>
        <time>2018-02-23T10:30:22.000Z</time>
      </trkpt>
      <trkpt lat="45.08237" lon="5.96046">
        <ele>2318.4</ele>
        <time>2018-02-23T10:30:24.000Z</time>
      </trkpt>
      <trkpt lat="45.0824" lon="5.96046">
        <ele>2318.8</ele>
        <time>2018-02-23T10:30:27.000Z</time>
      </trkpt>
      <trkpt lat="45.08244" lon="5.96045">
        <ele>2319.1</ele>
        <time>2018-02-23T10:30:30.000Z</time>
      </trkpt>
      <trkpt lat="45.08247" lon="5.96044">
        <ele>2319.6</ele>
        <time>2018-02-23T10:30:33.000Z</time>
      </trkpt>
      <trkpt lat="45.0825" lon="5.96043">
        <ele>2320</ele>
        <time>2018-02-23T10:30:36.000Z</time>
      </trkpt>
      <trkpt lat="45.08253" lon="5.96041">
        <ele>2320.1</ele>
        <time>2018-02-23T10:30:39.000Z</time>
      </trkpt>
      <trkpt lat="45.08256" lon="5.96042">
        <ele>2320.5</ele>
        <time>2018-02-23T10:30:41.000Z</time>
      </trkpt>
      <trkpt lat="45.08259" lon="5.96041">
        <ele>2320.9</ele>
        <time>2018-02-23T10:30:43.000Z</time>
      </trkpt>
      <trkpt lat="45.08262" lon="5.96041">
        <ele>2321.3</ele>
        <time>2018-02-23T10:30:47.000Z</time>
      </trkpt>
      <trkpt lat="45.08265" lon="5.9604">
        <ele>2321.7</ele>
        <time>2018-02-23T10:30:49.000Z</time>
      </trkpt>
      <trkpt lat="45.08268" lon="5.96039">
        <ele>2322.2</ele>
        <time>2018-02-23T10:30:52.000Z</time>
      </trkpt>
      <trkpt lat="45.08272" lon="5.96039">
        <ele>2322.7</ele>
        <time>2018-02-23T10:30:55.000Z</time>
      </trkpt>
      <trkpt lat="45.08275" lon="5.96037">
        <ele>2323.1</ele>
        <time>2018-02-23T10:30:59.000Z</time>
      </trkpt>
      <trkpt lat="45.08278" lon="5.96036">
        <ele>2323.7</ele>
        <time>2018-02-23T10:31:02.000Z</time>
      </trkpt>
      <trkpt lat="45.08281" lon="5.96034">
        <ele>2324</ele>
        <time>2018-02-23T10:31:05.000Z</time>
      </trkpt>
      <trkpt lat="45.08284" lon="5.96034">
        <ele>2324.7</ele>
        <time>2018-02-23T10:31:07.000Z</time>
      </trkpt>
      <trkpt lat="45.08288" lon="5.96034">
        <ele>2325.3</ele>
        <time>2018-02-23T10:31:10.000Z</time>
      </trkpt>
      <trkpt lat="45.0829" lon="5.96034">
        <ele>2326.2</ele>
        <time>2018-02-23T10:31:12.000Z</time>
      </trkpt>
      <trkpt lat="45.08294" lon="5.96034">
        <ele>2326.9</ele>
        <time>2018-02-23T10:31:15.000Z</time>
      </trkpt>
      <trkpt lat="45.08298" lon="5.96033">
        <ele>2327.4</ele>
        <time>2018-02-23T10:31:19.000Z</time>
      </trkpt>
      <trkpt lat="45.08301" lon="5.96032">
        <ele>2328.1</ele>
        <time>2018-02-23T10:31:22.000Z</time>
      </trkpt>
      <trkpt lat="45.08304" lon="5.9603">
        <ele>2329.6</ele>
        <time>2018-02-23T10:31:26.000Z</time>
      </trkpt>
      <trkpt lat="45.08307" lon="5.9603">
        <ele>2329.6</ele>
        <time>2018-02-23T10:31:29.000Z</time>
      </trkpt>
      <trkpt lat="45.08311" lon="5.96029">
        <ele>2331.3</ele>
        <time>2018-02-23T10:31:34.000Z</time>
      </trkpt>
      <trkpt lat="45.08315" lon="5.96028">
        <ele>2332.2</ele>
        <time>2018-02-23T10:31:38.000Z</time>
      </trkpt>
      <trkpt lat="45.08318" lon="5.96026">
        <ele>2333</ele>
        <time>2018-02-23T10:31:41.000Z</time>
      </trkpt>
      <trkpt lat="45.08321" lon="5.96025">
        <ele>2333.5</ele>
        <time>2018-02-23T10:31:44.000Z</time>
      </trkpt>
      <trkpt lat="45.08324" lon="5.96024">
        <ele>2334.2</ele>
        <time>2018-02-23T10:31:46.000Z</time>
      </trkpt>
      <trkpt lat="45.08328" lon="5.96023">
        <ele>2335</ele>
        <time>2018-02-23T10:31:49.000Z</time>
      </trkpt>
      <trkpt lat="45.08331" lon="5.96021">
        <ele>2336.6</ele>
        <time>2018-02-23T10:31:52.000Z</time>
      </trkpt>
      <trkpt lat="45.08335" lon="5.96021">
        <ele>2337.5</ele>
        <time>2018-02-23T10:31:55.000Z</time>
      </trkpt>
      <trkpt lat="45.08338" lon="5.9602">
        <ele>2338</ele>
        <time>2018-02-23T10:32:00.000Z</time>
      </trkpt>
      <trkpt lat="45.08341" lon="5.96017">
        <ele>2338.7</ele>
        <time>2018-02-23T10:32:03.000Z</time>
      </trkpt>
      <trkpt lat="45.08344" lon="5.96016">
        <ele>2338.9</ele>
        <time>2018-02-23T10:32:05.000Z</time>
      </trkpt>
      <trkpt lat="45.08347" lon="5.96014">
        <ele>2339.4</ele>
        <time>2018-02-23T10:32:08.000Z</time>
      </trkpt>
      <trkpt lat="45.0835" lon="5.96013">
        <ele>2340</ele>
        <time>2018-02-23T10:32:10.000Z</time>
      </trkpt>
      <trkpt lat="45.08353" lon="5.96011">
        <ele>2340.2</ele>
        <time>2018-02-23T10:32:13.000Z</time>
      </trkpt>
      <trkpt lat="45.08357" lon="5.96009">
        <ele>2341</ele>
        <time>2018-02-23T10:32:16.000Z</time>
      </trkpt>
      <trkpt lat="45.0836" lon="5.96007">
        <ele>2341.3</ele>
        <time>2018-02-23T10:32:20.000Z</time>
      </trkpt>
      <trkpt lat="45.08362" lon="5.96004">
        <ele>2342</ele>
        <time>2018-02-23T10:32:26.000Z</time>
      </trkpt>
      <trkpt lat="45.08365" lon="5.96003">
        <ele>2342.3</ele>
        <time>2018-02-23T10:32:29.000Z</time>
      </trkpt>
      <trkpt lat="45.08367" lon="5.96001">
        <ele>2343.1</ele>
        <time>2018-02-23T10:32:35.000Z</time>
      </trkpt>
      <trkpt lat="45.0837" lon="5.96">
        <ele>2343.3</ele>
        <time>2018-02-23T10:32:38.000Z</time>
      </trkpt>
      <trkpt lat="45.08373" lon="5.95998">
        <ele>2343.3</ele>
        <time>2018-02-23T10:32:43.000Z</time>
      </trkpt>
      <trkpt lat="45.08376" lon="5.95996">
        <ele>2344.1</ele>
        <time>2018-02-23T10:32:46.000Z</time>
      </trkpt>
      <trkpt lat="45.08379" lon="5.95995">
        <ele>2344.5</ele>
        <time>2018-02-23T10:32:51.000Z</time>
      </trkpt>
      <trkpt lat="45.08384" lon="5.95993">
        <ele>2346.5</ele>
        <time>2018-02-23T10:32:56.000Z</time>
      </trkpt>
      <trkpt lat="45.08387" lon="5.95993">
        <ele>2347.6</ele>
        <time>2018-02-23T10:33:02.000Z</time>
      </trkpt>
      <trkpt lat="45.0839" lon="5.95994">
        <ele>2348.8</ele>
        <time>2018-02-23T10:33:06.000Z</time>
      </trkpt>
      <trkpt lat="45.08393" lon="5.95992">
        <ele>2350</ele>
        <time>2018-02-23T10:33:13.000Z</time>
      </trkpt>
      <trkpt lat="45.08397" lon="5.95992">
        <ele>2351.2</ele>
        <time>2018-02-23T10:33:18.000Z</time>
      </trkpt>
      <trkpt lat="45.08401" lon="5.95992">
        <ele>2352.5</ele>
        <time>2018-02-23T10:33:23.000Z</time>
      </trkpt>
      <trkpt lat="45.08403" lon="5.95995">
        <ele>2353.7</ele>
        <time>2018-02-23T10:33:26.000Z</time>
      </trkpt>
      <trkpt lat="45.08405" lon="5.95994">
        <ele>2354.9</ele>
        <time>2018-02-23T10:33:31.000Z</time>
      </trkpt>
      <trkpt lat="45.08408" lon="5.95993">
        <ele>2356.1</ele>
        <time>2018-02-23T10:33:36.000Z</time>
      </trkpt>
      <trkpt lat="45.08411" lon="5.95992">
        <ele>2357.3</ele>
        <time>2018-02-23T10:33:41.000Z</time>
      </trkpt>
      <trkpt lat="45.08415" lon="5.95992">
        <ele>2358.7</ele>
        <time>2018-02-23T10:33:44.000Z</time>
      </trkpt>
      <trkpt lat="45.08418" lon="5.95992">
        <ele>2360.3</ele>
        <time>2018-02-23T10:33:48.000Z</time>
      </trkpt>
      <trkpt lat="45.0842" lon="5.95989">
        <ele>2361.3</ele>
        <time>2018-02-23T10:33:51.000Z</time>
      </trkpt>
      <trkpt lat="45.08423" lon="5.95989">
        <ele>2362.8</ele>
        <time>2018-02-23T10:33:55.000Z</time>
      </trkpt>
      <trkpt lat="45.08426" lon="5.95986">
        <ele>2363.7</ele>
        <time>2018-02-23T10:34:00.000Z</time>
      </trkpt>
      <trkpt lat="45.08429" lon="5.95983">
        <ele>2365</ele>
        <time>2018-02-23T10:34:06.000Z</time>
      </trkpt>
      <trkpt lat="45.08431" lon="5.95981">
        <ele>2365.7</ele>
        <time>2018-02-23T10:34:10.000Z</time>
      </trkpt>
      <trkpt lat="45.08434" lon="5.9598">
        <ele>2367</ele>
        <time>2018-02-23T10:34:16.000Z</time>
      </trkpt>
      <trkpt lat="45.08437" lon="5.95977">
        <ele>2366.3</ele>
        <time>2018-02-23T10:34:20.000Z</time>
      </trkpt>
      <trkpt lat="45.0844" lon="5.95977">
        <ele>2369.4</ele>
        <time>2018-02-23T10:34:24.000Z</time>
      </trkpt>
      <trkpt lat="45.08442" lon="5.95975">
        <ele>2369.4</ele>
        <time>2018-02-23T10:34:31.000Z</time>
      </trkpt>
      <trkpt lat="45.08446" lon="5.95974">
        <ele>2370.2</ele>
        <time>2018-02-23T10:34:35.000Z</time>
      </trkpt>
      <trkpt lat="45.08448" lon="5.95972">
        <ele>2371.8</ele>
        <time>2018-02-23T10:34:38.000Z</time>
      </trkpt>
      <trkpt lat="45.08451" lon="5.9597">
        <ele>2373.3</ele>
        <time>2018-02-23T10:34:44.000Z</time>
      </trkpt>
      <trkpt lat="45.08454" lon="5.9597">
        <ele>2374.7</ele>
        <time>2018-02-23T10:34:47.000Z</time>
      </trkpt>
      <trkpt lat="45.08457" lon="5.95969">
        <ele>2375.2</ele>
        <time>2018-02-23T10:34:55.000Z</time>
      </trkpt>
      <trkpt lat="45.08457" lon="5.95965">
        <ele>2374.4</ele>
        <time>2018-02-23T10:35:03.000Z</time>
      </trkpt>
      <trkpt lat="45.0846" lon="5.95965">
        <ele>2375.8</ele>
        <time>2018-02-23T10:35:06.000Z</time>
      </trkpt>
      <trkpt lat="45.08463" lon="5.95964">
        <ele>2377.3</ele>
        <time>2018-02-23T10:35:10.000Z</time>
      </trkpt>
      <trkpt lat="45.08465" lon="5.95961">
        <ele>2378.9</ele>
        <time>2018-02-23T10:35:14.000Z</time>
      </trkpt>
      <trkpt lat="45.08468" lon="5.95961">
        <ele>2380.5</ele>
        <time>2018-02-23T10:35:16.000Z</time>
      </trkpt>
      <trkpt lat="45.08471" lon="5.95961">
        <ele>2381.4</ele>
        <time>2018-02-23T10:35:22.000Z</time>
      </trkpt>
      <trkpt lat="45.08474" lon="5.9596">
        <ele>2383.1</ele>
        <time>2018-02-23T10:35:25.000Z</time>
      </trkpt>
      <trkpt lat="45.08477" lon="5.95957">
        <ele>2384</ele>
        <time>2018-02-23T10:35:32.000Z</time>
      </trkpt>
      <trkpt lat="45.08479" lon="5.95955">
        <ele>2385.7</ele>
        <time>2018-02-23T10:35:36.000Z</time>
      </trkpt>
      <trkpt lat="45.08483" lon="5.95954">
        <ele>2387.3</ele>
        <time>2018-02-23T10:35:40.000Z</time>
      </trkpt>
      <trkpt lat="45.08485" lon="5.95952">
        <ele>2386.6</ele>
        <time>2018-02-23T10:35:43.000Z</time>
      </trkpt>
      <trkpt lat="45.08488" lon="5.95952">
        <ele>2388.2</ele>
        <time>2018-02-23T10:35:47.000Z</time>
      </trkpt>
      <trkpt lat="45.08491" lon="5.9595">
        <ele>2389.8</ele>
        <time>2018-02-23T10:35:52.000Z</time>
      </trkpt>
      <trkpt lat="45.08494" lon="5.95949">
        <ele>2391.4</ele>
        <time>2018-02-23T10:35:57.000Z</time>
      </trkpt>
      <trkpt lat="45.08496" lon="5.95946">
        <ele>2392.3</ele>
        <time>2018-02-23T10:36:02.000Z</time>
      </trkpt>
      <trkpt lat="45.08499" lon="5.95945">
        <ele>2394</ele>
        <time>2018-02-23T10:36:06.000Z</time>
      </trkpt>
      <trkpt lat="45.08502" lon="5.95944">
        <ele>2394.9</ele>
        <time>2018-02-23T10:36:09.000Z</time>
      </trkpt>
      <trkpt lat="45.08504" lon="5.95943">
        <ele>2396.6</ele>
        <time>2018-02-23T10:36:13.000Z</time>
      </trkpt>
      <trkpt lat="45.08507" lon="5.95941">
        <ele>2398.2</ele>
        <time>2018-02-23T10:36:18.000Z</time>
      </trkpt>
      <trkpt lat="45.0851" lon="5.95939">
        <ele>2398.9</ele>
        <time>2018-02-23T10:36:22.000Z</time>
      </trkpt>
      <trkpt lat="45.08513" lon="5.95938">
        <ele>2400.2</ele>
        <time>2018-02-23T10:36:26.000Z</time>
      </trkpt>
      <trkpt lat="45.08515" lon="5.95936">
        <ele>2400.2</ele>
        <time>2018-02-23T10:36:30.000Z</time>
      </trkpt>
      <trkpt lat="45.08519" lon="5.95936">
        <ele>2401.5</ele>
        <time>2018-02-23T10:36:34.000Z</time>
      </trkpt>
      <trkpt lat="45.08522" lon="5.95935">
        <ele>2403.3</ele>
        <time>2018-02-23T10:36:39.000Z</time>
      </trkpt>
      <trkpt lat="45.08525" lon="5.95934">
        <ele>2403.3</ele>
        <time>2018-02-23T10:36:42.000Z</time>
      </trkpt>
      <trkpt lat="45.08527" lon="5.95938">
        <ele>2405.5</ele>
        <time>2018-02-23T10:36:53.000Z</time>
      </trkpt>
      <trkpt lat="45.08527" lon="5.95942">
        <ele>2406.3</ele>
        <time>2018-02-23T10:36:56.000Z</time>
      </trkpt>
      <trkpt lat="45.08527" lon="5.95946">
        <ele>2407.1</ele>
        <time>2018-02-23T10:36:59.000Z</time>
      </trkpt>
      <trkpt lat="45.08525" lon="5.9595">
        <ele>2407.9</ele>
        <time>2018-02-23T10:37:01.000Z</time>
      </trkpt>
      <trkpt lat="45.08526" lon="5.95955">
        <ele>2408.6</ele>
        <time>2018-02-23T10:37:07.000Z</time>
      </trkpt>
      <trkpt lat="45.08527" lon="5.95961">
        <ele>2409.3</ele>
        <time>2018-02-23T10:37:10.000Z</time>
      </trkpt>
      <trkpt lat="45.08529" lon="5.95964">
        <ele>2411.3</ele>
        <time>2018-02-23T10:37:12.000Z</time>
      </trkpt>
      <trkpt lat="45.08529" lon="5.9597">
        <ele>2412.8</ele>
        <time>2018-02-23T10:37:19.000Z</time>
      </trkpt>
      <trkpt lat="45.0853" lon="5.95974">
        <ele>2412.8</ele>
        <time>2018-02-23T10:37:24.000Z</time>
      </trkpt>
      <trkpt lat="45.0853" lon="5.95978">
        <ele>2413.5</ele>
        <time>2018-02-23T10:37:29.000Z</time>
      </trkpt>
      <trkpt lat="45.08531" lon="5.95982">
        <ele>2415.4</ele>
        <time>2018-02-23T10:37:33.000Z</time>
      </trkpt>
      <trkpt lat="45.08531" lon="5.95987">
        <ele>2416.6</ele>
        <time>2018-02-23T10:37:38.000Z</time>
      </trkpt>
      <trkpt lat="45.08532" lon="5.95991">
        <ele>2417.1</ele>
        <time>2018-02-23T10:37:41.000Z</time>
      </trkpt>
      <trkpt lat="45.08534" lon="5.95994">
        <ele>2418.2</ele>
        <time>2018-02-23T10:37:45.000Z</time>
      </trkpt>
      <trkpt lat="45.08536" lon="5.95998">
        <ele>2418.7</ele>
        <time>2018-02-23T10:37:49.000Z</time>
      </trkpt>
      <trkpt lat="45.08539" lon="5.96">
        <ele>2420.1</ele>
        <time>2018-02-23T10:37:53.000Z</time>
      </trkpt>
      <trkpt lat="45.08541" lon="5.95999">
        <ele>2420.5</ele>
        <time>2018-02-23T10:37:56.000Z</time>
      </trkpt>
      <trkpt lat="45.08544" lon="5.95999">
        <ele>2421.3</ele>
        <time>2018-02-23T10:37:58.000Z</time>
      </trkpt>
      <trkpt lat="45.08547" lon="5.95996">
        <ele>2422.2</ele>
        <time>2018-02-23T10:38:04.000Z</time>
      </trkpt>
      <trkpt lat="45.0855" lon="5.95994">
        <ele>2422.7</ele>
        <time>2018-02-23T10:38:08.000Z</time>
      </trkpt>
      <trkpt lat="45.08553" lon="5.95992">
        <ele>2423.7</ele>
        <time>2018-02-23T10:38:12.000Z</time>
      </trkpt>
      <trkpt lat="45.08556" lon="5.9599">
        <ele>2424.2</ele>
        <time>2018-02-23T10:38:16.000Z</time>
      </trkpt>
      <trkpt lat="45.08558" lon="5.95992">
        <ele>2425.4</ele>
        <time>2018-02-23T10:38:26.000Z</time>
      </trkpt>
      <trkpt lat="45.08559" lon="5.95997">
        <ele>2425.7</ele>
        <time>2018-02-23T10:38:32.000Z</time>
      </trkpt>
      <trkpt lat="45.08562" lon="5.96">
        <ele>2426.8</ele>
        <time>2018-02-23T10:38:40.000Z</time>
      </trkpt>
      <trkpt lat="45.08565" lon="5.96">
        <ele>2427.4</ele>
        <time>2018-02-23T10:38:43.000Z</time>
      </trkpt>
      <trkpt lat="45.08569" lon="5.95998">
        <ele>2427.8</ele>
        <time>2018-02-23T10:38:48.000Z</time>
      </trkpt>
      <trkpt lat="45.08571" lon="5.95996">
        <ele>2428.4</ele>
        <time>2018-02-23T10:38:53.000Z</time>
      </trkpt>
      <trkpt lat="45.08574" lon="5.95992">
        <ele>2428.8</ele>
        <time>2018-02-23T10:38:58.000Z</time>
      </trkpt>
      <trkpt lat="45.08575" lon="5.95988">
        <ele>2428.5</ele>
        <time>2018-02-23T10:39:02.000Z</time>
      </trkpt>
      <trkpt lat="45.08577" lon="5.95986">
        <ele>2428.8</ele>
        <time>2018-02-23T10:39:07.000Z</time>
      </trkpt>
      <trkpt lat="45.08578" lon="5.95982">
        <ele>2428.5</ele>
        <time>2018-02-23T10:39:14.000Z</time>
      </trkpt>
      <trkpt lat="45.08581" lon="5.95979">
        <ele>2429.2</ele>
        <time>2018-02-23T10:39:18.000Z</time>
      </trkpt>
      <trkpt lat="45.08584" lon="5.95977">
        <ele>2429.5</ele>
        <time>2018-02-23T10:39:21.000Z</time>
      </trkpt>
      <trkpt lat="45.08586" lon="5.95974">
        <ele>2429.9</ele>
        <time>2018-02-23T10:39:25.000Z</time>
      </trkpt>
      <trkpt lat="45.08588" lon="5.95971">
        <ele>2429.9</ele>
        <time>2018-02-23T10:39:28.000Z</time>
      </trkpt>
      <trkpt lat="45.0859" lon="5.9597">
        <ele>2430.6</ele>
        <time>2018-02-23T10:39:32.000Z</time>
      </trkpt>
      <trkpt lat="45.08594" lon="5.95968">
        <ele>2430.9</ele>
        <time>2018-02-23T10:39:36.000Z</time>
      </trkpt>
      <trkpt lat="45.08596" lon="5.95966">
        <ele>2431.5</ele>
        <time>2018-02-23T10:39:39.000Z</time>
      </trkpt>
      <trkpt lat="45.086" lon="5.95964">
        <ele>2431.7</ele>
        <time>2018-02-23T10:39:43.000Z</time>
      </trkpt>
      <trkpt lat="45.08603" lon="5.95962">
        <ele>2432.2</ele>
        <time>2018-02-23T10:39:46.000Z</time>
      </trkpt>
      <trkpt lat="45.08606" lon="5.95959">
        <ele>2432.5</ele>
        <time>2018-02-23T10:39:49.000Z</time>
      </trkpt>
      <trkpt lat="45.08608" lon="5.95957">
        <ele>2433</ele>
        <time>2018-02-23T10:39:52.000Z</time>
      </trkpt>
      <trkpt lat="45.08611" lon="5.95955">
        <ele>2433.3</ele>
        <time>2018-02-23T10:39:55.000Z</time>
      </trkpt>
      <trkpt lat="45.08614" lon="5.95954">
        <ele>2433.8</ele>
        <time>2018-02-23T10:39:59.000Z</time>
      </trkpt>
      <trkpt lat="45.08617" lon="5.95951">
        <ele>2434</ele>
        <time>2018-02-23T10:40:03.000Z</time>
      </trkpt>
      <trkpt lat="45.0862" lon="5.9595">
        <ele>2434.4</ele>
        <time>2018-02-23T10:40:06.000Z</time>
      </trkpt>
      <trkpt lat="45.08623" lon="5.95947">
        <ele>2434.4</ele>
        <time>2018-02-23T10:40:09.000Z</time>
      </trkpt>
      <trkpt lat="45.08626" lon="5.95946">
        <ele>2434.6</ele>
        <time>2018-02-23T10:40:12.000Z</time>
      </trkpt>
      <trkpt lat="45.08628" lon="5.95943">
        <ele>2434.3</ele>
        <time>2018-02-23T10:40:15.000Z</time>
      </trkpt>
      <trkpt lat="45.08631" lon="5.95941">
        <ele>2434.5</ele>
        <time>2018-02-23T10:40:19.000Z</time>
      </trkpt>
      <trkpt lat="45.08633" lon="5.9594">
        <ele>2434.8</ele>
        <time>2018-02-23T10:40:23.000Z</time>
      </trkpt>
      <trkpt lat="45.08637" lon="5.95939">
        <ele>2434.7</ele>
        <time>2018-02-23T10:40:29.000Z</time>
      </trkpt>
      <trkpt lat="45.08639" lon="5.95939">
        <ele>2435</ele>
        <time>2018-02-23T10:40:30.000Z</time>
      </trkpt>
      <trkpt lat="45.08642" lon="5.95937">
        <ele>2435.3</ele>
        <time>2018-02-23T10:40:34.000Z</time>
      </trkpt>
      <trkpt lat="45.08645" lon="5.95935">
        <ele>2435.2</ele>
        <time>2018-02-23T10:40:38.000Z</time>
      </trkpt>
      <trkpt lat="45.08647" lon="5.95933">
        <ele>2435.4</ele>
        <time>2018-02-23T10:40:41.000Z</time>
      </trkpt>
      <trkpt lat="45.0865" lon="5.95933">
        <ele>2435.6</ele>
        <time>2018-02-23T10:40:45.000Z</time>
      </trkpt>
      <trkpt lat="45.08654" lon="5.95935">
        <ele>2435.8</ele>
        <time>2018-02-23T10:40:48.000Z</time>
      </trkpt>
      <trkpt lat="45.08657" lon="5.95936">
        <ele>2436.3</ele>
        <time>2018-02-23T10:40:51.000Z</time>
      </trkpt>
      <trkpt lat="45.0866" lon="5.95936">
        <ele>2436.6</ele>
        <time>2018-02-23T10:40:54.000Z</time>
      </trkpt>
      <trkpt lat="45.08663" lon="5.95936">
        <ele>2436.9</ele>
        <time>2018-02-23T10:40:56.000Z</time>
      </trkpt>
      <trkpt lat="45.08666" lon="5.95935">
        <ele>2437</ele>
        <time>2018-02-23T10:40:58.000Z</time>
      </trkpt>
      <trkpt lat="45.08668" lon="5.95935">
        <ele>2437.3</ele>
        <time>2018-02-23T10:41:00.000Z</time>
      </trkpt>
      <trkpt lat="45.08672" lon="5.95934">
        <ele>2437.6</ele>
        <time>2018-02-23T10:41:02.000Z</time>
      </trkpt>
      <trkpt lat="45.08675" lon="5.95935">
        <ele>2437.9</ele>
        <time>2018-02-23T10:41:04.000Z</time>
      </trkpt>
      <trkpt lat="45.08678" lon="5.95934">
        <ele>2438.1</ele>
        <time>2018-02-23T10:41:07.000Z</time>
      </trkpt>
      <trkpt lat="45.08681" lon="5.95934">
        <ele>2438.4</ele>
        <time>2018-02-23T10:41:09.000Z</time>
      </trkpt>
      <trkpt lat="45.08684" lon="5.95933">
        <ele>2438.6</ele>
        <time>2018-02-23T10:41:11.000Z</time>
      </trkpt>
      <trkpt lat="45.08687" lon="5.95933">
        <ele>2438.7</ele>
        <time>2018-02-23T10:41:13.000Z</time>
      </trkpt>
      <trkpt lat="45.08691" lon="5.95933">
        <ele>2438.9</ele>
        <time>2018-02-23T10:41:16.000Z</time>
      </trkpt>
      <trkpt lat="45.08693" lon="5.95934">
        <ele>2439.2</ele>
        <time>2018-02-23T10:41:18.000Z</time>
      </trkpt>
      <trkpt lat="45.08697" lon="5.95934">
        <ele>2439.4</ele>
        <time>2018-02-23T10:41:21.000Z</time>
      </trkpt>
      <trkpt lat="45.087" lon="5.95932">
        <ele>2439.6</ele>
        <time>2018-02-23T10:41:24.000Z</time>
      </trkpt>
      <trkpt lat="45.08703" lon="5.95931">
        <ele>2439.9</ele>
        <time>2018-02-23T10:41:27.000Z</time>
      </trkpt>
      <trkpt lat="45.08706" lon="5.95929">
        <ele>2440.2</ele>
        <time>2018-02-23T10:41:30.000Z</time>
      </trkpt>
      <trkpt lat="45.08709" lon="5.95929">
        <ele>2440.4</ele>
        <time>2018-02-23T10:41:32.000Z</time>
      </trkpt>
      <trkpt lat="45.08712" lon="5.95928">
        <ele>2440.6</ele>
        <time>2018-02-23T10:41:34.000Z</time>
      </trkpt>
      <trkpt lat="45.08715" lon="5.95928">
        <ele>2440.9</ele>
        <time>2018-02-23T10:41:37.000Z</time>
      </trkpt>
      <trkpt lat="45.08719" lon="5.95928">
        <ele>2441.2</ele>
        <time>2018-02-23T10:41:40.000Z</time>
      </trkpt>
      <trkpt lat="45.08722" lon="5.95927">
        <ele>2441.5</ele>
        <time>2018-02-23T10:41:44.000Z</time>
      </trkpt>
      <trkpt lat="45.08725" lon="5.95926">
        <ele>2442</ele>
        <time>2018-02-23T10:41:47.000Z</time>
      </trkpt>
      <trkpt lat="45.08728" lon="5.95925">
        <ele>2442.4</ele>
        <time>2018-02-23T10:41:50.000Z</time>
      </trkpt>
      <trkpt lat="45.08731" lon="5.95924">
        <ele>2442.8</ele>
        <time>2018-02-23T10:41:53.000Z</time>
      </trkpt>
      <trkpt lat="45.08735" lon="5.95923">
        <ele>2443.5</ele>
        <time>2018-02-23T10:41:56.000Z</time>
      </trkpt>
      <trkpt lat="45.08738" lon="5.95921">
        <ele>2443.9</ele>
        <time>2018-02-23T10:41:59.000Z</time>
      </trkpt>
      <trkpt lat="45.08742" lon="5.95919">
        <ele>2444.3</ele>
        <time>2018-02-23T10:42:04.000Z</time>
      </trkpt>
      <trkpt lat="45.08744" lon="5.95917">
        <ele>2444.9</ele>
        <time>2018-02-23T10:42:07.000Z</time>
      </trkpt>
      <trkpt lat="45.08748" lon="5.95915">
        <ele>2445.4</ele>
        <time>2018-02-23T10:42:10.000Z</time>
      </trkpt>
      <trkpt lat="45.08751" lon="5.95911">
        <ele>2446.1</ele>
        <time>2018-02-23T10:42:16.000Z</time>
      </trkpt>
      <trkpt lat="45.08754" lon="5.95911">
        <ele>2446.8</ele>
        <time>2018-02-23T10:42:19.000Z</time>
      </trkpt>
      <trkpt lat="45.08757" lon="5.95909">
        <ele>2447.5</ele>
        <time>2018-02-23T10:42:23.000Z</time>
      </trkpt>
      <trkpt lat="45.08759" lon="5.95906">
        <ele>2448.2</ele>
        <time>2018-02-23T10:42:27.000Z</time>
      </trkpt>
      <trkpt lat="45.08762" lon="5.95905">
        <ele>2448.9</ele>
        <time>2018-02-23T10:42:31.000Z</time>
      </trkpt>
      <trkpt lat="45.08765" lon="5.95902">
        <ele>2449.6</ele>
        <time>2018-02-23T10:42:35.000Z</time>
      </trkpt>
      <trkpt lat="45.08768" lon="5.959">
        <ele>2450.4</ele>
        <time>2018-02-23T10:42:38.000Z</time>
      </trkpt>
      <trkpt lat="45.08771" lon="5.959">
        <ele>2451.2</ele>
        <time>2018-02-23T10:42:42.000Z</time>
      </trkpt>
      <trkpt lat="45.08774" lon="5.95897">
        <ele>2452</ele>
        <time>2018-02-23T10:42:47.000Z</time>
      </trkpt>
      <trkpt lat="45.08777" lon="5.95897">
        <ele>2452.9</ele>
        <time>2018-02-23T10:42:50.000Z</time>
      </trkpt>
      <trkpt lat="45.08779" lon="5.95896">
        <ele>2453</ele>
        <time>2018-02-23T10:42:54.000Z</time>
      </trkpt>
      <trkpt lat="45.08782" lon="5.95896">
        <ele>2454</ele>
        <time>2018-02-23T10:42:57.000Z</time>
      </trkpt>
      <trkpt lat="45.08785" lon="5.95895">
        <ele>2455</ele>
        <time>2018-02-23T10:43:00.000Z</time>
      </trkpt>
      <trkpt lat="45.08788" lon="5.95895">
        <ele>2456</ele>
        <time>2018-02-23T10:43:05.000Z</time>
      </trkpt>
      <trkpt lat="45.08792" lon="5.95894">
        <ele>2458</ele>
        <time>2018-02-23T10:43:08.000Z</time>
      </trkpt>
      <trkpt lat="45.08793" lon="5.95889">
        <ele>2458.3</ele>
        <time>2018-02-23T10:43:12.000Z</time>
      </trkpt>
      <trkpt lat="45.08794" lon="5.95894">
        <ele>2458</ele>
        <time>2018-02-23T10:43:16.000Z</time>
      </trkpt>
      <trkpt lat="45.08797" lon="5.95894">
        <ele>2459</ele>
        <time>2018-02-23T10:43:20.000Z</time>
      </trkpt>
      <trkpt lat="45.088" lon="5.95896">
        <ele>2460.1</ele>
        <time>2018-02-23T10:43:29.000Z</time>
      </trkpt>
      <trkpt lat="45.08804" lon="5.95896">
        <ele>2462.6</ele>
        <time>2018-02-23T10:43:34.000Z</time>
      </trkpt>
      <trkpt lat="45.08807" lon="5.95899">
        <ele>2463.6</ele>
        <time>2018-02-23T10:43:37.000Z</time>
      </trkpt>
      <trkpt lat="45.0881" lon="5.95899">
        <ele>2464.9</ele>
        <time>2018-02-23T10:43:40.000Z</time>
      </trkpt>
      <trkpt lat="45.08812" lon="5.95897">
        <ele>2464.9</ele>
        <time>2018-02-23T10:43:44.000Z</time>
      </trkpt>
      <trkpt lat="45.08815" lon="5.95901">
        <ele>2466.1</ele>
        <time>2018-02-23T10:43:48.000Z</time>
      </trkpt>
      <trkpt lat="45.08818" lon="5.95903">
        <ele>2466.9</ele>
        <time>2018-02-23T10:43:53.000Z</time>
      </trkpt>
      <trkpt lat="45.08821" lon="5.95903">
        <ele>2468</ele>
        <time>2018-02-23T10:43:57.000Z</time>
      </trkpt>
      <trkpt lat="45.08824" lon="5.95905">
        <ele>2469.1</ele>
        <time>2018-02-23T10:43:59.000Z</time>
      </trkpt>
      <trkpt lat="45.08828" lon="5.95904">
        <ele>2470.3</ele>
        <time>2018-02-23T10:44:03.000Z</time>
      </trkpt>
      <trkpt lat="45.08831" lon="5.95904">
        <ele>2473</ele>
        <time>2018-02-23T10:44:10.000Z</time>
      </trkpt>
      <trkpt lat="45.08835" lon="5.95905">
        <ele>2474.4</ele>
        <time>2018-02-23T10:44:18.000Z</time>
      </trkpt>
      <trkpt lat="45.08837" lon="5.95907">
        <ele>2475.2</ele>
        <time>2018-02-23T10:44:21.000Z</time>
      </trkpt>
      <trkpt lat="45.08841" lon="5.95909">
        <ele>2476.4</ele>
        <time>2018-02-23T10:44:27.000Z</time>
      </trkpt>
      <trkpt lat="45.08844" lon="5.95911">
        <ele>2477.1</ele>
        <time>2018-02-23T10:44:30.000Z</time>
      </trkpt>
      <trkpt lat="45.08846" lon="5.95913">
        <ele>2478.3</ele>
        <time>2018-02-23T10:44:33.000Z</time>
      </trkpt>
      <trkpt lat="45.08849" lon="5.95911">
        <ele>2479.5</ele>
        <time>2018-02-23T10:44:37.000Z</time>
      </trkpt>
      <trkpt lat="45.08852" lon="5.9591">
        <ele>2480.8</ele>
        <time>2018-02-23T10:44:41.000Z</time>
      </trkpt>
      <trkpt lat="45.08856" lon="5.9591">
        <ele>2482.1</ele>
        <time>2018-02-23T10:44:46.000Z</time>
      </trkpt>
      <trkpt lat="45.08859" lon="5.9591">
        <ele>2483.4</ele>
        <time>2018-02-23T10:44:50.000Z</time>
      </trkpt>
      <trkpt lat="45.08862" lon="5.95911">
        <ele>2484.8</ele>
        <time>2018-02-23T10:44:54.000Z</time>
      </trkpt>
      <trkpt lat="45.08865" lon="5.95911">
        <ele>2486.1</ele>
        <time>2018-02-23T10:44:58.000Z</time>
      </trkpt>
      <trkpt lat="45.08867" lon="5.95909">
        <ele>2486.7</ele>
        <time>2018-02-23T10:45:03.000Z</time>
      </trkpt>
      <trkpt lat="45.0887" lon="5.95913">
        <ele>2487.5</ele>
        <time>2018-02-23T10:45:08.000Z</time>
      </trkpt>
      <trkpt lat="45.08872" lon="5.95915">
        <ele>2488.2</ele>
        <time>2018-02-23T10:45:12.000Z</time>
      </trkpt>
      <trkpt lat="45.08875" lon="5.95916">
        <ele>2489.5</ele>
        <time>2018-02-23T10:45:17.000Z</time>
      </trkpt>
      <trkpt lat="45.08879" lon="5.95916">
        <ele>2490.8</ele>
        <time>2018-02-23T10:45:21.000Z</time>
      </trkpt>
      <trkpt lat="45.08882" lon="5.95915">
        <ele>2492.1</ele>
        <time>2018-02-23T10:45:26.000Z</time>
      </trkpt>
      <trkpt lat="45.08885" lon="5.95913">
        <ele>2494</ele>
        <time>2018-02-23T10:45:29.000Z</time>
      </trkpt>
      <trkpt lat="45.08888" lon="5.95914">
        <ele>2494.7</ele>
        <time>2018-02-23T10:45:33.000Z</time>
      </trkpt>
      <trkpt lat="45.08891" lon="5.95916">
        <ele>2496.2</ele>
        <time>2018-02-23T10:45:39.000Z</time>
      </trkpt>
      <trkpt lat="45.08894" lon="5.95917">
        <ele>2497.6</ele>
        <time>2018-02-23T10:45:43.000Z</time>
      </trkpt>
      <trkpt lat="45.08897" lon="5.95919">
        <ele>2498.3</ele>
        <time>2018-02-23T10:45:47.000Z</time>
      </trkpt>
      <trkpt lat="45.089" lon="5.95918">
        <ele>2500.3</ele>
        <time>2018-02-23T10:45:52.000Z</time>
      </trkpt>
      <trkpt lat="45.08903" lon="5.9592">
        <ele>2500.7</ele>
        <time>2018-02-23T10:45:57.000Z</time>
      </trkpt>
      <trkpt lat="45.08906" lon="5.9592">
        <ele>2502.5</ele>
        <time>2018-02-23T10:46:02.000Z</time>
      </trkpt>
      <trkpt lat="45.08909" lon="5.95922">
        <ele>2503.5</ele>
        <time>2018-02-23T10:46:07.000Z</time>
      </trkpt>
      <trkpt lat="45.08911" lon="5.95924">
        <ele>2504</ele>
        <time>2018-02-23T10:46:11.000Z</time>
      </trkpt>
      <trkpt lat="45.08915" lon="5.95925">
        <ele>2505.2</ele>
        <time>2018-02-23T10:46:15.000Z</time>
      </trkpt>
      <trkpt lat="45.08917" lon="5.95926">
        <ele>2506.4</ele>
        <time>2018-02-23T10:46:19.000Z</time>
      </trkpt>
      <trkpt lat="45.08921" lon="5.95926">
        <ele>2507.6</ele>
        <time>2018-02-23T10:46:26.000Z</time>
      </trkpt>
      <trkpt lat="45.08923" lon="5.95926">
        <ele>2508.6</ele>
        <time>2018-02-23T10:46:30.000Z</time>
      </trkpt>
      <trkpt lat="45.08926" lon="5.95927">
        <ele>2509</ele>
        <time>2018-02-23T10:46:34.000Z</time>
      </trkpt>
      <trkpt lat="45.0893" lon="5.95927">
        <ele>2509.9</ele>
        <time>2018-02-23T10:46:39.000Z</time>
      </trkpt>
      <trkpt lat="45.08933" lon="5.95928">
        <ele>2510.8</ele>
        <time>2018-02-23T10:46:44.000Z</time>
      </trkpt>
      <trkpt lat="45.08936" lon="5.95929">
        <ele>2511.8</ele>
        <time>2018-02-23T10:46:49.000Z</time>
      </trkpt>
      <trkpt lat="45.08939" lon="5.95929">
        <ele>2512.8</ele>
        <time>2018-02-23T10:46:55.000Z</time>
      </trkpt>
      <trkpt lat="45.08941" lon="5.95929">
        <ele>2513.8</ele>
        <time>2018-02-23T10:46:59.000Z</time>
      </trkpt>
      <trkpt lat="45.08945" lon="5.95929">
        <ele>2514.8</ele>
        <time>2018-02-23T10:47:03.000Z</time>
      </trkpt>
      <trkpt lat="45.08947" lon="5.95929">
        <ele>2515.8</ele>
        <time>2018-02-23T10:47:09.000Z</time>
      </trkpt>
      <trkpt lat="45.08947" lon="5.95925">
        <ele>2516.2</ele>
        <time>2018-02-23T10:47:13.000Z</time>
      </trkpt>
      <trkpt lat="45.08947" lon="5.9592">
        <ele>2516.6</ele>
        <time>2018-02-23T10:47:18.000Z</time>
      </trkpt>
      <trkpt lat="45.08946" lon="5.95916">
        <ele>2515.9</ele>
        <time>2018-02-23T10:47:22.000Z</time>
      </trkpt>
      <trkpt lat="45.08945" lon="5.95911">
        <ele>2516.2</ele>
        <time>2018-02-23T10:47:27.000Z</time>
      </trkpt>
      <trkpt lat="45.08946" lon="5.95907">
        <ele>2517.3</ele>
        <time>2018-02-23T10:47:31.000Z</time>
      </trkpt>
      <trkpt lat="45.08946" lon="5.95902">
        <ele>2517.5</ele>
        <time>2018-02-23T10:47:35.000Z</time>
      </trkpt>
      <trkpt lat="45.08947" lon="5.95898">
        <ele>2517.8</ele>
        <time>2018-02-23T10:47:39.000Z</time>
      </trkpt>
      <trkpt lat="45.08947" lon="5.95894">
        <ele>2518</ele>
        <time>2018-02-23T10:47:43.000Z</time>
      </trkpt>
      <trkpt lat="45.08946" lon="5.95889">
        <ele>2517.6</ele>
        <time>2018-02-23T10:47:48.000Z</time>
      </trkpt>
      <trkpt lat="45.08949" lon="5.95889">
        <ele>2519</ele>
        <time>2018-02-23T10:48:06.000Z</time>
      </trkpt>
      <trkpt lat="45.08953" lon="5.95886">
        <ele>2520</ele>
        <time>2018-02-23T10:48:11.000Z</time>
      </trkpt>
      <trkpt lat="45.08953" lon="5.95891">
        <ele>2519.8</ele>
        <time>2018-02-23T10:48:12.000Z</time>
      </trkpt>
      <trkpt lat="45.08956" lon="5.9589">
        <ele>2520.8</ele>
        <time>2018-02-23T10:48:17.000Z</time>
      </trkpt>
      <trkpt lat="45.08959" lon="5.95889">
        <ele>2522</ele>
        <time>2018-02-23T10:48:24.000Z</time>
      </trkpt>
      <trkpt lat="45.08961" lon="5.95891">
        <ele>2523.3</ele>
        <time>2018-02-23T10:48:35.000Z</time>
      </trkpt>
      <trkpt lat="45.08965" lon="5.95892">
        <ele>2524.5</ele>
        <time>2018-02-23T10:48:41.000Z</time>
      </trkpt>
      <trkpt lat="45.08968" lon="5.95895">
        <ele>2525.5</ele>
        <time>2018-02-23T10:48:45.000Z</time>
      </trkpt>
      <trkpt lat="45.08971" lon="5.95895">
        <ele>2526.3</ele>
        <time>2018-02-23T10:48:49.000Z</time>
      </trkpt>
      <trkpt lat="45.08974" lon="5.95897">
        <ele>2526.4</ele>
        <time>2018-02-23T10:48:53.000Z</time>
      </trkpt>
      <trkpt lat="45.08976" lon="5.959">
        <ele>2526.4</ele>
        <time>2018-02-23T10:48:55.000Z</time>
      </trkpt>
      <trkpt lat="45.08979" lon="5.95901">
        <ele>2526</ele>
        <time>2018-02-23T10:48:58.000Z</time>
      </trkpt>
      <trkpt lat="45.08982" lon="5.95903">
        <ele>2525.8</ele>
        <time>2018-02-23T10:49:01.000Z</time>
      </trkpt>
      <trkpt lat="45.08984" lon="5.95904">
        <ele>2525.3</ele>
        <time>2018-02-23T10:49:07.000Z</time>
      </trkpt>
      <trkpt lat="45.08987" lon="5.95905">
        <ele>2524.3</ele>
        <time>2018-02-23T10:49:16.000Z</time>
      </trkpt>
      <trkpt lat="45.08989" lon="5.95908">
        <ele>2523.9</ele>
        <time>2018-02-23T10:49:21.000Z</time>
      </trkpt>
      <trkpt lat="45.08992" lon="5.9591">
        <ele>2522.7</ele>
        <time>2018-02-23T10:49:25.000Z</time>
      </trkpt>
      <trkpt lat="45.08995" lon="5.9591">
        <ele>2523.4</ele>
        <time>2018-02-23T10:49:29.000Z</time>
      </trkpt>
      <trkpt lat="45.08996" lon="5.95915">
        <ele>2525.9</ele>
        <time>2018-02-23T10:49:33.000Z</time>
      </trkpt>
      <trkpt lat="45.08999" lon="5.95917">
        <ele>2525.3</ele>
        <time>2018-02-23T10:49:37.000Z</time>
      </trkpt>
      <trkpt lat="45.09002" lon="5.9592">
        <ele>2527.9</ele>
        <time>2018-02-23T10:49:41.000Z</time>
      </trkpt>
      <trkpt lat="45.09005" lon="5.9592">
        <ele>2527.2</ele>
        <time>2018-02-23T10:49:45.000Z</time>
      </trkpt>
      <trkpt lat="45.09008" lon="5.95922">
        <ele>2526</ele>
        <time>2018-02-23T10:49:51.000Z</time>
      </trkpt>
      <trkpt lat="45.09011" lon="5.95921">
        <ele>2524.3</ele>
        <time>2018-02-23T10:49:58.000Z</time>
      </trkpt>
      <trkpt lat="45.09012" lon="5.95917">
        <ele>2519.4</ele>
        <time>2018-02-23T10:50:02.000Z</time>
      </trkpt>
      <trkpt lat="45.09012" lon="5.95912">
        <ele>2513.9</ele>
        <time>2018-02-23T10:50:07.000Z</time>
      </trkpt>
      <trkpt lat="45.09014" lon="5.95909">
        <ele>2505.6</ele>
        <time>2018-02-23T10:50:11.000Z</time>
      </trkpt>
      <trkpt lat="45.09016" lon="5.95905">
        <ele>2500.1</ele>
        <time>2018-02-23T10:50:15.000Z</time>
      </trkpt>
      <trkpt lat="45.09017" lon="5.95908">
        <ele>2502.8</ele>
        <time>2018-02-23T10:51:16.000Z</time>
      </trkpt>
      <trkpt lat="45.09015" lon="5.95909">
        <ele>2505.6</ele>
        <time>2018-02-23T11:09:19.000Z</time>
      </trkpt>
      <trkpt lat="45.09011" lon="5.95908">
        <ele>2508.3</ele>
        <time>2018-02-23T11:09:21.000Z</time>
      </trkpt>
      <trkpt lat="45.09008" lon="5.95908">
        <ele>2510.9</ele>
        <time>2018-02-23T11:09:22.000Z</time>
      </trkpt>
      <trkpt lat="45.09002" lon="5.95905">
        <ele>2512.1</ele>
        <time>2018-02-23T11:09:23.000Z</time>
      </trkpt>
      <trkpt lat="45.08996" lon="5.95902">
        <ele>2518.4</ele>
        <time>2018-02-23T11:09:24.000Z</time>
      </trkpt>
      <trkpt lat="45.0899" lon="5.95896">
        <ele>2520.8</ele>
        <time>2018-02-23T11:09:25.000Z</time>
      </trkpt>
      <trkpt lat="45.08986" lon="5.95888">
        <ele>2521.7</ele>
        <time>2018-02-23T11:09:26.000Z</time>
      </trkpt>
      <trkpt lat="45.08982" lon="5.95883">
        <ele>2525</ele>
        <time>2018-02-23T11:09:27.000Z</time>
      </trkpt>
      <trkpt lat="45.08976" lon="5.95882">
        <ele>2526.2</ele>
        <time>2018-02-23T11:09:28.000Z</time>
      </trkpt>
      <trkpt lat="45.08971" lon="5.9588">
        <ele>2526.1</ele>
        <time>2018-02-23T11:09:29.000Z</time>
      </trkpt>
      <trkpt lat="45.08965" lon="5.95878">
        <ele>2524.5</ele>
        <time>2018-02-23T11:09:30.000Z</time>
      </trkpt>
      <trkpt lat="45.0896" lon="5.95885">
        <ele>2522.1</ele>
        <time>2018-02-23T11:09:31.000Z</time>
      </trkpt>
      <trkpt lat="45.08955" lon="5.95886">
        <ele>2520</ele>
        <time>2018-02-23T11:09:32.000Z</time>
      </trkpt>
      <trkpt lat="45.08948" lon="5.95891">
        <ele>2518.3</ele>
        <time>2018-02-23T11:09:33.000Z</time>
      </trkpt>
      <trkpt lat="45.08941" lon="5.95897">
        <ele>2516.4</ele>
        <time>2018-02-23T11:09:34.000Z</time>
      </trkpt>
      <trkpt lat="45.08937" lon="5.95908">
        <ele>2514.9</ele>
        <time>2018-02-23T11:09:35.000Z</time>
      </trkpt>
      <trkpt lat="45.08931" lon="5.95911">
        <ele>2512</ele>
        <time>2018-02-23T11:09:36.000Z</time>
      </trkpt>
      <trkpt lat="45.08927" lon="5.95917">
        <ele>2510.7</ele>
        <time>2018-02-23T11:09:37.000Z</time>
      </trkpt>
      <trkpt lat="45.08934" lon="5.95928">
        <ele>2511.8</ele>
        <time>2018-02-23T11:09:38.000Z</time>
      </trkpt>
      <trkpt lat="45.0893" lon="5.95935">
        <ele>2509.3</ele>
        <time>2018-02-23T11:09:39.000Z</time>
      </trkpt>
      <trkpt lat="45.08928" lon="5.95943">
        <ele>2508</ele>
        <time>2018-02-23T11:09:40.000Z</time>
      </trkpt>
      <trkpt lat="45.08922" lon="5.9595">
        <ele>2504.7</ele>
        <time>2018-02-23T11:09:41.000Z</time>
      </trkpt>
      <trkpt lat="45.08915" lon="5.9595">
        <ele>2501.2</ele>
        <time>2018-02-23T11:09:42.000Z</time>
      </trkpt>
      <trkpt lat="45.08908" lon="5.95953">
        <ele>2498.2</ele>
        <time>2018-02-23T11:09:43.000Z</time>
      </trkpt>
      <trkpt lat="45.08903" lon="5.95954">
        <ele>2495.6</ele>
        <time>2018-02-23T11:09:44.000Z</time>
      </trkpt>
      <trkpt lat="45.08896" lon="5.95956">
        <ele>2493.5</ele>
        <time>2018-02-23T11:09:45.000Z</time>
      </trkpt>
      <trkpt lat="45.08889" lon="5.95953">
        <ele>2491.7</ele>
        <time>2018-02-23T11:09:46.000Z</time>
      </trkpt>
      <trkpt lat="45.08883" lon="5.9595">
        <ele>2489.4</ele>
        <time>2018-02-23T11:09:47.000Z</time>
      </trkpt>
      <trkpt lat="45.0888" lon="5.95948">
        <ele>2489.1</ele>
        <time>2018-02-23T11:09:50.000Z</time>
      </trkpt>
      <trkpt lat="45.08877" lon="5.95951">
        <ele>2487.5</ele>
        <time>2018-02-23T11:09:51.000Z</time>
      </trkpt>
      <trkpt lat="45.08874" lon="5.95956">
        <ele>2485.9</ele>
        <time>2018-02-23T11:09:52.000Z</time>
      </trkpt>
      <trkpt lat="45.08872" lon="5.95961">
        <ele>2484.3</ele>
        <time>2018-02-23T11:09:53.000Z</time>
      </trkpt>
      <trkpt lat="45.08869" lon="5.95966">
        <ele>2481.9</ele>
        <time>2018-02-23T11:09:54.000Z</time>
      </trkpt>
      <trkpt lat="45.08862" lon="5.95969">
        <ele>2479.5</ele>
        <time>2018-02-23T11:09:55.000Z</time>
      </trkpt>
      <trkpt lat="45.08854" lon="5.95965">
        <ele>2476.5</ele>
        <time>2018-02-23T11:09:56.000Z</time>
      </trkpt>
      <trkpt lat="45.08848" lon="5.95966">
        <ele>2473.9</ele>
        <time>2018-02-23T11:09:57.000Z</time>
      </trkpt>
      <trkpt lat="45.08843" lon="5.95968">
        <ele>2473.2</ele>
        <time>2018-02-23T11:09:58.000Z</time>
      </trkpt>
      <trkpt lat="45.0884" lon="5.95969">
        <ele>2472.4</ele>
        <time>2018-02-23T11:09:59.000Z</time>
      </trkpt>
      <trkpt lat="45.08837" lon="5.95968">
        <ele>2471.7</ele>
        <time>2018-02-23T11:10:20.000Z</time>
      </trkpt>
      <trkpt lat="45.08835" lon="5.9597">
        <ele>2470.4</ele>
        <time>2018-02-23T11:10:22.000Z</time>
      </trkpt>
      <trkpt lat="45.08835" lon="5.95975">
        <ele>2470</ele>
        <time>2018-02-23T11:11:18.000Z</time>
      </trkpt>
      <trkpt lat="45.08832" lon="5.95977">
        <ele>2469.3</ele>
        <time>2018-02-23T11:11:19.000Z</time>
      </trkpt>
      <trkpt lat="45.0883" lon="5.95977">
        <ele>2468.5</ele>
        <time>2018-02-23T11:11:31.000Z</time>
      </trkpt>
      <trkpt lat="45.08823" lon="5.95978">
        <ele>2466.9</ele>
        <time>2018-02-23T11:11:33.000Z</time>
      </trkpt>
      <trkpt lat="45.08819" lon="5.95982">
        <ele>2465.9</ele>
        <time>2018-02-23T11:11:34.000Z</time>
      </trkpt>
      <trkpt lat="45.08813" lon="5.95984">
        <ele>2464</ele>
        <time>2018-02-23T11:11:35.000Z</time>
      </trkpt>
      <trkpt lat="45.08808" lon="5.95989">
        <ele>2461.9</ele>
        <time>2018-02-23T11:11:36.000Z</time>
      </trkpt>
      <trkpt lat="45.08802" lon="5.95992">
        <ele>2459.6</ele>
        <time>2018-02-23T11:11:37.000Z</time>
      </trkpt>
      <trkpt lat="45.08795" lon="5.95995">
        <ele>2458.1</ele>
        <time>2018-02-23T11:11:38.000Z</time>
      </trkpt>
      <trkpt lat="45.08792" lon="5.96004">
        <ele>2456.1</ele>
        <time>2018-02-23T11:11:39.000Z</time>
      </trkpt>
      <trkpt lat="45.0879" lon="5.96013">
        <ele>2454.5</ele>
        <time>2018-02-23T11:11:40.000Z</time>
      </trkpt>
      <trkpt lat="45.08787" lon="5.96021">
        <ele>2452.7</ele>
        <time>2018-02-23T11:11:41.000Z</time>
      </trkpt>
      <trkpt lat="45.08783" lon="5.96029">
        <ele>2451.5</ele>
        <time>2018-02-23T11:11:42.000Z</time>
      </trkpt>
      <trkpt lat="45.08776" lon="5.96029">
        <ele>2449.5</ele>
        <time>2018-02-23T11:11:43.000Z</time>
      </trkpt>
      <trkpt lat="45.08772" lon="5.96036">
        <ele>2447.9</ele>
        <time>2018-02-23T11:11:44.000Z</time>
      </trkpt>
      <trkpt lat="45.08766" lon="5.96038">
        <ele>2447.2</ele>
        <time>2018-02-23T11:11:45.000Z</time>
      </trkpt>
      <trkpt lat="45.0876" lon="5.96039">
        <ele>2446.2</ele>
        <time>2018-02-23T11:11:46.000Z</time>
      </trkpt>
      <trkpt lat="45.08755" lon="5.96042">
        <ele>2445.9</ele>
        <time>2018-02-23T11:11:47.000Z</time>
      </trkpt>
      <trkpt lat="45.08749" lon="5.96046">
        <ele>2445.5</ele>
        <time>2018-02-23T11:11:48.000Z</time>
      </trkpt>
      <trkpt lat="45.08744" lon="5.9605">
        <ele>2444.8</ele>
        <time>2018-02-23T11:11:49.000Z</time>
      </trkpt>
      <trkpt lat="45.08743" lon="5.96057">
        <ele>2443.5</ele>
        <time>2018-02-23T11:11:50.000Z</time>
      </trkpt>
      <trkpt lat="45.08742" lon="5.96064">
        <ele>2442.2</ele>
        <time>2018-02-23T11:11:51.000Z</time>
      </trkpt>
      <trkpt lat="45.08739" lon="5.96071">
        <ele>2441.6</ele>
        <time>2018-02-23T11:11:52.000Z</time>
      </trkpt>
      <trkpt lat="45.08735" lon="5.96077">
        <ele>2440.3</ele>
        <time>2018-02-23T11:11:53.000Z</time>
      </trkpt>
      <trkpt lat="45.08732" lon="5.96083">
        <ele>2439.9</ele>
        <time>2018-02-23T11:11:54.000Z</time>
      </trkpt>
      <trkpt lat="45.08731" lon="5.96088">
        <ele>2439.4</ele>
        <time>2018-02-23T11:11:56.000Z</time>
      </trkpt>
      <trkpt lat="45.0873" lon="5.96092">
        <ele>2439.1</ele>
        <time>2018-02-23T11:12:05.000Z</time>
      </trkpt>
      <trkpt lat="45.08727" lon="5.96094">
        <ele>2439.5</ele>
        <time>2018-02-23T11:12:07.000Z</time>
      </trkpt>
      <trkpt lat="45.08724" lon="5.96096">
        <ele>2439.1</ele>
        <time>2018-02-23T11:12:08.000Z</time>
      </trkpt>
      <trkpt lat="45.08721" lon="5.96099">
        <ele>2438.8</ele>
        <time>2018-02-23T11:12:09.000Z</time>
      </trkpt>
      <trkpt lat="45.08718" lon="5.96103">
        <ele>2439.3</ele>
        <time>2018-02-23T11:12:10.000Z</time>
      </trkpt>
      <trkpt lat="45.08714" lon="5.96107">
        <ele>2438.2</ele>
        <time>2018-02-23T11:12:11.000Z</time>
      </trkpt>
      <trkpt lat="45.08709" lon="5.96112">
        <ele>2438.3</ele>
        <time>2018-02-23T11:12:12.000Z</time>
      </trkpt>
      <trkpt lat="45.08706" lon="5.96119">
        <ele>2438.1</ele>
        <time>2018-02-23T11:12:13.000Z</time>
      </trkpt>
      <trkpt lat="45.08702" lon="5.96124">
        <ele>2437.9</ele>
        <time>2018-02-23T11:12:14.000Z</time>
      </trkpt>
      <trkpt lat="45.087" lon="5.96128">
        <ele>2437.8</ele>
        <time>2018-02-23T11:12:16.000Z</time>
      </trkpt>
      <trkpt lat="45.08704" lon="5.9613">
        <ele>2436.9</ele>
        <time>2018-02-23T11:12:18.000Z</time>
      </trkpt>
      <trkpt lat="45.08707" lon="5.9613">
        <ele>2436.9</ele>
        <time>2018-02-23T11:13:30.000Z</time>
      </trkpt>
      <trkpt lat="45.0871" lon="5.96127">
        <ele>2437.3</ele>
        <time>2018-02-23T11:13:32.000Z</time>
      </trkpt>
      <trkpt lat="45.08708" lon="5.96123">
        <ele>2438.7</ele>
        <time>2018-02-23T11:13:36.000Z</time>
      </trkpt>
      <trkpt lat="45.08705" lon="5.96124">
        <ele>2439.4</ele>
        <time>2018-02-23T11:14:06.000Z</time>
      </trkpt>
      <trkpt lat="45.08704" lon="5.96128">
        <ele>2438.9</ele>
        <time>2018-02-23T11:14:08.000Z</time>
      </trkpt>
      <trkpt lat="45.08702" lon="5.96131">
        <ele>2438.7</ele>
        <time>2018-02-23T11:14:10.000Z</time>
      </trkpt>
      <trkpt lat="45.08704" lon="5.96129">
        <ele>2438.7</ele>
        <time>2018-02-23T11:15:05.000Z</time>
      </trkpt>
      <trkpt lat="45.08707" lon="5.96129">
        <ele>2438.5</ele>
        <time>2018-02-23T11:15:29.000Z</time>
      </trkpt>
      <trkpt lat="45.08711" lon="5.96128">
        <ele>2439.3</ele>
        <time>2018-02-23T11:15:32.000Z</time>
      </trkpt>
      <trkpt lat="45.08714" lon="5.96128">
        <ele>2439.3</ele>
        <time>2018-02-23T11:15:43.000Z</time>
      </trkpt>
      <trkpt lat="45.08715" lon="5.96134">
        <ele>2438</ele>
        <time>2018-02-23T11:15:49.000Z</time>
      </trkpt>
      <trkpt lat="45.08713" lon="5.96139">
        <ele>2437.7</ele>
        <time>2018-02-23T11:15:51.000Z</time>
      </trkpt>
      <trkpt lat="45.08714" lon="5.96143">
        <ele>2436.9</ele>
        <time>2018-02-23T11:15:58.000Z</time>
      </trkpt>
      <trkpt lat="45.08717" lon="5.96145">
        <ele>2436.9</ele>
        <time>2018-02-23T11:16:52.000Z</time>
      </trkpt>
      <trkpt lat="45.08721" lon="5.96145">
        <ele>2437</ele>
        <time>2018-02-23T11:16:54.000Z</time>
      </trkpt>
      <trkpt lat="45.08724" lon="5.96145">
        <ele>2437</ele>
        <time>2018-02-23T11:16:56.000Z</time>
      </trkpt>
      <trkpt lat="45.08726" lon="5.96152">
        <ele>2435.4</ele>
        <time>2018-02-23T11:16:58.000Z</time>
      </trkpt>
      <trkpt lat="45.08726" lon="5.96158">
        <ele>2434.8</ele>
        <time>2018-02-23T11:16:59.000Z</time>
      </trkpt>
      <trkpt lat="45.0873" lon="5.96161">
        <ele>2434.1</ele>
        <time>2018-02-23T11:17:00.000Z</time>
      </trkpt>
      <trkpt lat="45.08734" lon="5.96165">
        <ele>2433.3</ele>
        <time>2018-02-23T11:17:01.000Z</time>
      </trkpt>
      <trkpt lat="45.08738" lon="5.96171">
        <ele>2432.7</ele>
        <time>2018-02-23T11:17:02.000Z</time>
      </trkpt>
      <trkpt lat="45.08742" lon="5.96171">
        <ele>2432.2</ele>
        <time>2018-02-23T11:17:03.000Z</time>
      </trkpt>
      <trkpt lat="45.08747" lon="5.96174">
        <ele>2432.9</ele>
        <time>2018-02-23T11:17:04.000Z</time>
      </trkpt>
      <trkpt lat="45.08753" lon="5.96177">
        <ele>2433.2</ele>
        <time>2018-02-23T11:17:05.000Z</time>
      </trkpt>
      <trkpt lat="45.08758" lon="5.96177">
        <ele>2433.9</ele>
        <time>2018-02-23T11:17:06.000Z</time>
      </trkpt>
      <trkpt lat="45.08763" lon="5.96177">
        <ele>2435.2</ele>
        <time>2018-02-23T11:17:07.000Z</time>
      </trkpt>
      <trkpt lat="45.08766" lon="5.96179">
        <ele>2436.1</ele>
        <time>2018-02-23T11:17:08.000Z</time>
      </trkpt>
      <trkpt lat="45.0876" lon="5.96189">
        <ele>2433</ele>
        <time>2018-02-23T11:17:09.000Z</time>
      </trkpt>
      <trkpt lat="45.08758" lon="5.96199">
        <ele>2431</ele>
        <time>2018-02-23T11:17:10.000Z</time>
      </trkpt>
      <trkpt lat="45.08763" lon="5.96202">
        <ele>2431.5</ele>
        <time>2018-02-23T11:17:11.000Z</time>
      </trkpt>
      <trkpt lat="45.08767" lon="5.96206">
        <ele>2432.4</ele>
        <time>2018-02-23T11:17:12.000Z</time>
      </trkpt>
      <trkpt lat="45.08768" lon="5.96212">
        <ele>2431.6</ele>
        <time>2018-02-23T11:17:13.000Z</time>
      </trkpt>
      <trkpt lat="45.08769" lon="5.96219">
        <ele>2430.9</ele>
        <time>2018-02-23T11:17:14.000Z</time>
      </trkpt>
      <trkpt lat="45.08773" lon="5.96222">
        <ele>2431.9</ele>
        <time>2018-02-23T11:17:15.000Z</time>
      </trkpt>
      <trkpt lat="45.08778" lon="5.96226">
        <ele>2432.2</ele>
        <time>2018-02-23T11:17:16.000Z</time>
      </trkpt>
      <trkpt lat="45.08782" lon="5.96231">
        <ele>2432.6</ele>
        <time>2018-02-23T11:17:17.000Z</time>
      </trkpt>
      <trkpt lat="45.08785" lon="5.96239">
        <ele>2432.3</ele>
        <time>2018-02-23T11:17:18.000Z</time>
      </trkpt>
      <trkpt lat="45.08785" lon="5.96249">
        <ele>2429.9</ele>
        <time>2018-02-23T11:17:19.000Z</time>
      </trkpt>
      <trkpt lat="45.08781" lon="5.96254">
        <ele>2428.1</ele>
        <time>2018-02-23T11:17:20.000Z</time>
      </trkpt>
      <trkpt lat="45.08781" lon="5.96259">
        <ele>2427.5</ele>
        <time>2018-02-23T11:17:21.000Z</time>
      </trkpt>
      <trkpt lat="45.08781" lon="5.96265">
        <ele>2426.9</ele>
        <time>2018-02-23T11:17:22.000Z</time>
      </trkpt>
      <trkpt lat="45.08776" lon="5.96267">
        <ele>2424</ele>
        <time>2018-02-23T11:17:25.000Z</time>
      </trkpt>
      <trkpt lat="45.08774" lon="5.96268">
        <ele>2424.3</ele>
        <time>2018-02-23T11:17:36.000Z</time>
      </trkpt>
      <trkpt lat="45.08772" lon="5.96269">
        <ele>2423.6</ele>
        <time>2018-02-23T11:17:37.000Z</time>
      </trkpt>
      <trkpt lat="45.08771" lon="5.96274">
        <ele>2422.9</ele>
        <time>2018-02-23T11:17:38.000Z</time>
      </trkpt>
      <trkpt lat="45.0877" lon="5.9628">
        <ele>2419.8</ele>
        <time>2018-02-23T11:17:39.000Z</time>
      </trkpt>
      <trkpt lat="45.08768" lon="5.96286">
        <ele>2418.7</ele>
        <time>2018-02-23T11:17:40.000Z</time>
      </trkpt>
      <trkpt lat="45.08767" lon="5.96293">
        <ele>2415.2</ele>
        <time>2018-02-23T11:17:41.000Z</time>
      </trkpt>
      <trkpt lat="45.08766" lon="5.96302">
        <ele>2412.8</ele>
        <time>2018-02-23T11:17:42.000Z</time>
      </trkpt>
      <trkpt lat="45.08763" lon="5.96309">
        <ele>2410.5</ele>
        <time>2018-02-23T11:17:43.000Z</time>
      </trkpt>
      <trkpt lat="45.08757" lon="5.96307">
        <ele>2408.4</ele>
        <time>2018-02-23T11:17:44.000Z</time>
      </trkpt>
      <trkpt lat="45.08753" lon="5.96311">
        <ele>2406.1</ele>
        <time>2018-02-23T11:17:45.000Z</time>
      </trkpt>
      <trkpt lat="45.08748" lon="5.96315">
        <ele>2402.9</ele>
        <time>2018-02-23T11:17:46.000Z</time>
      </trkpt>
      <trkpt lat="45.08745" lon="5.96321">
        <ele>2400.7</ele>
        <time>2018-02-23T11:17:47.000Z</time>
      </trkpt>
      <trkpt lat="45.08741" lon="5.96328">
        <ele>2397.2</ele>
        <time>2018-02-23T11:17:48.000Z</time>
      </trkpt>
      <trkpt lat="45.08735" lon="5.9633">
        <ele>2395.6</ele>
        <time>2018-02-23T11:17:49.000Z</time>
      </trkpt>
      <trkpt lat="45.08731" lon="5.96335">
        <ele>2392.1</ele>
        <time>2018-02-23T11:17:50.000Z</time>
      </trkpt>
      <trkpt lat="45.08733" lon="5.9634">
        <ele>2390.7</ele>
        <time>2018-02-23T11:17:51.000Z</time>
      </trkpt>
      <trkpt lat="45.08733" lon="5.96344">
        <ele>2389.3</ele>
        <time>2018-02-23T11:17:52.000Z</time>
      </trkpt>
      <trkpt lat="45.08735" lon="5.96341">
        <ele>2391.4</ele>
        <time>2018-02-23T11:18:05.000Z</time>
      </trkpt>
      <trkpt lat="45.08737" lon="5.96344">
        <ele>2390.8</ele>
        <time>2018-02-23T11:18:18.000Z</time>
      </trkpt>
      <trkpt lat="45.08741" lon="5.96345">
        <ele>2391.7</ele>
        <time>2018-02-23T11:18:20.000Z</time>
      </trkpt>
      <trkpt lat="45.08745" lon="5.96348">
        <ele>2391.4</ele>
        <time>2018-02-23T11:18:22.000Z</time>
      </trkpt>
      <trkpt lat="45.08749" lon="5.96351">
        <ele>2392.6</ele>
        <time>2018-02-23T11:18:24.000Z</time>
      </trkpt>
      <trkpt lat="45.08754" lon="5.96353">
        <ele>2393.8</ele>
        <time>2018-02-23T11:18:26.000Z</time>
      </trkpt>
      <trkpt lat="45.08757" lon="5.96357">
        <ele>2393.9</ele>
        <time>2018-02-23T11:18:29.000Z</time>
      </trkpt>
      <trkpt lat="45.08761" lon="5.9636">
        <ele>2395.2</ele>
        <time>2018-02-23T11:18:31.000Z</time>
      </trkpt>
      <trkpt lat="45.08766" lon="5.96363">
        <ele>2396.8</ele>
        <time>2018-02-23T11:18:33.000Z</time>
      </trkpt>
      <trkpt lat="45.08769" lon="5.96369">
        <ele>2396</ele>
        <time>2018-02-23T11:18:35.000Z</time>
      </trkpt>
      <trkpt lat="45.08768" lon="5.96376">
        <ele>2394.8</ele>
        <time>2018-02-23T11:18:36.000Z</time>
      </trkpt>
      <trkpt lat="45.08767" lon="5.96382">
        <ele>2390.8</ele>
        <time>2018-02-23T11:18:37.000Z</time>
      </trkpt>
      <trkpt lat="45.08761" lon="5.96386">
        <ele>2387.8</ele>
        <time>2018-02-23T11:18:38.000Z</time>
      </trkpt>
      <trkpt lat="45.08761" lon="5.9639">
        <ele>2386.9</ele>
        <time>2018-02-23T11:18:39.000Z</time>
      </trkpt>
      <trkpt lat="45.08759" lon="5.96388">
        <ele>2386.6</ele>
        <time>2018-02-23T11:19:11.000Z</time>
      </trkpt>
      <trkpt lat="45.08757" lon="5.96392">
        <ele>2383.9</ele>
        <time>2018-02-23T11:19:14.000Z</time>
      </trkpt>
      <trkpt lat="45.08758" lon="5.96396">
        <ele>2382.8</ele>
        <time>2018-02-23T11:19:28.000Z</time>
      </trkpt>
      <trkpt lat="45.08762" lon="5.96399">
        <ele>2385.8</ele>
        <time>2018-02-23T11:19:30.000Z</time>
      </trkpt>
      <trkpt lat="45.08765" lon="5.96401">
        <ele>2386.2</ele>
        <time>2018-02-23T11:19:31.000Z</time>
      </trkpt>
      <trkpt lat="45.08767" lon="5.96405">
        <ele>2385.2</ele>
        <time>2018-02-23T11:19:32.000Z</time>
      </trkpt>
      <trkpt lat="45.08769" lon="5.96408">
        <ele>2385.7</ele>
        <time>2018-02-23T11:19:33.000Z</time>
      </trkpt>
      <trkpt lat="45.08767" lon="5.96413">
        <ele>2383.1</ele>
        <time>2018-02-23T11:19:34.000Z</time>
      </trkpt>
      <trkpt lat="45.08764" lon="5.9642">
        <ele>2382</ele>
        <time>2018-02-23T11:19:35.000Z</time>
      </trkpt>
      <trkpt lat="45.08761" lon="5.96423">
        <ele>2379.4</ele>
        <time>2018-02-23T11:19:36.000Z</time>
      </trkpt>
      <trkpt lat="45.08759" lon="5.9643">
        <ele>2375.8</ele>
        <time>2018-02-23T11:19:37.000Z</time>
      </trkpt>
      <trkpt lat="45.08752" lon="5.96435">
        <ele>2370.6</ele>
        <time>2018-02-23T11:19:38.000Z</time>
      </trkpt>
      <trkpt lat="45.08749" lon="5.9644">
        <ele>2368.4</ele>
        <time>2018-02-23T11:19:39.000Z</time>
      </trkpt>
      <trkpt lat="45.08747" lon="5.96446">
        <ele>2367.6</ele>
        <time>2018-02-23T11:19:40.000Z</time>
      </trkpt>
      <trkpt lat="45.08746" lon="5.96452">
        <ele>2364.9</ele>
        <time>2018-02-23T11:19:41.000Z</time>
      </trkpt>
      <trkpt lat="45.08744" lon="5.96458">
        <ele>2364.4</ele>
        <time>2018-02-23T11:19:42.000Z</time>
      </trkpt>
      <trkpt lat="45.08744" lon="5.96464">
        <ele>2363.4</ele>
        <time>2018-02-23T11:19:43.000Z</time>
      </trkpt>
      <trkpt lat="45.08747" lon="5.96468">
        <ele>2364.3</ele>
        <time>2018-02-23T11:19:44.000Z</time>
      </trkpt>
      <trkpt lat="45.08748" lon="5.96473">
        <ele>2363.9</ele>
        <time>2018-02-23T11:19:45.000Z</time>
      </trkpt>
      <trkpt lat="45.08748" lon="5.96478">
        <ele>2363.6</ele>
        <time>2018-02-23T11:19:46.000Z</time>
      </trkpt>
      <trkpt lat="45.08748" lon="5.96487">
        <ele>2363.1</ele>
        <time>2018-02-23T11:19:47.000Z</time>
      </trkpt>
      <trkpt lat="45.08744" lon="5.96495">
        <ele>2361.2</ele>
        <time>2018-02-23T11:19:48.000Z</time>
      </trkpt>
      <trkpt lat="45.08744" lon="5.96505">
        <ele>2360.6</ele>
        <time>2018-02-23T11:19:49.000Z</time>
      </trkpt>
      <trkpt lat="45.08742" lon="5.96513">
        <ele>2358.3</ele>
        <time>2018-02-23T11:19:50.000Z</time>
      </trkpt>
      <trkpt lat="45.08741" lon="5.96523">
        <ele>2357.1</ele>
        <time>2018-02-23T11:19:51.000Z</time>
      </trkpt>
      <trkpt lat="45.08738" lon="5.96531">
        <ele>2354.5</ele>
        <time>2018-02-23T11:19:52.000Z</time>
      </trkpt>
      <trkpt lat="45.08736" lon="5.9654">
        <ele>2351.9</ele>
        <time>2018-02-23T11:19:53.000Z</time>
      </trkpt>
      <trkpt lat="45.08731" lon="5.96547">
        <ele>2347.9</ele>
        <time>2018-02-23T11:19:54.000Z</time>
      </trkpt>
      <trkpt lat="45.08727" lon="5.96553">
        <ele>2345.7</ele>
        <time>2018-02-23T11:19:55.000Z</time>
      </trkpt>
      <trkpt lat="45.08724" lon="5.96546">
        <ele>2345</ele>
        <time>2018-02-23T11:19:56.000Z</time>
      </trkpt>
      <trkpt lat="45.08723" lon="5.9654">
        <ele>2346.6</ele>
        <time>2018-02-23T11:19:57.000Z</time>
      </trkpt>
      <trkpt lat="45.08725" lon="5.96545">
        <ele>2345.8</ele>
        <time>2018-02-23T11:20:38.000Z</time>
      </trkpt>
      <trkpt lat="45.08725" lon="5.96549">
        <ele>2345.7</ele>
        <time>2018-02-23T11:20:39.000Z</time>
      </trkpt>
      <trkpt lat="45.08725" lon="5.96558">
        <ele>2341.7</ele>
        <time>2018-02-23T11:20:40.000Z</time>
      </trkpt>
      <trkpt lat="45.08721" lon="5.96566">
        <ele>2339.1</ele>
        <time>2018-02-23T11:20:41.000Z</time>
      </trkpt>
      <trkpt lat="45.08718" lon="5.96572">
        <ele>2335.6</ele>
        <time>2018-02-23T11:20:42.000Z</time>
      </trkpt>
      <trkpt lat="45.08714" lon="5.96579">
        <ele>2332.2</ele>
        <time>2018-02-23T11:20:43.000Z</time>
      </trkpt>
      <trkpt lat="45.08709" lon="5.96586">
        <ele>2328.6</ele>
        <time>2018-02-23T11:20:44.000Z</time>
      </trkpt>
      <trkpt lat="45.08705" lon="5.96595">
        <ele>2325.2</ele>
        <time>2018-02-23T11:20:45.000Z</time>
      </trkpt>
      <trkpt lat="45.08704" lon="5.96603">
        <ele>2323.1</ele>
        <time>2018-02-23T11:20:46.000Z</time>
      </trkpt>
      <trkpt lat="45.08704" lon="5.96607">
        <ele>2322</ele>
        <time>2018-02-23T11:20:47.000Z</time>
      </trkpt>
      <trkpt lat="45.08701" lon="5.96609">
        <ele>2319.5</ele>
        <time>2018-02-23T11:20:54.000Z</time>
      </trkpt>
      <trkpt lat="45.08702" lon="5.96618">
        <ele>2317.7</ele>
        <time>2018-02-23T11:20:56.000Z</time>
      </trkpt>
      <trkpt lat="45.08703" lon="5.96622">
        <ele>2317.7</ele>
        <time>2018-02-23T11:20:57.000Z</time>
      </trkpt>
      <trkpt lat="45.08703" lon="5.96628">
        <ele>2316.1</ele>
        <time>2018-02-23T11:20:58.000Z</time>
      </trkpt>
      <trkpt lat="45.08699" lon="5.96638">
        <ele>2313.2</ele>
        <time>2018-02-23T11:20:59.000Z</time>
      </trkpt>
      <trkpt lat="45.08698" lon="5.96645">
        <ele>2311.9</ele>
        <time>2018-02-23T11:21:00.000Z</time>
      </trkpt>
      <trkpt lat="45.08697" lon="5.9665">
        <ele>2309.6</ele>
        <time>2018-02-23T11:21:02.000Z</time>
      </trkpt>
      <trkpt lat="45.08695" lon="5.96649">
        <ele>2309.6</ele>
        <time>2018-02-23T11:21:41.000Z</time>
      </trkpt>
      <trkpt lat="45.08692" lon="5.96649">
        <ele>2308</ele>
        <time>2018-02-23T11:21:48.000Z</time>
      </trkpt>
      <trkpt lat="45.08691" lon="5.96644">
        <ele>2307</ele>
        <time>2018-02-23T11:22:03.000Z</time>
      </trkpt>
      <trkpt lat="45.08686" lon="5.9664">
        <ele>2306.2</ele>
        <time>2018-02-23T11:22:12.000Z</time>
      </trkpt>
      <trkpt lat="45.08685" lon="5.96644">
        <ele>2304.2</ele>
        <time>2018-02-23T11:22:14.000Z</time>
      </trkpt>
      <trkpt lat="45.08681" lon="5.96643">
        <ele>2303.5</ele>
        <time>2018-02-23T11:22:18.000Z</time>
      </trkpt>
      <trkpt lat="45.08677" lon="5.96643">
        <ele>2302.1</ele>
        <time>2018-02-23T11:22:21.000Z</time>
      </trkpt>
      <trkpt lat="45.08673" lon="5.96642">
        <ele>2299.3</ele>
        <time>2018-02-23T11:22:22.000Z</time>
      </trkpt>
      <trkpt lat="45.08672" lon="5.96648">
        <ele>2297.9</ele>
        <time>2018-02-23T11:22:23.000Z</time>
      </trkpt>
      <trkpt lat="45.0867" lon="5.96652">
        <ele>2296.4</ele>
        <time>2018-02-23T11:22:24.000Z</time>
      </trkpt>
      <trkpt lat="45.08668" lon="5.96657">
        <ele>2295.1</ele>
        <time>2018-02-23T11:22:25.000Z</time>
      </trkpt>
      <trkpt lat="45.08665" lon="5.96663">
        <ele>2292.9</ele>
        <time>2018-02-23T11:22:26.000Z</time>
      </trkpt>
      <trkpt lat="45.08661" lon="5.96668">
        <ele>2289.1</ele>
        <time>2018-02-23T11:22:27.000Z</time>
      </trkpt>
      <trkpt lat="45.08653" lon="5.96667">
        <ele>2286</ele>
        <time>2018-02-23T11:22:28.000Z</time>
      </trkpt>
      <trkpt lat="45.08647" lon="5.96669">
        <ele>2283.1</ele>
        <time>2018-02-23T11:22:29.000Z</time>
      </trkpt>
      <trkpt lat="45.08642" lon="5.96669">
        <ele>2280</ele>
        <time>2018-02-23T11:22:30.000Z</time>
      </trkpt>
      <trkpt lat="45.08636" lon="5.96669">
        <ele>2275.8</ele>
        <time>2018-02-23T11:22:31.000Z</time>
      </trkpt>
      <trkpt lat="45.0863" lon="5.96668">
        <ele>2273.7</ele>
        <time>2018-02-23T11:22:32.000Z</time>
      </trkpt>
      <trkpt lat="45.08623" lon="5.96668">
        <ele>2271.1</ele>
        <time>2018-02-23T11:22:33.000Z</time>
      </trkpt>
      <trkpt lat="45.08616" lon="5.96667">
        <ele>2267.3</ele>
        <time>2018-02-23T11:22:34.000Z</time>
      </trkpt>
      <trkpt lat="45.08608" lon="5.96666">
        <ele>2264.7</ele>
        <time>2018-02-23T11:22:35.000Z</time>
      </trkpt>
      <trkpt lat="45.086" lon="5.96664">
        <ele>2262.6</ele>
        <time>2018-02-23T11:22:36.000Z</time>
      </trkpt>
      <trkpt lat="45.08594" lon="5.96664">
        <ele>2260.8</ele>
        <time>2018-02-23T11:22:37.000Z</time>
      </trkpt>
      <trkpt lat="45.08589" lon="5.96662">
        <ele>2259.8</ele>
        <time>2018-02-23T11:22:38.000Z</time>
      </trkpt>
      <trkpt lat="45.08583" lon="5.96661">
        <ele>2257.9</ele>
        <time>2018-02-23T11:22:39.000Z</time>
      </trkpt>
      <trkpt lat="45.08579" lon="5.96661">
        <ele>2256.2</ele>
        <time>2018-02-23T11:22:40.000Z</time>
      </trkpt>
      <trkpt lat="45.08573" lon="5.96659">
        <ele>2255.9</ele>
        <time>2018-02-23T11:22:41.000Z</time>
      </trkpt>
      <trkpt lat="45.08567" lon="5.96658">
        <ele>2255.2</ele>
        <time>2018-02-23T11:22:42.000Z</time>
      </trkpt>
      <trkpt lat="45.08562" lon="5.96657">
        <ele>2253.9</ele>
        <time>2018-02-23T11:22:43.000Z</time>
      </trkpt>
      <trkpt lat="45.08557" lon="5.96655">
        <ele>2253.8</ele>
        <time>2018-02-23T11:22:44.000Z</time>
      </trkpt>
      <trkpt lat="45.08553" lon="5.96653">
        <ele>2253.1</ele>
        <time>2018-02-23T11:22:45.000Z</time>
      </trkpt>
      <trkpt lat="45.08549" lon="5.9665">
        <ele>2253.1</ele>
        <time>2018-02-23T11:22:46.000Z</time>
      </trkpt>
      <trkpt lat="45.08546" lon="5.96648">
        <ele>2253.8</ele>
        <time>2018-02-23T11:22:47.000Z</time>
      </trkpt>
      <trkpt lat="45.08543" lon="5.96646">
        <ele>2253.3</ele>
        <time>2018-02-23T11:22:48.000Z</time>
      </trkpt>
      <trkpt lat="45.08542" lon="5.96651">
        <ele>2252.1</ele>
        <time>2018-02-23T11:22:49.000Z</time>
      </trkpt>
      <trkpt lat="45.08538" lon="5.96649">
        <ele>2251.6</ele>
        <time>2018-02-23T11:22:50.000Z</time>
      </trkpt>
      <trkpt lat="45.08535" lon="5.96648">
        <ele>2251.1</ele>
        <time>2018-02-23T11:22:51.000Z</time>
      </trkpt>
      <trkpt lat="45.0853" lon="5.96646">
        <ele>2251.3</ele>
        <time>2018-02-23T11:22:52.000Z</time>
      </trkpt>
      <trkpt lat="45.08525" lon="5.96643">
        <ele>2251.9</ele>
        <time>2018-02-23T11:22:53.000Z</time>
      </trkpt>
      <trkpt lat="45.08521" lon="5.96639">
        <ele>2251.9</ele>
        <time>2018-02-23T11:22:54.000Z</time>
      </trkpt>
      <trkpt lat="45.08517" lon="5.96639">
        <ele>2251.4</ele>
        <time>2018-02-23T11:22:55.000Z</time>
      </trkpt>
      <trkpt lat="45.08512" lon="5.96639">
        <ele>2250.5</ele>
        <time>2018-02-23T11:22:56.000Z</time>
      </trkpt>
      <trkpt lat="45.08508" lon="5.96643">
        <ele>2248.9</ele>
        <time>2018-02-23T11:22:57.000Z</time>
      </trkpt>
      <trkpt lat="45.08503" lon="5.96649">
        <ele>2245.4</ele>
        <time>2018-02-23T11:22:58.000Z</time>
      </trkpt>
      <trkpt lat="45.085" lon="5.96651">
        <ele>2244.9</ele>
        <time>2018-02-23T11:22:59.000Z</time>
      </trkpt>
      <trkpt lat="45.08502" lon="5.96659">
        <ele>2242.9</ele>
        <time>2018-02-23T11:24:45.000Z</time>
      </trkpt>
      <trkpt lat="45.08504" lon="5.96662">
        <ele>2242.3</ele>
        <time>2018-02-23T11:24:46.000Z</time>
      </trkpt>
      <trkpt lat="45.08508" lon="5.96668">
        <ele>2241.6</ele>
        <time>2018-02-23T11:24:48.000Z</time>
      </trkpt>
      <trkpt lat="45.08511" lon="5.96672">
        <ele>2241</ele>
        <time>2018-02-23T11:24:49.000Z</time>
      </trkpt>
      <trkpt lat="45.08511" lon="5.96677">
        <ele>2239.7</ele>
        <time>2018-02-23T11:24:50.000Z</time>
      </trkpt>
      <trkpt lat="45.0851" lon="5.96682">
        <ele>2237.1</ele>
        <time>2018-02-23T11:24:51.000Z</time>
      </trkpt>
      <trkpt lat="45.08512" lon="5.96687">
        <ele>2235.5</ele>
        <time>2018-02-23T11:24:52.000Z</time>
      </trkpt>
      <trkpt lat="45.08514" lon="5.96692">
        <ele>2234.4</ele>
        <time>2018-02-23T11:24:53.000Z</time>
      </trkpt>
      <trkpt lat="45.08514" lon="5.96696">
        <ele>2232.8</ele>
        <time>2018-02-23T11:24:54.000Z</time>
      </trkpt>
      <trkpt lat="45.08511" lon="5.96699">
        <ele>2232.3</ele>
        <time>2018-02-23T11:24:55.000Z</time>
      </trkpt>
      <trkpt lat="45.08507" lon="5.96699">
        <ele>2231.7</ele>
        <time>2018-02-23T11:24:56.000Z</time>
      </trkpt>
      <trkpt lat="45.08509" lon="5.96706">
        <ele>2228.5</ele>
        <time>2018-02-23T11:24:59.000Z</time>
      </trkpt>
      <trkpt lat="45.08512" lon="5.96706">
        <ele>2229.1</ele>
        <time>2018-02-23T11:25:00.000Z</time>
      </trkpt>
      <trkpt lat="45.08513" lon="5.96711">
        <ele>2228.1</ele>
        <time>2018-02-23T11:25:03.000Z</time>
      </trkpt>
      <trkpt lat="45.08512" lon="5.96715">
        <ele>2226.1</ele>
        <time>2018-02-23T11:25:04.000Z</time>
      </trkpt>
      <trkpt lat="45.08512" lon="5.9672">
        <ele>2224.6</ele>
        <time>2018-02-23T11:25:05.000Z</time>
      </trkpt>
      <trkpt lat="45.08515" lon="5.96725">
        <ele>2221.9</ele>
        <time>2018-02-23T11:25:06.000Z</time>
      </trkpt>
      <trkpt lat="45.08516" lon="5.9673">
        <ele>2220.3</ele>
        <time>2018-02-23T11:25:07.000Z</time>
      </trkpt>
      <trkpt lat="45.08518" lon="5.96736">
        <ele>2219.1</ele>
        <time>2018-02-23T11:25:09.000Z</time>
      </trkpt>
      <trkpt lat="45.08516" lon="5.96743">
        <ele>2215.4</ele>
        <time>2018-02-23T11:25:10.000Z</time>
      </trkpt>
      <trkpt lat="45.08514" lon="5.96748">
        <ele>2212.9</ele>
        <time>2018-02-23T11:25:11.000Z</time>
      </trkpt>
      <trkpt lat="45.08511" lon="5.96749">
        <ele>2212.3</ele>
        <time>2018-02-23T11:25:12.000Z</time>
      </trkpt>
      <trkpt lat="45.08506" lon="5.96745">
        <ele>2213</ele>
        <time>2018-02-23T11:25:13.000Z</time>
      </trkpt>
      <trkpt lat="45.08504" lon="5.96745">
        <ele>2213</ele>
        <time>2018-02-23T11:25:14.000Z</time>
      </trkpt>
      <trkpt lat="45.08504" lon="5.96741">
        <ele>2214.2</ele>
        <time>2018-02-23T11:25:20.000Z</time>
      </trkpt>
      <trkpt lat="45.08501" lon="5.96745">
        <ele>2211.6</ele>
        <time>2018-02-23T11:25:24.000Z</time>
      </trkpt>
      <trkpt lat="45.08501" lon="5.9675">
        <ele>2210.3</ele>
        <time>2018-02-23T11:25:25.000Z</time>
      </trkpt>
      <trkpt lat="45.08502" lon="5.96754">
        <ele>2208.3</ele>
        <time>2018-02-23T11:25:26.000Z</time>
      </trkpt>
      <trkpt lat="45.08501" lon="5.96759">
        <ele>2206.3</ele>
        <time>2018-02-23T11:25:27.000Z</time>
      </trkpt>
      <trkpt lat="45.08498" lon="5.96761">
        <ele>2203.6</ele>
        <time>2018-02-23T11:25:28.000Z</time>
      </trkpt>
      <trkpt lat="45.085" lon="5.96766">
        <ele>2201.7</ele>
        <time>2018-02-23T11:25:29.000Z</time>
      </trkpt>
      <trkpt lat="45.08499" lon="5.96772">
        <ele>2199.7</ele>
        <time>2018-02-23T11:25:30.000Z</time>
      </trkpt>
      <trkpt lat="45.08498" lon="5.96777">
        <ele>2194.6</ele>
        <time>2018-02-23T11:25:31.000Z</time>
      </trkpt>
      <trkpt lat="45.08495" lon="5.96779">
        <ele>2194.6</ele>
        <time>2018-02-23T11:25:32.000Z</time>
      </trkpt>
      <trkpt lat="45.08495" lon="5.96784">
        <ele>2192.4</ele>
        <time>2018-02-23T11:25:33.000Z</time>
      </trkpt>
      <trkpt lat="45.08492" lon="5.96788">
        <ele>2189.4</ele>
        <time>2018-02-23T11:25:34.000Z</time>
      </trkpt>
      <trkpt lat="45.0849" lon="5.96792">
        <ele>2186.6</ele>
        <time>2018-02-23T11:25:35.000Z</time>
      </trkpt>
      <trkpt lat="45.08485" lon="5.96795">
        <ele>2183</ele>
        <time>2018-02-23T11:25:36.000Z</time>
      </trkpt>
      <trkpt lat="45.08482" lon="5.96799">
        <ele>2180.2</ele>
        <time>2018-02-23T11:25:37.000Z</time>
      </trkpt>
      <trkpt lat="45.08488" lon="5.96805">
        <ele>2179.7</ele>
        <time>2018-02-23T11:25:38.000Z</time>
      </trkpt>
      <trkpt lat="45.08488" lon="5.96811">
        <ele>2175.9</ele>
        <time>2018-02-23T11:25:39.000Z</time>
      </trkpt>
      <trkpt lat="45.08486" lon="5.96816">
        <ele>2174</ele>
        <time>2018-02-23T11:25:40.000Z</time>
      </trkpt>
      <trkpt lat="45.08483" lon="5.96819">
        <ele>2173.1</ele>
        <time>2018-02-23T11:25:41.000Z</time>
      </trkpt>
      <trkpt lat="45.08479" lon="5.96818">
        <ele>2171.5</ele>
        <time>2018-02-23T11:25:42.000Z</time>
      </trkpt>
      <trkpt lat="45.08474" lon="5.96813">
        <ele>2172.7</ele>
        <time>2018-02-23T11:25:43.000Z</time>
      </trkpt>
      <trkpt lat="45.08471" lon="5.96811">
        <ele>2171.9</ele>
        <time>2018-02-23T11:25:44.000Z</time>
      </trkpt>
      <trkpt lat="45.08468" lon="5.9681">
        <ele>2173.2</ele>
        <time>2018-02-23T11:25:55.000Z</time>
      </trkpt>
      <trkpt lat="45.08466" lon="5.96808">
        <ele>2172.5</ele>
        <time>2018-02-23T11:25:56.000Z</time>
      </trkpt>
      <trkpt lat="45.08462" lon="5.96807">
        <ele>2171.9</ele>
        <time>2018-02-23T11:25:57.000Z</time>
      </trkpt>
      <trkpt lat="45.08457" lon="5.96807">
        <ele>2170.8</ele>
        <time>2018-02-23T11:25:59.000Z</time>
      </trkpt>
      <trkpt lat="45.08452" lon="5.96806">
        <ele>2172.3</ele>
        <time>2018-02-23T11:26:01.000Z</time>
      </trkpt>
      <trkpt lat="45.08447" lon="5.96806">
        <ele>2171.4</ele>
        <time>2018-02-23T11:26:02.000Z</time>
      </trkpt>
      <trkpt lat="45.08443" lon="5.96812">
        <ele>2166.9</ele>
        <time>2018-02-23T11:26:03.000Z</time>
      </trkpt>
      <trkpt lat="45.08435" lon="5.96815">
        <ele>2163.9</ele>
        <time>2018-02-23T11:26:04.000Z</time>
      </trkpt>
      <trkpt lat="45.08428" lon="5.96822">
        <ele>2161.4</ele>
        <time>2018-02-23T11:26:05.000Z</time>
      </trkpt>
      <trkpt lat="45.08424" lon="5.96831">
        <ele>2157.3</ele>
        <time>2018-02-23T11:26:06.000Z</time>
      </trkpt>
      <trkpt lat="45.08419" lon="5.9684">
        <ele>2152.9</ele>
        <time>2018-02-23T11:26:07.000Z</time>
      </trkpt>
      <trkpt lat="45.08409" lon="5.96841">
        <ele>2152.4</ele>
        <time>2018-02-23T11:26:08.000Z</time>
      </trkpt>
      <trkpt lat="45.08407" lon="5.96855">
        <ele>2145.6</ele>
        <time>2018-02-23T11:26:09.000Z</time>
      </trkpt>
      <trkpt lat="45.08402" lon="5.96857">
        <ele>2145.4</ele>
        <time>2018-02-23T11:26:12.000Z</time>
      </trkpt>
      <trkpt lat="45.084" lon="5.96854">
        <ele>2145.4</ele>
        <time>2018-02-23T11:26:29.000Z</time>
      </trkpt>
      <trkpt lat="45.08401" lon="5.96861">
        <ele>2143.8</ele>
        <time>2018-02-23T11:27:33.000Z</time>
      </trkpt>
      <trkpt lat="45.08405" lon="5.96862">
        <ele>2143.8</ele>
        <time>2018-02-23T11:27:35.000Z</time>
      </trkpt>
      <trkpt lat="45.08408" lon="5.96867">
        <ele>2140.6</ele>
        <time>2018-02-23T11:27:37.000Z</time>
      </trkpt>
      <trkpt lat="45.08408" lon="5.96872">
        <ele>2138.9</ele>
        <time>2018-02-23T11:27:38.000Z</time>
      </trkpt>
      <trkpt lat="45.08404" lon="5.96877">
        <ele>2137.2</ele>
        <time>2018-02-23T11:27:39.000Z</time>
      </trkpt>
      <trkpt lat="45.08405" lon="5.96882">
        <ele>2135.6</ele>
        <time>2018-02-23T11:27:40.000Z</time>
      </trkpt>
      <trkpt lat="45.08405" lon="5.96887">
        <ele>2134</ele>
        <time>2018-02-23T11:27:41.000Z</time>
      </trkpt>
      <trkpt lat="45.08403" lon="5.9689">
        <ele>2132.4</ele>
        <time>2018-02-23T11:27:43.000Z</time>
      </trkpt>
      <trkpt lat="45.08399" lon="5.9689">
        <ele>2132.4</ele>
        <time>2018-02-23T11:27:45.000Z</time>
      </trkpt>
      <trkpt lat="45.08396" lon="5.96889">
        <ele>2132.3</ele>
        <time>2018-02-23T11:27:47.000Z</time>
      </trkpt>
      <trkpt lat="45.0839" lon="5.96888">
        <ele>2132.2</ele>
        <time>2018-02-23T11:27:49.000Z</time>
      </trkpt>
      <trkpt lat="45.08387" lon="5.96889">
        <ele>2132.1</ele>
        <time>2018-02-23T11:27:50.000Z</time>
      </trkpt>
      <trkpt lat="45.08383" lon="5.96888">
        <ele>2133.7</ele>
        <time>2018-02-23T11:27:51.000Z</time>
      </trkpt>
      <trkpt lat="45.08379" lon="5.96887">
        <ele>2133.8</ele>
        <time>2018-02-23T11:27:52.000Z</time>
      </trkpt>
      <trkpt lat="45.08375" lon="5.9689">
        <ele>2132.3</ele>
        <time>2018-02-23T11:27:53.000Z</time>
      </trkpt>
      <trkpt lat="45.08373" lon="5.96892">
        <ele>2132.4</ele>
        <time>2018-02-23T11:27:54.000Z</time>
      </trkpt>
      <trkpt lat="45.08371" lon="5.96896">
        <ele>2130.9</ele>
        <time>2018-02-23T11:27:56.000Z</time>
      </trkpt>
      <trkpt lat="45.08373" lon="5.969">
        <ele>2129.3</ele>
        <time>2018-02-23T11:28:00.000Z</time>
      </trkpt>
      <trkpt lat="45.08375" lon="5.96905">
        <ele>2127.7</ele>
        <time>2018-02-23T11:28:01.000Z</time>
      </trkpt>
      <trkpt lat="45.08377" lon="5.96907">
        <ele>2126</ele>
        <time>2018-02-23T11:28:02.000Z</time>
      </trkpt>
      <trkpt lat="45.0838" lon="5.9691">
        <ele>2124.2</ele>
        <time>2018-02-23T11:28:03.000Z</time>
      </trkpt>
      <trkpt lat="45.08382" lon="5.96914">
        <ele>2122.4</ele>
        <time>2018-02-23T11:28:04.000Z</time>
      </trkpt>
      <trkpt lat="45.08385" lon="5.96918">
        <ele>2120.5</ele>
        <time>2018-02-23T11:28:05.000Z</time>
      </trkpt>
      <trkpt lat="45.08389" lon="5.96924">
        <ele>2118.7</ele>
        <time>2018-02-23T11:28:06.000Z</time>
      </trkpt>
      <trkpt lat="45.08391" lon="5.96929">
        <ele>2117</ele>
        <time>2018-02-23T11:28:07.000Z</time>
      </trkpt>
      <trkpt lat="45.08393" lon="5.96934">
        <ele>2115.5</ele>
        <time>2018-02-23T11:28:08.000Z</time>
      </trkpt>
      <trkpt lat="45.08396" lon="5.96935">
        <ele>2115.6</ele>
        <time>2018-02-23T11:28:09.000Z</time>
      </trkpt>
      <trkpt lat="45.084" lon="5.96938">
        <ele>2114.3</ele>
        <time>2018-02-23T11:28:11.000Z</time>
      </trkpt>
      <trkpt lat="45.08404" lon="5.96942">
        <ele>2113.3</ele>
        <time>2018-02-23T11:28:13.000Z</time>
      </trkpt>
      <trkpt lat="45.08407" lon="5.96944">
        <ele>2112.2</ele>
        <time>2018-02-23T11:28:14.000Z</time>
      </trkpt>
      <trkpt lat="45.08405" lon="5.9695">
        <ele>2110.5</ele>
        <time>2018-02-23T11:28:15.000Z</time>
      </trkpt>
      <trkpt lat="45.08399" lon="5.96957">
        <ele>2107</ele>
        <time>2018-02-23T11:28:17.000Z</time>
      </trkpt>
      <trkpt lat="45.08392" lon="5.96957">
        <ele>2106.5</ele>
        <time>2018-02-23T11:28:18.000Z</time>
      </trkpt>
      <trkpt lat="45.08389" lon="5.96957">
        <ele>2106.3</ele>
        <time>2018-02-23T11:28:19.000Z</time>
      </trkpt>
      <trkpt lat="45.08386" lon="5.96959">
        <ele>2106</ele>
        <time>2018-02-23T11:28:20.000Z</time>
      </trkpt>
      <trkpt lat="45.08384" lon="5.96962">
        <ele>2104.3</ele>
        <time>2018-02-23T11:28:21.000Z</time>
      </trkpt>
      <trkpt lat="45.08383" lon="5.96969">
        <ele>2102.7</ele>
        <time>2018-02-23T11:28:22.000Z</time>
      </trkpt>
      <trkpt lat="45.0838" lon="5.96973">
        <ele>2100.9</ele>
        <time>2018-02-23T11:28:23.000Z</time>
      </trkpt>
      <trkpt lat="45.08372" lon="5.96974">
        <ele>2098.9</ele>
        <time>2018-02-23T11:28:24.000Z</time>
      </trkpt>
      <trkpt lat="45.08364" lon="5.96976">
        <ele>2098.4</ele>
        <time>2018-02-23T11:28:25.000Z</time>
      </trkpt>
      <trkpt lat="45.08358" lon="5.96975">
        <ele>2098</ele>
        <time>2018-02-23T11:28:26.000Z</time>
      </trkpt>
      <trkpt lat="45.08352" lon="5.96975">
        <ele>2097.5</ele>
        <time>2018-02-23T11:28:27.000Z</time>
      </trkpt>
      <trkpt lat="45.08348" lon="5.96975">
        <ele>2097.4</ele>
        <time>2018-02-23T11:28:28.000Z</time>
      </trkpt>
      <trkpt lat="45.08343" lon="5.96973">
        <ele>2098.7</ele>
        <time>2018-02-23T11:28:30.000Z</time>
      </trkpt>
      <trkpt lat="45.0834" lon="5.9698">
        <ele>2095.1</ele>
        <time>2018-02-23T11:28:50.000Z</time>
      </trkpt>
      <trkpt lat="45.0834" lon="5.96982">
        <ele>2095.1</ele>
        <time>2018-02-23T11:29:01.000Z</time>
      </trkpt>
      <trkpt lat="45.0834" lon="5.96984">
        <ele>2093.5</ele>
        <time>2018-02-23T11:29:40.000Z</time>
      </trkpt>
      <trkpt lat="45.0834" lon="5.96986">
        <ele>2093.5</ele>
        <time>2018-02-23T11:29:41.000Z</time>
      </trkpt>
      <trkpt lat="45.0834" lon="5.9699">
        <ele>2092.3</ele>
        <time>2018-02-23T11:29:42.000Z</time>
      </trkpt>
      <trkpt lat="45.08338" lon="5.97">
        <ele>2088.8</ele>
        <time>2018-02-23T11:29:43.000Z</time>
      </trkpt>
      <trkpt lat="45.08339" lon="5.97011">
        <ele>2083.9</ele>
        <time>2018-02-23T11:29:44.000Z</time>
      </trkpt>
      <trkpt lat="45.08338" lon="5.9702">
        <ele>2080.7</ele>
        <time>2018-02-23T11:29:45.000Z</time>
      </trkpt>
      <trkpt lat="45.08335" lon="5.97031">
        <ele>2076</ele>
        <time>2018-02-23T11:29:46.000Z</time>
      </trkpt>
      <trkpt lat="45.08336" lon="5.97044">
        <ele>2071.8</ele>
        <time>2018-02-23T11:29:47.000Z</time>
      </trkpt>
      <trkpt lat="45.08338" lon="5.97058">
        <ele>2067.8</ele>
        <time>2018-02-23T11:29:48.000Z</time>
      </trkpt>
      <trkpt lat="45.0834" lon="5.9707">
        <ele>2064</ele>
        <time>2018-02-23T11:29:49.000Z</time>
      </trkpt>
      <trkpt lat="45.08344" lon="5.97078">
        <ele>2061.9</ele>
        <time>2018-02-23T11:29:50.000Z</time>
      </trkpt>
      <trkpt lat="45.08347" lon="5.97083">
        <ele>2061</ele>
        <time>2018-02-23T11:29:51.000Z</time>
      </trkpt>
      <trkpt lat="45.08349" lon="5.97089">
        <ele>2060.2</ele>
        <time>2018-02-23T11:29:52.000Z</time>
      </trkpt>
      <trkpt lat="45.08352" lon="5.97094">
        <ele>2058.1</ele>
        <time>2018-02-23T11:29:53.000Z</time>
      </trkpt>
      <trkpt lat="45.08355" lon="5.97101">
        <ele>2056.8</ele>
        <time>2018-02-23T11:29:54.000Z</time>
      </trkpt>
      <trkpt lat="45.08355" lon="5.97106">
        <ele>2056.1</ele>
        <time>2018-02-23T11:29:55.000Z</time>
      </trkpt>
      <trkpt lat="45.08356" lon="5.9711">
        <ele>2054.8</ele>
        <time>2018-02-23T11:29:58.000Z</time>
      </trkpt>
      <trkpt lat="45.08355" lon="5.97114">
        <ele>2053.2</ele>
        <time>2018-02-23T11:30:00.000Z</time>
      </trkpt>
      <trkpt lat="45.08357" lon="5.97117">
        <ele>2052.5</ele>
        <time>2018-02-23T11:30:03.000Z</time>
      </trkpt>
      <trkpt lat="45.08358" lon="5.97114">
        <ele>2054.1</ele>
        <time>2018-02-23T11:30:19.000Z</time>
      </trkpt>
      <trkpt lat="45.08358" lon="5.97121">
        <ele>2051.5</ele>
        <time>2018-02-23T11:30:28.000Z</time>
      </trkpt>
      <trkpt lat="45.08357" lon="5.97127">
        <ele>2050.4</ele>
        <time>2018-02-23T11:30:29.000Z</time>
      </trkpt>
      <trkpt lat="45.08351" lon="5.97133">
        <ele>2048.6</ele>
        <time>2018-02-23T11:30:30.000Z</time>
      </trkpt>
      <trkpt lat="45.08351" lon="5.9714">
        <ele>2046.2</ele>
        <time>2018-02-23T11:30:31.000Z</time>
      </trkpt>
      <trkpt lat="45.08352" lon="5.97148">
        <ele>2043.7</ele>
        <time>2018-02-23T11:30:32.000Z</time>
      </trkpt>
      <trkpt lat="45.08351" lon="5.97156">
        <ele>2041.2</ele>
        <time>2018-02-23T11:30:33.000Z</time>
      </trkpt>
      <trkpt lat="45.08349" lon="5.97162">
        <ele>2040.1</ele>
        <time>2018-02-23T11:30:34.000Z</time>
      </trkpt>
      <trkpt lat="45.08349" lon="5.97171">
        <ele>2037.6</ele>
        <time>2018-02-23T11:30:35.000Z</time>
      </trkpt>
      <trkpt lat="45.08346" lon="5.9718">
        <ele>2034.3</ele>
        <time>2018-02-23T11:30:36.000Z</time>
      </trkpt>
      <trkpt lat="45.08343" lon="5.97185">
        <ele>2032.5</ele>
        <time>2018-02-23T11:30:37.000Z</time>
      </trkpt>
      <trkpt lat="45.08339" lon="5.97187">
        <ele>2032.1</ele>
        <time>2018-02-23T11:30:38.000Z</time>
      </trkpt>
      <trkpt lat="45.08335" lon="5.97191">
        <ele>2030.4</ele>
        <time>2018-02-23T11:30:39.000Z</time>
      </trkpt>
      <trkpt lat="45.08332" lon="5.97193">
        <ele>2028.7</ele>
        <time>2018-02-23T11:30:40.000Z</time>
      </trkpt>
      <trkpt lat="45.08331" lon="5.97188">
        <ele>2031.2</ele>
        <time>2018-02-23T11:30:42.000Z</time>
      </trkpt>
      <trkpt lat="45.08328" lon="5.97189">
        <ele>2029.4</ele>
        <time>2018-02-23T11:31:16.000Z</time>
      </trkpt>
      <trkpt lat="45.08326" lon="5.97192">
        <ele>2028.9</ele>
        <time>2018-02-23T11:31:26.000Z</time>
      </trkpt>
      <trkpt lat="45.08327" lon="5.97196">
        <ele>2027.7</ele>
        <time>2018-02-23T11:31:35.000Z</time>
      </trkpt>
      <trkpt lat="45.08326" lon="5.972">
        <ele>2026.5</ele>
        <time>2018-02-23T11:31:39.000Z</time>
      </trkpt>
      <trkpt lat="45.08323" lon="5.97201">
        <ele>2026.1</ele>
        <time>2018-02-23T11:31:42.000Z</time>
      </trkpt>
      <trkpt lat="45.08322" lon="5.97206">
        <ele>2023.8</ele>
        <time>2018-02-23T11:31:46.000Z</time>
      </trkpt>
      <trkpt lat="45.08322" lon="5.9721">
        <ele>2022.3</ele>
        <time>2018-02-23T11:31:49.000Z</time>
      </trkpt>
      <trkpt lat="45.08322" lon="5.97215">
        <ele>2021.6</ele>
        <time>2018-02-23T11:31:53.000Z</time>
      </trkpt>
      <trkpt lat="45.08323" lon="5.97219">
        <ele>2021.6</ele>
        <time>2018-02-23T11:31:57.000Z</time>
      </trkpt>
      <trkpt lat="45.08323" lon="5.97222">
        <ele>2020.4</ele>
        <time>2018-02-23T11:32:01.000Z</time>
      </trkpt>
      <trkpt lat="45.08321" lon="5.97225">
        <ele>2018.6</ele>
        <time>2018-02-23T11:32:14.000Z</time>
      </trkpt>
      <trkpt lat="45.0832" lon="5.9723">
        <ele>2017.2</ele>
        <time>2018-02-23T11:32:18.000Z</time>
      </trkpt>
      <trkpt lat="45.08319" lon="5.97234">
        <ele>2015.7</ele>
        <time>2018-02-23T11:32:22.000Z</time>
      </trkpt>
      <trkpt lat="45.08319" lon="5.97239">
        <ele>2014.2</ele>
        <time>2018-02-23T11:32:26.000Z</time>
      </trkpt>
      <trkpt lat="45.08318" lon="5.97243">
        <ele>2012.2</ele>
        <time>2018-02-23T11:32:41.000Z</time>
      </trkpt>
      <trkpt lat="45.08315" lon="5.97244">
        <ele>2010.1</ele>
        <time>2018-02-23T11:32:47.000Z</time>
      </trkpt>
      <trkpt lat="45.08316" lon="5.9724">
        <ele>2013.7</ele>
        <time>2018-02-23T11:33:14.000Z</time>
      </trkpt>
      <trkpt lat="45.08318" lon="5.97237">
        <ele>2013.7</ele>
        <time>2018-02-23T11:33:20.000Z</time>
      </trkpt>
      <trkpt lat="45.08318" lon="5.97234">
        <ele>2015.3</ele>
        <time>2018-02-23T11:33:30.000Z</time>
      </trkpt>
      <trkpt lat="45.08318" lon="5.9723">
        <ele>2016.8</ele>
        <time>2018-02-23T11:33:38.000Z</time>
      </trkpt>
      <trkpt lat="45.08321" lon="5.97226">
        <ele>2018.6</ele>
        <time>2018-02-23T11:33:45.000Z</time>
      </trkpt>
      <trkpt lat="45.08324" lon="5.97225">
        <ele>2019</ele>
        <time>2018-02-23T11:33:52.000Z</time>
      </trkpt>
      <trkpt lat="45.08326" lon="5.97222">
        <ele>2020.8</ele>
        <time>2018-02-23T11:34:13.000Z</time>
      </trkpt>
      <trkpt lat="45.08328" lon="5.97219">
        <ele>2020.8</ele>
        <time>2018-02-23T11:34:20.000Z</time>
      </trkpt>
      <trkpt lat="45.08329" lon="5.97215">
        <ele>2022.5</ele>
        <time>2018-02-23T11:34:30.000Z</time>
      </trkpt>
      <trkpt lat="45.08328" lon="5.97211">
        <ele>2023.6</ele>
        <time>2018-02-23T11:34:37.000Z</time>
      </trkpt>
      <trkpt lat="45.08326" lon="5.97207">
        <ele>2024.3</ele>
        <time>2018-02-23T11:34:57.000Z</time>
      </trkpt>
      <trkpt lat="45.08324" lon="5.97204">
        <ele>2024.9</ele>
        <time>2018-02-23T11:35:02.000Z</time>
      </trkpt>
      <trkpt lat="45.08326" lon="5.97201">
        <ele>2026.5</ele>
        <time>2018-02-23T11:35:10.000Z</time>
      </trkpt>
      <trkpt lat="45.08326" lon="5.97197">
        <ele>2027.7</ele>
        <time>2018-02-23T11:35:14.000Z</time>
      </trkpt>
      <trkpt lat="45.08329" lon="5.97193">
        <ele>2028.2</ele>
        <time>2018-02-23T11:35:21.000Z</time>
      </trkpt>
      <trkpt lat="45.08331" lon="5.9719">
        <ele>2030</ele>
        <time>2018-02-23T11:35:30.000Z</time>
      </trkpt>
      <trkpt lat="45.08329" lon="5.97187">
        <ele>2030.6</ele>
        <time>2018-02-23T11:36:25.000Z</time>
      </trkpt>
      <trkpt lat="45.08328" lon="5.97183">
        <ele>2031.2</ele>
        <time>2018-02-23T11:37:59.000Z</time>
      </trkpt>
      <trkpt lat="45.08328" lon="5.97179">
        <ele>2032.3</ele>
        <time>2018-02-23T11:38:04.000Z</time>
      </trkpt>
      <trkpt lat="45.08327" lon="5.97173">
        <ele>2033.3</ele>
        <time>2018-02-23T11:38:06.000Z</time>
      </trkpt>
      <trkpt lat="45.08326" lon="5.97166">
        <ele>2035.4</ele>
        <time>2018-02-23T11:38:07.000Z</time>
      </trkpt>
      <trkpt lat="45.08326" lon="5.97159">
        <ele>2036.4</ele>
        <time>2018-02-23T11:38:08.000Z</time>
      </trkpt>
      <trkpt lat="45.08325" lon="5.97155">
        <ele>2036.9</ele>
        <time>2018-02-23T11:38:09.000Z</time>
      </trkpt>
      <trkpt lat="45.08324" lon="5.97152">
        <ele>2038</ele>
        <time>2018-02-23T11:38:10.000Z</time>
      </trkpt>
      <trkpt lat="45.08321" lon="5.97149">
        <ele>2038.6</ele>
        <time>2018-02-23T11:38:13.000Z</time>
      </trkpt>
      <trkpt lat="45.08316" lon="5.97148">
        <ele>2038</ele>
        <time>2018-02-23T11:38:16.000Z</time>
      </trkpt>
      <trkpt lat="45.08314" lon="5.97151">
        <ele>2036.2</ele>
        <time>2018-02-23T11:38:18.000Z</time>
      </trkpt>
      <trkpt lat="45.08312" lon="5.97158">
        <ele>2034.4</ele>
        <time>2018-02-23T11:38:21.000Z</time>
      </trkpt>
      <trkpt lat="45.08309" lon="5.97162">
        <ele>2032.6</ele>
        <time>2018-02-23T11:38:23.000Z</time>
      </trkpt>
      <trkpt lat="45.08306" lon="5.97164">
        <ele>2030.7</ele>
        <time>2018-02-23T11:38:26.000Z</time>
      </trkpt>
      <trkpt lat="45.08303" lon="5.97158">
        <ele>2031.9</ele>
        <time>2018-02-23T11:38:28.000Z</time>
      </trkpt>
      <trkpt lat="45.083" lon="5.97155">
        <ele>2031</ele>
        <time>2018-02-23T11:38:30.000Z</time>
      </trkpt>
      <trkpt lat="45.08296" lon="5.9716">
        <ele>2029</ele>
        <time>2018-02-23T11:38:32.000Z</time>
      </trkpt>
      <trkpt lat="45.08294" lon="5.97165">
        <ele>2027.1</ele>
        <time>2018-02-23T11:38:33.000Z</time>
      </trkpt>
      <trkpt lat="45.08292" lon="5.97169">
        <ele>2026.1</ele>
        <time>2018-02-23T11:38:34.000Z</time>
      </trkpt>
      <trkpt lat="45.0829" lon="5.97174">
        <ele>2024.1</ele>
        <time>2018-02-23T11:38:35.000Z</time>
      </trkpt>
      <trkpt lat="45.08289" lon="5.97179">
        <ele>2023.1</ele>
        <time>2018-02-23T11:38:36.000Z</time>
      </trkpt>
      <trkpt lat="45.08287" lon="5.97183">
        <ele>2021.1</ele>
        <time>2018-02-23T11:38:37.000Z</time>
      </trkpt>
      <trkpt lat="45.08287" lon="5.97188">
        <ele>2020</ele>
        <time>2018-02-23T11:38:38.000Z</time>
      </trkpt>
      <trkpt lat="45.08286" lon="5.97193">
        <ele>2017.7</ele>
        <time>2018-02-23T11:38:39.000Z</time>
      </trkpt>
      <trkpt lat="45.08285" lon="5.97198">
        <ele>2015.5</ele>
        <time>2018-02-23T11:38:40.000Z</time>
      </trkpt>
      <trkpt lat="45.08284" lon="5.97203">
        <ele>2014.4</ele>
        <time>2018-02-23T11:38:41.000Z</time>
      </trkpt>
      <trkpt lat="45.08282" lon="5.97209">
        <ele>2012.3</ele>
        <time>2018-02-23T11:38:42.000Z</time>
      </trkpt>
      <trkpt lat="45.08282" lon="5.97214">
        <ele>2011.3</ele>
        <time>2018-02-23T11:38:43.000Z</time>
      </trkpt>
      <trkpt lat="45.0828" lon="5.97221">
        <ele>2009.2</ele>
        <time>2018-02-23T11:38:45.000Z</time>
      </trkpt>
      <trkpt lat="45.0828" lon="5.97228">
        <ele>2006.8</ele>
        <time>2018-02-23T11:38:47.000Z</time>
      </trkpt>
      <trkpt lat="45.08278" lon="5.97234">
        <ele>2004.3</ele>
        <time>2018-02-23T11:38:50.000Z</time>
      </trkpt>
      <trkpt lat="45.08278" lon="5.97238">
        <ele>2003</ele>
        <time>2018-02-23T11:38:52.000Z</time>
      </trkpt>
      <trkpt lat="45.08276" lon="5.97241">
        <ele>2000.4</ele>
        <time>2018-02-23T11:38:59.000Z</time>
      </trkpt>
      <trkpt lat="45.08277" lon="5.97245">
        <ele>2000.2</ele>
        <time>2018-02-23T11:39:03.000Z</time>
      </trkpt>
      <trkpt lat="45.08279" lon="5.97248">
        <ele>2001.4</ele>
        <time>2018-02-23T11:39:06.000Z</time>
      </trkpt>
      <trkpt lat="45.08281" lon="5.97253">
        <ele>1998.6</ele>
        <time>2018-02-23T11:39:08.000Z</time>
      </trkpt>
      <trkpt lat="45.08282" lon="5.97257">
        <ele>1998.6</ele>
        <time>2018-02-23T11:39:10.000Z</time>
      </trkpt>
      <trkpt lat="45.0828" lon="5.97261">
        <ele>1997.1</ele>
        <time>2018-02-23T11:39:12.000Z</time>
      </trkpt>
      <trkpt lat="45.08279" lon="5.97266">
        <ele>1994.5</ele>
        <time>2018-02-23T11:39:17.000Z</time>
      </trkpt>
      <trkpt lat="45.0828" lon="5.9727">
        <ele>1994</ele>
        <time>2018-02-23T11:39:20.000Z</time>
      </trkpt>
      <trkpt lat="45.0828" lon="5.97276">
        <ele>1990.3</ele>
        <time>2018-02-23T11:39:22.000Z</time>
      </trkpt>
      <trkpt lat="45.08282" lon="5.9728">
        <ele>1988.3</ele>
        <time>2018-02-23T11:39:24.000Z</time>
      </trkpt>
      <trkpt lat="45.08284" lon="5.97287">
        <ele>1987.3</ele>
        <time>2018-02-23T11:39:27.000Z</time>
      </trkpt>
      <trkpt lat="45.08285" lon="5.97292">
        <ele>1983.3</ele>
        <time>2018-02-23T11:39:29.000Z</time>
      </trkpt>
      <trkpt lat="45.08284" lon="5.97296">
        <ele>1981.3</ele>
        <time>2018-02-23T11:39:35.000Z</time>
      </trkpt>
      <trkpt lat="45.08286" lon="5.973">
        <ele>1980.3</ele>
        <time>2018-02-23T11:39:39.000Z</time>
      </trkpt>
      <trkpt lat="45.08289" lon="5.97305">
        <ele>1979.2</ele>
        <time>2018-02-23T11:39:41.000Z</time>
      </trkpt>
      <trkpt lat="45.0829" lon="5.9731">
        <ele>1977.2</ele>
        <time>2018-02-23T11:39:43.000Z</time>
      </trkpt>
      <trkpt lat="45.08292" lon="5.97316">
        <ele>1976</ele>
        <time>2018-02-23T11:39:45.000Z</time>
      </trkpt>
      <trkpt lat="45.08293" lon="5.97321">
        <ele>1973.8</ele>
        <time>2018-02-23T11:39:48.000Z</time>
      </trkpt>
      <trkpt lat="45.08296" lon="5.97325">
        <ele>1972.4</ele>
        <time>2018-02-23T11:39:52.000Z</time>
      </trkpt>
      <trkpt lat="45.08298" lon="5.97327">
        <ele>1970.9</ele>
        <time>2018-02-23T11:39:54.000Z</time>
      </trkpt>
      <trkpt lat="45.08302" lon="5.97329">
        <ele>1971.5</ele>
        <time>2018-02-23T11:39:56.000Z</time>
      </trkpt>
      <trkpt lat="45.08305" lon="5.9733">
        <ele>1972.2</ele>
        <time>2018-02-23T11:39:57.000Z</time>
      </trkpt>
      <trkpt lat="45.08309" lon="5.97332">
        <ele>1970.5</ele>
        <time>2018-02-23T11:39:58.000Z</time>
      </trkpt>
      <trkpt lat="45.08313" lon="5.97334">
        <ele>1971.1</ele>
        <time>2018-02-23T11:39:59.000Z</time>
      </trkpt>
      <trkpt lat="45.08316" lon="5.97336">
        <ele>1970</ele>
        <time>2018-02-23T11:40:01.000Z</time>
      </trkpt>
      <trkpt lat="45.08318" lon="5.97339">
        <ele>1967.9</ele>
        <time>2018-02-23T11:40:03.000Z</time>
      </trkpt>
      <trkpt lat="45.08321" lon="5.97342">
        <ele>1968.5</ele>
        <time>2018-02-23T11:40:05.000Z</time>
      </trkpt>
      <trkpt lat="45.08323" lon="5.97346">
        <ele>1967</ele>
        <time>2018-02-23T11:40:09.000Z</time>
      </trkpt>
      <trkpt lat="45.08326" lon="5.97349">
        <ele>1965.6</ele>
        <time>2018-02-23T11:40:11.000Z</time>
      </trkpt>
      <trkpt lat="45.08325" lon="5.97358">
        <ele>1961.4</ele>
        <time>2018-02-23T11:40:14.000Z</time>
      </trkpt>
      <trkpt lat="45.0832" lon="5.97365">
        <ele>1955.7</ele>
        <time>2018-02-23T11:40:15.000Z</time>
      </trkpt>
      <trkpt lat="45.08312" lon="5.97364">
        <ele>1956.3</ele>
        <time>2018-02-23T11:40:16.000Z</time>
      </trkpt>
      <trkpt lat="45.08309" lon="5.97365">
        <ele>1953.4</ele>
        <time>2018-02-23T11:40:17.000Z</time>
      </trkpt>
      <trkpt lat="45.08307" lon="5.97367">
        <ele>1952.7</ele>
        <time>2018-02-23T11:40:20.000Z</time>
      </trkpt>
      <trkpt lat="45.08304" lon="5.97371">
        <ele>1950.3</ele>
        <time>2018-02-23T11:40:21.000Z</time>
      </trkpt>
      <trkpt lat="45.08305" lon="5.97376">
        <ele>1948</ele>
        <time>2018-02-23T11:40:22.000Z</time>
      </trkpt>
      <trkpt lat="45.08306" lon="5.9738">
        <ele>1945.8</ele>
        <time>2018-02-23T11:40:23.000Z</time>
      </trkpt>
      <trkpt lat="45.0831" lon="5.97386">
        <ele>1942.8</ele>
        <time>2018-02-23T11:40:25.000Z</time>
      </trkpt>
      <trkpt lat="45.08311" lon="5.97392">
        <ele>1940.8</ele>
        <time>2018-02-23T11:40:26.000Z</time>
      </trkpt>
      <trkpt lat="45.08311" lon="5.97397">
        <ele>1938.8</ele>
        <time>2018-02-23T11:40:27.000Z</time>
      </trkpt>
      <trkpt lat="45.08308" lon="5.97398">
        <ele>1938.1</ele>
        <time>2018-02-23T11:40:28.000Z</time>
      </trkpt>
      <trkpt lat="45.08305" lon="5.97399">
        <ele>1935.5</ele>
        <time>2018-02-23T11:40:30.000Z</time>
      </trkpt>
      <trkpt lat="45.08301" lon="5.97398">
        <ele>1936.8</ele>
        <time>2018-02-23T11:40:32.000Z</time>
      </trkpt>
      <trkpt lat="45.083" lon="5.97405">
        <ele>1932.2</ele>
        <time>2018-02-23T11:40:33.000Z</time>
      </trkpt>
      <trkpt lat="45.083" lon="5.9741">
        <ele>1930.2</ele>
        <time>2018-02-23T11:40:34.000Z</time>
      </trkpt>
      <trkpt lat="45.08302" lon="5.97415">
        <ele>1928.8</ele>
        <time>2018-02-23T11:40:35.000Z</time>
      </trkpt>
      <trkpt lat="45.08302" lon="5.97419">
        <ele>1926.8</ele>
        <time>2018-02-23T11:40:36.000Z</time>
      </trkpt>
      <trkpt lat="45.08298" lon="5.97421">
        <ele>1924.1</ele>
        <time>2018-02-23T11:40:38.000Z</time>
      </trkpt>
      <trkpt lat="45.08295" lon="5.97421">
        <ele>1923.5</ele>
        <time>2018-02-23T11:40:41.000Z</time>
      </trkpt>
      <trkpt lat="45.08292" lon="5.9742">
        <ele>1922.8</ele>
        <time>2018-02-23T11:40:55.000Z</time>
      </trkpt>
      <trkpt lat="45.08289" lon="5.97419">
        <ele>1924.1</ele>
        <time>2018-02-23T11:40:59.000Z</time>
      </trkpt>
      <trkpt lat="45.08285" lon="5.9742">
        <ele>1922.6</ele>
        <time>2018-02-23T11:41:01.000Z</time>
      </trkpt>
      <trkpt lat="45.08282" lon="5.9742">
        <ele>1921.8</ele>
        <time>2018-02-23T11:41:02.000Z</time>
      </trkpt>
      <trkpt lat="45.08279" lon="5.9742">
        <ele>1920.9</ele>
        <time>2018-02-23T11:41:03.000Z</time>
      </trkpt>
      <trkpt lat="45.08274" lon="5.97419">
        <ele>1920</ele>
        <time>2018-02-23T11:41:05.000Z</time>
      </trkpt>
      <trkpt lat="45.08269" lon="5.9742">
        <ele>1918.3</ele>
        <time>2018-02-23T11:41:07.000Z</time>
      </trkpt>
      <trkpt lat="45.08266" lon="5.9742">
        <ele>1917.6</ele>
        <time>2018-02-23T11:41:08.000Z</time>
      </trkpt>
      <trkpt lat="45.08261" lon="5.97421">
        <ele>1915</ele>
        <time>2018-02-23T11:41:10.000Z</time>
      </trkpt>
      <trkpt lat="45.08257" lon="5.97422">
        <ele>1913.7</ele>
        <time>2018-02-23T11:41:12.000Z</time>
      </trkpt>
      <trkpt lat="45.08254" lon="5.97421">
        <ele>1913.1</ele>
        <time>2018-02-23T11:41:13.000Z</time>
      </trkpt>
      <trkpt lat="45.08251" lon="5.97421">
        <ele>1912.4</ele>
        <time>2018-02-23T11:41:14.000Z</time>
      </trkpt>
      <trkpt lat="45.08247" lon="5.9742">
        <ele>1913.5</ele>
        <time>2018-02-23T11:41:15.000Z</time>
      </trkpt>
      <trkpt lat="45.08243" lon="5.97417">
        <ele>1912.8</ele>
        <time>2018-02-23T11:41:16.000Z</time>
      </trkpt>
      <trkpt lat="45.08239" lon="5.97417">
        <ele>1911.6</ele>
        <time>2018-02-23T11:41:18.000Z</time>
      </trkpt>
      <trkpt lat="45.08236" lon="5.97415">
        <ele>1912.8</ele>
        <time>2018-02-23T11:41:20.000Z</time>
      </trkpt>
      <trkpt lat="45.08233" lon="5.97414">
        <ele>1912.3</ele>
        <time>2018-02-23T11:41:27.000Z</time>
      </trkpt>
      <trkpt lat="45.0823" lon="5.97412">
        <ele>1911.7</ele>
        <time>2018-02-23T11:41:33.000Z</time>
      </trkpt>
      <trkpt lat="45.08227" lon="5.97411">
        <ele>1912.8</ele>
        <time>2018-02-23T11:41:41.000Z</time>
      </trkpt>
      <trkpt lat="45.08227" lon="5.97407">
        <ele>1914.4</ele>
        <time>2018-02-23T11:41:45.000Z</time>
      </trkpt>
      <trkpt lat="45.08226" lon="5.97404">
        <ele>1914.4</ele>
        <time>2018-02-23T11:41:52.000Z</time>
      </trkpt>
      <trkpt lat="45.08224" lon="5.97401">
        <ele>1915.3</ele>
        <time>2018-02-23T11:42:07.000Z</time>
      </trkpt>
      <trkpt lat="45.0822" lon="5.97402">
        <ele>1914.6</ele>
        <time>2018-02-23T11:42:13.000Z</time>
      </trkpt>
      <trkpt lat="45.08218" lon="5.97399">
        <ele>1915.5</ele>
        <time>2018-02-23T11:42:27.000Z</time>
      </trkpt>
      <trkpt lat="45.08216" lon="5.97396">
        <ele>1915.5</ele>
        <time>2018-02-23T11:42:36.000Z</time>
      </trkpt>
      <trkpt lat="45.08215" lon="5.97392">
        <ele>1916.4</ele>
        <time>2018-02-23T11:42:55.000Z</time>
      </trkpt>
      <trkpt lat="45.08213" lon="5.97389">
        <ele>1917.9</ele>
        <time>2018-02-23T11:43:03.000Z</time>
      </trkpt>
      <trkpt lat="45.08212" lon="5.97385">
        <ele>1918.9</ele>
        <time>2018-02-23T11:43:14.000Z</time>
      </trkpt>
      <trkpt lat="45.08209" lon="5.97383">
        <ele>1918.4</ele>
        <time>2018-02-23T11:43:18.000Z</time>
      </trkpt>
      <trkpt lat="45.08207" lon="5.9738">
        <ele>1919.4</ele>
        <time>2018-02-23T11:43:24.000Z</time>
      </trkpt>
      <trkpt lat="45.08204" lon="5.97377">
        <ele>1921.1</ele>
        <time>2018-02-23T11:43:31.000Z</time>
      </trkpt>
      <trkpt lat="45.08202" lon="5.97373">
        <ele>1922.2</ele>
        <time>2018-02-23T11:43:36.000Z</time>
      </trkpt>
      <trkpt lat="45.08199" lon="5.97372">
        <ele>1921.5</ele>
        <time>2018-02-23T11:43:50.000Z</time>
      </trkpt>
      <trkpt lat="45.08197" lon="5.9737">
        <ele>1920.7</ele>
        <time>2018-02-23T11:43:51.000Z</time>
      </trkpt>
      <trkpt lat="45.08194" lon="5.97367">
        <ele>1921.6</ele>
        <time>2018-02-23T11:43:52.000Z</time>
      </trkpt>
      <trkpt lat="45.08191" lon="5.97364">
        <ele>1922.4</ele>
        <time>2018-02-23T11:43:53.000Z</time>
      </trkpt>
      <trkpt lat="45.08188" lon="5.97362">
        <ele>1921.5</ele>
        <time>2018-02-23T11:43:55.000Z</time>
      </trkpt>
      <trkpt lat="45.08186" lon="5.97359">
        <ele>1923.1</ele>
        <time>2018-02-23T11:44:19.000Z</time>
      </trkpt>
      <trkpt lat="45.08183" lon="5.9736">
        <ele>1920.5</ele>
        <time>2018-02-23T11:44:31.000Z</time>
      </trkpt>
      <trkpt lat="45.08182" lon="5.97356">
        <ele>1921.2</ele>
        <time>2018-02-23T11:44:42.000Z</time>
      </trkpt>
      <trkpt lat="45.0818" lon="5.97355">
        <ele>1922.7</ele>
        <time>2018-02-23T11:44:52.000Z</time>
      </trkpt>
      <trkpt lat="45.08182" lon="5.97355">
        <ele>1922.7</ele>
        <time>2018-02-23T11:45:27.000Z</time>
      </trkpt>
      <trkpt lat="45.08182" lon="5.97352">
        <ele>1924.2</ele>
        <time>2018-02-23T11:46:01.000Z</time>
      </trkpt>
      <trkpt lat="45.08181" lon="5.97348">
        <ele>1924.2</ele>
        <time>2018-02-23T11:46:05.000Z</time>
      </trkpt>
      <trkpt lat="45.0818" lon="5.97343">
        <ele>1927.2</ele>
        <time>2018-02-23T11:46:06.000Z</time>
      </trkpt>
      <trkpt lat="45.08179" lon="5.97339">
        <ele>1926.1</ele>
        <time>2018-02-23T11:46:07.000Z</time>
      </trkpt>
      <trkpt lat="45.08176" lon="5.97336">
        <ele>1926.6</ele>
        <time>2018-02-23T11:46:09.000Z</time>
      </trkpt>
      <trkpt lat="45.08173" lon="5.97335">
        <ele>1925.5</ele>
        <time>2018-02-23T11:46:12.000Z</time>
      </trkpt>
      <trkpt lat="45.08169" lon="5.97336">
        <ele>1924.2</ele>
        <time>2018-02-23T11:46:14.000Z</time>
      </trkpt>
      <trkpt lat="45.08166" lon="5.97336">
        <ele>1922.8</ele>
        <time>2018-02-23T11:46:17.000Z</time>
      </trkpt>
      <trkpt lat="45.08166" lon="5.9734">
        <ele>1921.3</ele>
        <time>2018-02-23T11:46:54.000Z</time>
      </trkpt>
      <trkpt lat="45.08163" lon="5.97341">
        <ele>1919.9</ele>
        <time>2018-02-23T11:46:59.000Z</time>
      </trkpt>
      <trkpt lat="45.08161" lon="5.97339">
        <ele>1918.5</ele>
        <time>2018-02-23T11:47:30.000Z</time>
      </trkpt>
      <trkpt lat="45.08159" lon="5.97343">
        <ele>1918.5</ele>
        <time>2018-02-23T11:47:34.000Z</time>
      </trkpt>
      <trkpt lat="45.08156" lon="5.97344">
        <ele>1915.8</ele>
        <time>2018-02-23T11:47:36.000Z</time>
      </trkpt>
      <trkpt lat="45.08153" lon="5.97343">
        <ele>1915.7</ele>
        <time>2018-02-23T11:47:37.000Z</time>
      </trkpt>
      <trkpt lat="45.0815" lon="5.97342">
        <ele>1914.4</ele>
        <time>2018-02-23T11:47:38.000Z</time>
      </trkpt>
      <trkpt lat="45.08145" lon="5.9734">
        <ele>1911.6</ele>
        <time>2018-02-23T11:47:40.000Z</time>
      </trkpt>
      <trkpt lat="45.08143" lon="5.9734">
        <ele>1910</ele>
        <time>2018-02-23T11:47:42.000Z</time>
      </trkpt>
      <trkpt lat="45.0814" lon="5.9734">
        <ele>1908.3</ele>
        <time>2018-02-23T11:47:44.000Z</time>
      </trkpt>
      <trkpt lat="45.08137" lon="5.97341">
        <ele>1906.7</ele>
        <time>2018-02-23T11:47:47.000Z</time>
      </trkpt>
      <trkpt lat="45.08134" lon="5.97341">
        <ele>1905.1</ele>
        <time>2018-02-23T11:47:49.000Z</time>
      </trkpt>
      <trkpt lat="45.08129" lon="5.97345">
        <ele>1902.4</ele>
        <time>2018-02-23T11:47:51.000Z</time>
      </trkpt>
      <trkpt lat="45.08126" lon="5.97348">
        <ele>1899</ele>
        <time>2018-02-23T11:47:52.000Z</time>
      </trkpt>
      <trkpt lat="45.08123" lon="5.97352">
        <ele>1897.6</ele>
        <time>2018-02-23T11:48:05.000Z</time>
      </trkpt>
      <trkpt lat="45.08125" lon="5.97348">
        <ele>1899</ele>
        <time>2018-02-23T11:48:14.000Z</time>
      </trkpt>
      <trkpt lat="45.08123" lon="5.97351">
        <ele>1897.6</ele>
        <time>2018-02-23T11:48:50.000Z</time>
      </trkpt>
      <trkpt lat="45.08125" lon="5.97348">
        <ele>1899</ele>
        <time>2018-02-23T11:48:52.000Z</time>
      </trkpt>
      <trkpt lat="45.08126" lon="5.97343">
        <ele>1901.4</ele>
        <time>2018-02-23T11:49:04.000Z</time>
      </trkpt>
      <trkpt lat="45.08124" lon="5.97345">
        <ele>1898.8</ele>
        <time>2018-02-23T11:50:09.000Z</time>
      </trkpt>
      <trkpt lat="45.08122" lon="5.97349">
        <ele>1897.6</ele>
        <time>2018-02-23T11:50:25.000Z</time>
      </trkpt>
      <trkpt lat="45.08119" lon="5.97352">
        <ele>1895</ele>
        <time>2018-02-23T11:50:42.000Z</time>
      </trkpt>
      <trkpt lat="45.08114" lon="5.97348">
        <ele>1893.4</ele>
        <time>2018-02-23T11:50:44.000Z</time>
      </trkpt>
      <trkpt lat="45.08113" lon="5.97341">
        <ele>1894.3</ele>
        <time>2018-02-23T11:50:45.000Z</time>
      </trkpt>
      <trkpt lat="45.08111" lon="5.97338">
        <ele>1895.6</ele>
        <time>2018-02-23T11:50:46.000Z</time>
      </trkpt>
      <trkpt lat="45.08108" lon="5.97334">
        <ele>1895.5</ele>
        <time>2018-02-23T11:50:47.000Z</time>
      </trkpt>
      <trkpt lat="45.08105" lon="5.97329">
        <ele>1895.6</ele>
        <time>2018-02-23T11:50:48.000Z</time>
      </trkpt>
      <trkpt lat="45.08102" lon="5.97325">
        <ele>1895.8</ele>
        <time>2018-02-23T11:50:49.000Z</time>
      </trkpt>
      <trkpt lat="45.08099" lon="5.97322">
        <ele>1894.6</ele>
        <time>2018-02-23T11:50:50.000Z</time>
      </trkpt>
      <trkpt lat="45.08096" lon="5.97319">
        <ele>1894.8</ele>
        <time>2018-02-23T11:50:51.000Z</time>
      </trkpt>
      <trkpt lat="45.08092" lon="5.97315">
        <ele>1895.1</ele>
        <time>2018-02-23T11:50:52.000Z</time>
      </trkpt>
      <trkpt lat="45.08087" lon="5.97311">
        <ele>1894.3</ele>
        <time>2018-02-23T11:50:53.000Z</time>
      </trkpt>
      <trkpt lat="45.08082" lon="5.97308">
        <ele>1893.5</ele>
        <time>2018-02-23T11:50:54.000Z</time>
      </trkpt>
      <trkpt lat="45.08076" lon="5.97305">
        <ele>1891.5</ele>
        <time>2018-02-23T11:50:55.000Z</time>
      </trkpt>
      <trkpt lat="45.08071" lon="5.97303">
        <ele>1892.1</ele>
        <time>2018-02-23T11:50:56.000Z</time>
      </trkpt>
      <trkpt lat="45.08068" lon="5.97303">
        <ele>1891.4</ele>
        <time>2018-02-23T11:50:57.000Z</time>
      </trkpt>
      <trkpt lat="45.08065" lon="5.97302">
        <ele>1890.7</ele>
        <time>2018-02-23T11:50:58.000Z</time>
      </trkpt>
      <trkpt lat="45.08067" lon="5.97308">
        <ele>1889.1</ele>
        <time>2018-02-23T11:51:25.000Z</time>
      </trkpt>
      <trkpt lat="45.08068" lon="5.97311">
        <ele>1888.3</ele>
        <time>2018-02-23T11:51:27.000Z</time>
      </trkpt>
      <trkpt lat="45.0807" lon="5.97316">
        <ele>1886.8</ele>
        <time>2018-02-23T11:51:30.000Z</time>
      </trkpt>
      <trkpt lat="45.08067" lon="5.97319">
        <ele>1884.5</ele>
        <time>2018-02-23T11:51:35.000Z</time>
      </trkpt>
      <trkpt lat="45.08063" lon="5.97319">
        <ele>1883.7</ele>
        <time>2018-02-23T11:51:38.000Z</time>
      </trkpt>
      <trkpt lat="45.0806" lon="5.97321">
        <ele>1882.8</ele>
        <time>2018-02-23T11:51:42.000Z</time>
      </trkpt>
      <trkpt lat="45.08057" lon="5.97321">
        <ele>1881.9</ele>
        <time>2018-02-23T11:51:45.000Z</time>
      </trkpt>
      <trkpt lat="45.08054" lon="5.97321">
        <ele>1880.9</ele>
        <time>2018-02-23T11:51:52.000Z</time>
      </trkpt>
      <trkpt lat="45.08051" lon="5.97322">
        <ele>1880.1</ele>
        <time>2018-02-23T11:52:04.000Z</time>
      </trkpt>
      <trkpt lat="45.08047" lon="5.97319">
        <ele>1879.3</ele>
        <time>2018-02-23T11:52:07.000Z</time>
      </trkpt>
      <trkpt lat="45.08043" lon="5.97315">
        <ele>1880.4</ele>
        <time>2018-02-23T11:52:08.000Z</time>
      </trkpt>
      <trkpt lat="45.08041" lon="5.97314">
        <ele>1879.8</ele>
        <time>2018-02-23T11:52:10.000Z</time>
      </trkpt>
      <trkpt lat="45.08036" lon="5.97312">
        <ele>1880.5</ele>
        <time>2018-02-23T11:52:26.000Z</time>
      </trkpt>
      <trkpt lat="45.08033" lon="5.97311">
        <ele>1879.9</ele>
        <time>2018-02-23T11:52:28.000Z</time>
      </trkpt>
      <trkpt lat="45.08028" lon="5.97309">
        <ele>1879.3</ele>
        <time>2018-02-23T11:52:31.000Z</time>
      </trkpt>
      <trkpt lat="45.08024" lon="5.9731">
        <ele>1878.1</ele>
        <time>2018-02-23T11:52:34.000Z</time>
      </trkpt>
      <trkpt lat="45.08024" lon="5.97315">
        <ele>1876.1</ele>
        <time>2018-02-23T11:52:35.000Z</time>
      </trkpt>
      <trkpt lat="45.08026" lon="5.97318">
        <ele>1874.7</ele>
        <time>2018-02-23T11:52:36.000Z</time>
      </trkpt>
      <trkpt lat="45.08029" lon="5.97323">
        <ele>1873.4</ele>
        <time>2018-02-23T11:52:38.000Z</time>
      </trkpt>
      <trkpt lat="45.08031" lon="5.97328">
        <ele>1872.2</ele>
        <time>2018-02-23T11:52:40.000Z</time>
      </trkpt>
      <trkpt lat="45.08033" lon="5.97333">
        <ele>1870.3</ele>
        <time>2018-02-23T11:52:41.000Z</time>
      </trkpt>
      <trkpt lat="45.08036" lon="5.97336">
        <ele>1869.4</ele>
        <time>2018-02-23T11:52:42.000Z</time>
      </trkpt>
      <trkpt lat="45.0804" lon="5.97336">
        <ele>1870.1</ele>
        <time>2018-02-23T11:52:43.000Z</time>
      </trkpt>
      <trkpt lat="45.08043" lon="5.97338">
        <ele>1871.6</ele>
        <time>2018-02-23T11:52:44.000Z</time>
      </trkpt>
      <trkpt lat="45.08046" lon="5.97343">
        <ele>1870</ele>
        <time>2018-02-23T11:52:45.000Z</time>
      </trkpt>
      <trkpt lat="45.08048" lon="5.97347">
        <ele>1869.5</ele>
        <time>2018-02-23T11:52:46.000Z</time>
      </trkpt>
      <trkpt lat="45.0805" lon="5.9735">
        <ele>1869.1</ele>
        <time>2018-02-23T11:52:48.000Z</time>
      </trkpt>
      <trkpt lat="45.08051" lon="5.97354">
        <ele>1867.7</ele>
        <time>2018-02-23T11:52:52.000Z</time>
      </trkpt>
      <trkpt lat="45.0805" lon="5.97359">
        <ele>1866.3</ele>
        <time>2018-02-23T11:52:53.000Z</time>
      </trkpt>
      <trkpt lat="45.08046" lon="5.97358">
        <ele>1864.4</ele>
        <time>2018-02-23T11:52:55.000Z</time>
      </trkpt>
      <trkpt lat="45.08044" lon="5.9736">
        <ele>1864.4</ele>
        <time>2018-02-23T11:52:56.000Z</time>
      </trkpt>
      <trkpt lat="45.08044" lon="5.97367">
        <ele>1861.4</ele>
        <time>2018-02-23T11:52:58.000Z</time>
      </trkpt>
      <trkpt lat="45.08042" lon="5.97373">
        <ele>1859</ele>
        <time>2018-02-23T11:52:59.000Z</time>
      </trkpt>
      <trkpt lat="45.08043" lon="5.9738">
        <ele>1856</ele>
        <time>2018-02-23T11:53:00.000Z</time>
      </trkpt>
      <trkpt lat="45.08045" lon="5.97386">
        <ele>1855.4</ele>
        <time>2018-02-23T11:53:01.000Z</time>
      </trkpt>
      <trkpt lat="45.08045" lon="5.97393">
        <ele>1852.6</ele>
        <time>2018-02-23T11:53:02.000Z</time>
      </trkpt>
      <trkpt lat="45.08039" lon="5.97397">
        <ele>1849.4</ele>
        <time>2018-02-23T11:53:03.000Z</time>
      </trkpt>
      <trkpt lat="45.08038" lon="5.97403">
        <ele>1847.9</ele>
        <time>2018-02-23T11:53:04.000Z</time>
      </trkpt>
      <trkpt lat="45.08035" lon="5.97402">
        <ele>1846.9</ele>
        <time>2018-02-23T11:53:14.000Z</time>
      </trkpt>
      <trkpt lat="45.08038" lon="5.97401">
        <ele>1847.9</ele>
        <time>2018-02-23T11:55:28.000Z</time>
      </trkpt>
      <trkpt lat="45.08036" lon="5.97405">
        <ele>1845.4</ele>
        <time>2018-02-23T11:56:05.000Z</time>
      </trkpt>
      <trkpt lat="45.08034" lon="5.97408">
        <ele>1843.8</ele>
        <time>2018-02-23T11:56:06.000Z</time>
      </trkpt>
      <trkpt lat="45.0803" lon="5.97414">
        <ele>1839.9</ele>
        <time>2018-02-23T11:56:07.000Z</time>
      </trkpt>
      <trkpt lat="45.08023" lon="5.97419">
        <ele>1836.1</ele>
        <time>2018-02-23T11:56:08.000Z</time>
      </trkpt>
      <trkpt lat="45.08016" lon="5.97424">
        <ele>1831.9</ele>
        <time>2018-02-23T11:56:09.000Z</time>
      </trkpt>
      <trkpt lat="45.08008" lon="5.9743">
        <ele>1827.3</ele>
        <time>2018-02-23T11:56:10.000Z</time>
      </trkpt>
      <trkpt lat="45.08001" lon="5.97437">
        <ele>1824.5</ele>
        <time>2018-02-23T11:56:11.000Z</time>
      </trkpt>
      <trkpt lat="45.07992" lon="5.97444">
        <ele>1820.4</ele>
        <time>2018-02-23T11:56:12.000Z</time>
      </trkpt>
      <trkpt lat="45.07983" lon="5.97449">
        <ele>1818.2</ele>
        <time>2018-02-23T11:56:13.000Z</time>
      </trkpt>
      <trkpt lat="45.07974" lon="5.97453">
        <ele>1816.4</ele>
        <time>2018-02-23T11:56:14.000Z</time>
      </trkpt>
      <trkpt lat="45.07968" lon="5.97456">
        <ele>1814.7</ele>
        <time>2018-02-23T11:56:15.000Z</time>
      </trkpt>
      <trkpt lat="45.07963" lon="5.97462">
        <ele>1813</ele>
        <time>2018-02-23T11:56:16.000Z</time>
      </trkpt>
      <trkpt lat="45.0796" lon="5.97468">
        <ele>1809.8</ele>
        <time>2018-02-23T11:56:17.000Z</time>
      </trkpt>
      <trkpt lat="45.07957" lon="5.97472">
        <ele>1808.2</ele>
        <time>2018-02-23T11:56:18.000Z</time>
      </trkpt>
      <trkpt lat="45.07954" lon="5.97474">
        <ele>1808.1</ele>
        <time>2018-02-23T11:56:19.000Z</time>
      </trkpt>
      <trkpt lat="45.07948" lon="5.97481">
        <ele>1804.7</ele>
        <time>2018-02-23T11:56:25.000Z</time>
      </trkpt>
      <trkpt lat="45.07947" lon="5.97485">
        <ele>1803.2</ele>
        <time>2018-02-23T11:56:38.000Z</time>
      </trkpt>
      <trkpt lat="45.07946" lon="5.97489">
        <ele>1803.2</ele>
        <time>2018-02-23T11:56:40.000Z</time>
      </trkpt>
      <trkpt lat="45.07945" lon="5.97492">
        <ele>1801.4</ele>
        <time>2018-02-23T11:56:49.000Z</time>
      </trkpt>
      <trkpt lat="45.07944" lon="5.97496">
        <ele>1799.9</ele>
        <time>2018-02-23T11:56:50.000Z</time>
      </trkpt>
      <trkpt lat="45.07942" lon="5.97504">
        <ele>1796.3</ele>
        <time>2018-02-23T11:56:51.000Z</time>
      </trkpt>
      <trkpt lat="45.07941" lon="5.9751">
        <ele>1794.7</ele>
        <time>2018-02-23T11:56:52.000Z</time>
      </trkpt>
      <trkpt lat="45.0794" lon="5.97507">
        <ele>1794.5</ele>
        <time>2018-02-23T11:57:15.000Z</time>
      </trkpt>
      <trkpt lat="45.07937" lon="5.97505">
        <ele>1796.1</ele>
        <time>2018-02-23T11:57:33.000Z</time>
      </trkpt>
      <trkpt lat="45.0794" lon="5.97507">
        <ele>1794.7</ele>
        <time>2018-02-23T11:57:40.000Z</time>
      </trkpt>
      <trkpt lat="45.07939" lon="5.97503">
        <ele>1796.1</ele>
        <time>2018-02-23T11:58:02.000Z</time>
      </trkpt>
      <trkpt lat="45.07941" lon="5.97505">
        <ele>1796.3</ele>
        <time>2018-02-23T11:59:55.000Z</time>
      </trkpt>
      <trkpt lat="45.07938" lon="5.97504">
        <ele>1796.1</ele>
        <time>2018-02-23T12:00:37.000Z</time>
      </trkpt>
      <trkpt lat="45.0794" lon="5.97507">
        <ele>1794.7</ele>
        <time>2018-02-23T12:17:37.000Z</time>
      </trkpt>
      <trkpt lat="45.07939" lon="5.97504">
        <ele>1796.1</ele>
        <time>2018-02-23T12:25:53.000Z</time>
      </trkpt>
      <trkpt lat="45.07941" lon="5.97507">
        <ele>1794.7</ele>
        <time>2018-02-23T12:29:32.000Z</time>
      </trkpt>
      <trkpt lat="45.07939" lon="5.97504">
        <ele>1796.1</ele>
        <time>2018-02-23T12:29:49.000Z</time>
      </trkpt>
      <trkpt lat="45.07936" lon="5.97506">
        <ele>1794.3</ele>
        <time>2018-02-23T12:37:31.000Z</time>
      </trkpt>
      <trkpt lat="45.07939" lon="5.97507">
        <ele>1794.5</ele>
        <time>2018-02-23T12:38:06.000Z</time>
      </trkpt>
      <trkpt lat="45.07937" lon="5.97505">
        <ele>1795.9</ele>
        <time>2018-02-23T12:38:21.000Z</time>
      </trkpt>
      <trkpt lat="45.07938" lon="5.97509">
        <ele>1794.5</ele>
        <time>2018-02-23T12:40:28.000Z</time>
      </trkpt>
      <trkpt lat="45.07938" lon="5.97505">
        <ele>1796.1</ele>
        <time>2018-02-23T12:41:49.000Z</time>
      </trkpt>
      <trkpt lat="45.07941" lon="5.97509">
        <ele>1794.7</ele>
        <time>2018-02-23T12:43:12.000Z</time>
      </trkpt>
      <trkpt lat="45.07945" lon="5.97511">
        <ele>1793.5</ele>
        <time>2018-02-23T12:43:14.000Z</time>
      </trkpt>
      <trkpt lat="45.07948" lon="5.97514">
        <ele>1793.8</ele>
        <time>2018-02-23T12:43:15.000Z</time>
      </trkpt>
      <trkpt lat="45.07951" lon="5.97519">
        <ele>1791.4</ele>
        <time>2018-02-23T12:43:16.000Z</time>
      </trkpt>
      <trkpt lat="45.07955" lon="5.97528">
        <ele>1789.2</ele>
        <time>2018-02-23T12:43:17.000Z</time>
      </trkpt>
      <trkpt lat="45.07957" lon="5.97537">
        <ele>1787</ele>
        <time>2018-02-23T12:43:18.000Z</time>
      </trkpt>
      <trkpt lat="45.07958" lon="5.97546">
        <ele>1784.7</ele>
        <time>2018-02-23T12:43:19.000Z</time>
      </trkpt>
      <trkpt lat="45.07957" lon="5.97556">
        <ele>1782</ele>
        <time>2018-02-23T12:43:20.000Z</time>
      </trkpt>
      <trkpt lat="45.07958" lon="5.97566">
        <ele>1779.5</ele>
        <time>2018-02-23T12:43:21.000Z</time>
      </trkpt>
      <trkpt lat="45.07959" lon="5.97571">
        <ele>1777.4</ele>
        <time>2018-02-23T12:43:22.000Z</time>
      </trkpt>
      <trkpt lat="45.07957" lon="5.97578">
        <ele>1776.2</ele>
        <time>2018-02-23T12:43:23.000Z</time>
      </trkpt>
      <trkpt lat="45.0796" lon="5.97583">
        <ele>1775.1</ele>
        <time>2018-02-23T12:43:24.000Z</time>
      </trkpt>
      <trkpt lat="45.07964" lon="5.9759">
        <ele>1772.7</ele>
        <time>2018-02-23T12:43:25.000Z</time>
      </trkpt>
      <trkpt lat="45.07965" lon="5.97597">
        <ele>1770.1</ele>
        <time>2018-02-23T12:43:26.000Z</time>
      </trkpt>
      <trkpt lat="45.07963" lon="5.97602">
        <ele>1768.3</ele>
        <time>2018-02-23T12:43:27.000Z</time>
      </trkpt>
      <trkpt lat="45.0796" lon="5.97606">
        <ele>1766.5</ele>
        <time>2018-02-23T12:43:28.000Z</time>
      </trkpt>
      <trkpt lat="45.07957" lon="5.9761">
        <ele>1764.7</ele>
        <time>2018-02-23T12:43:29.000Z</time>
      </trkpt>
      <trkpt lat="45.07953" lon="5.97615">
        <ele>1762.8</ele>
        <time>2018-02-23T12:43:30.000Z</time>
      </trkpt>
      <trkpt lat="45.0795" lon="5.97621">
        <ele>1760.8</ele>
        <time>2018-02-23T12:43:31.000Z</time>
      </trkpt>
      <trkpt lat="45.07945" lon="5.97628">
        <ele>1756.8</ele>
        <time>2018-02-23T12:43:32.000Z</time>
      </trkpt>
      <trkpt lat="45.0794" lon="5.97633">
        <ele>1754.7</ele>
        <time>2018-02-23T12:43:33.000Z</time>
      </trkpt>
      <trkpt lat="45.07937" lon="5.97636">
        <ele>1752.1</ele>
        <time>2018-02-23T12:43:34.000Z</time>
      </trkpt>
      <trkpt lat="45.07935" lon="5.97641">
        <ele>1750.4</ele>
        <time>2018-02-23T12:43:35.000Z</time>
      </trkpt>
      <trkpt lat="45.07938" lon="5.97647">
        <ele>1749.1</ele>
        <time>2018-02-23T12:43:36.000Z</time>
      </trkpt>
      <trkpt lat="45.0794" lon="5.97656">
        <ele>1743.2</ele>
        <time>2018-02-23T12:43:38.000Z</time>
      </trkpt>
      <trkpt lat="45.07941" lon="5.97662">
        <ele>1742.2</ele>
        <time>2018-02-23T12:43:39.000Z</time>
      </trkpt>
      <trkpt lat="45.07939" lon="5.9767">
        <ele>1738.3</ele>
        <time>2018-02-23T12:43:40.000Z</time>
      </trkpt>
      <trkpt lat="45.07942" lon="5.97677">
        <ele>1737.2</ele>
        <time>2018-02-23T12:43:41.000Z</time>
      </trkpt>
      <trkpt lat="45.07943" lon="5.97683">
        <ele>1733.7</ele>
        <time>2018-02-23T12:43:42.000Z</time>
      </trkpt>
      <trkpt lat="45.0794" lon="5.97686">
        <ele>1733.7</ele>
        <time>2018-02-23T12:43:43.000Z</time>
      </trkpt>
      <trkpt lat="45.07939" lon="5.97691">
        <ele>1729.6</ele>
        <time>2018-02-23T12:43:47.000Z</time>
      </trkpt>
      <trkpt lat="45.07941" lon="5.97696">
        <ele>1728.5</ele>
        <time>2018-02-23T12:43:48.000Z</time>
      </trkpt>
      <trkpt lat="45.07943" lon="5.97699">
        <ele>1727.6</ele>
        <time>2018-02-23T12:43:49.000Z</time>
      </trkpt>
      <trkpt lat="45.07944" lon="5.97705">
        <ele>1726</ele>
        <time>2018-02-23T12:43:50.000Z</time>
      </trkpt>
      <trkpt lat="45.07939" lon="5.97711">
        <ele>1723.1</ele>
        <time>2018-02-23T12:43:51.000Z</time>
      </trkpt>
      <trkpt lat="45.07941" lon="5.9772">
        <ele>1720.3</ele>
        <time>2018-02-23T12:43:52.000Z</time>
      </trkpt>
      <trkpt lat="45.07944" lon="5.97726">
        <ele>1717.3</ele>
        <time>2018-02-23T12:43:53.000Z</time>
      </trkpt>
      <trkpt lat="45.07942" lon="5.97733">
        <ele>1714.7</ele>
        <time>2018-02-23T12:43:54.000Z</time>
      </trkpt>
      <trkpt lat="45.0794" lon="5.97737">
        <ele>1712.2</ele>
        <time>2018-02-23T12:43:55.000Z</time>
      </trkpt>
      <trkpt lat="45.07937" lon="5.97744">
        <ele>1708.8</ele>
        <time>2018-02-23T12:43:56.000Z</time>
      </trkpt>
      <trkpt lat="45.0794" lon="5.9775">
        <ele>1709.1</ele>
        <time>2018-02-23T12:43:57.000Z</time>
      </trkpt>
      <trkpt lat="45.07944" lon="5.97754">
        <ele>1708.8</ele>
        <time>2018-02-23T12:43:58.000Z</time>
      </trkpt>
      <trkpt lat="45.07947" lon="5.97756">
        <ele>1708.6</ele>
        <time>2018-02-23T12:43:59.000Z</time>
      </trkpt>
      <trkpt lat="45.07953" lon="5.97757">
        <ele>1709.8</ele>
        <time>2018-02-23T12:44:00.000Z</time>
      </trkpt>
      <trkpt lat="45.07958" lon="5.9776">
        <ele>1710.6</ele>
        <time>2018-02-23T12:44:01.000Z</time>
      </trkpt>
      <trkpt lat="45.07963" lon="5.97765">
        <ele>1711.1</ele>
        <time>2018-02-23T12:44:02.000Z</time>
      </trkpt>
      <trkpt lat="45.07967" lon="5.97769">
        <ele>1712.5</ele>
        <time>2018-02-23T12:44:03.000Z</time>
      </trkpt>
      <trkpt lat="45.07968" lon="5.97776">
        <ele>1713.4</ele>
        <time>2018-02-23T12:44:04.000Z</time>
      </trkpt>
      <trkpt lat="45.07971" lon="5.97787">
        <ele>1710.6</ele>
        <time>2018-02-23T12:44:05.000Z</time>
      </trkpt>
      <trkpt lat="45.07976" lon="5.9779">
        <ele>1709.8</ele>
        <time>2018-02-23T12:44:06.000Z</time>
      </trkpt>
      <trkpt lat="45.07979" lon="5.97795">
        <ele>1708.2</ele>
        <time>2018-02-23T12:44:07.000Z</time>
      </trkpt>
      <trkpt lat="45.07982" lon="5.97805">
        <ele>1704.9</ele>
        <time>2018-02-23T12:44:08.000Z</time>
      </trkpt>
      <trkpt lat="45.07983" lon="5.97814">
        <ele>1701.9</ele>
        <time>2018-02-23T12:44:09.000Z</time>
      </trkpt>
      <trkpt lat="45.07982" lon="5.97822">
        <ele>1699.5</ele>
        <time>2018-02-23T12:44:10.000Z</time>
      </trkpt>
      <trkpt lat="45.07978" lon="5.97831">
        <ele>1696.4</ele>
        <time>2018-02-23T12:44:11.000Z</time>
      </trkpt>
      <trkpt lat="45.07979" lon="5.97842">
        <ele>1692</ele>
        <time>2018-02-23T12:44:12.000Z</time>
      </trkpt>
      <trkpt lat="45.07981" lon="5.9785">
        <ele>1688.6</ele>
        <time>2018-02-23T12:44:13.000Z</time>
      </trkpt>
      <trkpt lat="45.07983" lon="5.97856">
        <ele>1686</ele>
        <time>2018-02-23T12:44:14.000Z</time>
      </trkpt>
      <trkpt lat="45.07984" lon="5.97861">
        <ele>1684.2</ele>
        <time>2018-02-23T12:44:15.000Z</time>
      </trkpt>
      <trkpt lat="45.07984" lon="5.97865">
        <ele>1682.7</ele>
        <time>2018-02-23T12:44:16.000Z</time>
      </trkpt>
      <trkpt lat="45.07984" lon="5.9787">
        <ele>1681.4</ele>
        <time>2018-02-23T12:44:17.000Z</time>
      </trkpt>
      <trkpt lat="45.07984" lon="5.97874">
        <ele>1680.2</ele>
        <time>2018-02-23T12:44:18.000Z</time>
      </trkpt>
      <trkpt lat="45.07983" lon="5.97879">
        <ele>1678.7</ele>
        <time>2018-02-23T12:44:19.000Z</time>
      </trkpt>
      <trkpt lat="45.07983" lon="5.97885">
        <ele>1676.6</ele>
        <time>2018-02-23T12:44:20.000Z</time>
      </trkpt>
      <trkpt lat="45.07983" lon="5.9789">
        <ele>1674.9</ele>
        <time>2018-02-23T12:44:21.000Z</time>
      </trkpt>
      <trkpt lat="45.07983" lon="5.97896">
        <ele>1672.6</ele>
        <time>2018-02-23T12:44:22.000Z</time>
      </trkpt>
      <trkpt lat="45.07982" lon="5.97903">
        <ele>1670.4</ele>
        <time>2018-02-23T12:44:23.000Z</time>
      </trkpt>
      <trkpt lat="45.07978" lon="5.97907">
        <ele>1669</ele>
        <time>2018-02-23T12:44:24.000Z</time>
      </trkpt>
      <trkpt lat="45.07972" lon="5.97911">
        <ele>1666.4</ele>
        <time>2018-02-23T12:44:25.000Z</time>
      </trkpt>
      <trkpt lat="45.07972" lon="5.97918">
        <ele>1663.8</ele>
        <time>2018-02-23T12:44:26.000Z</time>
      </trkpt>
      <trkpt lat="45.07972" lon="5.97925">
        <ele>1661.3</ele>
        <time>2018-02-23T12:44:27.000Z</time>
      </trkpt>
      <trkpt lat="45.07972" lon="5.9793">
        <ele>1659.5</ele>
        <time>2018-02-23T12:44:28.000Z</time>
      </trkpt>
      <trkpt lat="45.07971" lon="5.97936">
        <ele>1656.5</ele>
        <time>2018-02-23T12:44:29.000Z</time>
      </trkpt>
      <trkpt lat="45.07967" lon="5.9794">
        <ele>1653.5</ele>
        <time>2018-02-23T12:44:30.000Z</time>
      </trkpt>
      <trkpt lat="45.07962" lon="5.97939">
        <ele>1653.9</ele>
        <time>2018-02-23T12:44:31.000Z</time>
      </trkpt>
      <trkpt lat="45.07957" lon="5.97944">
        <ele>1650.8</ele>
        <time>2018-02-23T12:44:32.000Z</time>
      </trkpt>
      <trkpt lat="45.07952" lon="5.9795">
        <ele>1646.1</ele>
        <time>2018-02-23T12:44:33.000Z</time>
      </trkpt>
      <trkpt lat="45.07952" lon="5.97957">
        <ele>1644</ele>
        <time>2018-02-23T12:44:34.000Z</time>
      </trkpt>
      <trkpt lat="45.07952" lon="5.97966">
        <ele>1640.6</ele>
        <time>2018-02-23T12:44:35.000Z</time>
      </trkpt>
      <trkpt lat="45.07952" lon="5.97975">
        <ele>1638.2</ele>
        <time>2018-02-23T12:44:36.000Z</time>
      </trkpt>
      <trkpt lat="45.07953" lon="5.97985">
        <ele>1636.7</ele>
        <time>2018-02-23T12:44:37.000Z</time>
      </trkpt>
      <trkpt lat="45.07954" lon="5.97995">
        <ele>1634.3</ele>
        <time>2018-02-23T12:44:38.000Z</time>
      </trkpt>
      <trkpt lat="45.07955" lon="5.98005">
        <ele>1630.5</ele>
        <time>2018-02-23T12:44:39.000Z</time>
      </trkpt>
      <trkpt lat="45.07955" lon="5.98017">
        <ele>1628</ele>
        <time>2018-02-23T12:44:40.000Z</time>
      </trkpt>
      <trkpt lat="45.07956" lon="5.98029">
        <ele>1625.1</ele>
        <time>2018-02-23T12:44:41.000Z</time>
      </trkpt>
      <trkpt lat="45.07958" lon="5.9804">
        <ele>1621.6</ele>
        <time>2018-02-23T12:44:42.000Z</time>
      </trkpt>
      <trkpt lat="45.07956" lon="5.98049">
        <ele>1619.4</ele>
        <time>2018-02-23T12:44:43.000Z</time>
      </trkpt>
      <trkpt lat="45.07954" lon="5.98058">
        <ele>1617.1</ele>
        <time>2018-02-23T12:44:44.000Z</time>
      </trkpt>
      <trkpt lat="45.0795" lon="5.98061">
        <ele>1615.6</ele>
        <time>2018-02-23T12:44:45.000Z</time>
      </trkpt>
      <trkpt lat="45.07948" lon="5.98067">
        <ele>1614.2</ele>
        <time>2018-02-23T12:44:46.000Z</time>
      </trkpt>
      <trkpt lat="45.07947" lon="5.98071">
        <ele>1613.1</ele>
        <time>2018-02-23T12:44:47.000Z</time>
      </trkpt>
      <trkpt lat="45.07949" lon="5.98082">
        <ele>1610.5</ele>
        <time>2018-02-23T12:44:48.000Z</time>
      </trkpt>
      <trkpt lat="45.07947" lon="5.98089">
        <ele>1609.3</ele>
        <time>2018-02-23T12:44:49.000Z</time>
      </trkpt>
      <trkpt lat="45.07943" lon="5.98096">
        <ele>1606.9</ele>
        <time>2018-02-23T12:44:50.000Z</time>
      </trkpt>
      <trkpt lat="45.07938" lon="5.98104">
        <ele>1605</ele>
        <time>2018-02-23T12:44:51.000Z</time>
      </trkpt>
      <trkpt lat="45.07933" lon="5.98113">
        <ele>1602.9</ele>
        <time>2018-02-23T12:44:52.000Z</time>
      </trkpt>
      <trkpt lat="45.0793" lon="5.98124">
        <ele>1601.1</ele>
        <time>2018-02-23T12:44:53.000Z</time>
      </trkpt>
      <trkpt lat="45.07927" lon="5.98136">
        <ele>1598.4</ele>
        <time>2018-02-23T12:44:54.000Z</time>
      </trkpt>
      <trkpt lat="45.07923" lon="5.98146">
        <ele>1595.8</ele>
        <time>2018-02-23T12:44:55.000Z</time>
      </trkpt>
      <trkpt lat="45.07919" lon="5.98156">
        <ele>1594</ele>
        <time>2018-02-23T12:44:56.000Z</time>
      </trkpt>
      <trkpt lat="45.07916" lon="5.98165">
        <ele>1592.2</ele>
        <time>2018-02-23T12:44:57.000Z</time>
      </trkpt>
      <trkpt lat="45.07915" lon="5.98174">
        <ele>1590.5</ele>
        <time>2018-02-23T12:44:58.000Z</time>
      </trkpt>
      <trkpt lat="45.07912" lon="5.98182">
        <ele>1588.9</ele>
        <time>2018-02-23T12:44:59.000Z</time>
      </trkpt>
      <trkpt lat="45.07908" lon="5.98189">
        <ele>1587.5</ele>
        <time>2018-02-23T12:45:00.000Z</time>
      </trkpt>
      <trkpt lat="45.07902" lon="5.98183">
        <ele>1587.2</ele>
        <time>2018-02-23T12:45:01.000Z</time>
      </trkpt>
      <trkpt lat="45.07897" lon="5.98187">
        <ele>1585.9</ele>
        <time>2018-02-23T12:45:02.000Z</time>
      </trkpt>
      <trkpt lat="45.07894" lon="5.98194">
        <ele>1584.7</ele>
        <time>2018-02-23T12:45:03.000Z</time>
      </trkpt>
      <trkpt lat="45.0789" lon="5.982">
        <ele>1583.6</ele>
        <time>2018-02-23T12:45:04.000Z</time>
      </trkpt>
      <trkpt lat="45.07885" lon="5.98197">
        <ele>1582.4</ele>
        <time>2018-02-23T12:45:05.000Z</time>
      </trkpt>
      <trkpt lat="45.07879" lon="5.98199">
        <ele>1581.5</ele>
        <time>2018-02-23T12:45:06.000Z</time>
      </trkpt>
      <trkpt lat="45.07873" lon="5.98202">
        <ele>1579.5</ele>
        <time>2018-02-23T12:45:07.000Z</time>
      </trkpt>
      <trkpt lat="45.07868" lon="5.98201">
        <ele>1578.8</ele>
        <time>2018-02-23T12:45:08.000Z</time>
      </trkpt>
      <trkpt lat="45.07862" lon="5.98207">
        <ele>1576.4</ele>
        <time>2018-02-23T12:45:09.000Z</time>
      </trkpt>
      <trkpt lat="45.07856" lon="5.98214">
        <ele>1574.4</ele>
        <time>2018-02-23T12:45:10.000Z</time>
      </trkpt>
      <trkpt lat="45.07851" lon="5.98219">
        <ele>1573.6</ele>
        <time>2018-02-23T12:45:11.000Z</time>
      </trkpt>
      <trkpt lat="45.07845" lon="5.98222">
        <ele>1570.1</ele>
        <time>2018-02-23T12:45:12.000Z</time>
      </trkpt>
      <trkpt lat="45.0784" lon="5.98228">
        <ele>1567.8</ele>
        <time>2018-02-23T12:45:13.000Z</time>
      </trkpt>
      <trkpt lat="45.07845" lon="5.98237">
        <ele>1566.9</ele>
        <time>2018-02-23T12:45:14.000Z</time>
      </trkpt>
      <trkpt lat="45.07842" lon="5.98244">
        <ele>1567</ele>
        <time>2018-02-23T12:45:15.000Z</time>
      </trkpt>
      <trkpt lat="45.0784" lon="5.98245">
        <ele>1567</ele>
        <time>2018-02-23T12:45:18.000Z</time>
      </trkpt>
      <trkpt lat="45.07837" lon="5.98242">
        <ele>1566.9</ele>
        <time>2018-02-23T12:45:24.000Z</time>
      </trkpt>
      <trkpt lat="45.07834" lon="5.98241">
        <ele>1566.8</ele>
        <time>2018-02-23T12:45:25.000Z</time>
      </trkpt>
      <trkpt lat="45.0783" lon="5.98237">
        <ele>1566.7</ele>
        <time>2018-02-23T12:45:26.000Z</time>
      </trkpt>
      <trkpt lat="45.07826" lon="5.98232">
        <ele>1566.7</ele>
        <time>2018-02-23T12:45:27.000Z</time>
      </trkpt>
      <trkpt lat="45.07822" lon="5.98226">
        <ele>1565.6</ele>
        <time>2018-02-23T12:45:28.000Z</time>
      </trkpt>
      <trkpt lat="45.0782" lon="5.98219">
        <ele>1564.3</ele>
        <time>2018-02-23T12:45:29.000Z</time>
      </trkpt>
      <trkpt lat="45.07819" lon="5.98214">
        <ele>1564.5</ele>
        <time>2018-02-23T12:45:30.000Z</time>
      </trkpt>
      <trkpt lat="45.07818" lon="5.9821">
        <ele>1562.8</ele>
        <time>2018-02-23T12:45:31.000Z</time>
      </trkpt>
      <trkpt lat="45.07817" lon="5.98207">
        <ele>1562.8</ele>
        <time>2018-02-23T12:45:32.000Z</time>
      </trkpt>
      <trkpt lat="45.07816" lon="5.98203">
        <ele>1561.1</ele>
        <time>2018-02-23T12:45:33.000Z</time>
      </trkpt>
      <trkpt lat="45.07814" lon="5.98198">
        <ele>1561</ele>
        <time>2018-02-23T12:45:34.000Z</time>
      </trkpt>
      <trkpt lat="45.07812" lon="5.98192">
        <ele>1559.4</ele>
        <time>2018-02-23T12:45:35.000Z</time>
      </trkpt>
      <trkpt lat="45.0781" lon="5.98185">
        <ele>1559.3</ele>
        <time>2018-02-23T12:45:36.000Z</time>
      </trkpt>
      <trkpt lat="45.07809" lon="5.98178">
        <ele>1557.6</ele>
        <time>2018-02-23T12:45:37.000Z</time>
      </trkpt>
      <trkpt lat="45.07809" lon="5.98172">
        <ele>1557.5</ele>
        <time>2018-02-23T12:45:38.000Z</time>
      </trkpt>
      <trkpt lat="45.07808" lon="5.98165">
        <ele>1557.7</ele>
        <time>2018-02-23T12:45:39.000Z</time>
      </trkpt>
      <trkpt lat="45.07806" lon="5.9816">
        <ele>1555.9</ele>
        <time>2018-02-23T12:45:40.000Z</time>
      </trkpt>
      <trkpt lat="45.07803" lon="5.98155">
        <ele>1554.2</ele>
        <time>2018-02-23T12:45:41.000Z</time>
      </trkpt>
      <trkpt lat="45.07796" lon="5.9815">
        <ele>1550.8</ele>
        <time>2018-02-23T12:45:42.000Z</time>
      </trkpt>
      <trkpt lat="45.0779" lon="5.98147">
        <ele>1547.9</ele>
        <time>2018-02-23T12:45:43.000Z</time>
      </trkpt>
      <trkpt lat="45.07784" lon="5.98143">
        <ele>1545.2</ele>
        <time>2018-02-23T12:45:44.000Z</time>
      </trkpt>
      <trkpt lat="45.07781" lon="5.9814">
        <ele>1544</ele>
        <time>2018-02-23T12:45:45.000Z</time>
      </trkpt>
      <trkpt lat="45.07777" lon="5.98141">
        <ele>1542.1</ele>
        <time>2018-02-23T12:45:46.000Z</time>
      </trkpt>
      <trkpt lat="45.07773" lon="5.98139">
        <ele>1538.7</ele>
        <time>2018-02-23T12:45:47.000Z</time>
      </trkpt>
      <trkpt lat="45.0777" lon="5.98145">
        <ele>1537.8</ele>
        <time>2018-02-23T12:45:48.000Z</time>
      </trkpt>
      <trkpt lat="45.07766" lon="5.9815">
        <ele>1534.3</ele>
        <time>2018-02-23T12:45:49.000Z</time>
      </trkpt>
      <trkpt lat="45.07761" lon="5.98148">
        <ele>1531.5</ele>
        <time>2018-02-23T12:45:50.000Z</time>
      </trkpt>
      <trkpt lat="45.07757" lon="5.98146">
        <ele>1529.8</ele>
        <time>2018-02-23T12:45:51.000Z</time>
      </trkpt>
      <trkpt lat="45.07754" lon="5.9814">
        <ele>1529.3</ele>
        <time>2018-02-23T12:45:52.000Z</time>
      </trkpt>
      <trkpt lat="45.07757" lon="5.98127">
        <ele>1532.7</ele>
        <time>2018-02-23T12:45:53.000Z</time>
      </trkpt>
      <trkpt lat="45.07758" lon="5.98118">
        <ele>1533.8</ele>
        <time>2018-02-23T12:45:54.000Z</time>
      </trkpt>
      <trkpt lat="45.07754" lon="5.98112">
        <ele>1532.8</ele>
        <time>2018-02-23T12:45:55.000Z</time>
      </trkpt>
      <trkpt lat="45.07751" lon="5.98107">
        <ele>1532</ele>
        <time>2018-02-23T12:45:56.000Z</time>
      </trkpt>
      <trkpt lat="45.07744" lon="5.98103">
        <ele>1530.1</ele>
        <time>2018-02-23T12:45:57.000Z</time>
      </trkpt>
      <trkpt lat="45.07737" lon="5.98105">
        <ele>1527.9</ele>
        <time>2018-02-23T12:45:58.000Z</time>
      </trkpt>
      <trkpt lat="45.0773" lon="5.98103">
        <ele>1524.8</ele>
        <time>2018-02-23T12:45:59.000Z</time>
      </trkpt>
      <trkpt lat="45.07724" lon="5.98099">
        <ele>1523.5</ele>
        <time>2018-02-23T12:46:00.000Z</time>
      </trkpt>
      <trkpt lat="45.0772" lon="5.98095">
        <ele>1523.3</ele>
        <time>2018-02-23T12:46:01.000Z</time>
      </trkpt>
      <trkpt lat="45.07717" lon="5.98088">
        <ele>1524.3</ele>
        <time>2018-02-23T12:46:02.000Z</time>
      </trkpt>
      <trkpt lat="45.07713" lon="5.9808">
        <ele>1524.5</ele>
        <time>2018-02-23T12:46:03.000Z</time>
      </trkpt>
      <trkpt lat="45.07709" lon="5.98073">
        <ele>1524.5</ele>
        <time>2018-02-23T12:46:04.000Z</time>
      </trkpt>
      <trkpt lat="45.07705" lon="5.98067">
        <ele>1525.6</ele>
        <time>2018-02-23T12:46:05.000Z</time>
      </trkpt>
      <trkpt lat="45.07703" lon="5.98062">
        <ele>1525.6</ele>
        <time>2018-02-23T12:46:06.000Z</time>
      </trkpt>
      <trkpt lat="45.07701" lon="5.98058">
        <ele>1526.5</ele>
        <time>2018-02-23T12:46:07.000Z</time>
      </trkpt>
      <trkpt lat="45.07701" lon="5.98064">
        <ele>1524</ele>
        <time>2018-02-23T12:46:09.000Z</time>
      </trkpt>
      <trkpt lat="45.07699" lon="5.98061">
        <ele>1524.1</ele>
        <time>2018-02-23T12:46:12.000Z</time>
      </trkpt>
      <trkpt lat="45.077" lon="5.98057">
        <ele>1525</ele>
        <time>2018-02-23T12:46:17.000Z</time>
      </trkpt>
      <trkpt lat="45.07703" lon="5.98054">
        <ele>1526.8</ele>
        <time>2018-02-23T12:46:19.000Z</time>
      </trkpt>
      <trkpt lat="45.07705" lon="5.98051">
        <ele>1528.7</ele>
        <time>2018-02-23T12:46:21.000Z</time>
      </trkpt>
      <trkpt lat="45.07707" lon="5.98047">
        <ele>1529.2</ele>
        <time>2018-02-23T12:46:23.000Z</time>
      </trkpt>
      <trkpt lat="45.07707" lon="5.98042">
        <ele>1531.6</ele>
        <time>2018-02-23T12:46:25.000Z</time>
      </trkpt>
      <trkpt lat="45.0771" lon="5.9804">
        <ele>1531.4</ele>
        <time>2018-02-23T12:46:33.000Z</time>
      </trkpt>
      <trkpt lat="45.07707" lon="5.98043">
        <ele>1529.8</ele>
        <time>2018-02-23T12:46:36.000Z</time>
      </trkpt>
      <trkpt lat="45.07704" lon="5.98042">
        <ele>1530.2</ele>
        <time>2018-02-23T12:46:37.000Z</time>
      </trkpt>
      <trkpt lat="45.07701" lon="5.98045">
        <ele>1527.8</ele>
        <time>2018-02-23T12:46:38.000Z</time>
      </trkpt>
      <trkpt lat="45.07697" lon="5.98046">
        <ele>1526</ele>
        <time>2018-02-23T12:46:39.000Z</time>
      </trkpt>
      <trkpt lat="45.07692" lon="5.98047">
        <ele>1523.6</ele>
        <time>2018-02-23T12:46:40.000Z</time>
      </trkpt>
      <trkpt lat="45.07689" lon="5.98049">
        <ele>1522.5</ele>
        <time>2018-02-23T12:46:41.000Z</time>
      </trkpt>
      <trkpt lat="45.07683" lon="5.9805">
        <ele>1520.7</ele>
        <time>2018-02-23T12:46:42.000Z</time>
      </trkpt>
      <trkpt lat="45.07677" lon="5.98051">
        <ele>1519.2</ele>
        <time>2018-02-23T12:46:43.000Z</time>
      </trkpt>
      <trkpt lat="45.07673" lon="5.98053">
        <ele>1517</ele>
        <time>2018-02-23T12:46:44.000Z</time>
      </trkpt>
      <trkpt lat="45.07669" lon="5.98054">
        <ele>1515.4</ele>
        <time>2018-02-23T12:46:45.000Z</time>
      </trkpt>
      <trkpt lat="45.07665" lon="5.98054">
        <ele>1514.5</ele>
        <time>2018-02-23T12:46:46.000Z</time>
      </trkpt>
      <trkpt lat="45.07662" lon="5.98053">
        <ele>1513.6</ele>
        <time>2018-02-23T12:46:47.000Z</time>
      </trkpt>
      <trkpt lat="45.07658" lon="5.98053">
        <ele>1512.2</ele>
        <time>2018-02-23T12:46:48.000Z</time>
      </trkpt>
      <trkpt lat="45.07655" lon="5.98053">
        <ele>1511.4</ele>
        <time>2018-02-23T12:46:49.000Z</time>
      </trkpt>
      <trkpt lat="45.07652" lon="5.98052">
        <ele>1510.7</ele>
        <time>2018-02-23T12:46:50.000Z</time>
      </trkpt>
      <trkpt lat="45.07646" lon="5.98054">
        <ele>1509.9</ele>
        <time>2018-02-23T12:46:51.000Z</time>
      </trkpt>
      <trkpt lat="45.07642" lon="5.98056">
        <ele>1506.9</ele>
        <time>2018-02-23T12:46:52.000Z</time>
      </trkpt>
      <trkpt lat="45.07638" lon="5.98059">
        <ele>1506</ele>
        <time>2018-02-23T12:46:53.000Z</time>
      </trkpt>
      <trkpt lat="45.07636" lon="5.98061">
        <ele>1503.7</ele>
        <time>2018-02-23T12:46:55.000Z</time>
      </trkpt>
      <trkpt lat="45.07632" lon="5.98063">
        <ele>1502.9</ele>
        <time>2018-02-23T12:46:57.000Z</time>
      </trkpt>
      <trkpt lat="45.07631" lon="5.98067">
        <ele>1500.7</ele>
        <time>2018-02-23T12:46:58.000Z</time>
      </trkpt>
      <trkpt lat="45.07627" lon="5.98066">
        <ele>1499.9</ele>
        <time>2018-02-23T12:46:59.000Z</time>
      </trkpt>
      <trkpt lat="45.07626" lon="5.98063">
        <ele>1501</ele>
        <time>2018-02-23T12:47:00.000Z</time>
      </trkpt>
      <trkpt lat="45.07621" lon="5.98068">
        <ele>1498.4</ele>
        <time>2018-02-23T12:47:12.000Z</time>
      </trkpt>
      <trkpt lat="45.07619" lon="5.9807">
        <ele>1496.8</ele>
        <time>2018-02-23T12:47:13.000Z</time>
      </trkpt>
      <trkpt lat="45.07615" lon="5.98073">
        <ele>1495.6</ele>
        <time>2018-02-23T12:47:14.000Z</time>
      </trkpt>
      <trkpt lat="45.07611" lon="5.98074">
        <ele>1493.5</ele>
        <time>2018-02-23T12:47:16.000Z</time>
      </trkpt>
      <trkpt lat="45.07611" lon="5.98079">
        <ele>1492</ele>
        <time>2018-02-23T12:47:20.000Z</time>
      </trkpt>
      <trkpt lat="45.07609" lon="5.98084">
        <ele>1489.9</ele>
        <time>2018-02-23T12:47:24.000Z</time>
      </trkpt>
      <trkpt lat="45.07609" lon="5.9809">
        <ele>1488.4</ele>
        <time>2018-02-23T12:47:26.000Z</time>
      </trkpt>
      <trkpt lat="45.07606" lon="5.98094">
        <ele>1486.9</ele>
        <time>2018-02-23T12:47:27.000Z</time>
      </trkpt>
      <trkpt lat="45.07604" lon="5.98098">
        <ele>1485.8</ele>
        <time>2018-02-23T12:47:28.000Z</time>
      </trkpt>
      <trkpt lat="45.07603" lon="5.98103">
        <ele>1484.6</ele>
        <time>2018-02-23T12:47:29.000Z</time>
      </trkpt>
      <trkpt lat="45.07598" lon="5.98104">
        <ele>1483.4</ele>
        <time>2018-02-23T12:47:31.000Z</time>
      </trkpt>
      <trkpt lat="45.07592" lon="5.98111">
        <ele>1482.2</ele>
        <time>2018-02-23T12:47:33.000Z</time>
      </trkpt>
      <trkpt lat="45.07589" lon="5.98114">
        <ele>1481.1</ele>
        <time>2018-02-23T12:47:34.000Z</time>
      </trkpt>
      <trkpt lat="45.07587" lon="5.98116">
        <ele>1480.2</ele>
        <time>2018-02-23T12:47:35.000Z</time>
      </trkpt>
      <trkpt lat="45.07585" lon="5.9812">
        <ele>1479.6</ele>
        <time>2018-02-23T12:47:40.000Z</time>
      </trkpt>
      <trkpt lat="45.07583" lon="5.98124">
        <ele>1479.1</ele>
        <time>2018-02-23T12:47:50.000Z</time>
      </trkpt>
      <trkpt lat="45.0758" lon="5.98127">
        <ele>1478.4</ele>
        <time>2018-02-23T12:47:52.000Z</time>
      </trkpt>
      <trkpt lat="45.07577" lon="5.98128">
        <ele>1478.6</ele>
        <time>2018-02-23T12:47:53.000Z</time>
      </trkpt>
      <trkpt lat="45.07574" lon="5.98128">
        <ele>1479.1</ele>
        <time>2018-02-23T12:47:54.000Z</time>
      </trkpt>
      <trkpt lat="45.07571" lon="5.98127">
        <ele>1479.6</ele>
        <time>2018-02-23T12:47:55.000Z</time>
      </trkpt>
      <trkpt lat="45.07567" lon="5.98126">
        <ele>1479.8</ele>
        <time>2018-02-23T12:47:56.000Z</time>
      </trkpt>
      <trkpt lat="45.07563" lon="5.98125">
        <ele>1479.9</ele>
        <time>2018-02-23T12:47:57.000Z</time>
      </trkpt>
      <trkpt lat="45.07559" lon="5.98123">
        <ele>1479.5</ele>
        <time>2018-02-23T12:47:58.000Z</time>
      </trkpt>
      <trkpt lat="45.07555" lon="5.98121">
        <ele>1478.1</ele>
        <time>2018-02-23T12:47:59.000Z</time>
      </trkpt>
      <trkpt lat="45.07551" lon="5.98119">
        <ele>1475.9</ele>
        <time>2018-02-23T12:48:00.000Z</time>
      </trkpt>
      <trkpt lat="45.07546" lon="5.98116">
        <ele>1473.9</ele>
        <time>2018-02-23T12:48:01.000Z</time>
      </trkpt>
      <trkpt lat="45.07543" lon="5.98113">
        <ele>1472.6</ele>
        <time>2018-02-23T12:48:02.000Z</time>
      </trkpt>
      <trkpt lat="45.07539" lon="5.9811">
        <ele>1470.9</ele>
        <time>2018-02-23T12:48:03.000Z</time>
      </trkpt>
      <trkpt lat="45.07535" lon="5.98106">
        <ele>1471.1</ele>
        <time>2018-02-23T12:48:04.000Z</time>
      </trkpt>
      <trkpt lat="45.07532" lon="5.98103">
        <ele>1471.8</ele>
        <time>2018-02-23T12:48:05.000Z</time>
      </trkpt>
      <trkpt lat="45.07529" lon="5.98101">
        <ele>1472.5</ele>
        <time>2018-02-23T12:48:06.000Z</time>
      </trkpt>
      <trkpt lat="45.07525" lon="5.98097">
        <ele>1473.4</ele>
        <time>2018-02-23T12:48:07.000Z</time>
      </trkpt>
      <trkpt lat="45.0752" lon="5.98094">
        <ele>1473.3</ele>
        <time>2018-02-23T12:48:08.000Z</time>
      </trkpt>
      <trkpt lat="45.07515" lon="5.9809">
        <ele>1472.5</ele>
        <time>2018-02-23T12:48:09.000Z</time>
      </trkpt>
      <trkpt lat="45.07511" lon="5.98087">
        <ele>1472.6</ele>
        <time>2018-02-23T12:48:10.000Z</time>
      </trkpt>
      <trkpt lat="45.07505" lon="5.98082">
        <ele>1471.6</ele>
        <time>2018-02-23T12:48:11.000Z</time>
      </trkpt>
      <trkpt lat="45.075" lon="5.98077">
        <ele>1470.2</ele>
        <time>2018-02-23T12:48:12.000Z</time>
      </trkpt>
      <trkpt lat="45.07495" lon="5.98073">
        <ele>1469.6</ele>
        <time>2018-02-23T12:48:13.000Z</time>
      </trkpt>
      <trkpt lat="45.0749" lon="5.9807">
        <ele>1467.6</ele>
        <time>2018-02-23T12:48:14.000Z</time>
      </trkpt>
      <trkpt lat="45.07486" lon="5.98068">
        <ele>1466.9</ele>
        <time>2018-02-23T12:48:15.000Z</time>
      </trkpt>
      <trkpt lat="45.0748" lon="5.98067">
        <ele>1464.2</ele>
        <time>2018-02-23T12:48:16.000Z</time>
      </trkpt>
      <trkpt lat="45.07477" lon="5.98074">
        <ele>1461</ele>
        <time>2018-02-23T12:48:17.000Z</time>
      </trkpt>
      <trkpt lat="45.07477" lon="5.98083">
        <ele>1458.9</ele>
        <time>2018-02-23T12:48:18.000Z</time>
      </trkpt>
      <trkpt lat="45.07479" lon="5.98093">
        <ele>1456.7</ele>
        <time>2018-02-23T12:48:19.000Z</time>
      </trkpt>
      <trkpt lat="45.07476" lon="5.981">
        <ele>1453.2</ele>
        <time>2018-02-23T12:48:20.000Z</time>
      </trkpt>
      <trkpt lat="45.0747" lon="5.98105">
        <ele>1449.3</ele>
        <time>2018-02-23T12:48:21.000Z</time>
      </trkpt>
      <trkpt lat="45.07466" lon="5.98113">
        <ele>1446.1</ele>
        <time>2018-02-23T12:48:22.000Z</time>
      </trkpt>
      <trkpt lat="45.07461" lon="5.98122">
        <ele>1443</ele>
        <time>2018-02-23T12:48:23.000Z</time>
      </trkpt>
      <trkpt lat="45.07455" lon="5.98123">
        <ele>1439.6</ele>
        <time>2018-02-23T12:48:24.000Z</time>
      </trkpt>
      <trkpt lat="45.07448" lon="5.98127">
        <ele>1436.3</ele>
        <time>2018-02-23T12:48:25.000Z</time>
      </trkpt>
      <trkpt lat="45.07441" lon="5.98129">
        <ele>1433.1</ele>
        <time>2018-02-23T12:48:26.000Z</time>
      </trkpt>
      <trkpt lat="45.07437" lon="5.98127">
        <ele>1432.5</ele>
        <time>2018-02-23T12:48:27.000Z</time>
      </trkpt>
      <trkpt lat="45.07434" lon="5.98126">
        <ele>1431.2</ele>
        <time>2018-02-23T12:48:28.000Z</time>
      </trkpt>
      <trkpt lat="45.07433" lon="5.9813">
        <ele>1429.3</ele>
        <time>2018-02-23T12:49:08.000Z</time>
      </trkpt>
      <trkpt lat="45.07433" lon="5.98134">
        <ele>1428.2</ele>
        <time>2018-02-23T12:49:09.000Z</time>
      </trkpt>
      <trkpt lat="45.07433" lon="5.98141">
        <ele>1427.2</ele>
        <time>2018-02-23T12:49:11.000Z</time>
      </trkpt>
      <trkpt lat="45.07433" lon="5.98145">
        <ele>1426.2</ele>
        <time>2018-02-23T12:49:12.000Z</time>
      </trkpt>
      <trkpt lat="45.07433" lon="5.98151">
        <ele>1424.6</ele>
        <time>2018-02-23T12:49:13.000Z</time>
      </trkpt>
      <trkpt lat="45.0743" lon="5.98156">
        <ele>1422.8</ele>
        <time>2018-02-23T12:49:14.000Z</time>
      </trkpt>
      <trkpt lat="45.07426" lon="5.98156">
        <ele>1422.5</ele>
        <time>2018-02-23T12:49:15.000Z</time>
      </trkpt>
      <trkpt lat="45.07423" lon="5.98155">
        <ele>1422.3</ele>
        <time>2018-02-23T12:49:16.000Z</time>
      </trkpt>
      <trkpt lat="45.07419" lon="5.98152">
        <ele>1421.9</ele>
        <time>2018-02-23T12:49:18.000Z</time>
      </trkpt>
      <trkpt lat="45.07417" lon="5.98149">
        <ele>1421.5</ele>
        <time>2018-02-23T12:49:19.000Z</time>
      </trkpt>
      <trkpt lat="45.07414" lon="5.98145">
        <ele>1421.1</ele>
        <time>2018-02-23T12:49:21.000Z</time>
      </trkpt>
      <trkpt lat="45.07409" lon="5.98142">
        <ele>1420.5</ele>
        <time>2018-02-23T12:49:25.000Z</time>
      </trkpt>
      <trkpt lat="45.07405" lon="5.98138">
        <ele>1420.1</ele>
        <time>2018-02-23T12:49:26.000Z</time>
      </trkpt>
      <trkpt lat="45.07402" lon="5.98133">
        <ele>1419.8</ele>
        <time>2018-02-23T12:49:27.000Z</time>
      </trkpt>
      <trkpt lat="45.074" lon="5.9813">
        <ele>1419.7</ele>
        <time>2018-02-23T12:49:28.000Z</time>
      </trkpt>
      <trkpt lat="45.07397" lon="5.98126">
        <ele>1419.4</ele>
        <time>2018-02-23T12:49:30.000Z</time>
      </trkpt>
      <trkpt lat="45.07396" lon="5.98122">
        <ele>1419.3</ele>
        <time>2018-02-23T12:49:38.000Z</time>
      </trkpt>
      <trkpt lat="45.07394" lon="5.98117">
        <ele>1419.1</ele>
        <time>2018-02-23T12:49:41.000Z</time>
      </trkpt>
      <trkpt lat="45.07392" lon="5.98113">
        <ele>1418.8</ele>
        <time>2018-02-23T12:49:43.000Z</time>
      </trkpt>
      <trkpt lat="45.0739" lon="5.98109">
        <ele>1418.5</ele>
        <time>2018-02-23T12:49:45.000Z</time>
      </trkpt>
      <trkpt lat="45.07388" lon="5.98104">
        <ele>1418.2</ele>
        <time>2018-02-23T12:49:47.000Z</time>
      </trkpt>
      <trkpt lat="45.07388" lon="5.98099">
        <ele>1417.9</ele>
        <time>2018-02-23T12:49:51.000Z</time>
      </trkpt>
      <trkpt lat="45.07388" lon="5.98095">
        <ele>1417.6</ele>
        <time>2018-02-23T12:49:57.000Z</time>
      </trkpt>
      <trkpt lat="45.07388" lon="5.98091">
        <ele>1417.4</ele>
        <time>2018-02-23T12:50:03.000Z</time>
      </trkpt>
      <trkpt lat="45.07388" lon="5.98087">
        <ele>1417.1</ele>
        <time>2018-02-23T12:50:10.000Z</time>
      </trkpt>
      <trkpt lat="45.07387" lon="5.98083">
        <ele>1416.8</ele>
        <time>2018-02-23T12:50:14.000Z</time>
      </trkpt>
      <trkpt lat="45.07386" lon="5.98079">
        <ele>1416.6</ele>
        <time>2018-02-23T12:50:18.000Z</time>
      </trkpt>
      <trkpt lat="45.07385" lon="5.98075">
        <ele>1416.3</ele>
        <time>2018-02-23T12:50:20.000Z</time>
      </trkpt>
      <trkpt lat="45.07383" lon="5.98071">
        <ele>1416</ele>
        <time>2018-02-23T12:50:22.000Z</time>
      </trkpt>
      <trkpt lat="45.07381" lon="5.98067">
        <ele>1415.7</ele>
        <time>2018-02-23T12:50:24.000Z</time>
      </trkpt>
      <trkpt lat="45.07378" lon="5.98061">
        <ele>1415.1</ele>
        <time>2018-02-23T12:50:26.000Z</time>
      </trkpt>
      <trkpt lat="45.07377" lon="5.98055">
        <ele>1414.6</ele>
        <time>2018-02-23T12:50:28.000Z</time>
      </trkpt>
      <trkpt lat="45.07375" lon="5.98052">
        <ele>1414.3</ele>
        <time>2018-02-23T12:50:29.000Z</time>
      </trkpt>
      <trkpt lat="45.07372" lon="5.98051">
        <ele>1413.9</ele>
        <time>2018-02-23T12:50:30.000Z</time>
      </trkpt>
      <trkpt lat="45.07371" lon="5.98057">
        <ele>1413.4</ele>
        <time>2018-02-23T12:50:31.000Z</time>
      </trkpt>
      <trkpt lat="45.07369" lon="5.98062">
        <ele>1412.9</ele>
        <time>2018-02-23T12:50:33.000Z</time>
      </trkpt>
      <trkpt lat="45.07366" lon="5.98062">
        <ele>1412.7</ele>
        <time>2018-02-23T12:50:36.000Z</time>
      </trkpt>
      <trkpt lat="45.07364" lon="5.98068">
        <ele>1412.5</ele>
        <time>2018-02-23T12:50:40.000Z</time>
      </trkpt>
      <trkpt lat="45.07364" lon="5.98072">
        <ele>1412.3</ele>
        <time>2018-02-23T12:51:03.000Z</time>
      </trkpt>
      <trkpt lat="45.07362" lon="5.98074">
        <ele>1412.2</ele>
        <time>2018-02-23T12:52:04.000Z</time>
      </trkpt>
      <trkpt lat="45.07362" lon="5.98079">
        <ele>1412</ele>
        <time>2018-02-23T12:52:09.000Z</time>
      </trkpt>
      <trkpt lat="45.07363" lon="5.98085">
        <ele>1411.7</ele>
        <time>2018-02-23T12:52:13.000Z</time>
      </trkpt>
      <trkpt lat="45.07363" lon="5.98088">
        <ele>1411.5</ele>
        <time>2018-02-23T12:52:16.000Z</time>
      </trkpt>
      <trkpt lat="45.07362" lon="5.98092">
        <ele>1411.2</ele>
        <time>2018-02-23T12:52:18.000Z</time>
      </trkpt>
      <trkpt lat="45.07363" lon="5.98097">
        <ele>1410.8</ele>
        <time>2018-02-23T12:52:21.000Z</time>
      </trkpt>
      <trkpt lat="45.07363" lon="5.98103">
        <ele>1410.4</ele>
        <time>2018-02-23T12:52:24.000Z</time>
      </trkpt>
      <trkpt lat="45.07363" lon="5.98107">
        <ele>1410.1</ele>
        <time>2018-02-23T12:52:27.000Z</time>
      </trkpt>
      <trkpt lat="45.07364" lon="5.98111">
        <ele>1409.8</ele>
        <time>2018-02-23T12:52:30.000Z</time>
      </trkpt>
      <trkpt lat="45.07364" lon="5.98117">
        <ele>1409.5</ele>
        <time>2018-02-23T12:52:33.000Z</time>
      </trkpt>
      <trkpt lat="45.07364" lon="5.98122">
        <ele>1409.2</ele>
        <time>2018-02-23T12:52:37.000Z</time>
      </trkpt>
      <trkpt lat="45.07365" lon="5.98127">
        <ele>1408.9</ele>
        <time>2018-02-23T12:52:40.000Z</time>
      </trkpt>
      <trkpt lat="45.07364" lon="5.98131">
        <ele>1408.7</ele>
        <time>2018-02-23T12:52:52.000Z</time>
      </trkpt>
      <trkpt lat="45.07365" lon="5.98135">
        <ele>1408.4</ele>
        <time>2018-02-23T12:52:54.000Z</time>
      </trkpt>
      <trkpt lat="45.07366" lon="5.98139">
        <ele>1408.1</ele>
        <time>2018-02-23T12:52:56.000Z</time>
      </trkpt>
      <trkpt lat="45.07367" lon="5.98143">
        <ele>1407.8</ele>
        <time>2018-02-23T12:52:59.000Z</time>
      </trkpt>
      <trkpt lat="45.07366" lon="5.98148">
        <ele>1407.4</ele>
        <time>2018-02-23T12:53:02.000Z</time>
      </trkpt>
      <trkpt lat="45.07367" lon="5.98152">
        <ele>1407</ele>
        <time>2018-02-23T12:53:05.000Z</time>
      </trkpt>
      <trkpt lat="45.07369" lon="5.98157">
        <ele>1406.6</ele>
        <time>2018-02-23T12:53:08.000Z</time>
      </trkpt>
      <trkpt lat="45.07369" lon="5.98162">
        <ele>1406.2</ele>
        <time>2018-02-23T12:53:11.000Z</time>
      </trkpt>
      <trkpt lat="45.07368" lon="5.98167">
        <ele>1405.9</ele>
        <time>2018-02-23T12:53:14.000Z</time>
      </trkpt>
      <trkpt lat="45.07369" lon="5.98172">
        <ele>1405.7</ele>
        <time>2018-02-23T12:53:17.000Z</time>
      </trkpt>
      <trkpt lat="45.0737" lon="5.98176">
        <ele>1405.3</ele>
        <time>2018-02-23T12:53:20.000Z</time>
      </trkpt>
      <trkpt lat="45.0737" lon="5.98181">
        <ele>1404.8</ele>
        <time>2018-02-23T12:53:23.000Z</time>
      </trkpt>
      <trkpt lat="45.07371" lon="5.98185">
        <ele>1404.4</ele>
        <time>2018-02-23T12:53:26.000Z</time>
      </trkpt>
      <trkpt lat="45.07371" lon="5.9819">
        <ele>1403.8</ele>
        <time>2018-02-23T12:53:30.000Z</time>
      </trkpt>
      <trkpt lat="45.07372" lon="5.98195">
        <ele>1403.3</ele>
        <time>2018-02-23T12:53:34.000Z</time>
      </trkpt>
      <trkpt lat="45.07371" lon="5.98198">
        <ele>1403.1</ele>
        <time>2018-02-23T12:53:39.000Z</time>
      </trkpt>
      <trkpt lat="45.07368" lon="5.98198">
        <ele>1403.3</ele>
        <time>2018-02-23T12:53:50.000Z</time>
      </trkpt>
      <trkpt lat="45.07365" lon="5.98194">
        <ele>1403.6</ele>
        <time>2018-02-23T12:53:53.000Z</time>
      </trkpt>
      <trkpt lat="45.07363" lon="5.9819">
        <ele>1403.9</ele>
        <time>2018-02-23T12:53:57.000Z</time>
      </trkpt>
      <trkpt lat="45.07362" lon="5.98186">
        <ele>1404.2</ele>
        <time>2018-02-23T12:53:59.000Z</time>
      </trkpt>
      <trkpt lat="45.07364" lon="5.98184">
        <ele>1404.4</ele>
        <time>2018-02-23T12:54:15.000Z</time>
      </trkpt>
      <trkpt lat="45.07363" lon="5.98179">
        <ele>1404.7</ele>
        <time>2018-02-23T12:54:18.000Z</time>
      </trkpt>
      <trkpt lat="45.07362" lon="5.98175">
        <ele>1405.1</ele>
        <time>2018-02-23T12:54:20.000Z</time>
      </trkpt>
      <trkpt lat="45.0736" lon="5.9817">
        <ele>1405.9</ele>
        <time>2018-02-23T12:54:23.000Z</time>
      </trkpt>
      <trkpt lat="45.07359" lon="5.98165">
        <ele>1406.5</ele>
        <time>2018-02-23T12:54:26.000Z</time>
      </trkpt>
      <trkpt lat="45.07358" lon="5.9816">
        <ele>1407</ele>
        <time>2018-02-23T12:54:29.000Z</time>
      </trkpt>
      <trkpt lat="45.07357" lon="5.98157">
        <ele>1407.2</ele>
        <time>2018-02-23T12:54:31.000Z</time>
      </trkpt>
      <trkpt lat="45.07355" lon="5.98154">
        <ele>1407.4</ele>
        <time>2018-02-23T12:54:33.000Z</time>
      </trkpt>
      <trkpt lat="45.07353" lon="5.9815">
        <ele>1407.6</ele>
        <time>2018-02-23T12:54:36.000Z</time>
      </trkpt>
      <trkpt lat="45.07353" lon="5.98145">
        <ele>1407.9</ele>
        <time>2018-02-23T12:54:39.000Z</time>
      </trkpt>
      <trkpt lat="45.07352" lon="5.9814">
        <ele>1408.2</ele>
        <time>2018-02-23T12:54:42.000Z</time>
      </trkpt>
      <trkpt lat="45.07351" lon="5.98134">
        <ele>1408.4</ele>
        <time>2018-02-23T12:54:45.000Z</time>
      </trkpt>
      <trkpt lat="45.07349" lon="5.9813">
        <ele>1408.7</ele>
        <time>2018-02-23T12:54:48.000Z</time>
      </trkpt>
      <trkpt lat="45.07348" lon="5.98125">
        <ele>1409</ele>
        <time>2018-02-23T12:54:51.000Z</time>
      </trkpt>
      <trkpt lat="45.07347" lon="5.9812">
        <ele>1409.3</ele>
        <time>2018-02-23T12:54:56.000Z</time>
      </trkpt>
      <trkpt lat="45.07345" lon="5.98116">
        <ele>1409.6</ele>
        <time>2018-02-23T12:54:59.000Z</time>
      </trkpt>
      <trkpt lat="45.07345" lon="5.98111">
        <ele>1409.9</ele>
        <time>2018-02-23T12:55:02.000Z</time>
      </trkpt>
      <trkpt lat="45.07344" lon="5.98106">
        <ele>1410.2</ele>
        <time>2018-02-23T12:55:05.000Z</time>
      </trkpt>
      <trkpt lat="45.07344" lon="5.98101">
        <ele>1410.4</ele>
        <time>2018-02-23T12:55:09.000Z</time>
      </trkpt>
      <trkpt lat="45.07341" lon="5.98101">
        <ele>1411.1</ele>
        <time>2018-02-23T12:55:11.000Z</time>
      </trkpt>
      <trkpt lat="45.07338" lon="5.98099">
        <ele>1412.3</ele>
        <time>2018-02-23T12:55:15.000Z</time>
      </trkpt>
      <trkpt lat="45.07335" lon="5.98099">
        <ele>1413.7</ele>
        <time>2018-02-23T12:55:20.000Z</time>
      </trkpt>
      <trkpt lat="45.07337" lon="5.98096">
        <ele>1415</ele>
        <time>2018-02-23T12:56:44.000Z</time>
      </trkpt>
    </trkseg>
  </trk>
</gpx>